GFSSE_prec_precacc24_018.txt.gz
Total_Precipitation_Accumulation
0.00 0.00 0.02 0.02 0.02 0.01 0.00 0.00 0.00 0.00 0.00 0.00 0.00 0.01 0.02 0.05 0.03 0.01 0.00 0.00 0.00 0.00 0.00 0.00 0.00 0.02 0.11 0.22 0.20 0.03 0.01 0.00 0.00 0.00 0.00 0.00 0.00 0.00 0.00 0.01 0.01 0.00 0.00
0.00 0.00 0.02 0.02 0.01 0.00 0.00 0.00 0.00 0.00 0.00 0.00 0.00 0.02 0.04 0.07 0.03 0.01 0.01 0.00 0.00 0.00 0.00 0.00 0.00 0.00 0.00 0.00 0.01 0.01 0.00 0.00 0.00 0.00 0.00 0.00 0.00 0.00 0.00 0.01 0.01 0.00 0.01
0.00 0.00 0.01 0.02 0.01 0.00 0.00 0.00 0.00 0.00 0.00 0.00 0.01 0.00 0.00 0.00 0.00 0.00 0.00 0.00 0.00 0.00 0.00 0.00 0.00 0.00 0.00 0.00 0.00 0.00 0.00 0.00 0.00 0.00 0.00 0.00 0.00 0.00 0.00 0.00 0.02 0.00 0.00
0.00 0.00 0.00 0.02 0.01 0.00 0.00 0.00 0.00 0.00 0.00 0.00 0.00 0.00 0.00 0.00 0.02 0.00 0.01 0.00 0.00 0.00 0.00 0.00 0.00 0.00 0.00 0.00 0.00 0.00 0.00 0.00 0.00 0.00 0.00 0.00 0.00 0.00 0.00 0.00 0.01 0.00 0.00
0.00 0.00 0.00 0.02 0.01 0.01 0.00 0.00 0.00 0.00 0.00 0.00 0.00 0.00 0.01 0.01 0.01 0.00 0.00 0.00 0.00 0.00 0.00 0.00 0.00 0.00 0.00 0.00 0.00 0.00 0.01 0.01 0.00 0.00 0.00 0.00 0.00 0.00 0.00 0.00 0.02 0.02 0.02
0.00 0.00 0.00 0.02 0.01 0.01 0.00 0.00 0.00 0.00 0.00 0.00 0.00 0.00 0.00 0.03 0.04 0.04 0.00 0.00 0.00 0.00 0.00 0.00 0.00 0.00 0.00 0.00 0.00 0.00 0.01 0.01 0.00 0.00 0.00 0.00 0.00 0.00 0.00 0.00 0.00 0.00 0.00
0.00 0.00 0.00 0.02 0.02 0.01 0.00 0.00 0.00 0.00 0.00 0.00 0.00 0.00 0.01 0.03 0.05 0.08 0.03 0.00 0.00 0.00 0.00 0.00 0.00 0.00 0.00 0.00 0.00 0.00 0.00 0.00 0.00 0.00 0.00 0.00 0.00 0.00 0.00 0.00 0.01 0.00 0.01
0.00 0.00 0.00 0.02 0.03 0.02 0.00 0.00 0.00 0.00 0.00 0.00 0.00 0.00 0.00 0.00 0.01 0.07 0.04 0.00 0.00 0.00 0.00 0.00 0.00 0.00 0.01 0.01 0.00 0.00 0.00 0.00 0.00 0.00 0.00 0.00 0.00 0.00 0.00 0.02 0.02 0.03 0.03
0.00 0.00 0.00 0.01 0.02 0.02 0.01 0.00 0.00 0.00 0.00 0.00 0.00 0.00 0.00 0.00 0.00 0.05 0.03 0.00 0.00 0.00 0.00 0.00 0.01 0.01 0.01 0.00 0.00 0.00 0.00 0.00 0.00 0.00 0.00 0.00 0.00 0.00 0.01 0.02 0.05 0.06 0.07
0.00 0.00 0.00 0.00 0.01 0.02 0.02 0.00 0.00 0.00 0.00 0.00 0.00 0.00 0.00 0.00 0.00 0.01 0.00 0.00 0.00 0.00 0.00 0.00 0.01 0.01 0.01 0.00 0.00 0.00 0.00 0.00 0.00 0.00 0.00 0.00 0.00 0.00 0.02 0.05 0.05 0.06 0.09
0.00 0.00 0.00 0.00 0.01 0.02 0.01 0.00 0.00 0.00 0.00 0.00 0.00 0.00 0.00 0.00 0.00 0.00 0.00 0.00 0.00 0.00 0.00 0.00 0.01 0.02 0.01 0.00 0.00 0.00 0.00 0.00 0.00 0.00 0.00 0.00 0.00 0.00 0.01 0.02 0.02 0.04 0.06
0.00 0.00 0.00 0.00 0.00 0.01 0.01 0.00 0.00 0.00 0.00 0.00 0.00 0.00 0.00 0.00 0.00 0.00 0.00 0.00 0.00 0.00 0.00 0.00 0.01 0.01 0.00 0.00 0.00 0.00 0.00 0.00 0.00 0.00 0.00 0.00 0.00 0.00 0.00 0.01 0.03 0.04 0.04
0.00 0.00 0.00 0.00 0.00 0.01 0.01 0.00 0.00 0.00 0.00 0.00 0.00 0.00 0.00 0.00 0.00 0.00 0.00 0.00 0.00 0.00 0.00 0.00 0.00 0.00 0.00 0.00 0.00 0.00 0.00 0.00 0.00 0.00 0.00 0.00 0.00 0.00 0.00 0.00 0.01 0.01 0.01
0.00 0.00 0.00 0.00 0.00 0.00 0.01 0.01 0.00 0.00 0.00 0.00 0.00 0.00 0.00 0.00 0.00 0.00 0.00 0.00 0.00 0.00 0.00 0.00 0.00 0.00 0.00 0.00 0.00 0.00 0.00 0.00 0.00 0.00 0.00 0.00 0.00 0.00 0.00 0.00 0.00 0.00 0.00
0.00 0.00 0.00 0.00 0.00 0.00 0.02 0.01 0.00 0.00 0.00 0.00 0.00 0.00 0.00 0.00 0.00 0.00 0.00 0.00 0.00 0.00 0.00 0.00 0.00 0.00 0.00 0.00 0.00 0.00 0.00 0.00 0.00 0.00 0.00 0.00 0.00 0.00 0.00 0.00 0.00 0.00 0.00
0.00 0.00 0.00 0.00 0.00 0.00 0.01 0.01 0.00 0.00 0.00 0.00 0.00 0.00 0.00 0.00 0.00 0.00 0.00 0.00 0.00 0.00 0.00 0.00 0.00 0.00 0.00 0.00 0.00 0.00 0.00 0.00 0.00 0.00 0.00 0.00 0.00 0.00 0.00 0.00 0.00 0.00 0.00
0.00 0.00 0.00 0.00 0.00 0.00 0.00 0.02 0.06 0.02 0.00 0.00 0.00 0.00 0.00 0.00 0.00 0.00 0.00 0.00 0.00 0.00 0.00 0.00 0.00 0.00 0.00 0.00 0.00 0.00 0.00 0.00 0.00 0.00 0.00 0.00 0.00 0.00 0.00 0.00 0.00 0.00 0.00
0.00 0.00 0.00 0.00 0.00 0.00 0.01 0.07 0.15 0.05 0.04 0.01 0.00 0.00 0.00 0.00 0.00 0.00 0.00 0.00 0.00 0.00 0.00 0.00 0.00 0.00 0.00 0.00 0.00 0.00 0.00 0.00 0.00 0.00 0.00 0.00 0.00 0.00 0.00 0.00 0.00 0.00 0.00
0.00 0.00 0.00 0.00 0.00 0.00 0.02 0.06 0.11 0.04 0.04 0.02 0.01 0.00 0.00 0.00 0.00 0.00 0.00 0.00 0.00 0.00 0.00 0.00 0.00 0.00 0.00 0.00 0.00 0.00 0.00 0.00 0.00 0.00 0.00 0.00 0.00 0.00 0.00 0.00 0.00 0.00 0.00
0.00 0.00 0.00 0.00 0.00 0.00 0.03 0.03 0.06 0.03 0.03 0.02 0.00 0.00 0.00 0.00 0.00 0.00 0.00 0.00 0.00 0.00 0.00 0.00 0.00 0.00 0.00 0.00 0.00 0.00 0.00 0.00 0.00 0.00 0.00 0.00 0.00 0.00 0.00 0.00 0.00 0.00 0.00
0.00 0.00 0.00 0.00 0.00 0.02 0.06 0.04 0.05 0.03 0.03 0.01 0.01 0.00 0.00 0.00 0.00 0.00 0.00 0.00 0.00 0.00 0.00 0.00 0.00 0.00 0.00 0.00 0.00 0.00 0.00 0.00 0.00 0.00 0.00 0.00 0.00 0.00 0.00 0.00 0.00 0.00 0.00
0.00 0.00 0.00 0.00 0.00 0.03 0.07 0.05 0.08 0.05 0.02 0.01 0.01 0.00 0.00 0.00 0.00 0.00 0.00 0.00 0.00 0.00 0.00 0.00 0.00 0.00 0.00 0.00 0.00 0.00 0.00 0.00 0.00 0.00 0.00 0.00 0.00 0.00 0.00 0.00 0.00 0.00 0.00
0.00 0.00 0.00 0.00 0.01 0.04 0.05 0.05 0.03 0.02 0.00 0.01 0.00 0.00 0.00 0.00 0.00 0.00 0.00 0.00 0.00 0.00 0.00 0.00 0.00 0.00 0.00 0.00 0.00 0.00 0.00 0.00 0.00 0.00 0.00 0.00 0.00 0.00 0.00 0.00 0.00 0.00 0.00
0.00 0.00 0.00 0.00 0.02 0.02 0.03 0.03 0.02 0.01 0.00 0.01 0.01 0.03 0.01 0.00 0.00 0.00 0.00 0.00 0.00 0.00 0.00 0.00 0.00 0.00 0.00 0.00 0.00 0.00 0.00 0.00 0.00 0.00 0.00 0.00 0.00 0.00 0.00 0.00 0.00 0.00 0.00
0.00 0.00 0.00 0.00 0.01 0.01 0.02 0.03 0.02 0.01 0.00 0.00 0.01 0.03 0.00 0.00 0.00 0.00 0.00 0.00 0.00 0.00 0.00 0.00 0.00 0.00 0.00 0.00 0.00 0.00 0.00 0.00 0.00 0.00 0.00 0.00 0.00 0.00 0.00 0.00 0.00 0.00 0.00
0.00 0.00 0.00 0.00 0.00 0.00 0.01 0.01 0.00 0.00 0.00 0.00 0.02 0.02 0.01 0.00 0.00 0.00 0.00 0.00 0.00 0.00 0.00 0.00 0.00 0.00 0.00 0.00 0.00 0.00 0.00 0.00 0.00 0.00 0.00 0.00 0.00 0.00 0.00 0.00 0.00 0.00 0.00

GFSSE_prec_precacc24_021.txt.gz
Total_Precipitation_Accumulation
0.00 0.00 0.02 0.02 0.02 0.01 0.00 0.00 0.00 0.00 0.00 0.00 0.00 0.01 0.03 0.05 0.03 0.01 0.00 0.00 0.00 0.00 0.00 0.00 0.00 0.03 0.15 0.27 0.22 0.04 0.01 0.00 0.00 0.00 0.00 0.00 0.00 0.00 0.00 0.01 0.01 0.00 0.00
0.00 0.00 0.02 0.02 0.01 0.00 0.00 0.00 0.00 0.00 0.00 0.00 0.01 0.03 0.04 0.07 0.03 0.01 0.01 0.00 0.00 0.00 0.00 0.00 0.00 0.00 0.00 0.00 0.01 0.01 0.00 0.00 0.00 0.00 0.00 0.00 0.00 0.00 0.00 0.01 0.01 0.00 0.01
0.00 0.00 0.01 0.02 0.01 0.00 0.00 0.00 0.00 0.00 0.00 0.00 0.01 0.01 0.02 0.01 0.00 0.00 0.00 0.00 0.00 0.00 0.00 0.00 0.00 0.00 0.00 0.00 0.00 0.00 0.00 0.00 0.00 0.00 0.00 0.00 0.00 0.00 0.00 0.00 0.02 0.00 0.00
0.00 0.00 0.00 0.02 0.01 0.00 0.00 0.00 0.00 0.00 0.00 0.00 0.00 0.00 0.00 0.00 0.02 0.00 0.01 0.00 0.00 0.00 0.00 0.00 0.00 0.00 0.00 0.00 0.00 0.00 0.00 0.00 0.00 0.00 0.00 0.00 0.00 0.00 0.00 0.00 0.01 0.00 0.00
0.00 0.00 0.00 0.02 0.01 0.01 0.00 0.00 0.00 0.00 0.00 0.00 0.00 0.00 0.01 0.01 0.01 0.00 0.00 0.00 0.00 0.00 0.00 0.00 0.00 0.00 0.00 0.00 0.00 0.00 0.01 0.01 0.00 0.00 0.00 0.00 0.00 0.00 0.00 0.00 0.02 0.02 0.02
0.00 0.00 0.00 0.02 0.01 0.01 0.00 0.00 0.00 0.00 0.00 0.00 0.00 0.00 0.00 0.03 0.04 0.04 0.00 0.00 0.00 0.00 0.00 0.00 0.00 0.00 0.00 0.00 0.00 0.00 0.01 0.01 0.00 0.00 0.00 0.00 0.00 0.00 0.00 0.00 0.00 0.00 0.00
0.00 0.00 0.00 0.02 0.02 0.01 0.00 0.00 0.00 0.00 0.00 0.00 0.00 0.00 0.01 0.03 0.05 0.08 0.03 0.00 0.00 0.00 0.00 0.00 0.00 0.00 0.00 0.00 0.00 0.00 0.00 0.00 0.00 0.00 0.00 0.00 0.00 0.00 0.00 0.00 0.01 0.02 0.03
0.00 0.00 0.00 0.02 0.03 0.02 0.00 0.00 0.00 0.00 0.00 0.00 0.00 0.00 0.00 0.00 0.01 0.07 0.04 0.00 0.00 0.00 0.00 0.00 0.00 0.00 0.01 0.01 0.00 0.00 0.00 0.00 0.00 0.00 0.00 0.00 0.00 0.00 0.00 0.02 0.03 0.03 0.03
0.00 0.00 0.00 0.01 0.02 0.02 0.01 0.00 0.00 0.00 0.00 0.00 0.00 0.00 0.00 0.00 0.00 0.05 0.03 0.00 0.00 0.00 0.00 0.00 0.01 0.01 0.01 0.00 0.00 0.00 0.00 0.00 0.00 0.00 0.00 0.00 0.00 0.00 0.01 0.02 0.05 0.06 0.07
0.00 0.00 0.00 0.00 0.01 0.02 0.02 0.00 0.00 0.00 0.00 0.00 0.00 0.00 0.00 0.00 0.00 0.01 0.00 0.00 0.00 0.00 0.00 0.00 0.01 0.01 0.01 0.00 0.00 0.00 0.00 0.00 0.00 0.00 0.00 0.00 0.00 0.00 0.02 0.05 0.05 0.06 0.09
0.00 0.00 0.00 0.00 0.01 0.02 0.01 0.00 0.00 0.00 0.00 0.00 0.00 0.00 0.00 0.00 0.00 0.00 0.00 0.00 0.00 0.00 0.00 0.00 0.01 0.02 0.01 0.00 0.00 0.00 0.00 0.00 0.00 0.00 0.00 0.00 0.00 0.00 0.01 0.02 0.02 0.04 0.06
0.00 0.00 0.00 0.00 0.00 0.01 0.01 0.00 0.00 0.00 0.00 0.00 0.00 0.00 0.00 0.00 0.00 0.00 0.00 0.00 0.00 0.00 0.00 0.00 0.01 0.01 0.00 0.00 0.00 0.00 0.00 0.00 0.00 0.00 0.00 0.00 0.00 0.00 0.01 0.02 0.03 0.04 0.04
0.00 0.00 0.00 0.00 0.00 0.01 0.01 0.00 0.00 0.00 0.00 0.00 0.00 0.00 0.00 0.00 0.00 0.00 0.00 0.00 0.00 0.00 0.00 0.00 0.00 0.00 0.00 0.00 0.00 0.00 0.00 0.00 0.00 0.00 0.00 0.00 0.00 0.00 0.00 0.01 0.01 0.01 0.01
0.00 0.00 0.00 0.00 0.00 0.00 0.01 0.01 0.00 0.00 0.00 0.00 0.00 0.00 0.00 0.00 0.00 0.00 0.00 0.00 0.00 0.00 0.00 0.00 0.00 0.00 0.00 0.00 0.00 0.00 0.00 0.00 0.00 0.00 0.00 0.00 0.00 0.00 0.00 0.00 0.00 0.00 0.00
0.00 0.00 0.00 0.00 0.00 0.00 0.02 0.01 0.00 0.00 0.00 0.00 0.00 0.00 0.00 0.00 0.00 0.00 0.00 0.00 0.00 0.00 0.00 0.00 0.00 0.00 0.00 0.00 0.00 0.00 0.00 0.00 0.00 0.00 0.00 0.00 0.00 0.00 0.00 0.00 0.00 0.00 0.00
0.00 0.00 0.00 0.00 0.00 0.00 0.01 0.01 0.00 0.00 0.00 0.00 0.00 0.00 0.00 0.00 0.00 0.00 0.00 0.00 0.00 0.00 0.00 0.00 0.00 0.00 0.00 0.00 0.00 0.00 0.00 0.00 0.00 0.00 0.00 0.00 0.00 0.00 0.00 0.00 0.00 0.00 0.00
0.00 0.00 0.00 0.00 0.00 0.00 0.00 0.02 0.06 0.02 0.00 0.00 0.00 0.00 0.00 0.00 0.00 0.00 0.00 0.00 0.00 0.00 0.00 0.00 0.00 0.00 0.00 0.00 0.00 0.00 0.00 0.00 0.00 0.00 0.00 0.00 0.00 0.00 0.00 0.00 0.00 0.00 0.00
0.00 0.00 0.00 0.00 0.00 0.01 0.01 0.08 0.15 0.06 0.04 0.01 0.00 0.00 0.00 0.00 0.00 0.00 0.00 0.00 0.00 0.00 0.00 0.00 0.00 0.00 0.00 0.00 0.00 0.00 0.00 0.00 0.00 0.00 0.00 0.00 0.00 0.00 0.00 0.00 0.00 0.00 0.00
0.00 0.00 0.00 0.00 0.00 0.00 0.04 0.07 0.11 0.05 0.04 0.02 0.01 0.00 0.00 0.00 0.00 0.00 0.00 0.00 0.00 0.00 0.00 0.00 0.00 0.00 0.00 0.00 0.00 0.00 0.00 0.00 0.00 0.00 0.00 0.00 0.00 0.00 0.00 0.00 0.00 0.00 0.00
0.00 0.00 0.00 0.00 0.00 0.00 0.05 0.05 0.06 0.04 0.03 0.02 0.01 0.00 0.00 0.00 0.00 0.00 0.00 0.00 0.00 0.00 0.00 0.00 0.00 0.00 0.00 0.00 0.00 0.00 0.00 0.00 0.00 0.00 0.00 0.00 0.00 0.00 0.00 0.00 0.00 0.00 0.00
0.00 0.00 0.00 0.00 0.00 0.02 0.06 0.05 0.05 0.03 0.03 0.02 0.01 0.00 0.00 0.00 0.00 0.00 0.00 0.00 0.00 0.00 0.00 0.00 0.00 0.00 0.00 0.00 0.00 0.00 0.00 0.00 0.00 0.00 0.00 0.00 0.00 0.00 0.00 0.00 0.00 0.00 0.00
0.00 0.00 0.00 0.00 0.00 0.03 0.07 0.07 0.11 0.11 0.06 0.02 0.01 0.00 0.00 0.00 0.00 0.00 0.00 0.00 0.00 0.00 0.00 0.00 0.00 0.00 0.00 0.00 0.00 0.00 0.00 0.00 0.00 0.00 0.00 0.00 0.00 0.00 0.00 0.00 0.00 0.00 0.00
0.00 0.00 0.00 0.00 0.01 0.04 0.06 0.08 0.06 0.08 0.04 0.02 0.00 0.00 0.01 0.00 0.00 0.00 0.00 0.00 0.00 0.00 0.00 0.00 0.00 0.00 0.00 0.00 0.00 0.00 0.00 0.00 0.00 0.00 0.00 0.00 0.00 0.00 0.00 0.00 0.00 0.00 0.00
0.00 0.00 0.00 0.00 0.02 0.02 0.03 0.03 0.02 0.02 0.03 0.02 0.02 0.05 0.02 0.00 0.00 0.00 0.00 0.00 0.00 0.00 0.00 0.00 0.00 0.00 0.00 0.00 0.00 0.00 0.00 0.00 0.00 0.00 0.00 0.00 0.00 0.00 0.00 0.00 0.00 0.00 0.00
0.00 0.00 0.00 0.00 0.01 0.01 0.02 0.03 0.04 0.01 0.01 0.01 0.04 0.04 0.01 0.00 0.00 0.00 0.00 0.00 0.00 0.00 0.00 0.00 0.00 0.00 0.00 0.00 0.00 0.00 0.00 0.00 0.00 0.00 0.00 0.00 0.00 0.00 0.00 0.00 0.00 0.00 0.00
0.00 0.00 0.00 0.00 0.00 0.00 0.01 0.01 0.01 0.01 0.00 0.01 0.04 0.03 0.02 0.00 0.00 0.00 0.00 0.00 0.00 0.00 0.00 0.00 0.00 0.00 0.00 0.00 0.00 0.00 0.00 0.00 0.00 0.00 0.00 0.00 0.00 0.00 0.00 0.00 0.00 0.00 0.00

GFSSE_prec_precacc24_027.txt.gz
Total_Precipitation_Accumulation
0.00 0.00 0.03 0.01 0.01 0.00 0.00 0.00 0.00 0.00 0.01 0.01 0.01 0.02 0.03 0.05 0.03 0.01 0.00 0.00 0.00 0.00 0.00 0.01 0.03 0.10 0.21 0.28 0.21 0.04 0.01 0.00 0.00 0.00 0.00 0.00 0.00 0.00 0.00 0.01 0.01 0.01 0.01
0.00 0.00 0.02 0.02 0.01 0.00 0.00 0.00 0.00 0.00 0.01 0.01 0.02 0.03 0.05 0.07 0.03 0.01 0.01 0.00 0.00 0.00 0.00 0.01 0.02 0.02 0.01 0.01 0.01 0.01 0.00 0.00 0.00 0.00 0.00 0.00 0.00 0.00 0.00 0.00 0.01 0.00 0.00
0.00 0.00 0.01 0.02 0.01 0.00 0.00 0.00 0.00 0.00 0.00 0.01 0.02 0.02 0.02 0.01 0.00 0.00 0.00 0.00 0.00 0.00 0.00 0.00 0.00 0.00 0.00 0.00 0.00 0.00 0.00 0.00 0.00 0.00 0.00 0.00 0.00 0.00 0.00 0.00 0.02 0.00 0.00
0.00 0.00 0.00 0.02 0.01 0.00 0.00 0.00 0.00 0.00 0.00 0.00 0.01 0.01 0.01 0.00 0.01 0.00 0.01 0.00 0.00 0.00 0.00 0.00 0.00 0.00 0.00 0.00 0.00 0.00 0.00 0.00 0.00 0.00 0.00 0.00 0.00 0.00 0.00 0.00 0.01 0.00 0.00
0.00 0.00 0.00 0.03 0.01 0.00 0.00 0.00 0.00 0.00 0.00 0.00 0.00 0.01 0.00 0.01 0.00 0.00 0.00 0.00 0.00 0.00 0.00 0.00 0.00 0.00 0.00 0.00 0.00 0.00 0.01 0.01 0.00 0.00 0.00 0.00 0.00 0.00 0.00 0.00 0.01 0.02 0.02
0.00 0.00 0.00 0.02 0.01 0.01 0.00 0.00 0.00 0.00 0.00 0.00 0.00 0.00 0.00 0.02 0.03 0.03 0.00 0.00 0.00 0.00 0.00 0.00 0.00 0.00 0.00 0.00 0.00 0.00 0.01 0.01 0.00 0.00 0.00 0.00 0.00 0.02 0.00 0.00 0.01 0.03 0.04
0.00 0.00 0.00 0.02 0.02 0.01 0.00 0.00 0.00 0.00 0.00 0.00 0.00 0.00 0.01 0.03 0.04 0.06 0.02 0.00 0.00 0.00 0.00 0.00 0.00 0.00 0.00 0.00 0.00 0.00 0.00 0.00 0.00 0.00 0.00 0.00 0.01 0.01 0.00 0.01 0.04 0.05 0.06
0.00 0.00 0.00 0.02 0.03 0.02 0.00 0.00 0.00 0.00 0.00 0.00 0.00 0.00 0.00 0.00 0.01 0.06 0.03 0.00 0.00 0.00 0.00 0.00 0.00 0.00 0.01 0.01 0.00 0.00 0.00 0.00 0.00 0.00 0.00 0.00 0.00 0.00 0.00 0.02 0.03 0.03 0.04
0.00 0.00 0.00 0.01 0.02 0.02 0.01 0.00 0.00 0.00 0.00 0.00 0.00 0.00 0.00 0.00 0.00 0.05 0.02 0.00 0.00 0.00 0.00 0.01 0.02 0.01 0.01 0.00 0.00 0.00 0.00 0.00 0.00 0.00 0.00 0.00 0.00 0.00 0.01 0.02 0.05 0.07 0.08
0.02 0.01 0.01 0.00 0.01 0.02 0.02 0.00 0.00 0.00 0.00 0.00 0.00 0.00 0.00 0.00 0.00 0.01 0.00 0.00 0.00 0.00 0.01 0.00 0.01 0.01 0.01 0.00 0.00 0.00 0.00 0.00 0.00 0.00 0.00 0.00 0.00 0.00 0.02 0.05 0.06 0.08 0.10
0.01 0.04 0.03 0.00 0.01 0.02 0.01 0.00 0.00 0.00 0.00 0.00 0.00 0.00 0.00 0.00 0.00 0.00 0.00 0.00 0.00 0.00 0.00 0.00 0.01 0.02 0.00 0.00 0.00 0.00 0.00 0.00 0.00 0.00 0.00 0.00 0.00 0.01 0.03 0.03 0.04 0.05 0.06
0.02 0.04 0.03 0.00 0.01 0.01 0.01 0.00 0.00 0.00 0.00 0.00 0.00 0.00 0.00 0.00 0.00 0.00 0.00 0.00 0.00 0.00 0.00 0.00 0.00 0.00 0.00 0.00 0.00 0.00 0.00 0.00 0.00 0.00 0.00 0.00 0.00 0.01 0.02 0.02 0.02 0.03 0.03
0.00 0.00 0.00 0.00 0.01 0.01 0.01 0.00 0.00 0.00 0.00 0.00 0.00 0.00 0.00 0.00 0.00 0.00 0.00 0.00 0.00 0.00 0.00 0.00 0.00 0.00 0.00 0.00 0.00 0.00 0.00 0.00 0.00 0.00 0.00 0.00 0.00 0.01 0.00 0.00 0.00 0.00 0.00
0.00 0.00 0.00 0.00 0.01 0.02 0.02 0.01 0.00 0.00 0.00 0.00 0.00 0.00 0.00 0.00 0.00 0.00 0.00 0.00 0.00 0.00 0.00 0.00 0.00 0.00 0.00 0.00 0.00 0.00 0.00 0.00 0.00 0.00 0.00 0.00 0.00 0.00 0.00 0.00 0.00 0.00 0.00
0.00 0.00 0.00 0.00 0.00 0.02 0.03 0.02 0.00 0.00 0.00 0.00 0.00 0.00 0.00 0.00 0.00 0.00 0.00 0.00 0.00 0.00 0.00 0.00 0.00 0.00 0.00 0.00 0.00 0.00 0.00 0.00 0.00 0.00 0.00 0.00 0.00 0.00 0.00 0.00 0.00 0.00 0.00
0.01 0.00 0.01 0.00 0.00 0.00 0.01 0.01 0.00 0.00 0.00 0.00 0.00 0.00 0.00 0.00 0.00 0.00 0.00 0.00 0.00 0.00 0.00 0.00 0.00 0.00 0.00 0.00 0.00 0.00 0.00 0.00 0.00 0.00 0.00 0.00 0.00 0.00 0.00 0.00 0.00 0.00 0.00
0.00 0.00 0.01 0.03 0.03 0.00 0.00 0.02 0.06 0.03 0.01 0.00 0.00 0.00 0.00 0.00 0.00 0.00 0.00 0.00 0.00 0.00 0.00 0.00 0.00 0.00 0.00 0.00 0.00 0.00 0.00 0.00 0.00 0.00 0.00 0.00 0.00 0.00 0.00 0.00 0.00 0.00 0.00
0.00 0.00 0.00 0.04 0.05 0.03 0.02 0.13 0.16 0.08 0.05 0.01 0.00 0.00 0.00 0.00 0.00 0.00 0.00 0.00 0.00 0.00 0.00 0.00 0.00 0.00 0.00 0.00 0.00 0.00 0.00 0.00 0.00 0.00 0.00 0.00 0.00 0.00 0.00 0.00 0.00 0.00 0.00
0.00 0.00 0.00 0.01 0.01 0.02 0.11 0.16 0.16 0.09 0.05 0.03 0.01 0.00 0.00 0.00 0.00 0.00 0.00 0.00 0.00 0.00 0.00 0.00 0.00 0.00 0.00 0.00 0.00 0.00 0.00 0.00 0.00 0.00 0.00 0.00 0.00 0.00 0.00 0.00 0.00 0.00 0.00
0.00 0.00 0.00 0.00 0.01 0.07 0.16 0.17 0.16 0.09 0.04 0.03 0.01 0.00 0.00 0.00 0.00 0.00 0.00 0.00 0.00 0.00 0.00 0.00 0.00 0.00 0.00 0.00 0.00 0.00 0.00 0.00 0.00 0.00 0.00 0.00 0.00 0.00 0.00 0.00 0.00 0.00 0.00
0.00 0.00 0.00 0.00 0.00 0.07 0.12 0.09 0.10 0.05 0.05 0.04 0.02 0.01 0.00 0.00 0.00 0.00 0.00 0.00 0.00 0.00 0.00 0.00 0.00 0.00 0.00 0.00 0.00 0.00 0.00 0.00 0.00 0.00 0.00 0.00 0.00 0.00 0.00 0.00 0.00 0.00 0.00
0.00 0.00 0.00 0.00 0.00 0.05 0.09 0.09 0.17 0.17 0.12 0.08 0.10 0.03 0.01 0.01 0.00 0.00 0.00 0.00 0.00 0.00 0.00 0.00 0.00 0.00 0.00 0.00 0.00 0.00 0.00 0.00 0.00 0.00 0.00 0.00 0.00 0.00 0.00 0.00 0.00 0.00 0.00
0.00 0.00 0.00 0.00 0.01 0.05 0.07 0.13 0.18 0.20 0.14 0.09 0.03 0.01 0.02 0.00 0.00 0.00 0.00 0.00 0.00 0.00 0.00 0.00 0.00 0.00 0.00 0.00 0.00 0.00 0.00 0.00 0.00 0.00 0.00 0.00 0.00 0.00 0.00 0.00 0.00 0.00 0.00
0.00 0.00 0.00 0.00 0.02 0.03 0.06 0.05 0.04 0.02 0.03 0.03 0.04 0.14 0.16 0.08 0.04 0.01 0.00 0.00 0.00 0.00 0.00 0.00 0.00 0.00 0.00 0.00 0.00 0.00 0.00 0.00 0.00 0.00 0.00 0.00 0.00 0.00 0.00 0.00 0.00 0.00 0.00
0.00 0.00 0.00 0.00 0.01 0.01 0.04 0.05 0.05 0.02 0.01 0.02 0.08 0.14 0.11 0.08 0.05 0.03 0.03 0.01 0.00 0.00 0.00 0.00 0.00 0.00 0.00 0.00 0.00 0.00 0.00 0.00 0.00 0.00 0.00 0.00 0.00 0.00 0.00 0.00 0.00 0.00 0.00
0.00 0.00 0.00 0.00 0.00 0.00 0.01 0.02 0.02 0.04 0.01 0.04 0.06 0.07 0.08 0.05 0.04 0.04 0.04 0.04 0.01 0.01 0.01 0.00 0.00 0.00 0.00 0.00 0.00 0.00 0.00 0.00 0.00 0.00 0.00 0.00 0.00 0.00 0.00 0.00 0.00 0.00 0.00

GFSSE_prec_precacc24_030.txt.gz
Total_Precipitation_Accumulation
0.00 0.01 0.03 0.01 0.01 0.01 0.00 0.00 0.01 0.01 0.02 0.02 0.02 0.02 0.03 0.05 0.02 0.01 0.00 0.00 0.00 0.00 0.00 0.01 0.04 0.12 0.19 0.26 0.20 0.03 0.01 0.00 0.00 0.00 0.00 0.00 0.00 0.00 0.00 0.00 0.01 0.01 0.01
0.00 0.01 0.02 0.01 0.01 0.01 0.01 0.01 0.01 0.01 0.01 0.02 0.02 0.03 0.04 0.07 0.03 0.01 0.01 0.00 0.00 0.00 0.01 0.05 0.09 0.07 0.03 0.01 0.01 0.01 0.00 0.00 0.00 0.00 0.00 0.00 0.00 0.00 0.00 0.00 0.01 0.00 0.00
0.00 0.00 0.01 0.02 0.01 0.01 0.00 0.01 0.01 0.01 0.01 0.02 0.03 0.03 0.02 0.01 0.00 0.00 0.00 0.00 0.00 0.00 0.01 0.01 0.01 0.00 0.00 0.00 0.00 0.00 0.00 0.00 0.00 0.00 0.00 0.00 0.00 0.00 0.00 0.00 0.01 0.00 0.00
0.00 0.00 0.00 0.02 0.01 0.00 0.00 0.00 0.00 0.00 0.01 0.01 0.02 0.01 0.01 0.00 0.01 0.00 0.00 0.00 0.00 0.00 0.00 0.00 0.00 0.00 0.00 0.00 0.00 0.00 0.00 0.00 0.00 0.00 0.00 0.00 0.00 0.00 0.00 0.00 0.00 0.00 0.00
0.00 0.00 0.00 0.02 0.02 0.00 0.00 0.00 0.00 0.00 0.01 0.02 0.01 0.01 0.00 0.00 0.00 0.00 0.00 0.00 0.00 0.00 0.00 0.00 0.00 0.00 0.00 0.00 0.00 0.00 0.01 0.01 0.00 0.00 0.00 0.00 0.00 0.00 0.00 0.00 0.00 0.01 0.01
0.00 0.00 0.00 0.02 0.01 0.00 0.00 0.00 0.00 0.00 0.00 0.01 0.01 0.00 0.00 0.01 0.02 0.02 0.00 0.00 0.00 0.00 0.00 0.00 0.00 0.00 0.00 0.00 0.00 0.00 0.01 0.01 0.00 0.00 0.00 0.00 0.00 0.03 0.00 0.00 0.01 0.05 0.07
0.00 0.00 0.00 0.02 0.02 0.01 0.00 0.00 0.00 0.00 0.00 0.00 0.00 0.00 0.00 0.02 0.03 0.05 0.01 0.00 0.00 0.00 0.00 0.00 0.00 0.00 0.00 0.00 0.00 0.00 0.00 0.00 0.00 0.00 0.00 0.00 0.01 0.02 0.00 0.01 0.04 0.06 0.06
0.00 0.00 0.00 0.02 0.03 0.01 0.00 0.00 0.00 0.00 0.00 0.00 0.00 0.00 0.00 0.00 0.01 0.04 0.02 0.00 0.00 0.00 0.00 0.00 0.00 0.00 0.01 0.01 0.00 0.00 0.00 0.00 0.00 0.00 0.00 0.00 0.00 0.00 0.00 0.02 0.03 0.04 0.04
0.00 0.00 0.00 0.01 0.02 0.02 0.01 0.00 0.00 0.00 0.00 0.00 0.00 0.00 0.00 0.00 0.00 0.05 0.02 0.00 0.00 0.00 0.00 0.01 0.03 0.01 0.01 0.00 0.00 0.00 0.00 0.00 0.00 0.00 0.00 0.00 0.00 0.00 0.01 0.02 0.05 0.07 0.08
0.02 0.01 0.01 0.00 0.01 0.02 0.02 0.00 0.00 0.00 0.00 0.00 0.00 0.00 0.00 0.00 0.00 0.01 0.00 0.00 0.00 0.00 0.01 0.01 0.01 0.01 0.01 0.00 0.00 0.00 0.00 0.00 0.00 0.00 0.00 0.00 0.00 0.00 0.02 0.05 0.07 0.09 0.10
0.01 0.04 0.03 0.00 0.01 0.02 0.01 0.00 0.00 0.00 0.00 0.00 0.00 0.00 0.00 0.00 0.00 0.00 0.00 0.00 0.00 0.01 0.00 0.00 0.00 0.00 0.00 0.00 0.00 0.00 0.00 0.00 0.00 0.00 0.00 0.00 0.00 0.01 0.04 0.04 0.03 0.03 0.03
0.02 0.04 0.03 0.00 0.01 0.01 0.01 0.00 0.00 0.00 0.00 0.00 0.00 0.00 0.00 0.00 0.00 0.00 0.00 0.00 0.00 0.00 0.00 0.00 0.00 0.00 0.00 0.00 0.00 0.00 0.00 0.00 0.00 0.00 0.00 0.00 0.01 0.02 0.02 0.02 0.02 0.01 0.00
0.01 0.00 0.00 0.00 0.01 0.01 0.01 0.00 0.00 0.00 0.00 0.00 0.00 0.00 0.00 0.00 0.00 0.00 0.00 0.00 0.00 0.00 0.00 0.00 0.00 0.00 0.00 0.00 0.00 0.00 0.00 0.00 0.00 0.00 0.00 0.01 0.01 0.01 0.01 0.00 0.00 0.00 0.00
0.00 0.00 0.00 0.00 0.01 0.02 0.02 0.01 0.00 0.00 0.00 0.00 0.00 0.00 0.00 0.00 0.00 0.00 0.00 0.00 0.00 0.00 0.00 0.00 0.00 0.00 0.00 0.00 0.00 0.00 0.00 0.00 0.00 0.00 0.00 0.00 0.00 0.00 0.00 0.00 0.00 0.00 0.00
0.00 0.00 0.00 0.00 0.00 0.02 0.03 0.02 0.00 0.00 0.00 0.00 0.00 0.00 0.00 0.00 0.00 0.00 0.00 0.00 0.00 0.00 0.00 0.00 0.00 0.00 0.00 0.00 0.00 0.00 0.00 0.00 0.00 0.00 0.00 0.00 0.00 0.00 0.00 0.00 0.00 0.00 0.00
0.01 0.01 0.01 0.00 0.00 0.00 0.01 0.02 0.01 0.00 0.00 0.00 0.00 0.00 0.00 0.00 0.00 0.00 0.00 0.00 0.00 0.00 0.00 0.00 0.00 0.00 0.00 0.00 0.00 0.00 0.00 0.00 0.00 0.00 0.00 0.00 0.00 0.00 0.00 0.00 0.00 0.00 0.00
0.00 0.03 0.01 0.05 0.05 0.00 0.00 0.03 0.06 0.03 0.01 0.00 0.00 0.00 0.00 0.00 0.00 0.00 0.00 0.00 0.00 0.00 0.00 0.00 0.00 0.00 0.00 0.00 0.00 0.00 0.00 0.00 0.00 0.00 0.00 0.00 0.00 0.00 0.00 0.00 0.00 0.00 0.00
0.00 0.00 0.01 0.06 0.05 0.03 0.04 0.14 0.11 0.08 0.05 0.01 0.00 0.00 0.00 0.00 0.00 0.00 0.00 0.00 0.00 0.00 0.00 0.00 0.00 0.00 0.00 0.00 0.00 0.00 0.00 0.00 0.00 0.00 0.00 0.00 0.00 0.00 0.00 0.00 0.00 0.00 0.00
0.00 0.00 0.00 0.01 0.01 0.03 0.10 0.15 0.14 0.13 0.07 0.05 0.02 0.01 0.00 0.00 0.00 0.00 0.00 0.00 0.00 0.00 0.00 0.00 0.00 0.00 0.00 0.00 0.00 0.00 0.00 0.00 0.00 0.00 0.00 0.00 0.00 0.00 0.00 0.00 0.00 0.00 0.00
0.00 0.00 0.00 0.00 0.01 0.08 0.17 0.23 0.19 0.09 0.05 0.07 0.04 0.01 0.01 0.00 0.00 0.00 0.00 0.00 0.00 0.00 0.00 0.00 0.00 0.00 0.00 0.00 0.00 0.00 0.00 0.00 0.00 0.00 0.00 0.00 0.00 0.00 0.00 0.00 0.00 0.00 0.00
0.00 0.00 0.00 0.00 0.00 0.07 0.12 0.11 0.11 0.05 0.06 0.06 0.05 0.03 0.03 0.01 0.03 0.03 0.02 0.00 0.00 0.00 0.00 0.00 0.00 0.00 0.00 0.00 0.00 0.00 0.00 0.00 0.00 0.00 0.00 0.00 0.00 0.00 0.00 0.00 0.00 0.00 0.00
0.00 0.00 0.00 0.00 0.00 0.04 0.09 0.09 0.17 0.17 0.13 0.08 0.13 0.04 0.02 0.04 0.04 0.01 0.00 0.00 0.00 0.00 0.00 0.00 0.00 0.00 0.00 0.00 0.00 0.00 0.00 0.00 0.00 0.00 0.00 0.00 0.00 0.00 0.00 0.00 0.00 0.00 0.00
0.00 0.00 0.00 0.00 0.00 0.04 0.07 0.14 0.18 0.21 0.16 0.09 0.04 0.02 0.03 0.05 0.05 0.00 0.01 0.00 0.00 0.00 0.00 0.00 0.00 0.00 0.00 0.00 0.00 0.00 0.00 0.00 0.00 0.00 0.00 0.00 0.00 0.00 0.00 0.00 0.00 0.00 0.00
0.00 0.00 0.00 0.00 0.02 0.03 0.06 0.05 0.04 0.03 0.03 0.03 0.04 0.15 0.20 0.15 0.12 0.05 0.05 0.04 0.00 0.00 0.00 0.00 0.00 0.00 0.00 0.00 0.00 0.00 0.00 0.00 0.00 0.00 0.00 0.00 0.00 0.00 0.00 0.00 0.00 0.00 0.00
0.00 0.00 0.00 0.00 0.01 0.01 0.04 0.05 0.05 0.02 0.01 0.02 0.08 0.14 0.14 0.12 0.11 0.12 0.11 0.09 0.05 0.04 0.01 0.01 0.00 0.00 0.00 0.00 0.00 0.00 0.00 0.00 0.00 0.00 0.00 0.00 0.00 0.00 0.00 0.00 0.00 0.00 0.00
0.00 0.00 0.00 0.00 0.00 0.00 0.01 0.02 0.03 0.04 0.01 0.04 0.08 0.08 0.10 0.10 0.08 0.06 0.07 0.06 0.05 0.05 0.05 0.03 0.01 0.00 0.00 0.00 0.00 0.00 0.00 0.00 0.00 0.00 0.00 0.00 0.00 0.00 0.00 0.00 0.00 0.00 0.00

GFSSE_prec_precacc24_033.txt.gz
Total_Precipitation_Accumulation
0.00 0.01 0.03 0.02 0.02 0.02 0.01 0.01 0.02 0.02 0.03 0.04 0.04 0.03 0.02 0.03 0.01 0.00 0.00 0.00 0.00 0.00 0.00 0.02 0.07 0.12 0.17 0.23 0.16 0.02 0.00 0.00 0.00 0.00 0.00 0.00 0.00 0.00 0.00 0.00 0.01 0.01 0.01
0.00 0.01 0.02 0.02 0.02 0.02 0.02 0.02 0.02 0.02 0.02 0.03 0.04 0.04 0.04 0.06 0.02 0.01 0.01 0.00 0.00 0.00 0.04 0.11 0.15 0.10 0.04 0.01 0.01 0.01 0.00 0.00 0.00 0.00 0.00 0.00 0.00 0.00 0.00 0.00 0.00 0.00 0.00
0.00 0.00 0.01 0.02 0.02 0.02 0.02 0.02 0.02 0.01 0.02 0.02 0.03 0.03 0.02 0.01 0.00 0.00 0.00 0.00 0.00 0.01 0.03 0.05 0.03 0.00 0.00 0.00 0.00 0.00 0.00 0.00 0.00 0.00 0.00 0.00 0.00 0.00 0.00 0.00 0.00 0.00 0.00
0.00 0.00 0.00 0.02 0.02 0.01 0.01 0.01 0.01 0.02 0.02 0.02 0.02 0.01 0.01 0.00 0.00 0.00 0.00 0.00 0.00 0.01 0.01 0.00 0.00 0.00 0.00 0.00 0.00 0.00 0.00 0.00 0.00 0.00 0.00 0.00 0.00 0.00 0.00 0.00 0.00 0.00 0.00
0.00 0.00 0.00 0.02 0.02 0.01 0.00 0.00 0.00 0.01 0.02 0.03 0.01 0.01 0.00 0.00 0.00 0.00 0.00 0.00 0.00 0.00 0.00 0.00 0.00 0.00 0.00 0.00 0.00 0.00 0.01 0.01 0.00 0.00 0.00 0.00 0.00 0.00 0.00 0.00 0.00 0.00 0.01
0.00 0.00 0.00 0.02 0.02 0.00 0.00 0.00 0.00 0.00 0.01 0.03 0.01 0.00 0.00 0.01 0.01 0.01 0.00 0.00 0.00 0.00 0.00 0.00 0.00 0.00 0.00 0.00 0.00 0.00 0.00 0.01 0.00 0.00 0.00 0.00 0.00 0.04 0.00 0.00 0.02 0.07 0.09
0.00 0.00 0.00 0.02 0.02 0.01 0.00 0.00 0.00 0.00 0.01 0.02 0.01 0.00 0.00 0.01 0.02 0.02 0.00 0.00 0.00 0.00 0.00 0.00 0.00 0.00 0.00 0.00 0.00 0.00 0.00 0.00 0.00 0.00 0.00 0.00 0.01 0.02 0.00 0.01 0.04 0.06 0.07
0.00 0.00 0.00 0.02 0.03 0.01 0.00 0.00 0.00 0.00 0.01 0.01 0.00 0.00 0.00 0.00 0.01 0.03 0.00 0.00 0.00 0.00 0.00 0.00 0.01 0.01 0.01 0.01 0.00 0.00 0.00 0.00 0.00 0.00 0.00 0.00 0.00 0.00 0.00 0.01 0.03 0.04 0.05
0.00 0.00 0.00 0.01 0.02 0.02 0.01 0.00 0.00 0.00 0.00 0.00 0.00 0.00 0.00 0.00 0.00 0.04 0.02 0.00 0.00 0.00 0.00 0.02 0.04 0.01 0.01 0.00 0.00 0.00 0.00 0.00 0.00 0.00 0.00 0.00 0.00 0.00 0.00 0.02 0.05 0.07 0.08
0.02 0.01 0.01 0.00 0.01 0.02 0.02 0.00 0.00 0.00 0.00 0.00 0.00 0.00 0.00 0.00 0.00 0.01 0.00 0.00 0.00 0.00 0.02 0.03 0.01 0.00 0.00 0.00 0.00 0.00 0.00 0.00 0.00 0.00 0.00 0.00 0.00 0.00 0.01 0.05 0.06 0.05 0.04
0.01 0.04 0.03 0.00 0.01 0.01 0.01 0.00 0.00 0.00 0.00 0.00 0.00 0.00 0.00 0.00 0.00 0.00 0.00 0.00 0.00 0.02 0.01 0.00 0.00 0.00 0.00 0.00 0.00 0.00 0.00 0.00 0.00 0.00 0.00 0.00 0.01 0.03 0.05 0.04 0.03 0.02 0.01
0.02 0.04 0.03 0.00 0.00 0.01 0.01 0.00 0.00 0.00 0.00 0.00 0.00 0.00 0.00 0.00 0.00 0.00 0.00 0.00 0.00 0.01 0.00 0.00 0.00 0.00 0.00 0.00 0.00 0.00 0.00 0.00 0.00 0.00 0.00 0.01 0.02 0.03 0.02 0.02 0.02 0.01 0.00
0.01 0.00 0.00 0.00 0.01 0.01 0.01 0.00 0.00 0.00 0.00 0.00 0.00 0.00 0.00 0.00 0.00 0.00 0.00 0.00 0.00 0.00 0.00 0.00 0.00 0.00 0.00 0.00 0.00 0.00 0.00 0.00 0.00 0.00 0.00 0.02 0.01 0.01 0.01 0.00 0.00 0.00 0.00
0.00 0.01 0.00 0.00 0.00 0.02 0.02 0.01 0.00 0.00 0.00 0.00 0.00 0.00 0.00 0.00 0.00 0.00 0.00 0.00 0.00 0.00 0.00 0.00 0.00 0.00 0.00 0.00 0.00 0.00 0.00 0.00 0.00 0.00 0.00 0.00 0.00 0.00 0.00 0.00 0.00 0.00 0.00
0.01 0.00 0.00 0.00 0.00 0.02 0.04 0.02 0.00 0.00 0.00 0.00 0.00 0.00 0.00 0.00 0.00 0.00 0.00 0.00 0.00 0.00 0.00 0.00 0.00 0.00 0.00 0.00 0.00 0.00 0.00 0.00 0.00 0.00 0.00 0.00 0.00 0.00 0.00 0.00 0.00 0.00 0.00
0.01 0.01 0.01 0.00 0.00 0.00 0.02 0.03 0.03 0.00 0.00 0.00 0.00 0.00 0.00 0.00 0.00 0.00 0.00 0.00 0.00 0.00 0.00 0.00 0.00 0.00 0.00 0.00 0.00 0.00 0.00 0.00 0.00 0.00 0.00 0.00 0.00 0.00 0.00 0.00 0.00 0.00 0.00
0.00 0.03 0.01 0.05 0.05 0.00 0.01 0.03 0.03 0.03 0.02 0.01 0.00 0.00 0.00 0.00 0.00 0.00 0.00 0.00 0.00 0.00 0.00 0.00 0.00 0.00 0.00 0.00 0.00 0.00 0.00 0.00 0.00 0.00 0.00 0.00 0.00 0.00 0.00 0.00 0.00 0.00 0.00
0.00 0.00 0.01 0.06 0.05 0.03 0.04 0.12 0.06 0.10 0.05 0.02 0.01 0.00 0.00 0.00 0.00 0.00 0.00 0.00 0.00 0.00 0.00 0.00 0.00 0.00 0.00 0.00 0.00 0.00 0.00 0.00 0.00 0.00 0.00 0.00 0.00 0.00 0.00 0.00 0.00 0.00 0.00
0.00 0.00 0.00 0.01 0.01 0.03 0.09 0.16 0.14 0.15 0.09 0.05 0.03 0.01 0.01 0.00 0.00 0.00 0.00 0.00 0.00 0.00 0.00 0.00 0.00 0.00 0.00 0.00 0.00 0.00 0.00 0.00 0.00 0.00 0.00 0.00 0.00 0.00 0.00 0.00 0.00 0.00 0.00
0.00 0.00 0.00 0.00 0.01 0.07 0.16 0.25 0.19 0.09 0.05 0.07 0.05 0.01 0.06 0.01 0.00 0.00 0.00 0.00 0.00 0.00 0.00 0.00 0.00 0.00 0.00 0.00 0.00 0.00 0.00 0.00 0.00 0.00 0.00 0.00 0.00 0.00 0.00 0.00 0.00 0.00 0.00
0.00 0.00 0.00 0.00 0.00 0.06 0.09 0.11 0.12 0.05 0.06 0.06 0.07 0.06 0.06 0.03 0.05 0.04 0.03 0.00 0.00 0.00 0.00 0.00 0.00 0.00 0.00 0.00 0.00 0.00 0.00 0.00 0.00 0.00 0.00 0.00 0.00 0.00 0.00 0.00 0.00 0.00 0.00
0.00 0.00 0.00 0.00 0.00 0.02 0.07 0.08 0.17 0.17 0.13 0.09 0.16 0.05 0.04 0.07 0.08 0.03 0.02 0.02 0.00 0.00 0.00 0.00 0.00 0.00 0.00 0.00 0.00 0.00 0.00 0.00 0.00 0.00 0.00 0.00 0.00 0.00 0.00 0.00 0.00 0.00 0.00
0.00 0.00 0.00 0.00 0.00 0.02 0.05 0.13 0.18 0.21 0.16 0.10 0.05 0.02 0.03 0.06 0.08 0.02 0.05 0.05 0.04 0.01 0.00 0.00 0.00 0.00 0.00 0.00 0.00 0.00 0.00 0.00 0.00 0.00 0.00 0.00 0.00 0.00 0.00 0.00 0.00 0.00 0.00
0.00 0.00 0.00 0.00 0.00 0.01 0.05 0.05 0.04 0.03 0.03 0.03 0.04 0.15 0.20 0.16 0.16 0.10 0.08 0.12 0.13 0.04 0.00 0.00 0.00 0.00 0.00 0.00 0.00 0.00 0.00 0.00 0.00 0.00 0.00 0.00 0.00 0.00 0.00 0.00 0.00 0.00 0.00
0.00 0.00 0.00 0.00 0.00 0.01 0.04 0.05 0.05 0.02 0.01 0.02 0.08 0.14 0.14 0.15 0.16 0.18 0.14 0.16 0.14 0.11 0.07 0.05 0.01 0.01 0.00 0.00 0.00 0.00 0.00 0.00 0.00 0.00 0.00 0.00 0.00 0.00 0.00 0.00 0.00 0.00 0.00
0.00 0.00 0.00 0.00 0.00 0.00 0.01 0.02 0.03 0.04 0.01 0.04 0.08 0.09 0.11 0.11 0.11 0.10 0.11 0.11 0.13 0.12 0.10 0.09 0.06 0.03 0.01 0.00 0.00 0.00 0.00 0.00 0.00 0.00 0.00 0.00 0.00 0.00 0.00 0.00 0.00 0.00 0.00

GFSSE_prec_precacc24_036.txt.gz
Total_Precipitation_Accumulation
0.00 0.01 0.03 0.02 0.04 0.02 0.01 0.01 0.03 0.03 0.04 0.06 0.06 0.04 0.02 0.01 0.00 0.00 0.00 0.00 0.00 0.00 0.00 0.05 0.09 0.12 0.16 0.20 0.13 0.01 0.00 0.00 0.00 0.00 0.00 0.00 0.00 0.00 0.00 0.00 0.00 0.00 0.01
0.00 0.01 0.02 0.02 0.03 0.03 0.02 0.02 0.03 0.02 0.04 0.05 0.05 0.04 0.03 0.04 0.01 0.00 0.00 0.00 0.00 0.01 0.06 0.18 0.17 0.11 0.04 0.01 0.00 0.00 0.00 0.00 0.00 0.00 0.00 0.00 0.00 0.00 0.00 0.00 0.00 0.00 0.00
0.00 0.00 0.01 0.02 0.02 0.02 0.03 0.04 0.03 0.02 0.03 0.04 0.04 0.03 0.02 0.01 0.00 0.00 0.00 0.00 0.00 0.04 0.09 0.11 0.04 0.00 0.00 0.00 0.00 0.00 0.00 0.00 0.00 0.00 0.00 0.00 0.00 0.00 0.00 0.00 0.00 0.00 0.00
0.00 0.00 0.00 0.01 0.01 0.01 0.02 0.02 0.02 0.02 0.04 0.03 0.02 0.01 0.01 0.00 0.00 0.00 0.00 0.00 0.01 0.01 0.01 0.00 0.00 0.00 0.00 0.00 0.00 0.00 0.00 0.00 0.00 0.00 0.00 0.00 0.00 0.00 0.00 0.00 0.00 0.00 0.00
0.00 0.00 0.00 0.01 0.02 0.01 0.01 0.01 0.01 0.02 0.03 0.03 0.02 0.01 0.00 0.00 0.00 0.00 0.00 0.00 0.00 0.00 0.00 0.00 0.00 0.00 0.00 0.00 0.00 0.00 0.00 0.00 0.00 0.00 0.00 0.00 0.00 0.00 0.00 0.01 0.01 0.01 0.01
0.00 0.00 0.00 0.02 0.02 0.01 0.00 0.01 0.01 0.01 0.02 0.04 0.02 0.00 0.00 0.00 0.00 0.00 0.00 0.00 0.00 0.00 0.00 0.00 0.00 0.00 0.00 0.00 0.00 0.00 0.00 0.00 0.00 0.00 0.00 0.00 0.01 0.04 0.00 0.01 0.03 0.09 0.11
0.00 0.00 0.00 0.02 0.02 0.01 0.00 0.00 0.00 0.01 0.02 0.03 0.01 0.00 0.00 0.00 0.01 0.01 0.00 0.00 0.00 0.00 0.00 0.00 0.00 0.00 0.00 0.00 0.00 0.00 0.00 0.00 0.00 0.00 0.00 0.00 0.01 0.02 0.00 0.01 0.05 0.07 0.08
0.00 0.00 0.00 0.02 0.02 0.01 0.00 0.00 0.00 0.00 0.01 0.02 0.01 0.00 0.00 0.00 0.01 0.01 0.00 0.00 0.00 0.00 0.00 0.00 0.01 0.01 0.01 0.01 0.00 0.00 0.00 0.00 0.00 0.00 0.00 0.00 0.00 0.00 0.00 0.01 0.03 0.04 0.05
0.00 0.00 0.00 0.01 0.01 0.01 0.01 0.00 0.00 0.00 0.01 0.02 0.01 0.00 0.00 0.00 0.00 0.02 0.00 0.00 0.00 0.01 0.00 0.03 0.04 0.01 0.00 0.00 0.00 0.00 0.00 0.00 0.00 0.00 0.00 0.00 0.00 0.00 0.00 0.02 0.04 0.04 0.03
0.02 0.01 0.01 0.00 0.00 0.01 0.01 0.00 0.00 0.00 0.00 0.00 0.01 0.00 0.00 0.00 0.00 0.01 0.00 0.00 0.00 0.01 0.03 0.04 0.00 0.00 0.00 0.00 0.00 0.00 0.00 0.00 0.00 0.00 0.00 0.00 0.00 0.01 0.04 0.06 0.06 0.04 0.01
0.01 0.04 0.03 0.00 0.00 0.00 0.01 0.00 0.00 0.00 0.00 0.00 0.00 0.00 0.00 0.00 0.00 0.00 0.00 0.00 0.00 0.02 0.02 0.00 0.00 0.00 0.00 0.00 0.00 0.00 0.00 0.00 0.00 0.00 0.00 0.00 0.03 0.05 0.07 0.04 0.03 0.02 0.01
0.02 0.04 0.03 0.00 0.00 0.00 0.00 0.00 0.00 0.00 0.00 0.00 0.00 0.00 0.00 0.00 0.00 0.00 0.00 0.00 0.00 0.01 0.00 0.00 0.00 0.00 0.00 0.00 0.00 0.00 0.00 0.00 0.00 0.00 0.00 0.01 0.03 0.03 0.02 0.02 0.02 0.01 0.00
0.01 0.00 0.00 0.00 0.01 0.01 0.00 0.00 0.00 0.00 0.00 0.00 0.00 0.00 0.00 0.00 0.00 0.00 0.00 0.00 0.00 0.00 0.00 0.00 0.00 0.00 0.00 0.00 0.00 0.00 0.00 0.00 0.00 0.00 0.00 0.03 0.02 0.01 0.01 0.00 0.00 0.00 0.00
0.00 0.01 0.00 0.00 0.00 0.01 0.02 0.00 0.00 0.00 0.00 0.00 0.00 0.00 0.00 0.00 0.00 0.00 0.00 0.00 0.00 0.00 0.00 0.00 0.00 0.00 0.00 0.00 0.00 0.00 0.00 0.00 0.00 0.00 0.00 0.00 0.00 0.00 0.00 0.00 0.00 0.00 0.00
0.01 0.00 0.00 0.00 0.00 0.02 0.04 0.02 0.00 0.00 0.00 0.00 0.00 0.00 0.00 0.00 0.00 0.00 0.00 0.00 0.00 0.00 0.00 0.00 0.00 0.00 0.00 0.00 0.00 0.00 0.00 0.00 0.00 0.00 0.00 0.00 0.00 0.00 0.00 0.00 0.00 0.00 0.00
0.01 0.01 0.01 0.00 0.00 0.00 0.02 0.04 0.04 0.00 0.00 0.00 0.00 0.00 0.00 0.00 0.00 0.00 0.00 0.00 0.00 0.00 0.00 0.00 0.00 0.00 0.00 0.00 0.00 0.00 0.00 0.00 0.00 0.00 0.00 0.00 0.00 0.00 0.00 0.00 0.00 0.00 0.00
0.00 0.03 0.01 0.05 0.05 0.00 0.01 0.03 0.04 0.03 0.03 0.01 0.00 0.00 0.00 0.00 0.00 0.00 0.00 0.00 0.00 0.00 0.00 0.00 0.00 0.00 0.00 0.00 0.00 0.00 0.00 0.00 0.00 0.00 0.00 0.00 0.00 0.00 0.00 0.00 0.00 0.00 0.00
0.00 0.00 0.01 0.06 0.05 0.03 0.04 0.11 0.06 0.14 0.07 0.03 0.02 0.01 0.00 0.00 0.00 0.00 0.00 0.00 0.00 0.00 0.00 0.00 0.00 0.00 0.00 0.00 0.00 0.00 0.00 0.00 0.00 0.00 0.00 0.00 0.00 0.00 0.00 0.00 0.00 0.00 0.00
0.00 0.00 0.00 0.01 0.01 0.03 0.09 0.17 0.16 0.18 0.10 0.05 0.04 0.02 0.01 0.00 0.00 0.00 0.00 0.00 0.00 0.00 0.00 0.00 0.00 0.00 0.00 0.00 0.00 0.00 0.00 0.00 0.00 0.00 0.00 0.00 0.00 0.00 0.00 0.00 0.00 0.00 0.00
0.00 0.00 0.00 0.00 0.01 0.07 0.14 0.25 0.18 0.09 0.05 0.07 0.05 0.02 0.07 0.03 0.01 0.00 0.00 0.00 0.00 0.00 0.00 0.00 0.00 0.00 0.00 0.00 0.00 0.00 0.00 0.00 0.00 0.00 0.00 0.00 0.00 0.00 0.00 0.00 0.00 0.00 0.00
0.00 0.00 0.00 0.00 0.00 0.06 0.07 0.08 0.08 0.04 0.06 0.06 0.07 0.09 0.08 0.06 0.07 0.06 0.03 0.00 0.00 0.00 0.00 0.00 0.00 0.00 0.00 0.00 0.00 0.00 0.00 0.00 0.00 0.00 0.00 0.00 0.00 0.00 0.00 0.00 0.00 0.00 0.00
0.00 0.00 0.00 0.00 0.00 0.02 0.03 0.05 0.13 0.15 0.13 0.09 0.17 0.06 0.05 0.08 0.08 0.03 0.03 0.05 0.01 0.00 0.00 0.00 0.00 0.00 0.00 0.00 0.00 0.00 0.00 0.00 0.00 0.00 0.00 0.00 0.00 0.00 0.00 0.00 0.00 0.00 0.00
0.00 0.00 0.00 0.00 0.00 0.01 0.02 0.11 0.17 0.21 0.16 0.10 0.05 0.02 0.03 0.06 0.10 0.03 0.08 0.10 0.07 0.03 0.01 0.01 0.00 0.00 0.00 0.00 0.00 0.00 0.00 0.00 0.00 0.00 0.00 0.00 0.00 0.00 0.00 0.00 0.00 0.00 0.00
0.00 0.00 0.00 0.00 0.00 0.00 0.04 0.03 0.02 0.02 0.03 0.03 0.04 0.15 0.20 0.17 0.17 0.13 0.11 0.15 0.17 0.06 0.02 0.01 0.01 0.00 0.00 0.00 0.00 0.00 0.00 0.00 0.00 0.00 0.00 0.00 0.00 0.00 0.00 0.00 0.00 0.00 0.00
0.00 0.00 0.00 0.00 0.00 0.00 0.02 0.02 0.04 0.02 0.01 0.02 0.08 0.14 0.14 0.16 0.17 0.21 0.19 0.22 0.16 0.14 0.10 0.08 0.03 0.01 0.00 0.00 0.00 0.00 0.00 0.00 0.00 0.00 0.00 0.00 0.00 0.00 0.00 0.00 0.00 0.00 0.00
0.00 0.00 0.00 0.00 0.00 0.00 0.01 0.01 0.03 0.04 0.01 0.04 0.08 0.09 0.11 0.11 0.11 0.11 0.14 0.14 0.15 0.14 0.14 0.13 0.11 0.08 0.04 0.02 0.02 0.01 0.00 0.00 0.00 0.00 0.00 0.00 0.00 0.00 0.00 0.00 0.00 0.00 0.00

GFSSE_prec_precacc24_039.txt.gz
Total_Precipitation_Accumulation
0.00 0.01 0.03 0.02 0.04 0.03 0.02 0.02 0.03 0.03 0.05 0.07 0.08 0.04 0.03 0.00 0.00 0.00 0.00 0.00 0.00 0.00 0.01 0.08 0.09 0.11 0.16 0.15 0.08 0.01 0.00 0.00 0.00 0.00 0.00 0.00 0.00 0.00 0.00 0.00 0.00 0.00 0.01
0.00 0.01 0.02 0.03 0.04 0.03 0.02 0.03 0.04 0.02 0.06 0.06 0.06 0.04 0.02 0.01 0.00 0.00 0.00 0.00 0.00 0.01 0.09 0.21 0.17 0.11 0.04 0.00 0.00 0.00 0.00 0.00 0.00 0.00 0.00 0.00 0.00 0.00 0.00 0.00 0.00 0.00 0.00
0.00 0.00 0.01 0.02 0.03 0.03 0.03 0.05 0.03 0.02 0.04 0.05 0.04 0.03 0.02 0.01 0.00 0.00 0.00 0.00 0.02 0.06 0.17 0.14 0.04 0.00 0.00 0.00 0.00 0.00 0.00 0.00 0.00 0.00 0.00 0.00 0.00 0.00 0.00 0.00 0.00 0.00 0.00
0.00 0.00 0.00 0.01 0.01 0.01 0.02 0.04 0.02 0.03 0.05 0.04 0.03 0.01 0.01 0.00 0.00 0.00 0.00 0.00 0.03 0.03 0.02 0.00 0.00 0.00 0.00 0.00 0.00 0.00 0.00 0.00 0.00 0.00 0.00 0.00 0.00 0.00 0.00 0.00 0.00 0.00 0.00
0.00 0.00 0.00 0.01 0.01 0.01 0.01 0.01 0.02 0.03 0.04 0.04 0.02 0.01 0.00 0.00 0.00 0.00 0.00 0.00 0.00 0.00 0.00 0.00 0.00 0.00 0.00 0.00 0.00 0.00 0.00 0.00 0.00 0.00 0.00 0.00 0.00 0.00 0.00 0.01 0.02 0.01 0.01
0.00 0.00 0.00 0.01 0.02 0.01 0.01 0.01 0.02 0.02 0.03 0.05 0.02 0.00 0.00 0.00 0.00 0.00 0.00 0.00 0.00 0.00 0.00 0.00 0.00 0.00 0.00 0.00 0.00 0.00 0.00 0.00 0.00 0.00 0.00 0.00 0.01 0.04 0.00 0.01 0.04 0.11 0.14
0.00 0.00 0.00 0.02 0.02 0.01 0.01 0.00 0.01 0.02 0.03 0.04 0.02 0.00 0.00 0.00 0.00 0.00 0.00 0.00 0.00 0.00 0.00 0.00 0.00 0.00 0.00 0.00 0.00 0.00 0.00 0.00 0.00 0.00 0.00 0.00 0.01 0.02 0.00 0.01 0.05 0.08 0.09
0.00 0.00 0.00 0.01 0.01 0.01 0.00 0.00 0.00 0.01 0.03 0.03 0.01 0.00 0.00 0.00 0.00 0.00 0.00 0.00 0.00 0.00 0.00 0.00 0.01 0.01 0.00 0.00 0.00 0.00 0.00 0.00 0.00 0.00 0.00 0.00 0.00 0.00 0.00 0.00 0.02 0.03 0.04
0.00 0.00 0.00 0.00 0.00 0.00 0.00 0.00 0.00 0.00 0.02 0.03 0.02 0.01 0.00 0.00 0.00 0.00 0.00 0.00 0.00 0.01 0.00 0.03 0.04 0.00 0.00 0.00 0.00 0.00 0.00 0.00 0.00 0.00 0.00 0.00 0.00 0.00 0.01 0.03 0.03 0.02 0.01
0.02 0.01 0.01 0.00 0.00 0.00 0.00 0.00 0.00 0.00 0.00 0.01 0.01 0.01 0.00 0.00 0.00 0.00 0.00 0.00 0.00 0.01 0.03 0.04 0.00 0.00 0.00 0.00 0.00 0.00 0.00 0.00 0.00 0.00 0.00 0.00 0.00 0.02 0.08 0.08 0.07 0.04 0.01
0.01 0.04 0.03 0.00 0.00 0.00 0.00 0.00 0.00 0.00 0.00 0.01 0.00 0.00 0.00 0.00 0.00 0.00 0.00 0.00 0.00 0.02 0.02 0.00 0.00 0.00 0.00 0.00 0.00 0.00 0.00 0.00 0.00 0.00 0.00 0.01 0.04 0.07 0.07 0.04 0.03 0.02 0.01
0.02 0.04 0.03 0.00 0.00 0.00 0.00 0.00 0.00 0.00 0.00 0.00 0.00 0.00 0.00 0.00 0.00 0.00 0.00 0.00 0.00 0.02 0.00 0.00 0.00 0.00 0.00 0.00 0.00 0.00 0.00 0.00 0.00 0.00 0.00 0.02 0.03 0.03 0.02 0.02 0.02 0.01 0.00
0.01 0.00 0.00 0.00 0.01 0.00 0.00 0.00 0.00 0.00 0.00 0.00 0.00 0.00 0.00 0.00 0.00 0.00 0.00 0.00 0.00 0.00 0.00 0.00 0.00 0.00 0.00 0.00 0.00 0.00 0.00 0.00 0.00 0.00 0.00 0.04 0.02 0.01 0.01 0.00 0.00 0.00 0.00
0.00 0.01 0.00 0.00 0.00 0.01 0.02 0.00 0.00 0.00 0.00 0.00 0.00 0.00 0.00 0.00 0.00 0.00 0.00 0.00 0.00 0.00 0.00 0.00 0.00 0.00 0.00 0.00 0.00 0.00 0.00 0.00 0.00 0.00 0.00 0.00 0.00 0.00 0.00 0.00 0.00 0.00 0.00
0.01 0.00 0.00 0.00 0.00 0.02 0.04 0.02 0.00 0.00 0.00 0.00 0.00 0.00 0.00 0.00 0.00 0.00 0.00 0.00 0.00 0.00 0.00 0.00 0.00 0.00 0.00 0.00 0.00 0.00 0.00 0.00 0.00 0.00 0.00 0.00 0.00 0.00 0.00 0.00 0.00 0.00 0.00
0.01 0.01 0.01 0.00 0.02 0.00 0.01 0.04 0.04 0.00 0.00 0.00 0.00 0.00 0.00 0.00 0.00 0.00 0.00 0.00 0.00 0.00 0.00 0.00 0.00 0.00 0.00 0.00 0.00 0.00 0.00 0.00 0.00 0.00 0.00 0.00 0.00 0.00 0.00 0.00 0.00 0.00 0.00
0.00 0.03 0.01 0.05 0.05 0.00 0.00 0.03 0.04 0.03 0.03 0.01 0.00 0.00 0.00 0.00 0.00 0.00 0.00 0.00 0.00 0.00 0.00 0.00 0.00 0.00 0.00 0.00 0.00 0.00 0.00 0.00 0.00 0.00 0.00 0.00 0.00 0.00 0.00 0.00 0.00 0.00 0.00
0.00 0.00 0.01 0.06 0.05 0.03 0.03 0.11 0.06 0.14 0.07 0.02 0.02 0.00 0.00 0.00 0.00 0.00 0.00 0.00 0.00 0.00 0.00 0.00 0.00 0.00 0.00 0.00 0.00 0.00 0.00 0.00 0.00 0.00 0.00 0.00 0.00 0.00 0.00 0.00 0.00 0.00 0.00
0.00 0.00 0.00 0.01 0.01 0.03 0.09 0.17 0.16 0.18 0.09 0.05 0.04 0.02 0.01 0.00 0.00 0.00 0.00 0.00 0.00 0.00 0.00 0.00 0.00 0.00 0.00 0.00 0.00 0.00 0.00 0.00 0.00 0.00 0.00 0.00 0.00 0.00 0.00 0.00 0.00 0.00 0.00
0.00 0.00 0.00 0.00 0.01 0.07 0.14 0.24 0.17 0.08 0.05 0.07 0.05 0.02 0.07 0.03 0.02 0.01 0.00 0.00 0.00 0.00 0.00 0.00 0.00 0.00 0.00 0.00 0.00 0.00 0.00 0.00 0.00 0.00 0.00 0.00 0.00 0.00 0.00 0.00 0.00 0.00 0.00
0.00 0.00 0.00 0.00 0.00 0.06 0.07 0.07 0.07 0.03 0.04 0.06 0.07 0.10 0.08 0.06 0.07 0.06 0.03 0.00 0.00 0.00 0.00 0.00 0.00 0.00 0.00 0.00 0.00 0.00 0.00 0.00 0.00 0.00 0.00 0.00 0.00 0.00 0.00 0.00 0.00 0.00 0.00
0.00 0.00 0.00 0.00 0.00 0.02 0.03 0.05 0.12 0.12 0.11 0.08 0.18 0.07 0.05 0.08 0.08 0.03 0.03 0.05 0.01 0.00 0.00 0.00 0.00 0.00 0.00 0.00 0.00 0.00 0.00 0.00 0.00 0.00 0.00 0.00 0.00 0.00 0.00 0.00 0.00 0.00 0.00
0.00 0.00 0.00 0.00 0.00 0.01 0.02 0.11 0.17 0.20 0.15 0.09 0.05 0.02 0.03 0.07 0.10 0.03 0.09 0.10 0.08 0.03 0.01 0.01 0.00 0.00 0.00 0.00 0.00 0.00 0.00 0.00 0.00 0.00 0.00 0.00 0.00 0.00 0.00 0.00 0.00 0.00 0.00
0.00 0.00 0.00 0.00 0.00 0.00 0.04 0.03 0.02 0.02 0.02 0.02 0.04 0.15 0.20 0.17 0.17 0.15 0.12 0.17 0.19 0.07 0.02 0.02 0.02 0.02 0.01 0.01 0.00 0.00 0.00 0.00 0.00 0.00 0.00 0.00 0.00 0.00 0.00 0.00 0.00 0.00 0.00
0.00 0.00 0.00 0.00 0.00 0.00 0.02 0.02 0.03 0.01 0.01 0.02 0.08 0.14 0.14 0.16 0.17 0.22 0.19 0.24 0.19 0.16 0.15 0.11 0.04 0.05 0.03 0.01 0.01 0.00 0.00 0.00 0.00 0.00 0.00 0.00 0.00 0.00 0.00 0.00 0.00 0.00 0.00
0.00 0.00 0.00 0.00 0.00 0.00 0.01 0.01 0.03 0.04 0.01 0.04 0.08 0.09 0.11 0.11 0.11 0.11 0.15 0.14 0.17 0.19 0.19 0.17 0.17 0.12 0.09 0.05 0.04 0.01 0.01 0.00 0.00 0.00 0.00 0.00 0.00 0.00 0.00 0.00 0.00 0.00 0.00

GFSSE_prec_precacc24_042.txt.gz
Total_Precipitation_Accumulation
0.00 0.01 0.03 0.02 0.04 0.03 0.02 0.02 0.04 0.03 0.05 0.10 0.09 0.04 0.02 0.00 0.00 0.00 0.00 0.00 0.00 0.00 0.04 0.08 0.09 0.11 0.12 0.08 0.02 0.00 0.00 0.00 0.00 0.00 0.00 0.00 0.00 0.00 0.00 0.00 0.00 0.00 0.00
0.00 0.01 0.02 0.03 0.04 0.04 0.03 0.04 0.05 0.03 0.07 0.07 0.08 0.05 0.01 0.00 0.00 0.00 0.00 0.00 0.00 0.02 0.12 0.21 0.17 0.11 0.04 0.00 0.00 0.00 0.00 0.00 0.00 0.00 0.00 0.00 0.00 0.00 0.00 0.00 0.00 0.00 0.00
0.00 0.00 0.01 0.02 0.03 0.03 0.03 0.05 0.03 0.03 0.05 0.07 0.05 0.04 0.02 0.00 0.00 0.00 0.00 0.00 0.02 0.09 0.20 0.14 0.04 0.00 0.00 0.00 0.00 0.00 0.00 0.00 0.00 0.00 0.00 0.00 0.00 0.00 0.00 0.00 0.00 0.00 0.00
0.00 0.00 0.00 0.01 0.02 0.01 0.02 0.04 0.03 0.03 0.07 0.05 0.03 0.01 0.01 0.00 0.00 0.00 0.00 0.02 0.05 0.05 0.03 0.00 0.00 0.00 0.00 0.00 0.00 0.00 0.00 0.00 0.00 0.00 0.00 0.00 0.00 0.00 0.00 0.00 0.00 0.00 0.00
0.00 0.00 0.00 0.01 0.02 0.02 0.02 0.02 0.02 0.04 0.06 0.05 0.02 0.01 0.00 0.00 0.00 0.00 0.00 0.01 0.00 0.00 0.00 0.00 0.00 0.00 0.00 0.00 0.00 0.00 0.00 0.00 0.00 0.00 0.00 0.00 0.00 0.00 0.01 0.02 0.03 0.02 0.01
0.00 0.00 0.00 0.01 0.02 0.02 0.02 0.02 0.02 0.03 0.04 0.05 0.02 0.00 0.00 0.00 0.00 0.00 0.00 0.00 0.00 0.00 0.00 0.00 0.00 0.00 0.00 0.00 0.00 0.00 0.00 0.00 0.00 0.00 0.00 0.00 0.01 0.04 0.01 0.01 0.05 0.12 0.15
0.00 0.00 0.00 0.01 0.01 0.01 0.01 0.01 0.02 0.03 0.04 0.04 0.02 0.00 0.00 0.00 0.00 0.00 0.00 0.00 0.00 0.00 0.00 0.00 0.00 0.00 0.00 0.00 0.00 0.00 0.00 0.00 0.00 0.00 0.00 0.00 0.00 0.02 0.00 0.01 0.05 0.08 0.09
0.00 0.00 0.00 0.01 0.01 0.01 0.01 0.01 0.01 0.02 0.04 0.04 0.02 0.00 0.00 0.00 0.00 0.00 0.00 0.00 0.00 0.00 0.00 0.00 0.01 0.01 0.00 0.00 0.00 0.00 0.00 0.00 0.00 0.00 0.00 0.00 0.00 0.00 0.00 0.00 0.01 0.02 0.02
0.00 0.00 0.00 0.00 0.00 0.00 0.00 0.00 0.00 0.00 0.03 0.04 0.02 0.01 0.00 0.00 0.00 0.00 0.00 0.00 0.00 0.01 0.00 0.03 0.03 0.00 0.00 0.00 0.00 0.00 0.00 0.00 0.00 0.00 0.00 0.00 0.00 0.00 0.01 0.03 0.02 0.02 0.01
0.02 0.01 0.01 0.00 0.00 0.00 0.00 0.00 0.00 0.00 0.01 0.02 0.02 0.01 0.00 0.00 0.00 0.00 0.00 0.00 0.01 0.01 0.03 0.04 0.00 0.00 0.00 0.00 0.00 0.00 0.00 0.00 0.00 0.00 0.00 0.00 0.00 0.03 0.10 0.08 0.07 0.04 0.01
0.01 0.04 0.03 0.00 0.00 0.00 0.00 0.00 0.00 0.00 0.00 0.01 0.00 0.00 0.00 0.00 0.00 0.00 0.00 0.00 0.00 0.02 0.03 0.00 0.00 0.00 0.00 0.00 0.00 0.00 0.00 0.00 0.00 0.00 0.00 0.01 0.05 0.09 0.08 0.04 0.03 0.02 0.01
0.02 0.04 0.03 0.00 0.00 0.00 0.00 0.00 0.00 0.00 0.00 0.00 0.00 0.00 0.00 0.00 0.00 0.00 0.00 0.00 0.00 0.02 0.00 0.00 0.00 0.00 0.00 0.00 0.00 0.00 0.00 0.00 0.00 0.00 0.00 0.02 0.03 0.03 0.02 0.02 0.02 0.01 0.00
0.01 0.00 0.00 0.00 0.01 0.00 0.00 0.00 0.00 0.00 0.00 0.00 0.00 0.00 0.00 0.00 0.00 0.00 0.00 0.00 0.00 0.00 0.00 0.00 0.00 0.00 0.00 0.00 0.00 0.00 0.00 0.00 0.00 0.00 0.00 0.04 0.02 0.01 0.01 0.00 0.00 0.00 0.00
0.00 0.01 0.00 0.00 0.00 0.01 0.01 0.00 0.00 0.00 0.00 0.00 0.00 0.00 0.00 0.00 0.00 0.00 0.00 0.00 0.00 0.00 0.00 0.00 0.00 0.00 0.00 0.00 0.00 0.00 0.00 0.00 0.00 0.00 0.00 0.00 0.00 0.00 0.00 0.00 0.00 0.00 0.00
0.01 0.00 0.00 0.00 0.00 0.02 0.03 0.01 0.00 0.00 0.00 0.00 0.00 0.00 0.00 0.00 0.00 0.00 0.00 0.00 0.00 0.00 0.00 0.00 0.00 0.00 0.00 0.00 0.00 0.00 0.00 0.00 0.00 0.00 0.00 0.00 0.00 0.00 0.00 0.00 0.00 0.00 0.00
0.01 0.01 0.01 0.00 0.02 0.00 0.01 0.03 0.04 0.00 0.00 0.00 0.00 0.00 0.00 0.00 0.00 0.00 0.00 0.00 0.00 0.00 0.00 0.00 0.00 0.00 0.00 0.00 0.00 0.00 0.00 0.00 0.00 0.00 0.00 0.00 0.00 0.00 0.00 0.00 0.00 0.00 0.00
0.00 0.03 0.02 0.05 0.05 0.00 0.00 0.02 0.03 0.03 0.02 0.01 0.00 0.00 0.00 0.00 0.00 0.00 0.00 0.00 0.00 0.00 0.00 0.00 0.00 0.00 0.00 0.00 0.00 0.00 0.00 0.00 0.00 0.00 0.00 0.00 0.00 0.00 0.00 0.00 0.00 0.00 0.00
0.00 0.00 0.02 0.06 0.05 0.03 0.03 0.11 0.06 0.14 0.07 0.02 0.02 0.00 0.00 0.00 0.00 0.00 0.00 0.00 0.00 0.00 0.00 0.00 0.00 0.00 0.00 0.00 0.00 0.00 0.00 0.00 0.00 0.00 0.00 0.00 0.00 0.00 0.00 0.00 0.00 0.00 0.00
0.00 0.00 0.00 0.01 0.01 0.03 0.09 0.17 0.16 0.18 0.09 0.05 0.04 0.01 0.01 0.00 0.00 0.00 0.00 0.00 0.00 0.00 0.00 0.00 0.00 0.00 0.00 0.00 0.00 0.00 0.00 0.00 0.00 0.00 0.00 0.00 0.00 0.00 0.00 0.00 0.00 0.00 0.00
0.00 0.00 0.00 0.00 0.01 0.07 0.14 0.24 0.17 0.08 0.05 0.07 0.05 0.02 0.08 0.05 0.02 0.01 0.00 0.00 0.00 0.00 0.00 0.00 0.00 0.00 0.00 0.00 0.00 0.00 0.00 0.00 0.00 0.00 0.00 0.00 0.00 0.00 0.00 0.00 0.00 0.00 0.00
0.00 0.00 0.00 0.00 0.00 0.06 0.07 0.07 0.07 0.03 0.04 0.05 0.08 0.12 0.11 0.06 0.08 0.08 0.04 0.01 0.00 0.00 0.00 0.00 0.00 0.00 0.00 0.00 0.00 0.00 0.00 0.00 0.00 0.00 0.00 0.00 0.00 0.00 0.00 0.00 0.00 0.00 0.00
0.00 0.00 0.00 0.00 0.00 0.02 0.03 0.04 0.09 0.12 0.11 0.08 0.17 0.08 0.08 0.13 0.10 0.05 0.07 0.09 0.02 0.00 0.00 0.00 0.00 0.00 0.00 0.00 0.00 0.00 0.00 0.00 0.00 0.00 0.00 0.00 0.00 0.00 0.00 0.00 0.00 0.00 0.00
0.00 0.00 0.00 0.00 0.00 0.01 0.02 0.09 0.16 0.19 0.15 0.09 0.04 0.01 0.03 0.10 0.15 0.05 0.11 0.15 0.15 0.06 0.02 0.03 0.02 0.01 0.01 0.00 0.00 0.00 0.00 0.00 0.00 0.00 0.00 0.00 0.00 0.00 0.00 0.00 0.00 0.00 0.00
0.00 0.00 0.00 0.00 0.00 0.00 0.03 0.02 0.02 0.02 0.02 0.02 0.04 0.11 0.20 0.18 0.18 0.16 0.15 0.20 0.24 0.16 0.08 0.05 0.07 0.05 0.01 0.01 0.01 0.00 0.00 0.00 0.00 0.00 0.00 0.00 0.00 0.00 0.00 0.00 0.00 0.00 0.00
0.00 0.00 0.00 0.00 0.00 0.00 0.02 0.02 0.03 0.01 0.01 0.02 0.06 0.12 0.13 0.16 0.17 0.22 0.20 0.26 0.21 0.19 0.23 0.20 0.11 0.08 0.05 0.02 0.04 0.03 0.01 0.00 0.00 0.00 0.00 0.00 0.00 0.00 0.00 0.00 0.00 0.00 0.00
0.00 0.00 0.00 0.00 0.00 0.00 0.00 0.01 0.03 0.04 0.01 0.04 0.06 0.07 0.10 0.11 0.12 0.11 0.15 0.14 0.17 0.20 0.22 0.21 0.24 0.16 0.12 0.09 0.06 0.04 0.04 0.04 0.02 0.01 0.00 0.00 0.00 0.00 0.00 0.00 0.00 0.00 0.00

GFSSE_prec_precacc24_045.txt.gz
Total_Precipitation_Accumulation
0.00 0.01 0.03 0.02 0.04 0.03 0.02 0.02 0.04 0.03 0.07 0.11 0.09 0.04 0.02 0.00 0.00 0.00 0.00 0.00 0.00 0.02 0.04 0.08 0.09 0.10 0.08 0.04 0.00 0.00 0.00 0.00 0.00 0.00 0.00 0.00 0.00 0.00 0.00 0.00 0.00 0.00 0.00
0.00 0.01 0.02 0.03 0.04 0.04 0.03 0.04 0.05 0.03 0.08 0.09 0.08 0.04 0.00 0.00 0.00 0.00 0.00 0.00 0.00 0.04 0.13 0.21 0.17 0.11 0.04 0.00 0.00 0.00 0.00 0.00 0.00 0.00 0.00 0.00 0.00 0.00 0.00 0.00 0.00 0.00 0.00
0.00 0.00 0.01 0.02 0.03 0.03 0.03 0.05 0.03 0.03 0.06 0.08 0.06 0.03 0.01 0.00 0.00 0.00 0.00 0.00 0.04 0.13 0.20 0.14 0.04 0.00 0.00 0.00 0.00 0.00 0.00 0.00 0.00 0.00 0.00 0.00 0.00 0.00 0.00 0.00 0.00 0.00 0.00
0.00 0.00 0.00 0.01 0.02 0.01 0.02 0.04 0.03 0.04 0.08 0.06 0.04 0.01 0.01 0.00 0.00 0.00 0.02 0.03 0.08 0.06 0.03 0.00 0.00 0.00 0.00 0.00 0.00 0.00 0.00 0.00 0.00 0.00 0.00 0.00 0.00 0.01 0.01 0.00 0.00 0.00 0.00
0.00 0.00 0.00 0.01 0.02 0.02 0.02 0.02 0.03 0.06 0.07 0.05 0.02 0.01 0.00 0.00 0.00 0.01 0.02 0.02 0.01 0.00 0.00 0.00 0.00 0.00 0.00 0.00 0.00 0.00 0.00 0.00 0.00 0.00 0.00 0.00 0.00 0.01 0.02 0.03 0.04 0.04 0.02
0.00 0.00 0.00 0.01 0.02 0.02 0.03 0.02 0.04 0.04 0.05 0.05 0.02 0.00 0.00 0.00 0.00 0.00 0.00 0.00 0.00 0.00 0.00 0.00 0.00 0.00 0.00 0.00 0.00 0.00 0.00 0.00 0.00 0.00 0.00 0.00 0.01 0.05 0.02 0.03 0.07 0.13 0.17
0.00 0.00 0.00 0.01 0.01 0.02 0.02 0.01 0.03 0.04 0.05 0.04 0.02 0.00 0.00 0.00 0.00 0.00 0.00 0.00 0.00 0.00 0.00 0.00 0.00 0.00 0.00 0.00 0.00 0.00 0.00 0.00 0.00 0.00 0.00 0.00 0.00 0.02 0.01 0.02 0.05 0.06 0.06
0.00 0.00 0.00 0.01 0.01 0.01 0.01 0.01 0.01 0.02 0.05 0.05 0.02 0.00 0.00 0.00 0.00 0.00 0.00 0.00 0.00 0.00 0.00 0.00 0.01 0.01 0.00 0.00 0.00 0.00 0.00 0.00 0.00 0.00 0.00 0.00 0.00 0.00 0.00 0.00 0.01 0.01 0.02
0.00 0.00 0.00 0.00 0.00 0.00 0.00 0.01 0.01 0.01 0.03 0.04 0.02 0.01 0.00 0.00 0.00 0.00 0.00 0.00 0.00 0.01 0.00 0.03 0.03 0.00 0.00 0.00 0.00 0.00 0.00 0.00 0.00 0.00 0.00 0.00 0.00 0.00 0.02 0.03 0.02 0.02 0.01
0.02 0.01 0.01 0.00 0.00 0.00 0.00 0.00 0.00 0.00 0.01 0.02 0.02 0.01 0.00 0.00 0.00 0.00 0.00 0.00 0.01 0.01 0.03 0.04 0.00 0.00 0.00 0.00 0.00 0.00 0.00 0.00 0.00 0.00 0.00 0.00 0.00 0.04 0.11 0.08 0.07 0.04 0.01
0.01 0.04 0.03 0.00 0.00 0.00 0.00 0.00 0.00 0.00 0.00 0.01 0.00 0.00 0.00 0.00 0.00 0.00 0.00 0.00 0.00 0.02 0.03 0.00 0.00 0.00 0.00 0.00 0.00 0.00 0.00 0.00 0.00 0.00 0.00 0.01 0.05 0.10 0.08 0.04 0.03 0.02 0.00
0.02 0.04 0.03 0.00 0.00 0.00 0.00 0.00 0.00 0.00 0.00 0.00 0.00 0.00 0.00 0.00 0.00 0.00 0.00 0.00 0.00 0.02 0.00 0.00 0.00 0.00 0.00 0.00 0.00 0.00 0.00 0.00 0.00 0.00 0.00 0.02 0.04 0.03 0.02 0.02 0.02 0.01 0.00
0.01 0.00 0.00 0.00 0.01 0.00 0.00 0.00 0.00 0.00 0.00 0.00 0.00 0.00 0.00 0.00 0.00 0.00 0.00 0.00 0.00 0.00 0.00 0.00 0.00 0.00 0.00 0.00 0.00 0.00 0.00 0.00 0.00 0.00 0.00 0.04 0.02 0.01 0.00 0.00 0.00 0.00 0.00
0.00 0.01 0.00 0.00 0.00 0.01 0.01 0.00 0.00 0.00 0.00 0.00 0.00 0.00 0.00 0.00 0.00 0.00 0.00 0.00 0.00 0.00 0.00 0.00 0.00 0.00 0.00 0.00 0.00 0.00 0.00 0.00 0.00 0.00 0.00 0.00 0.00 0.00 0.00 0.00 0.00 0.00 0.00
0.01 0.00 0.00 0.00 0.00 0.02 0.03 0.01 0.00 0.00 0.00 0.00 0.00 0.00 0.00 0.00 0.00 0.00 0.00 0.00 0.00 0.00 0.00 0.00 0.00 0.00 0.00 0.00 0.00 0.00 0.00 0.00 0.00 0.00 0.00 0.00 0.00 0.00 0.00 0.00 0.00 0.00 0.00
0.01 0.01 0.01 0.00 0.02 0.00 0.01 0.03 0.03 0.00 0.00 0.00 0.00 0.00 0.00 0.00 0.00 0.00 0.00 0.00 0.00 0.00 0.00 0.00 0.00 0.00 0.00 0.00 0.00 0.00 0.00 0.00 0.00 0.00 0.00 0.00 0.00 0.00 0.00 0.00 0.00 0.00 0.00
0.00 0.03 0.02 0.05 0.05 0.00 0.00 0.02 0.03 0.03 0.02 0.01 0.00 0.00 0.00 0.00 0.00 0.00 0.00 0.00 0.00 0.00 0.00 0.00 0.00 0.00 0.00 0.00 0.00 0.00 0.00 0.00 0.00 0.00 0.00 0.00 0.00 0.00 0.00 0.00 0.00 0.00 0.00
0.00 0.00 0.02 0.06 0.05 0.03 0.03 0.10 0.05 0.12 0.07 0.02 0.02 0.00 0.00 0.00 0.00 0.00 0.00 0.00 0.00 0.00 0.00 0.00 0.00 0.00 0.00 0.00 0.00 0.00 0.00 0.00 0.00 0.00 0.00 0.00 0.00 0.00 0.00 0.00 0.00 0.00 0.00
0.00 0.00 0.00 0.01 0.02 0.03 0.08 0.16 0.16 0.17 0.09 0.04 0.03 0.01 0.01 0.00 0.00 0.00 0.00 0.00 0.00 0.00 0.00 0.00 0.00 0.00 0.00 0.00 0.00 0.00 0.00 0.00 0.00 0.00 0.00 0.00 0.00 0.00 0.00 0.00 0.00 0.00 0.00
0.00 0.00 0.00 0.00 0.01 0.07 0.13 0.22 0.17 0.08 0.06 0.07 0.08 0.04 0.09 0.05 0.02 0.01 0.00 0.00 0.00 0.00 0.00 0.00 0.00 0.00 0.00 0.00 0.00 0.00 0.00 0.00 0.00 0.00 0.00 0.00 0.00 0.00 0.00 0.00 0.00 0.00 0.00
0.00 0.00 0.00 0.00 0.00 0.05 0.06 0.06 0.07 0.02 0.05 0.06 0.08 0.16 0.17 0.10 0.09 0.09 0.05 0.02 0.00 0.00 0.00 0.00 0.00 0.00 0.00 0.00 0.00 0.00 0.00 0.00 0.00 0.00 0.00 0.00 0.00 0.00 0.00 0.00 0.00 0.00 0.00
0.00 0.00 0.00 0.00 0.00 0.02 0.02 0.02 0.06 0.06 0.07 0.07 0.17 0.07 0.09 0.16 0.15 0.08 0.08 0.10 0.04 0.01 0.00 0.00 0.01 0.01 0.00 0.01 0.01 0.00 0.00 0.00 0.00 0.00 0.00 0.00 0.00 0.00 0.00 0.00 0.00 0.00 0.00
0.00 0.00 0.00 0.00 0.00 0.01 0.01 0.06 0.12 0.13 0.12 0.08 0.04 0.01 0.02 0.10 0.17 0.11 0.16 0.18 0.19 0.11 0.04 0.05 0.09 0.08 0.05 0.04 0.02 0.01 0.00 0.00 0.00 0.00 0.00 0.00 0.00 0.00 0.00 0.00 0.00 0.00 0.00
0.00 0.00 0.00 0.00 0.00 0.00 0.03 0.02 0.01 0.00 0.00 0.01 0.03 0.10 0.18 0.18 0.18 0.17 0.17 0.25 0.29 0.21 0.14 0.09 0.14 0.12 0.07 0.05 0.04 0.01 0.01 0.00 0.00 0.00 0.00 0.00 0.00 0.00 0.00 0.00 0.00 0.00 0.00
0.00 0.00 0.00 0.00 0.00 0.00 0.02 0.02 0.01 0.01 0.00 0.01 0.04 0.10 0.13 0.16 0.18 0.22 0.20 0.27 0.26 0.24 0.26 0.28 0.20 0.16 0.10 0.08 0.09 0.07 0.04 0.02 0.00 0.00 0.01 0.02 0.01 0.01 0.00 0.00 0.00 0.00 0.00
0.00 0.00 0.00 0.00 0.00 0.00 0.00 0.00 0.02 0.03 0.01 0.03 0.04 0.06 0.09 0.11 0.12 0.12 0.15 0.15 0.20 0.24 0.27 0.25 0.29 0.21 0.16 0.13 0.10 0.10 0.10 0.10 0.06 0.03 0.03 0.04 0.03 0.02 0.00 0.00 0.00 0.00 0.00

GFSSE_prec_precacc24_048.txt.gz
Total_Precipitation_Accumulation
0.00 0.01 0.03 0.02 0.04 0.03 0.02 0.02 0.04 0.04 0.07 0.10 0.08 0.04 0.02 0.00 0.00 0.00 0.00 0.00 0.02 0.02 0.04 0.08 0.08 0.07 0.04 0.01 0.00 0.00 0.00 0.00 0.00 0.00 0.00 0.00 0.00 0.00 0.00 0.00 0.00 0.00 0.00
0.00 0.01 0.02 0.03 0.04 0.04 0.03 0.04 0.05 0.03 0.08 0.09 0.08 0.04 0.00 0.00 0.00 0.00 0.00 0.00 0.02 0.05 0.13 0.21 0.17 0.11 0.04 0.00 0.00 0.00 0.00 0.00 0.00 0.00 0.00 0.00 0.00 0.00 0.00 0.00 0.00 0.00 0.00
0.00 0.00 0.01 0.03 0.03 0.04 0.03 0.05 0.03 0.04 0.06 0.09 0.05 0.02 0.00 0.00 0.00 0.00 0.00 0.02 0.07 0.13 0.20 0.14 0.04 0.00 0.00 0.00 0.00 0.00 0.00 0.00 0.00 0.00 0.00 0.00 0.00 0.01 0.00 0.00 0.00 0.00 0.00
0.00 0.00 0.00 0.02 0.02 0.01 0.02 0.04 0.03 0.04 0.09 0.07 0.03 0.01 0.00 0.00 0.00 0.01 0.02 0.05 0.09 0.06 0.03 0.00 0.00 0.00 0.00 0.00 0.00 0.00 0.00 0.00 0.00 0.00 0.00 0.00 0.00 0.02 0.01 0.01 0.01 0.00 0.00
0.00 0.00 0.00 0.02 0.02 0.02 0.02 0.02 0.03 0.06 0.07 0.05 0.02 0.01 0.00 0.00 0.01 0.03 0.03 0.03 0.01 0.00 0.00 0.00 0.00 0.00 0.00 0.00 0.00 0.00 0.00 0.00 0.00 0.00 0.00 0.00 0.00 0.02 0.03 0.05 0.06 0.05 0.06
0.00 0.00 0.00 0.02 0.02 0.02 0.03 0.02 0.04 0.05 0.05 0.05 0.02 0.00 0.00 0.00 0.01 0.01 0.00 0.00 0.00 0.00 0.00 0.00 0.00 0.00 0.00 0.00 0.00 0.00 0.00 0.00 0.00 0.00 0.00 0.00 0.01 0.05 0.03 0.04 0.08 0.14 0.18
0.00 0.00 0.00 0.02 0.01 0.02 0.02 0.01 0.03 0.04 0.05 0.04 0.02 0.00 0.00 0.00 0.00 0.00 0.00 0.00 0.00 0.00 0.00 0.00 0.00 0.00 0.00 0.00 0.00 0.00 0.00 0.00 0.00 0.00 0.00 0.00 0.00 0.02 0.02 0.02 0.04 0.04 0.04
0.00 0.00 0.00 0.01 0.01 0.02 0.01 0.01 0.02 0.02 0.05 0.05 0.02 0.00 0.00 0.00 0.00 0.00 0.00 0.00 0.00 0.00 0.00 0.00 0.01 0.01 0.00 0.00 0.00 0.00 0.00 0.00 0.00 0.00 0.00 0.00 0.00 0.00 0.00 0.00 0.00 0.01 0.02
0.00 0.00 0.00 0.00 0.00 0.00 0.00 0.01 0.01 0.01 0.04 0.04 0.02 0.01 0.00 0.00 0.00 0.00 0.00 0.00 0.00 0.01 0.00 0.03 0.03 0.00 0.00 0.00 0.00 0.00 0.00 0.00 0.00 0.00 0.00 0.00 0.00 0.00 0.02 0.04 0.02 0.02 0.00
0.00 0.00 0.00 0.00 0.00 0.00 0.00 0.00 0.00 0.00 0.01 0.02 0.02 0.01 0.00 0.00 0.00 0.00 0.00 0.00 0.01 0.01 0.03 0.04 0.00 0.00 0.00 0.00 0.00 0.00 0.00 0.00 0.00 0.00 0.00 0.00 0.00 0.05 0.11 0.08 0.06 0.03 0.01
0.01 0.01 0.01 0.00 0.00 0.00 0.00 0.00 0.00 0.00 0.00 0.01 0.00 0.00 0.00 0.00 0.00 0.00 0.00 0.00 0.00 0.03 0.03 0.00 0.00 0.00 0.00 0.00 0.00 0.00 0.00 0.00 0.00 0.00 0.00 0.01 0.06 0.11 0.07 0.03 0.02 0.01 0.00
0.02 0.04 0.02 0.00 0.00 0.00 0.00 0.00 0.00 0.00 0.00 0.00 0.00 0.00 0.00 0.00 0.00 0.00 0.00 0.00 0.00 0.02 0.00 0.00 0.00 0.00 0.00 0.00 0.00 0.00 0.00 0.00 0.00 0.00 0.00 0.02 0.05 0.03 0.01 0.01 0.01 0.00 0.00
0.01 0.00 0.00 0.00 0.00 0.00 0.00 0.00 0.00 0.00 0.00 0.00 0.00 0.00 0.00 0.00 0.00 0.00 0.00 0.00 0.00 0.00 0.00 0.00 0.00 0.00 0.00 0.00 0.00 0.00 0.00 0.00 0.00 0.00 0.00 0.04 0.02 0.00 0.00 0.00 0.00 0.00 0.00
0.00 0.01 0.00 0.00 0.00 0.00 0.00 0.00 0.00 0.00 0.00 0.00 0.00 0.00 0.00 0.00 0.00 0.00 0.00 0.00 0.00 0.00 0.00 0.00 0.00 0.00 0.00 0.00 0.00 0.00 0.00 0.00 0.00 0.00 0.00 0.00 0.00 0.00 0.00 0.00 0.00 0.00 0.00
0.00 0.00 0.00 0.00 0.00 0.01 0.02 0.01 0.00 0.00 0.00 0.00 0.00 0.00 0.00 0.00 0.00 0.00 0.00 0.00 0.00 0.00 0.00 0.00 0.00 0.00 0.00 0.00 0.00 0.00 0.00 0.00 0.00 0.00 0.00 0.00 0.00 0.00 0.00 0.00 0.00 0.00 0.00
0.01 0.02 0.02 0.00 0.02 0.00 0.01 0.03 0.03 0.00 0.00 0.00 0.00 0.00 0.00 0.00 0.00 0.00 0.00 0.00 0.00 0.00 0.00 0.00 0.00 0.00 0.00 0.00 0.00 0.00 0.00 0.00 0.00 0.00 0.00 0.00 0.00 0.00 0.00 0.00 0.00 0.00 0.00
0.00 0.03 0.01 0.05 0.05 0.00 0.00 0.01 0.02 0.02 0.02 0.01 0.00 0.00 0.00 0.00 0.00 0.00 0.00 0.00 0.00 0.00 0.00 0.00 0.00 0.00 0.00 0.00 0.00 0.00 0.00 0.00 0.00 0.00 0.00 0.00 0.00 0.00 0.00 0.00 0.00 0.00 0.00
0.00 0.00 0.01 0.05 0.04 0.02 0.03 0.08 0.05 0.12 0.07 0.02 0.01 0.00 0.00 0.00 0.00 0.00 0.00 0.00 0.00 0.00 0.00 0.00 0.00 0.00 0.00 0.00 0.00 0.00 0.00 0.00 0.00 0.00 0.00 0.00 0.00 0.00 0.00 0.00 0.00 0.00 0.00
0.00 0.00 0.00 0.00 0.01 0.04 0.06 0.12 0.13 0.16 0.09 0.04 0.03 0.01 0.01 0.00 0.00 0.00 0.00 0.00 0.00 0.00 0.00 0.00 0.00 0.00 0.00 0.00 0.00 0.00 0.00 0.00 0.00 0.00 0.00 0.00 0.00 0.00 0.00 0.00 0.00 0.00 0.00
0.00 0.00 0.00 0.00 0.00 0.04 0.06 0.15 0.11 0.05 0.06 0.07 0.09 0.05 0.09 0.05 0.02 0.02 0.01 0.00 0.00 0.00 0.00 0.00 0.00 0.00 0.00 0.00 0.00 0.00 0.00 0.00 0.00 0.00 0.00 0.00 0.00 0.00 0.00 0.00 0.00 0.00 0.00
0.00 0.00 0.00 0.00 0.00 0.01 0.03 0.04 0.04 0.01 0.05 0.09 0.10 0.18 0.22 0.13 0.11 0.10 0.05 0.03 0.01 0.00 0.00 0.00 0.00 0.00 0.00 0.01 0.00 0.00 0.00 0.00 0.00 0.00 0.00 0.00 0.00 0.00 0.00 0.00 0.00 0.00 0.00
0.00 0.00 0.00 0.00 0.00 0.00 0.00 0.00 0.01 0.02 0.03 0.04 0.14 0.08 0.10 0.18 0.17 0.10 0.09 0.10 0.05 0.02 0.01 0.02 0.03 0.05 0.04 0.06 0.05 0.01 0.00 0.00 0.00 0.00 0.00 0.00 0.00 0.00 0.00 0.00 0.00 0.00 0.00
0.00 0.00 0.00 0.00 0.00 0.00 0.00 0.02 0.04 0.05 0.05 0.04 0.03 0.01 0.02 0.10 0.17 0.13 0.17 0.19 0.20 0.12 0.06 0.08 0.13 0.13 0.11 0.11 0.08 0.05 0.00 0.00 0.00 0.00 0.00 0.00 0.00 0.00 0.00 0.01 0.00 0.00 0.00
0.00 0.00 0.00 0.00 0.00 0.00 0.00 0.01 0.01 0.00 0.00 0.00 0.00 0.04 0.11 0.16 0.18 0.17 0.17 0.26 0.30 0.21 0.15 0.10 0.16 0.16 0.15 0.10 0.09 0.06 0.04 0.01 0.00 0.00 0.00 0.01 0.00 0.00 0.00 0.01 0.01 0.00 0.00
0.00 0.00 0.00 0.00 0.00 0.00 0.00 0.01 0.01 0.00 0.00 0.00 0.01 0.05 0.08 0.13 0.17 0.22 0.20 0.27 0.28 0.26 0.27 0.29 0.22 0.19 0.15 0.15 0.15 0.16 0.11 0.06 0.03 0.01 0.01 0.04 0.03 0.02 0.01 0.00 0.00 0.00 0.00
0.00 0.00 0.00 0.00 0.00 0.00 0.00 0.00 0.01 0.02 0.01 0.02 0.03 0.04 0.06 0.09 0.10 0.11 0.15 0.15 0.21 0.28 0.30 0.29 0.33 0.25 0.22 0.19 0.15 0.14 0.14 0.15 0.10 0.05 0.05 0.06 0.05 0.03 0.01 0.00 0.00 0.00 0.00

GFSSE_prec_precacc24_051.txt.gz
Total_Precipitation_Accumulation
0.00 0.01 0.02 0.02 0.04 0.03 0.02 0.02 0.04 0.04 0.06 0.10 0.08 0.04 0.02 0.00 0.00 0.00 0.00 0.01 0.03 0.03 0.04 0.07 0.07 0.03 0.01 0.01 0.00 0.00 0.00 0.00 0.00 0.00 0.00 0.00 0.00 0.00 0.00 0.00 0.00 0.00 0.00
0.00 0.00 0.01 0.03 0.04 0.04 0.04 0.05 0.06 0.03 0.08 0.08 0.08 0.04 0.00 0.00 0.00 0.00 0.00 0.01 0.02 0.05 0.13 0.21 0.15 0.08 0.03 0.00 0.00 0.00 0.00 0.00 0.00 0.00 0.00 0.00 0.00 0.00 0.00 0.00 0.00 0.00 0.00
0.00 0.00 0.01 0.03 0.03 0.04 0.03 0.05 0.04 0.05 0.08 0.09 0.05 0.02 0.00 0.00 0.00 0.00 0.00 0.03 0.07 0.13 0.20 0.14 0.04 0.00 0.00 0.00 0.00 0.00 0.00 0.00 0.00 0.00 0.00 0.00 0.00 0.01 0.00 0.00 0.00 0.00 0.00
0.00 0.00 0.00 0.02 0.03 0.02 0.02 0.04 0.03 0.06 0.09 0.06 0.03 0.00 0.00 0.00 0.00 0.01 0.03 0.07 0.09 0.06 0.03 0.00 0.00 0.00 0.00 0.00 0.00 0.00 0.00 0.00 0.00 0.00 0.00 0.00 0.00 0.02 0.02 0.02 0.01 0.00 0.02
0.00 0.00 0.00 0.02 0.02 0.02 0.02 0.02 0.03 0.07 0.07 0.05 0.01 0.00 0.00 0.00 0.02 0.03 0.05 0.03 0.01 0.00 0.00 0.00 0.00 0.00 0.00 0.00 0.00 0.00 0.00 0.00 0.00 0.00 0.00 0.00 0.00 0.03 0.05 0.05 0.06 0.08 0.10
0.00 0.00 0.00 0.02 0.02 0.02 0.03 0.02 0.04 0.05 0.05 0.05 0.02 0.00 0.00 0.00 0.01 0.02 0.01 0.00 0.00 0.00 0.00 0.00 0.00 0.00 0.00 0.00 0.00 0.00 0.00 0.00 0.00 0.00 0.00 0.00 0.01 0.05 0.04 0.05 0.09 0.12 0.15
0.00 0.00 0.01 0.02 0.01 0.02 0.02 0.02 0.03 0.04 0.05 0.04 0.02 0.00 0.00 0.00 0.00 0.00 0.00 0.00 0.00 0.00 0.00 0.00 0.00 0.00 0.00 0.00 0.00 0.00 0.00 0.00 0.00 0.00 0.00 0.00 0.00 0.02 0.02 0.02 0.03 0.03 0.03
0.00 0.00 0.00 0.01 0.01 0.02 0.01 0.02 0.02 0.02 0.05 0.05 0.02 0.00 0.00 0.00 0.00 0.00 0.00 0.00 0.00 0.00 0.00 0.00 0.01 0.01 0.00 0.00 0.00 0.00 0.00 0.00 0.00 0.00 0.00 0.00 0.00 0.00 0.00 0.00 0.00 0.01 0.01
0.00 0.00 0.00 0.00 0.00 0.01 0.00 0.01 0.02 0.01 0.04 0.04 0.02 0.01 0.00 0.00 0.00 0.00 0.00 0.00 0.00 0.01 0.00 0.02 0.02 0.00 0.00 0.00 0.00 0.00 0.00 0.00 0.00 0.00 0.00 0.00 0.00 0.00 0.03 0.04 0.02 0.01 0.00
0.00 0.00 0.00 0.00 0.00 0.00 0.00 0.00 0.00 0.00 0.01 0.02 0.02 0.01 0.00 0.00 0.00 0.00 0.00 0.00 0.01 0.01 0.03 0.03 0.00 0.00 0.00 0.00 0.00 0.00 0.00 0.00 0.00 0.00 0.00 0.00 0.00 0.05 0.11 0.08 0.05 0.02 0.00
0.00 0.00 0.00 0.00 0.00 0.00 0.00 0.00 0.00 0.00 0.00 0.01 0.00 0.00 0.00 0.00 0.00 0.00 0.00 0.00 0.00 0.03 0.03 0.00 0.00 0.00 0.00 0.00 0.00 0.00 0.00 0.00 0.00 0.00 0.00 0.01 0.07 0.11 0.06 0.02 0.01 0.00 0.00
0.00 0.00 0.00 0.00 0.00 0.00 0.00 0.00 0.00 0.00 0.00 0.00 0.00 0.00 0.00 0.00 0.00 0.00 0.00 0.00 0.00 0.03 0.00 0.00 0.00 0.00 0.00 0.00 0.00 0.00 0.00 0.00 0.00 0.00 0.00 0.02 0.05 0.03 0.01 0.00 0.00 0.00 0.00
0.00 0.00 0.00 0.00 0.00 0.00 0.00 0.00 0.00 0.00 0.00 0.00 0.00 0.00 0.00 0.00 0.00 0.00 0.00 0.00 0.00 0.00 0.00 0.00 0.00 0.00 0.00 0.00 0.00 0.00 0.00 0.00 0.00 0.00 0.00 0.04 0.02 0.00 0.00 0.00 0.00 0.00 0.00
0.00 0.01 0.00 0.00 0.00 0.00 0.00 0.00 0.00 0.00 0.00 0.00 0.00 0.00 0.00 0.00 0.00 0.00 0.00 0.00 0.00 0.00 0.00 0.00 0.00 0.00 0.00 0.00 0.00 0.00 0.00 0.00 0.00 0.00 0.00 0.00 0.00 0.00 0.00 0.00 0.00 0.00 0.00
0.00 0.00 0.00 0.00 0.00 0.00 0.02 0.01 0.00 0.00 0.00 0.00 0.00 0.00 0.00 0.00 0.00 0.00 0.00 0.00 0.00 0.00 0.00 0.00 0.00 0.00 0.00 0.00 0.00 0.00 0.00 0.00 0.00 0.00 0.00 0.00 0.00 0.00 0.00 0.00 0.00 0.00 0.00
0.01 0.01 0.01 0.00 0.02 0.00 0.01 0.03 0.03 0.00 0.00 0.00 0.00 0.00 0.00 0.00 0.00 0.00 0.00 0.00 0.00 0.00 0.00 0.00 0.00 0.00 0.00 0.00 0.00 0.00 0.00 0.00 0.00 0.00 0.00 0.00 0.00 0.00 0.00 0.00 0.00 0.00 0.00
0.00 0.03 0.01 0.01 0.02 0.00 0.00 0.01 0.02 0.02 0.02 0.01 0.00 0.00 0.00 0.00 0.00 0.00 0.00 0.00 0.00 0.00 0.00 0.00 0.00 0.00 0.00 0.00 0.00 0.00 0.00 0.00 0.00 0.00 0.00 0.00 0.00 0.00 0.00 0.00 0.00 0.00 0.00
0.00 0.00 0.01 0.02 0.01 0.00 0.02 0.05 0.04 0.10 0.06 0.02 0.01 0.00 0.00 0.00 0.00 0.00 0.00 0.00 0.00 0.00 0.00 0.00 0.00 0.00 0.00 0.00 0.00 0.00 0.00 0.00 0.00 0.00 0.00 0.00 0.00 0.00 0.00 0.00 0.00 0.00 0.00
0.00 0.00 0.00 0.00 0.01 0.01 0.01 0.07 0.11 0.13 0.08 0.04 0.03 0.01 0.01 0.00 0.00 0.00 0.00 0.00 0.00 0.00 0.00 0.00 0.00 0.00 0.00 0.00 0.00 0.00 0.00 0.00 0.00 0.00 0.00 0.00 0.00 0.00 0.00 0.00 0.00 0.00 0.00
0.00 0.00 0.00 0.00 0.00 0.00 0.01 0.10 0.07 0.03 0.05 0.06 0.09 0.05 0.09 0.05 0.02 0.02 0.01 0.00 0.00 0.00 0.00 0.00 0.00 0.00 0.00 0.00 0.00 0.00 0.00 0.00 0.00 0.00 0.00 0.00 0.00 0.00 0.00 0.00 0.00 0.00 0.00
0.00 0.00 0.00 0.00 0.00 0.00 0.01 0.02 0.02 0.01 0.04 0.06 0.09 0.18 0.23 0.15 0.14 0.11 0.06 0.03 0.01 0.00 0.00 0.00 0.00 0.00 0.00 0.03 0.02 0.00 0.00 0.00 0.00 0.00 0.00 0.00 0.00 0.00 0.00 0.00 0.00 0.00 0.00
0.00 0.00 0.00 0.00 0.00 0.00 0.00 0.00 0.00 0.00 0.00 0.01 0.09 0.06 0.10 0.18 0.19 0.12 0.10 0.11 0.05 0.02 0.01 0.02 0.04 0.07 0.07 0.12 0.14 0.04 0.00 0.00 0.00 0.00 0.00 0.00 0.00 0.00 0.00 0.00 0.00 0.00 0.00
0.00 0.00 0.00 0.00 0.00 0.00 0.00 0.00 0.00 0.01 0.01 0.01 0.01 0.00 0.02 0.10 0.17 0.14 0.19 0.20 0.20 0.12 0.06 0.08 0.13 0.14 0.13 0.16 0.14 0.12 0.02 0.00 0.00 0.00 0.00 0.00 0.00 0.00 0.00 0.01 0.01 0.01 0.01
0.00 0.00 0.00 0.00 0.00 0.00 0.00 0.00 0.00 0.00 0.00 0.00 0.00 0.01 0.05 0.10 0.13 0.16 0.17 0.26 0.30 0.21 0.15 0.10 0.17 0.16 0.17 0.11 0.12 0.09 0.07 0.03 0.02 0.01 0.01 0.01 0.01 0.00 0.00 0.01 0.01 0.01 0.01
0.00 0.00 0.00 0.00 0.00 0.00 0.00 0.00 0.00 0.00 0.00 0.00 0.00 0.00 0.03 0.08 0.13 0.19 0.18 0.26 0.28 0.26 0.27 0.29 0.22 0.20 0.15 0.16 0.16 0.17 0.13 0.11 0.06 0.04 0.02 0.04 0.04 0.04 0.02 0.00 0.00 0.00 0.00
0.00 0.00 0.00 0.00 0.00 0.00 0.00 0.00 0.00 0.00 0.00 0.00 0.02 0.03 0.03 0.06 0.08 0.08 0.11 0.11 0.20 0.27 0.29 0.29 0.33 0.26 0.22 0.20 0.16 0.16 0.16 0.18 0.12 0.08 0.07 0.07 0.07 0.04 0.02 0.01 0.00 0.00 0.00

GFSSE_prec_precacc24_054.txt.gz
Total_Precipitation_Accumulation
0.00 0.01 0.02 0.02 0.03 0.02 0.01 0.02 0.03 0.03 0.05 0.08 0.07 0.03 0.02 0.00 0.00 0.00 0.01 0.02 0.03 0.03 0.04 0.07 0.06 0.01 0.01 0.00 0.00 0.00 0.00 0.00 0.00 0.00 0.00 0.00 0.00 0.00 0.00 0.00 0.00 0.00 0.01
0.00 0.01 0.01 0.02 0.03 0.03 0.03 0.04 0.05 0.03 0.07 0.08 0.08 0.04 0.00 0.00 0.00 0.00 0.01 0.02 0.02 0.05 0.11 0.17 0.09 0.03 0.01 0.00 0.00 0.00 0.00 0.00 0.00 0.00 0.00 0.00 0.00 0.00 0.00 0.00 0.00 0.00 0.01
0.00 0.00 0.01 0.02 0.03 0.04 0.03 0.05 0.03 0.04 0.07 0.08 0.04 0.02 0.00 0.00 0.00 0.00 0.01 0.03 0.07 0.13 0.20 0.13 0.03 0.00 0.00 0.00 0.00 0.00 0.00 0.00 0.00 0.00 0.00 0.00 0.00 0.01 0.00 0.00 0.00 0.00 0.00
0.00 0.00 0.00 0.01 0.03 0.02 0.02 0.04 0.03 0.06 0.08 0.05 0.02 0.00 0.00 0.00 0.00 0.02 0.04 0.07 0.09 0.06 0.02 0.00 0.00 0.00 0.00 0.00 0.00 0.00 0.00 0.00 0.00 0.00 0.00 0.00 0.00 0.02 0.02 0.02 0.01 0.03 0.03
0.00 0.00 0.00 0.02 0.02 0.01 0.02 0.02 0.04 0.07 0.06 0.04 0.01 0.00 0.00 0.00 0.02 0.04 0.06 0.03 0.01 0.00 0.00 0.00 0.00 0.00 0.00 0.00 0.00 0.00 0.00 0.00 0.00 0.00 0.00 0.00 0.00 0.04 0.06 0.06 0.07 0.10 0.13
0.00 0.00 0.01 0.02 0.02 0.02 0.03 0.02 0.05 0.05 0.05 0.04 0.01 0.00 0.00 0.01 0.02 0.03 0.01 0.00 0.00 0.00 0.00 0.00 0.00 0.00 0.00 0.00 0.00 0.00 0.00 0.00 0.00 0.00 0.00 0.00 0.01 0.05 0.05 0.07 0.09 0.11 0.12
0.00 0.00 0.01 0.02 0.01 0.02 0.02 0.03 0.03 0.04 0.05 0.04 0.01 0.00 0.01 0.01 0.01 0.01 0.00 0.00 0.00 0.00 0.00 0.00 0.00 0.00 0.00 0.00 0.00 0.00 0.00 0.00 0.00 0.00 0.00 0.00 0.00 0.02 0.02 0.02 0.02 0.03 0.03
0.00 0.00 0.00 0.01 0.01 0.02 0.02 0.02 0.02 0.02 0.05 0.05 0.02 0.00 0.00 0.01 0.02 0.01 0.00 0.00 0.00 0.00 0.00 0.00 0.01 0.00 0.00 0.00 0.00 0.00 0.00 0.00 0.00 0.00 0.00 0.00 0.00 0.00 0.00 0.00 0.00 0.00 0.00
0.00 0.00 0.00 0.00 0.00 0.01 0.01 0.01 0.02 0.01 0.04 0.04 0.02 0.01 0.00 0.00 0.01 0.01 0.00 0.00 0.00 0.01 0.00 0.02 0.01 0.00 0.00 0.00 0.00 0.00 0.00 0.00 0.00 0.00 0.00 0.00 0.00 0.01 0.03 0.04 0.02 0.00 0.00
0.00 0.00 0.00 0.00 0.00 0.00 0.00 0.01 0.01 0.01 0.01 0.02 0.02 0.01 0.00 0.00 0.00 0.00 0.00 0.00 0.01 0.01 0.02 0.02 0.00 0.00 0.00 0.00 0.00 0.00 0.00 0.00 0.00 0.00 0.00 0.00 0.00 0.06 0.11 0.07 0.03 0.00 0.00
0.00 0.00 0.00 0.00 0.00 0.00 0.00 0.00 0.00 0.00 0.00 0.01 0.00 0.00 0.00 0.00 0.00 0.00 0.00 0.00 0.00 0.02 0.02 0.00 0.00 0.00 0.00 0.00 0.00 0.00 0.00 0.00 0.00 0.00 0.00 0.01 0.07 0.11 0.04 0.01 0.00 0.00 0.00
0.00 0.00 0.00 0.00 0.00 0.00 0.00 0.00 0.00 0.00 0.00 0.00 0.00 0.00 0.00 0.00 0.00 0.00 0.00 0.00 0.00 0.02 0.00 0.00 0.00 0.00 0.00 0.00 0.00 0.00 0.00 0.00 0.00 0.00 0.00 0.02 0.04 0.04 0.00 0.00 0.00 0.00 0.00
0.00 0.00 0.00 0.00 0.00 0.00 0.00 0.00 0.00 0.00 0.00 0.00 0.00 0.00 0.00 0.00 0.00 0.00 0.00 0.00 0.00 0.00 0.00 0.00 0.00 0.00 0.00 0.00 0.00 0.00 0.00 0.00 0.00 0.00 0.00 0.03 0.02 0.01 0.00 0.00 0.00 0.00 0.00
0.00 0.00 0.00 0.00 0.00 0.00 0.00 0.00 0.00 0.00 0.00 0.00 0.00 0.00 0.00 0.00 0.00 0.00 0.00 0.00 0.00 0.00 0.00 0.00 0.00 0.00 0.00 0.00 0.00 0.00 0.00 0.00 0.00 0.00 0.00 0.00 0.00 0.00 0.00 0.00 0.00 0.00 0.00
0.00 0.00 0.00 0.00 0.00 0.00 0.02 0.01 0.00 0.00 0.00 0.00 0.00 0.00 0.00 0.00 0.00 0.00 0.00 0.00 0.00 0.00 0.00 0.00 0.00 0.00 0.00 0.00 0.00 0.00 0.00 0.00 0.00 0.00 0.00 0.00 0.00 0.00 0.00 0.00 0.00 0.00 0.00
0.01 0.01 0.00 0.00 0.01 0.00 0.01 0.02 0.02 0.00 0.00 0.00 0.00 0.00 0.00 0.00 0.00 0.00 0.00 0.00 0.00 0.00 0.00 0.00 0.00 0.00 0.00 0.00 0.00 0.00 0.00 0.00 0.00 0.00 0.00 0.00 0.00 0.00 0.00 0.00 0.00 0.00 0.00
0.00 0.00 0.00 0.00 0.00 0.00 0.00 0.00 0.01 0.00 0.01 0.01 0.00 0.00 0.00 0.00 0.00 0.00 0.00 0.00 0.00 0.00 0.00 0.00 0.00 0.00 0.00 0.00 0.00 0.00 0.00 0.00 0.00 0.00 0.00 0.00 0.00 0.00 0.00 0.00 0.00 0.00 0.00
0.00 0.00 0.00 0.00 0.01 0.00 0.00 0.01 0.02 0.07 0.05 0.02 0.01 0.00 0.00 0.00 0.00 0.00 0.00 0.00 0.00 0.00 0.00 0.00 0.00 0.00 0.00 0.00 0.00 0.00 0.00 0.00 0.00 0.00 0.00 0.00 0.00 0.00 0.00 0.00 0.00 0.00 0.00
0.00 0.00 0.00 0.00 0.01 0.01 0.00 0.06 0.08 0.09 0.04 0.02 0.02 0.01 0.01 0.00 0.00 0.00 0.00 0.00 0.00 0.00 0.00 0.00 0.00 0.00 0.00 0.00 0.00 0.00 0.00 0.00 0.00 0.00 0.00 0.00 0.00 0.00 0.00 0.00 0.00 0.00 0.00
0.00 0.00 0.00 0.00 0.00 0.00 0.00 0.05 0.02 0.02 0.03 0.02 0.06 0.04 0.08 0.05 0.02 0.02 0.00 0.00 0.00 0.00 0.00 0.00 0.00 0.00 0.00 0.00 0.00 0.00 0.00 0.00 0.00 0.00 0.00 0.00 0.00 0.00 0.00 0.00 0.00 0.00 0.00
0.00 0.00 0.00 0.00 0.00 0.00 0.00 0.00 0.01 0.01 0.03 0.05 0.06 0.16 0.21 0.15 0.12 0.08 0.04 0.03 0.01 0.00 0.00 0.00 0.00 0.00 0.00 0.03 0.02 0.00 0.00 0.00 0.00 0.00 0.00 0.00 0.00 0.00 0.00 0.00 0.00 0.00 0.00
0.00 0.00 0.00 0.00 0.00 0.00 0.00 0.00 0.00 0.00 0.00 0.01 0.05 0.05 0.08 0.14 0.15 0.10 0.10 0.11 0.05 0.02 0.01 0.02 0.04 0.07 0.07 0.13 0.16 0.04 0.00 0.00 0.00 0.00 0.00 0.00 0.00 0.00 0.00 0.00 0.00 0.00 0.00
0.00 0.00 0.00 0.00 0.00 0.00 0.00 0.00 0.00 0.00 0.00 0.01 0.00 0.00 0.01 0.06 0.13 0.14 0.18 0.20 0.21 0.12 0.06 0.08 0.13 0.14 0.14 0.16 0.15 0.14 0.02 0.00 0.00 0.00 0.00 0.00 0.00 0.00 0.00 0.01 0.01 0.01 0.01
0.00 0.00 0.00 0.00 0.00 0.00 0.00 0.00 0.00 0.00 0.00 0.00 0.00 0.00 0.00 0.03 0.06 0.12 0.13 0.22 0.29 0.21 0.15 0.10 0.17 0.17 0.17 0.11 0.12 0.09 0.08 0.03 0.03 0.02 0.01 0.01 0.01 0.00 0.00 0.01 0.01 0.01 0.01
0.00 0.00 0.00 0.00 0.00 0.00 0.00 0.00 0.00 0.00 0.00 0.00 0.00 0.00 0.00 0.04 0.07 0.10 0.09 0.18 0.23 0.23 0.26 0.29 0.22 0.20 0.15 0.17 0.16 0.17 0.13 0.11 0.07 0.05 0.02 0.04 0.05 0.04 0.02 0.01 0.00 0.00 0.00
0.00 0.00 0.00 0.00 0.00 0.00 0.00 0.00 0.00 0.00 0.00 0.00 0.01 0.02 0.01 0.01 0.04 0.06 0.08 0.09 0.16 0.23 0.25 0.27 0.33 0.26 0.22 0.20 0.17 0.16 0.17 0.19 0.13 0.09 0.07 0.07 0.07 0.04 0.02 0.01 0.00 0.00 0.00

GFSSE_prec_precacc24_057.txt.gz
Total_Precipitation_Accumulation
0.00 0.01 0.01 0.01 0.02 0.02 0.01 0.02 0.02 0.02 0.04 0.06 0.05 0.02 0.02 0.00 0.00 0.00 0.01 0.02 0.03 0.03 0.04 0.07 0.03 0.00 0.00 0.00 0.00 0.00 0.00 0.00 0.00 0.00 0.00 0.00 0.00 0.00 0.00 0.00 0.00 0.00 0.02
0.00 0.01 0.01 0.02 0.02 0.02 0.03 0.04 0.04 0.02 0.06 0.07 0.07 0.03 0.00 0.00 0.00 0.00 0.01 0.02 0.02 0.04 0.08 0.11 0.03 0.01 0.00 0.00 0.00 0.00 0.00 0.00 0.00 0.00 0.00 0.00 0.00 0.00 0.00 0.00 0.00 0.01 0.02
0.00 0.00 0.01 0.02 0.02 0.02 0.02 0.04 0.02 0.04 0.07 0.08 0.04 0.02 0.00 0.00 0.00 0.00 0.01 0.03 0.07 0.12 0.17 0.09 0.01 0.00 0.00 0.00 0.00 0.00 0.00 0.00 0.00 0.00 0.00 0.00 0.00 0.01 0.00 0.00 0.01 0.00 0.00
0.00 0.00 0.00 0.01 0.02 0.02 0.01 0.03 0.02 0.06 0.07 0.05 0.02 0.00 0.00 0.00 0.01 0.02 0.04 0.07 0.09 0.05 0.01 0.00 0.00 0.00 0.00 0.00 0.00 0.00 0.00 0.00 0.00 0.00 0.00 0.00 0.00 0.02 0.02 0.02 0.05 0.06 0.04
0.00 0.00 0.00 0.01 0.02 0.01 0.02 0.01 0.04 0.07 0.05 0.03 0.00 0.00 0.00 0.00 0.02 0.05 0.06 0.03 0.01 0.00 0.00 0.00 0.00 0.00 0.00 0.00 0.00 0.00 0.00 0.00 0.00 0.00 0.00 0.00 0.01 0.06 0.07 0.07 0.08 0.11 0.15
0.00 0.00 0.01 0.02 0.01 0.02 0.03 0.03 0.06 0.05 0.04 0.03 0.01 0.00 0.01 0.01 0.03 0.04 0.01 0.00 0.00 0.00 0.00 0.00 0.00 0.00 0.00 0.00 0.00 0.00 0.00 0.00 0.00 0.00 0.00 0.00 0.02 0.06 0.06 0.07 0.08 0.09 0.11
0.00 0.00 0.01 0.02 0.01 0.02 0.03 0.03 0.03 0.04 0.04 0.03 0.01 0.00 0.03 0.02 0.02 0.02 0.00 0.00 0.00 0.00 0.00 0.00 0.00 0.00 0.00 0.00 0.00 0.00 0.00 0.00 0.00 0.00 0.00 0.00 0.00 0.02 0.03 0.02 0.02 0.02 0.02
0.00 0.00 0.00 0.02 0.01 0.02 0.02 0.03 0.02 0.02 0.04 0.04 0.01 0.00 0.02 0.03 0.03 0.02 0.00 0.00 0.00 0.00 0.00 0.00 0.00 0.00 0.00 0.00 0.00 0.00 0.00 0.00 0.00 0.00 0.00 0.00 0.00 0.00 0.00 0.00 0.00 0.00 0.00
0.00 0.00 0.00 0.00 0.00 0.01 0.01 0.01 0.02 0.01 0.03 0.04 0.02 0.00 0.00 0.00 0.02 0.02 0.01 0.00 0.00 0.00 0.00 0.01 0.00 0.00 0.00 0.00 0.00 0.00 0.00 0.00 0.00 0.00 0.00 0.00 0.00 0.01 0.03 0.04 0.01 0.00 0.00
0.00 0.00 0.00 0.00 0.00 0.00 0.00 0.01 0.01 0.01 0.01 0.02 0.02 0.01 0.00 0.00 0.00 0.00 0.00 0.00 0.01 0.01 0.01 0.01 0.00 0.00 0.00 0.00 0.00 0.00 0.00 0.00 0.00 0.00 0.00 0.00 0.00 0.06 0.10 0.05 0.01 0.00 0.00
0.00 0.00 0.00 0.00 0.00 0.00 0.00 0.01 0.01 0.01 0.00 0.01 0.00 0.00 0.00 0.00 0.00 0.00 0.00 0.00 0.00 0.01 0.02 0.00 0.00 0.00 0.00 0.00 0.00 0.00 0.00 0.00 0.00 0.00 0.00 0.01 0.06 0.10 0.03 0.00 0.00 0.00 0.00
0.00 0.00 0.00 0.00 0.00 0.00 0.00 0.00 0.00 0.00 0.00 0.00 0.00 0.00 0.00 0.00 0.00 0.00 0.00 0.00 0.00 0.01 0.00 0.00 0.00 0.00 0.00 0.00 0.00 0.00 0.00 0.00 0.00 0.00 0.00 0.02 0.03 0.05 0.00 0.00 0.00 0.00 0.00
0.00 0.00 0.00 0.00 0.00 0.00 0.00 0.00 0.00 0.00 0.00 0.00 0.00 0.00 0.00 0.00 0.00 0.00 0.00 0.00 0.00 0.00 0.00 0.00 0.00 0.00 0.00 0.00 0.00 0.00 0.00 0.00 0.00 0.00 0.00 0.02 0.02 0.04 0.00 0.00 0.00 0.00 0.00
0.00 0.00 0.00 0.00 0.00 0.00 0.00 0.00 0.00 0.00 0.00 0.00 0.00 0.00 0.00 0.00 0.00 0.00 0.00 0.00 0.00 0.00 0.00 0.00 0.00 0.00 0.00 0.00 0.00 0.00 0.00 0.00 0.00 0.00 0.00 0.00 0.00 0.01 0.00 0.00 0.00 0.00 0.00
0.00 0.00 0.00 0.00 0.00 0.00 0.00 0.00 0.00 0.00 0.00 0.00 0.00 0.00 0.00 0.00 0.00 0.00 0.00 0.00 0.00 0.00 0.00 0.00 0.00 0.00 0.00 0.00 0.00 0.00 0.00 0.00 0.00 0.00 0.00 0.00 0.00 0.00 0.00 0.00 0.00 0.00 0.00
0.02 0.01 0.00 0.00 0.01 0.00 0.00 0.01 0.00 0.00 0.00 0.00 0.00 0.00 0.00 0.00 0.00 0.00 0.00 0.00 0.00 0.00 0.00 0.00 0.00 0.00 0.00 0.00 0.00 0.00 0.00 0.00 0.00 0.00 0.00 0.00 0.00 0.00 0.00 0.00 0.00 0.00 0.00
0.03 0.00 0.00 0.00 0.00 0.00 0.00 0.00 0.00 0.00 0.00 0.00 0.00 0.00 0.00 0.00 0.00 0.00 0.00 0.00 0.00 0.00 0.00 0.00 0.00 0.00 0.00 0.00 0.00 0.00 0.00 0.00 0.00 0.00 0.00 0.00 0.00 0.00 0.00 0.00 0.00 0.00 0.00
0.03 0.00 0.00 0.00 0.01 0.00 0.00 0.01 0.02 0.04 0.02 0.01 0.00 0.00 0.00 0.00 0.00 0.00 0.00 0.00 0.00 0.00 0.00 0.00 0.00 0.00 0.00 0.00 0.00 0.00 0.00 0.00 0.00 0.00 0.00 0.00 0.00 0.00 0.00 0.00 0.00 0.00 0.00
0.05 0.02 0.00 0.00 0.01 0.01 0.00 0.03 0.04 0.05 0.02 0.01 0.01 0.01 0.00 0.00 0.00 0.00 0.00 0.00 0.00 0.00 0.00 0.00 0.00 0.00 0.00 0.00 0.00 0.00 0.00 0.00 0.00 0.00 0.00 0.00 0.00 0.00 0.00 0.00 0.00 0.00 0.00
0.00 0.01 0.01 0.00 0.00 0.00 0.00 0.02 0.01 0.01 0.03 0.02 0.05 0.03 0.02 0.05 0.02 0.02 0.00 0.00 0.00 0.00 0.00 0.00 0.00 0.00 0.00 0.00 0.00 0.00 0.00 0.00 0.00 0.00 0.00 0.01 0.01 0.00 0.00 0.00 0.00 0.00 0.00
0.00 0.00 0.00 0.00 0.00 0.00 0.00 0.00 0.00 0.00 0.02 0.05 0.04 0.13 0.17 0.13 0.09 0.07 0.02 0.03 0.01 0.00 0.00 0.00 0.00 0.00 0.00 0.03 0.02 0.00 0.00 0.00 0.00 0.00 0.00 0.02 0.01 0.01 0.00 0.00 0.00 0.00 0.00
0.00 0.00 0.00 0.00 0.00 0.00 0.00 0.00 0.00 0.00 0.00 0.00 0.02 0.04 0.07 0.12 0.11 0.09 0.08 0.09 0.05 0.02 0.01 0.02 0.04 0.07 0.07 0.13 0.16 0.04 0.00 0.00 0.00 0.00 0.00 0.00 0.00 0.00 0.00 0.00 0.00 0.00 0.00
0.00 0.00 0.00 0.00 0.00 0.00 0.00 0.00 0.00 0.00 0.00 0.00 0.00 0.00 0.01 0.05 0.10 0.12 0.15 0.16 0.16 0.12 0.06 0.08 0.13 0.14 0.14 0.16 0.15 0.14 0.02 0.00 0.00 0.00 0.00 0.00 0.00 0.00 0.00 0.01 0.01 0.01 0.01
0.00 0.00 0.00 0.00 0.00 0.00 0.00 0.00 0.00 0.00 0.00 0.00 0.00 0.00 0.00 0.02 0.01 0.07 0.10 0.14 0.16 0.18 0.15 0.10 0.17 0.17 0.17 0.11 0.12 0.09 0.08 0.04 0.04 0.02 0.01 0.01 0.01 0.00 0.00 0.01 0.01 0.01 0.01
0.00 0.00 0.00 0.00 0.00 0.00 0.00 0.00 0.00 0.00 0.00 0.00 0.00 0.00 0.00 0.01 0.02 0.04 0.06 0.11 0.14 0.16 0.20 0.24 0.21 0.19 0.15 0.17 0.16 0.17 0.13 0.12 0.07 0.06 0.03 0.04 0.05 0.04 0.02 0.01 0.00 0.00 0.00
0.00 0.00 0.00 0.00 0.00 0.00 0.00 0.00 0.00 0.00 0.00 0.00 0.00 0.00 0.00 0.00 0.01 0.02 0.05 0.04 0.09 0.16 0.20 0.21 0.28 0.23 0.21 0.20 0.17 0.17 0.18 0.19 0.13 0.09 0.08 0.07 0.07 0.04 0.02 0.01 0.00 0.00 0.00

GFSSE_prec_precacc24_060.txt.gz
Total_Precipitation_Accumulation
0.00 0.01 0.02 0.01 0.01 0.02 0.02 0.02 0.03 0.02 0.03 0.05 0.03 0.01 0.02 0.00 0.00 0.01 0.01 0.02 0.03 0.03 0.04 0.04 0.01 0.00 0.00 0.00 0.00 0.00 0.00 0.00 0.00 0.00 0.00 0.00 0.00 0.00 0.00 0.00 0.00 0.00 0.02
0.00 0.01 0.02 0.02 0.02 0.03 0.03 0.04 0.05 0.03 0.05 0.05 0.05 0.03 0.00 0.01 0.01 0.00 0.01 0.02 0.02 0.03 0.07 0.04 0.01 0.00 0.00 0.00 0.00 0.00 0.00 0.00 0.00 0.00 0.00 0.00 0.00 0.00 0.00 0.00 0.00 0.01 0.02
0.00 0.00 0.01 0.02 0.02 0.03 0.03 0.03 0.01 0.04 0.06 0.06 0.03 0.01 0.00 0.00 0.00 0.00 0.01 0.03 0.06 0.09 0.12 0.03 0.00 0.00 0.00 0.00 0.00 0.00 0.00 0.00 0.00 0.00 0.00 0.00 0.00 0.01 0.00 0.02 0.02 0.00 0.01
0.00 0.00 0.00 0.01 0.03 0.03 0.01 0.02 0.02 0.06 0.06 0.04 0.01 0.00 0.00 0.01 0.01 0.02 0.04 0.07 0.08 0.04 0.01 0.00 0.00 0.00 0.00 0.00 0.00 0.00 0.00 0.00 0.00 0.00 0.00 0.00 0.01 0.02 0.04 0.05 0.07 0.07 0.04
0.00 0.00 0.01 0.02 0.03 0.01 0.01 0.01 0.04 0.06 0.04 0.02 0.00 0.00 0.00 0.01 0.03 0.05 0.06 0.03 0.01 0.00 0.00 0.00 0.00 0.00 0.00 0.00 0.00 0.00 0.00 0.00 0.00 0.00 0.00 0.01 0.02 0.07 0.08 0.07 0.07 0.11 0.15
0.00 0.00 0.02 0.02 0.02 0.01 0.03 0.03 0.05 0.04 0.03 0.01 0.00 0.00 0.01 0.02 0.04 0.04 0.01 0.00 0.00 0.00 0.00 0.00 0.00 0.00 0.00 0.00 0.00 0.00 0.00 0.00 0.00 0.00 0.00 0.00 0.02 0.07 0.06 0.07 0.08 0.07 0.09
0.00 0.00 0.01 0.02 0.02 0.01 0.03 0.04 0.03 0.03 0.03 0.02 0.00 0.01 0.03 0.03 0.04 0.02 0.00 0.00 0.00 0.00 0.00 0.00 0.00 0.00 0.00 0.00 0.00 0.00 0.00 0.00 0.00 0.00 0.00 0.00 0.01 0.02 0.03 0.02 0.01 0.01 0.01
0.00 0.01 0.01 0.01 0.01 0.02 0.03 0.03 0.02 0.02 0.04 0.02 0.01 0.01 0.03 0.05 0.05 0.02 0.00 0.00 0.00 0.00 0.00 0.00 0.00 0.00 0.00 0.00 0.00 0.00 0.00 0.00 0.00 0.00 0.00 0.00 0.00 0.00 0.00 0.00 0.00 0.00 0.00
0.00 0.01 0.01 0.01 0.00 0.01 0.02 0.01 0.02 0.01 0.03 0.02 0.01 0.00 0.00 0.01 0.02 0.03 0.01 0.00 0.00 0.00 0.00 0.00 0.00 0.00 0.00 0.00 0.00 0.00 0.00 0.00 0.00 0.00 0.00 0.00 0.00 0.01 0.03 0.02 0.00 0.00 0.00
0.01 0.01 0.01 0.01 0.00 0.00 0.01 0.01 0.02 0.01 0.01 0.02 0.01 0.00 0.00 0.00 0.00 0.00 0.00 0.00 0.00 0.00 0.00 0.00 0.00 0.00 0.00 0.00 0.00 0.00 0.00 0.00 0.00 0.00 0.00 0.00 0.00 0.06 0.07 0.02 0.01 0.00 0.00
0.01 0.01 0.01 0.01 0.00 0.00 0.01 0.01 0.01 0.01 0.00 0.01 0.00 0.00 0.00 0.00 0.00 0.00 0.00 0.00 0.00 0.01 0.01 0.00 0.00 0.00 0.00 0.00 0.00 0.00 0.00 0.00 0.00 0.00 0.00 0.01 0.04 0.09 0.02 0.00 0.00 0.00 0.00
0.01 0.01 0.01 0.01 0.00 0.00 0.00 0.01 0.00 0.00 0.00 0.00 0.00 0.00 0.00 0.00 0.00 0.00 0.00 0.00 0.00 0.01 0.00 0.00 0.00 0.00 0.00 0.00 0.00 0.00 0.00 0.00 0.00 0.00 0.00 0.01 0.03 0.05 0.02 0.00 0.00 0.00 0.00
0.00 0.00 0.00 0.00 0.00 0.00 0.00 0.01 0.00 0.00 0.00 0.00 0.00 0.00 0.00 0.00 0.00 0.00 0.00 0.00 0.00 0.00 0.00 0.00 0.00 0.00 0.00 0.00 0.00 0.00 0.00 0.00 0.00 0.00 0.00 0.01 0.02 0.04 0.01 0.00 0.00 0.00 0.00
0.00 0.00 0.00 0.00 0.00 0.00 0.00 0.00 0.00 0.00 0.00 0.00 0.00 0.00 0.00 0.00 0.00 0.00 0.00 0.00 0.00 0.00 0.00 0.00 0.00 0.00 0.00 0.00 0.00 0.00 0.00 0.00 0.00 0.00 0.00 0.00 0.00 0.01 0.00 0.00 0.00 0.00 0.00
0.00 0.00 0.00 0.00 0.00 0.00 0.00 0.00 0.00 0.00 0.00 0.00 0.00 0.00 0.00 0.00 0.00 0.00 0.00 0.00 0.00 0.00 0.00 0.00 0.00 0.00 0.00 0.00 0.00 0.00 0.00 0.00 0.00 0.00 0.00 0.00 0.00 0.00 0.00 0.00 0.00 0.00 0.00
0.08 0.02 0.00 0.00 0.01 0.00 0.00 0.00 0.00 0.00 0.00 0.00 0.00 0.00 0.00 0.00 0.00 0.00 0.00 0.00 0.00 0.00 0.00 0.00 0.00 0.00 0.00 0.00 0.00 0.00 0.00 0.00 0.00 0.00 0.00 0.00 0.00 0.00 0.00 0.00 0.00 0.00 0.00
0.10 0.06 0.01 0.00 0.00 0.00 0.00 0.00 0.00 0.00 0.00 0.00 0.00 0.00 0.00 0.00 0.00 0.00 0.00 0.00 0.00 0.00 0.00 0.00 0.00 0.00 0.00 0.00 0.00 0.00 0.00 0.00 0.00 0.00 0.00 0.00 0.00 0.00 0.00 0.00 0.00 0.00 0.00
0.04 0.03 0.04 0.01 0.01 0.00 0.00 0.01 0.00 0.00 0.00 0.00 0.00 0.00 0.00 0.00 0.00 0.00 0.00 0.00 0.00 0.00 0.00 0.00 0.00 0.00 0.00 0.00 0.00 0.00 0.00 0.00 0.00 0.00 0.00 0.00 0.00 0.00 0.00 0.00 0.00 0.00 0.00
0.05 0.04 0.05 0.04 0.03 0.02 0.01 0.00 0.01 0.02 0.01 0.01 0.00 0.00 0.00 0.00 0.00 0.00 0.00 0.00 0.00 0.00 0.00 0.00 0.00 0.00 0.00 0.00 0.00 0.00 0.00 0.00 0.00 0.00 0.00 0.00 0.00 0.00 0.00 0.00 0.00 0.00 0.00
0.00 0.02 0.04 0.05 0.05 0.05 0.04 0.02 0.01 0.01 0.03 0.02 0.05 0.03 0.02 0.02 0.01 0.02 0.00 0.00 0.00 0.00 0.00 0.00 0.00 0.00 0.00 0.00 0.00 0.00 0.00 0.00 0.00 0.00 0.00 0.01 0.01 0.01 0.00 0.00 0.00 0.00 0.00
0.00 0.00 0.00 0.01 0.01 0.01 0.01 0.01 0.00 0.00 0.02 0.04 0.04 0.10 0.16 0.10 0.08 0.05 0.02 0.03 0.01 0.00 0.01 0.00 0.00 0.00 0.00 0.03 0.02 0.00 0.00 0.00 0.00 0.00 0.00 0.02 0.01 0.01 0.00 0.00 0.00 0.00 0.00
0.00 0.00 0.00 0.00 0.00 0.00 0.00 0.00 0.00 0.00 0.00 0.00 0.01 0.02 0.06 0.10 0.11 0.09 0.08 0.06 0.05 0.02 0.02 0.02 0.05 0.07 0.07 0.13 0.16 0.04 0.00 0.00 0.00 0.00 0.00 0.00 0.00 0.00 0.00 0.00 0.00 0.00 0.00
0.00 0.00 0.00 0.00 0.00 0.00 0.00 0.00 0.00 0.00 0.00 0.00 0.00 0.00 0.01 0.05 0.09 0.12 0.12 0.12 0.15 0.10 0.05 0.07 0.13 0.15 0.15 0.16 0.15 0.14 0.02 0.00 0.00 0.00 0.00 0.00 0.00 0.00 0.00 0.01 0.01 0.01 0.01
0.00 0.00 0.00 0.00 0.00 0.00 0.00 0.00 0.00 0.00 0.00 0.00 0.00 0.00 0.00 0.00 0.00 0.04 0.07 0.11 0.13 0.16 0.14 0.09 0.16 0.17 0.18 0.12 0.12 0.09 0.08 0.04 0.04 0.03 0.01 0.01 0.01 0.00 0.00 0.01 0.01 0.01 0.01
0.00 0.00 0.00 0.00 0.00 0.00 0.00 0.00 0.00 0.00 0.00 0.00 0.00 0.00 0.00 0.00 0.01 0.00 0.01 0.06 0.11 0.12 0.17 0.22 0.19 0.19 0.15 0.18 0.16 0.18 0.14 0.12 0.07 0.06 0.03 0.05 0.05 0.04 0.02 0.01 0.00 0.00 0.00
0.00 0.00 0.00 0.00 0.00 0.00 0.00 0.00 0.00 0.00 0.00 0.00 0.00 0.00 0.00 0.00 0.01 0.01 0.01 0.01 0.06 0.14 0.16 0.17 0.23 0.18 0.18 0.19 0.16 0.17 0.18 0.20 0.14 0.09 0.08 0.07 0.07 0.04 0.02 0.01 0.00 0.00 0.00

GFSSE_prec_precacc24_063.txt.gz
Total_Precipitation_Accumulation
0.00 0.01 0.03 0.01 0.01 0.01 0.02 0.03 0.04 0.03 0.03 0.03 0.01 0.01 0.00 0.00 0.02 0.01 0.01 0.02 0.03 0.03 0.04 0.02 0.01 0.00 0.00 0.00 0.00 0.00 0.00 0.00 0.00 0.00 0.00 0.00 0.00 0.00 0.00 0.00 0.01 0.00 0.02
0.00 0.01 0.02 0.02 0.01 0.02 0.04 0.05 0.05 0.03 0.04 0.04 0.04 0.02 0.04 0.03 0.01 0.00 0.01 0.02 0.02 0.03 0.04 0.01 0.01 0.00 0.00 0.00 0.00 0.00 0.00 0.00 0.00 0.00 0.00 0.00 0.00 0.00 0.01 0.00 0.00 0.01 0.03
0.00 0.00 0.01 0.02 0.02 0.03 0.04 0.03 0.02 0.04 0.06 0.05 0.02 0.02 0.02 0.00 0.00 0.00 0.01 0.03 0.05 0.07 0.04 0.02 0.01 0.00 0.00 0.00 0.00 0.00 0.00 0.00 0.00 0.00 0.00 0.00 0.00 0.02 0.03 0.03 0.02 0.00 0.02
0.00 0.00 0.01 0.02 0.02 0.03 0.01 0.01 0.01 0.05 0.04 0.03 0.01 0.00 0.01 0.01 0.01 0.02 0.04 0.06 0.05 0.03 0.00 0.00 0.00 0.00 0.00 0.00 0.00 0.00 0.00 0.00 0.00 0.00 0.00 0.00 0.01 0.04 0.05 0.06 0.08 0.07 0.04
0.00 0.00 0.01 0.02 0.03 0.02 0.00 0.01 0.03 0.05 0.03 0.01 0.00 0.00 0.01 0.02 0.03 0.05 0.06 0.03 0.00 0.00 0.00 0.00 0.00 0.00 0.00 0.00 0.00 0.00 0.00 0.00 0.00 0.00 0.00 0.01 0.03 0.08 0.08 0.07 0.07 0.11 0.17
0.00 0.00 0.02 0.03 0.03 0.01 0.02 0.02 0.04 0.03 0.02 0.01 0.00 0.00 0.01 0.04 0.04 0.04 0.01 0.00 0.00 0.00 0.00 0.00 0.00 0.00 0.00 0.00 0.00 0.00 0.00 0.00 0.00 0.00 0.00 0.00 0.02 0.07 0.06 0.07 0.07 0.05 0.07
0.00 0.00 0.02 0.03 0.03 0.01 0.03 0.04 0.02 0.02 0.02 0.01 0.00 0.01 0.03 0.05 0.04 0.02 0.00 0.00 0.00 0.00 0.00 0.00 0.00 0.00 0.00 0.00 0.00 0.00 0.00 0.00 0.00 0.00 0.00 0.00 0.01 0.02 0.03 0.01 0.01 0.00 0.00
0.00 0.01 0.01 0.02 0.03 0.02 0.03 0.02 0.01 0.01 0.02 0.01 0.00 0.02 0.05 0.07 0.05 0.02 0.00 0.00 0.00 0.00 0.00 0.00 0.00 0.00 0.00 0.00 0.00 0.00 0.00 0.00 0.00 0.00 0.00 0.00 0.00 0.00 0.00 0.00 0.00 0.00 0.00
0.00 0.01 0.01 0.01 0.01 0.02 0.02 0.02 0.02 0.01 0.02 0.01 0.01 0.01 0.02 0.02 0.03 0.03 0.01 0.00 0.00 0.00 0.00 0.00 0.00 0.00 0.00 0.00 0.00 0.00 0.00 0.00 0.00 0.00 0.00 0.00 0.00 0.01 0.02 0.01 0.00 0.00 0.00
0.01 0.01 0.01 0.01 0.01 0.01 0.02 0.02 0.02 0.01 0.01 0.01 0.00 0.00 0.00 0.00 0.00 0.00 0.00 0.00 0.00 0.00 0.00 0.00 0.00 0.00 0.00 0.00 0.00 0.00 0.00 0.00 0.00 0.00 0.00 0.00 0.00 0.05 0.03 0.01 0.00 0.00 0.00
0.01 0.02 0.02 0.01 0.00 0.00 0.02 0.02 0.01 0.00 0.00 0.00 0.00 0.00 0.00 0.00 0.00 0.00 0.00 0.00 0.00 0.01 0.00 0.00 0.00 0.00 0.00 0.00 0.00 0.00 0.00 0.00 0.00 0.00 0.00 0.00 0.03 0.07 0.01 0.00 0.00 0.00 0.00
0.02 0.02 0.02 0.02 0.01 0.01 0.01 0.01 0.00 0.00 0.00 0.00 0.00 0.00 0.00 0.00 0.00 0.00 0.00 0.00 0.00 0.01 0.00 0.00 0.00 0.00 0.00 0.00 0.00 0.00 0.00 0.00 0.00 0.00 0.00 0.00 0.03 0.05 0.03 0.00 0.00 0.00 0.00
0.01 0.01 0.01 0.01 0.01 0.01 0.01 0.01 0.00 0.00 0.00 0.00 0.00 0.00 0.00 0.00 0.00 0.00 0.00 0.00 0.00 0.00 0.00 0.00 0.00 0.00 0.00 0.00 0.00 0.00 0.00 0.00 0.00 0.00 0.00 0.00 0.02 0.04 0.01 0.00 0.00 0.00 0.00
0.00 0.00 0.00 0.00 0.00 0.00 0.00 0.01 0.00 0.00 0.00 0.00 0.00 0.00 0.00 0.00 0.00 0.00 0.00 0.00 0.00 0.00 0.00 0.00 0.00 0.00 0.00 0.00 0.00 0.00 0.00 0.00 0.00 0.00 0.00 0.00 0.00 0.01 0.00 0.00 0.00 0.00 0.00
0.01 0.01 0.00 0.00 0.00 0.00 0.00 0.00 0.00 0.00 0.00 0.00 0.00 0.00 0.00 0.00 0.00 0.00 0.00 0.00 0.00 0.00 0.00 0.00 0.00 0.00 0.00 0.00 0.00 0.00 0.00 0.00 0.00 0.00 0.00 0.00 0.00 0.00 0.00 0.01 0.00 0.00 0.00
0.08 0.03 0.01 0.00 0.00 0.00 0.00 0.00 0.00 0.00 0.00 0.00 0.00 0.00 0.00 0.00 0.00 0.00 0.00 0.00 0.00 0.00 0.00 0.00 0.00 0.00 0.00 0.00 0.00 0.00 0.00 0.00 0.00 0.00 0.00 0.00 0.00 0.00 0.00 0.00 0.00 0.00 0.00
0.10 0.07 0.03 0.00 0.00 0.00 0.00 0.00 0.00 0.00 0.00 0.00 0.00 0.00 0.00 0.00 0.00 0.00 0.00 0.00 0.00 0.00 0.00 0.00 0.00 0.00 0.00 0.00 0.00 0.00 0.00 0.00 0.00 0.00 0.00 0.00 0.00 0.00 0.00 0.00 0.00 0.00 0.00
0.04 0.03 0.04 0.01 0.01 0.00 0.00 0.01 0.00 0.00 0.00 0.00 0.00 0.00 0.00 0.00 0.00 0.00 0.00 0.00 0.00 0.00 0.00 0.00 0.00 0.00 0.00 0.00 0.00 0.00 0.00 0.00 0.00 0.00 0.00 0.00 0.00 0.00 0.00 0.00 0.00 0.00 0.00
0.05 0.04 0.05 0.04 0.03 0.02 0.01 0.00 0.00 0.01 0.00 0.01 0.00 0.00 0.00 0.00 0.00 0.00 0.00 0.00 0.00 0.00 0.00 0.00 0.00 0.00 0.00 0.00 0.00 0.00 0.00 0.00 0.00 0.00 0.00 0.00 0.00 0.00 0.00 0.00 0.00 0.00 0.01
0.00 0.02 0.04 0.05 0.05 0.05 0.04 0.02 0.00 0.00 0.02 0.01 0.05 0.03 0.02 0.02 0.01 0.01 0.00 0.00 0.00 0.00 0.00 0.00 0.00 0.00 0.00 0.00 0.00 0.00 0.00 0.00 0.00 0.00 0.00 0.01 0.01 0.01 0.00 0.00 0.00 0.00 0.00
0.00 0.00 0.00 0.01 0.01 0.01 0.01 0.01 0.00 0.00 0.02 0.04 0.03 0.09 0.16 0.10 0.07 0.05 0.02 0.03 0.01 0.00 0.01 0.01 0.01 0.01 0.01 0.05 0.03 0.00 0.00 0.00 0.00 0.00 0.00 0.02 0.01 0.01 0.00 0.00 0.00 0.00 0.00
0.00 0.00 0.00 0.00 0.00 0.00 0.00 0.00 0.00 0.00 0.00 0.00 0.00 0.02 0.05 0.10 0.11 0.09 0.07 0.06 0.05 0.02 0.02 0.02 0.05 0.07 0.07 0.13 0.16 0.05 0.00 0.00 0.00 0.00 0.00 0.00 0.00 0.00 0.00 0.00 0.00 0.00 0.00
0.00 0.00 0.00 0.00 0.00 0.00 0.00 0.00 0.00 0.00 0.00 0.00 0.00 0.00 0.01 0.04 0.09 0.12 0.11 0.11 0.14 0.10 0.05 0.07 0.14 0.16 0.16 0.17 0.16 0.16 0.04 0.00 0.00 0.00 0.00 0.00 0.00 0.00 0.00 0.01 0.01 0.01 0.01
0.00 0.00 0.00 0.00 0.00 0.00 0.00 0.00 0.00 0.00 0.00 0.00 0.00 0.00 0.00 0.00 0.00 0.03 0.06 0.08 0.10 0.15 0.13 0.09 0.16 0.16 0.19 0.12 0.11 0.09 0.09 0.04 0.04 0.03 0.01 0.01 0.01 0.00 0.00 0.01 0.01 0.01 0.01
0.00 0.00 0.00 0.00 0.00 0.00 0.00 0.00 0.00 0.00 0.00 0.00 0.00 0.00 0.00 0.00 0.00 0.00 0.01 0.03 0.08 0.10 0.12 0.18 0.19 0.16 0.12 0.17 0.16 0.18 0.14 0.12 0.08 0.07 0.04 0.05 0.05 0.04 0.02 0.01 0.00 0.00 0.00
0.00 0.00 0.00 0.00 0.00 0.00 0.00 0.00 0.00 0.00 0.00 0.00 0.00 0.00 0.00 0.00 0.01 0.01 0.01 0.01 0.04 0.09 0.11 0.13 0.17 0.14 0.14 0.16 0.15 0.18 0.18 0.20 0.14 0.09 0.08 0.08 0.07 0.05 0.02 0.01 0.00 0.00 0.00

GFSSE_prec_precacc24_066.txt.gz
Total_Precipitation_Accumulation
0.00 0.01 0.03 0.01 0.01 0.01 0.02 0.03 0.04 0.04 0.03 0.01 0.00 0.00 0.01 0.02 0.02 0.01 0.01 0.02 0.03 0.04 0.04 0.02 0.01 0.00 0.00 0.00 0.00 0.00 0.00 0.00 0.00 0.00 0.00 0.00 0.00 0.00 0.00 0.01 0.01 0.00 0.02
0.00 0.01 0.02 0.02 0.01 0.02 0.04 0.04 0.05 0.03 0.03 0.03 0.03 0.04 0.06 0.03 0.01 0.00 0.01 0.02 0.02 0.03 0.01 0.01 0.01 0.00 0.00 0.00 0.00 0.00 0.00 0.00 0.00 0.00 0.00 0.00 0.00 0.02 0.01 0.00 0.01 0.03 0.04
0.00 0.00 0.01 0.02 0.02 0.04 0.04 0.03 0.02 0.03 0.04 0.03 0.02 0.03 0.02 0.00 0.00 0.00 0.01 0.03 0.05 0.04 0.02 0.02 0.01 0.00 0.00 0.00 0.00 0.00 0.00 0.00 0.00 0.00 0.00 0.00 0.00 0.04 0.03 0.03 0.02 0.01 0.03
0.00 0.00 0.01 0.02 0.02 0.03 0.02 0.00 0.01 0.05 0.03 0.01 0.01 0.01 0.01 0.01 0.01 0.02 0.04 0.04 0.04 0.01 0.01 0.01 0.00 0.00 0.00 0.00 0.00 0.00 0.00 0.00 0.00 0.00 0.00 0.00 0.01 0.04 0.05 0.06 0.09 0.10 0.06
0.00 0.00 0.01 0.03 0.03 0.02 0.00 0.00 0.03 0.03 0.01 0.00 0.00 0.01 0.02 0.03 0.03 0.05 0.05 0.02 0.00 0.00 0.00 0.00 0.00 0.00 0.00 0.00 0.00 0.00 0.00 0.00 0.00 0.00 0.00 0.01 0.03 0.08 0.08 0.06 0.06 0.11 0.16
0.00 0.00 0.02 0.04 0.03 0.01 0.01 0.02 0.03 0.01 0.01 0.00 0.00 0.00 0.03 0.04 0.04 0.04 0.01 0.00 0.00 0.00 0.00 0.00 0.00 0.00 0.00 0.00 0.00 0.00 0.00 0.00 0.00 0.00 0.00 0.00 0.02 0.06 0.06 0.06 0.05 0.04 0.05
0.00 0.00 0.02 0.03 0.04 0.01 0.02 0.03 0.01 0.01 0.01 0.00 0.00 0.01 0.05 0.05 0.04 0.02 0.00 0.00 0.00 0.00 0.00 0.00 0.00 0.00 0.00 0.00 0.00 0.00 0.00 0.00 0.00 0.00 0.00 0.00 0.01 0.02 0.02 0.01 0.00 0.00 0.00
0.00 0.01 0.01 0.02 0.04 0.02 0.03 0.02 0.01 0.01 0.01 0.00 0.00 0.03 0.06 0.07 0.05 0.02 0.00 0.00 0.00 0.00 0.00 0.00 0.00 0.00 0.00 0.00 0.00 0.00 0.00 0.00 0.00 0.00 0.00 0.00 0.00 0.00 0.00 0.00 0.00 0.00 0.00
0.01 0.01 0.01 0.01 0.02 0.02 0.02 0.01 0.02 0.01 0.01 0.00 0.00 0.02 0.04 0.02 0.03 0.03 0.01 0.00 0.00 0.00 0.00 0.00 0.00 0.00 0.00 0.00 0.00 0.00 0.00 0.00 0.00 0.00 0.00 0.00 0.00 0.01 0.01 0.01 0.00 0.00 0.00
0.01 0.01 0.01 0.02 0.01 0.01 0.02 0.02 0.02 0.01 0.00 0.00 0.00 0.00 0.00 0.00 0.00 0.00 0.00 0.00 0.00 0.00 0.00 0.00 0.00 0.00 0.00 0.00 0.00 0.00 0.00 0.00 0.00 0.00 0.00 0.00 0.00 0.04 0.01 0.00 0.00 0.00 0.00
0.01 0.02 0.02 0.02 0.01 0.01 0.02 0.02 0.01 0.00 0.00 0.00 0.00 0.00 0.00 0.00 0.00 0.00 0.00 0.00 0.00 0.01 0.00 0.00 0.00 0.00 0.00 0.00 0.00 0.00 0.00 0.00 0.00 0.00 0.00 0.00 0.02 0.05 0.01 0.00 0.00 0.00 0.00
0.02 0.02 0.03 0.02 0.01 0.01 0.02 0.01 0.00 0.00 0.00 0.00 0.00 0.00 0.00 0.00 0.00 0.00 0.00 0.00 0.00 0.00 0.00 0.00 0.00 0.00 0.00 0.00 0.00 0.00 0.00 0.00 0.00 0.00 0.00 0.00 0.02 0.05 0.03 0.00 0.00 0.00 0.00
0.02 0.02 0.02 0.01 0.01 0.02 0.02 0.02 0.01 0.00 0.00 0.00 0.00 0.00 0.00 0.00 0.00 0.00 0.00 0.00 0.00 0.00 0.00 0.00 0.00 0.00 0.00 0.00 0.00 0.00 0.00 0.00 0.00 0.00 0.00 0.00 0.02 0.04 0.01 0.00 0.00 0.00 0.00
0.01 0.01 0.01 0.01 0.00 0.01 0.01 0.02 0.00 0.00 0.00 0.00 0.00 0.00 0.00 0.00 0.00 0.00 0.00 0.00 0.00 0.00 0.00 0.00 0.00 0.00 0.00 0.00 0.00 0.00 0.00 0.00 0.00 0.00 0.00 0.00 0.00 0.01 0.00 0.00 0.00 0.00 0.00
0.04 0.02 0.01 0.01 0.01 0.01 0.00 0.01 0.00 0.00 0.00 0.00 0.00 0.00 0.00 0.00 0.00 0.00 0.00 0.00 0.00 0.00 0.00 0.00 0.00 0.00 0.00 0.00 0.00 0.00 0.00 0.00 0.00 0.00 0.00 0.00 0.00 0.00 0.00 0.01 0.01 0.00 0.00
0.12 0.07 0.04 0.01 0.01 0.00 0.00 0.00 0.00 0.00 0.00 0.00 0.00 0.00 0.00 0.00 0.00 0.00 0.00 0.00 0.00 0.00 0.00 0.00 0.00 0.00 0.00 0.00 0.00 0.00 0.00 0.00 0.00 0.00 0.00 0.00 0.00 0.00 0.00 0.00 0.00 0.01 0.00
0.10 0.12 0.07 0.02 0.01 0.00 0.00 0.00 0.00 0.00 0.00 0.00 0.00 0.00 0.00 0.00 0.00 0.00 0.00 0.00 0.00 0.00 0.00 0.00 0.00 0.00 0.00 0.00 0.00 0.00 0.00 0.00 0.00 0.00 0.00 0.00 0.00 0.00 0.00 0.00 0.00 0.00 0.00
0.04 0.05 0.07 0.03 0.04 0.02 0.00 0.00 0.00 0.00 0.00 0.00 0.00 0.00 0.00 0.00 0.00 0.00 0.00 0.00 0.00 0.00 0.00 0.00 0.00 0.00 0.00 0.00 0.00 0.00 0.00 0.00 0.00 0.00 0.00 0.00 0.00 0.00 0.00 0.00 0.00 0.00 0.00
0.05 0.04 0.07 0.05 0.04 0.03 0.01 0.00 0.00 0.00 0.00 0.00 0.00 0.00 0.00 0.00 0.00 0.00 0.00 0.00 0.00 0.00 0.00 0.00 0.00 0.00 0.00 0.00 0.00 0.00 0.00 0.00 0.00 0.00 0.00 0.00 0.00 0.00 0.00 0.00 0.00 0.00 0.01
0.00 0.02 0.04 0.06 0.05 0.05 0.04 0.02 0.00 0.00 0.01 0.00 0.04 0.03 0.01 0.01 0.00 0.01 0.00 0.00 0.00 0.00 0.00 0.00 0.00 0.00 0.00 0.01 0.01 0.00 0.00 0.00 0.00 0.00 0.00 0.01 0.01 0.01 0.00 0.00 0.00 0.00 0.00
0.00 0.00 0.00 0.01 0.01 0.01 0.01 0.01 0.00 0.00 0.01 0.04 0.02 0.07 0.13 0.09 0.06 0.03 0.02 0.02 0.01 0.00 0.01 0.01 0.01 0.01 0.01 0.05 0.04 0.00 0.00 0.00 0.00 0.00 0.00 0.02 0.01 0.01 0.00 0.00 0.00 0.00 0.00
0.00 0.02 0.00 0.00 0.00 0.00 0.00 0.00 0.00 0.00 0.00 0.00 0.00 0.01 0.02 0.06 0.09 0.06 0.03 0.02 0.03 0.02 0.02 0.02 0.06 0.08 0.07 0.14 0.18 0.07 0.01 0.00 0.00 0.00 0.00 0.00 0.00 0.00 0.00 0.00 0.00 0.00 0.00
0.00 0.00 0.02 0.01 0.00 0.01 0.00 0.00 0.00 0.00 0.00 0.00 0.01 0.01 0.00 0.01 0.04 0.09 0.09 0.06 0.07 0.08 0.04 0.06 0.13 0.16 0.16 0.17 0.16 0.17 0.05 0.01 0.00 0.00 0.00 0.00 0.00 0.00 0.00 0.01 0.01 0.01 0.01
0.00 0.00 0.00 0.01 0.03 0.03 0.01 0.00 0.00 0.02 0.00 0.00 0.02 0.01 0.00 0.00 0.00 0.01 0.03 0.06 0.05 0.06 0.08 0.06 0.11 0.14 0.19 0.12 0.11 0.10 0.10 0.06 0.05 0.03 0.01 0.01 0.01 0.00 0.00 0.01 0.01 0.01 0.01
0.00 0.00 0.00 0.00 0.00 0.00 0.02 0.01 0.00 0.00 0.00 0.00 0.00 0.00 0.00 0.00 0.00 0.00 0.00 0.01 0.07 0.07 0.05 0.09 0.11 0.13 0.10 0.16 0.14 0.16 0.13 0.12 0.08 0.08 0.04 0.05 0.05 0.04 0.02 0.01 0.00 0.00 0.00
0.00 0.00 0.00 0.00 0.00 0.00 0.00 0.00 0.00 0.00 0.00 0.00 0.00 0.00 0.00 0.00 0.00 0.01 0.01 0.01 0.04 0.07 0.09 0.09 0.10 0.10 0.10 0.12 0.12 0.15 0.15 0.17 0.12 0.09 0.08 0.08 0.08 0.05 0.02 0.01 0.00 0.00 0.00

GFSSE_prec_precacc24_069.txt.gz
Total_Precipitation_Accumulation
0.00 0.01 0.03 0.01 0.01 0.01 0.02 0.03 0.05 0.04 0.01 0.00 0.01 0.03 0.02 0.02 0.02 0.01 0.01 0.04 0.07 0.05 0.04 0.02 0.01 0.00 0.00 0.00 0.00 0.00 0.00 0.00 0.00 0.00 0.00 0.00 0.01 0.00 0.01 0.01 0.02 0.01 0.02
0.00 0.01 0.02 0.02 0.01 0.02 0.04 0.05 0.05 0.03 0.02 0.02 0.04 0.05 0.06 0.03 0.01 0.00 0.01 0.02 0.03 0.02 0.01 0.01 0.01 0.00 0.00 0.00 0.00 0.00 0.00 0.00 0.00 0.00 0.00 0.00 0.01 0.02 0.01 0.00 0.02 0.03 0.05
0.00 0.00 0.01 0.02 0.02 0.04 0.05 0.03 0.02 0.03 0.03 0.03 0.03 0.03 0.02 0.00 0.00 0.00 0.01 0.03 0.03 0.01 0.02 0.02 0.01 0.00 0.00 0.00 0.00 0.00 0.00 0.00 0.00 0.00 0.00 0.00 0.01 0.04 0.04 0.04 0.04 0.02 0.05
0.00 0.00 0.01 0.02 0.02 0.04 0.02 0.00 0.01 0.04 0.01 0.01 0.01 0.01 0.01 0.01 0.01 0.02 0.02 0.04 0.01 0.01 0.01 0.01 0.00 0.00 0.00 0.00 0.00 0.00 0.00 0.00 0.00 0.00 0.00 0.00 0.01 0.04 0.05 0.06 0.09 0.10 0.07
0.00 0.00 0.01 0.03 0.04 0.03 0.00 0.00 0.03 0.02 0.00 0.00 0.01 0.01 0.02 0.03 0.03 0.04 0.04 0.01 0.00 0.00 0.00 0.00 0.00 0.00 0.00 0.00 0.00 0.00 0.00 0.00 0.00 0.00 0.00 0.01 0.03 0.08 0.07 0.05 0.05 0.09 0.15
0.00 0.00 0.02 0.04 0.04 0.02 0.01 0.02 0.02 0.00 0.00 0.00 0.01 0.01 0.03 0.04 0.04 0.03 0.01 0.00 0.00 0.00 0.00 0.00 0.00 0.00 0.00 0.00 0.00 0.00 0.00 0.00 0.00 0.00 0.00 0.00 0.02 0.06 0.05 0.05 0.04 0.03 0.03
0.00 0.00 0.02 0.04 0.05 0.01 0.02 0.03 0.01 0.00 0.00 0.00 0.00 0.02 0.05 0.05 0.04 0.02 0.00 0.00 0.00 0.00 0.00 0.00 0.00 0.00 0.00 0.00 0.00 0.00 0.00 0.00 0.00 0.00 0.00 0.00 0.01 0.02 0.02 0.00 0.00 0.00 0.00
0.00 0.01 0.01 0.02 0.04 0.02 0.03 0.01 0.00 0.00 0.00 0.00 0.00 0.04 0.07 0.07 0.05 0.02 0.00 0.00 0.00 0.00 0.00 0.00 0.00 0.00 0.00 0.00 0.00 0.00 0.00 0.00 0.00 0.00 0.00 0.00 0.00 0.00 0.00 0.00 0.00 0.00 0.00
0.01 0.01 0.01 0.02 0.02 0.02 0.02 0.01 0.01 0.01 0.00 0.00 0.00 0.03 0.04 0.02 0.03 0.03 0.01 0.00 0.00 0.00 0.00 0.00 0.00 0.00 0.00 0.00 0.00 0.00 0.00 0.00 0.00 0.00 0.00 0.00 0.00 0.00 0.01 0.00 0.00 0.00 0.00
0.04 0.02 0.01 0.02 0.01 0.01 0.02 0.02 0.02 0.01 0.00 0.00 0.00 0.00 0.00 0.00 0.00 0.00 0.00 0.00 0.00 0.00 0.00 0.00 0.00 0.00 0.00 0.00 0.00 0.00 0.00 0.00 0.00 0.00 0.00 0.00 0.00 0.03 0.01 0.00 0.00 0.00 0.00
0.05 0.02 0.02 0.02 0.01 0.01 0.02 0.02 0.01 0.00 0.00 0.00 0.00 0.00 0.00 0.00 0.00 0.00 0.00 0.00 0.00 0.01 0.00 0.00 0.00 0.00 0.00 0.00 0.00 0.00 0.00 0.00 0.00 0.00 0.00 0.00 0.01 0.04 0.01 0.00 0.00 0.00 0.00
0.06 0.03 0.03 0.03 0.01 0.02 0.02 0.01 0.00 0.00 0.00 0.00 0.00 0.00 0.00 0.00 0.00 0.00 0.00 0.00 0.00 0.00 0.00 0.00 0.00 0.00 0.00 0.00 0.00 0.00 0.00 0.00 0.00 0.00 0.00 0.00 0.02 0.05 0.03 0.00 0.00 0.00 0.00
0.04 0.03 0.03 0.03 0.01 0.02 0.02 0.02 0.01 0.00 0.00 0.00 0.00 0.00 0.00 0.00 0.00 0.00 0.00 0.00 0.00 0.00 0.00 0.00 0.00 0.00 0.00 0.00 0.00 0.00 0.00 0.00 0.00 0.00 0.00 0.00 0.02 0.04 0.01 0.00 0.00 0.00 0.00
0.04 0.02 0.01 0.01 0.01 0.02 0.01 0.02 0.00 0.00 0.00 0.00 0.00 0.00 0.00 0.00 0.00 0.00 0.00 0.00 0.00 0.00 0.00 0.00 0.00 0.00 0.00 0.00 0.00 0.00 0.00 0.00 0.00 0.00 0.00 0.00 0.00 0.01 0.00 0.00 0.00 0.00 0.00
0.13 0.19 0.05 0.02 0.02 0.02 0.01 0.01 0.00 0.00 0.00 0.00 0.00 0.00 0.00 0.00 0.00 0.00 0.00 0.00 0.00 0.00 0.00 0.00 0.00 0.00 0.00 0.00 0.00 0.00 0.00 0.00 0.00 0.00 0.00 0.00 0.00 0.00 0.00 0.01 0.01 0.00 0.00
0.16 0.14 0.15 0.04 0.02 0.02 0.01 0.01 0.01 0.00 0.00 0.00 0.00 0.00 0.00 0.00 0.00 0.00 0.00 0.00 0.00 0.00 0.00 0.00 0.00 0.00 0.00 0.00 0.00 0.00 0.00 0.00 0.00 0.00 0.00 0.00 0.00 0.00 0.00 0.00 0.00 0.01 0.01
0.14 0.15 0.08 0.04 0.03 0.01 0.01 0.01 0.00 0.00 0.00 0.00 0.00 0.00 0.00 0.00 0.00 0.00 0.00 0.00 0.00 0.00 0.00 0.00 0.00 0.00 0.00 0.00 0.00 0.00 0.00 0.00 0.00 0.00 0.00 0.00 0.00 0.00 0.00 0.00 0.00 0.00 0.00
0.08 0.06 0.08 0.04 0.06 0.03 0.01 0.00 0.00 0.00 0.00 0.00 0.00 0.00 0.00 0.00 0.00 0.00 0.00 0.00 0.00 0.00 0.00 0.00 0.00 0.00 0.00 0.00 0.00 0.00 0.00 0.00 0.00 0.00 0.00 0.00 0.00 0.00 0.00 0.00 0.00 0.00 0.00
0.08 0.06 0.08 0.06 0.07 0.05 0.01 0.01 0.01 0.01 0.01 0.00 0.00 0.00 0.00 0.00 0.00 0.00 0.00 0.00 0.00 0.00 0.00 0.00 0.00 0.00 0.00 0.00 0.00 0.00 0.00 0.00 0.00 0.00 0.00 0.00 0.00 0.00 0.00 0.00 0.00 0.00 0.01
0.04 0.08 0.09 0.08 0.06 0.06 0.04 0.02 0.01 0.00 0.01 0.01 0.01 0.00 0.00 0.00 0.00 0.01 0.00 0.00 0.00 0.00 0.00 0.00 0.00 0.00 0.00 0.01 0.01 0.00 0.00 0.00 0.00 0.00 0.00 0.01 0.02 0.01 0.00 0.00 0.00 0.00 0.00
0.00 0.02 0.11 0.10 0.08 0.02 0.01 0.01 0.00 0.00 0.00 0.02 0.01 0.03 0.07 0.06 0.05 0.02 0.01 0.02 0.01 0.00 0.01 0.01 0.01 0.01 0.01 0.05 0.05 0.00 0.00 0.00 0.00 0.00 0.00 0.02 0.01 0.01 0.00 0.00 0.00 0.00 0.00
0.00 0.08 0.07 0.06 0.08 0.02 0.02 0.00 0.00 0.02 0.00 0.00 0.00 0.01 0.02 0.03 0.04 0.04 0.02 0.01 0.02 0.02 0.02 0.02 0.04 0.06 0.07 0.13 0.18 0.08 0.02 0.00 0.00 0.00 0.00 0.00 0.00 0.00 0.00 0.00 0.00 0.00 0.00
0.00 0.01 0.04 0.09 0.10 0.02 0.02 0.03 0.02 0.03 0.00 0.00 0.01 0.02 0.00 0.01 0.01 0.04 0.04 0.03 0.02 0.03 0.03 0.04 0.07 0.10 0.13 0.14 0.16 0.18 0.06 0.02 0.00 0.00 0.00 0.00 0.00 0.00 0.00 0.01 0.01 0.01 0.01
0.00 0.00 0.01 0.07 0.07 0.10 0.13 0.12 0.09 0.07 0.05 0.04 0.10 0.02 0.00 0.03 0.01 0.00 0.00 0.00 0.01 0.00 0.01 0.01 0.04 0.06 0.14 0.08 0.08 0.10 0.10 0.07 0.07 0.04 0.00 0.00 0.00 0.00 0.00 0.01 0.01 0.01 0.01
0.00 0.00 0.00 0.00 0.04 0.08 0.13 0.14 0.18 0.13 0.09 0.07 0.04 0.01 0.04 0.01 0.01 0.01 0.01 0.01 0.02 0.03 0.01 0.01 0.03 0.04 0.05 0.10 0.09 0.11 0.10 0.11 0.09 0.08 0.04 0.03 0.04 0.03 0.02 0.01 0.00 0.00 0.00
0.00 0.00 0.00 0.00 0.01 0.06 0.10 0.07 0.09 0.11 0.05 0.02 0.02 0.00 0.01 0.01 0.00 0.00 0.00 0.00 0.01 0.03 0.03 0.05 0.05 0.05 0.06 0.08 0.09 0.09 0.10 0.11 0.09 0.07 0.06 0.04 0.04 0.03 0.02 0.01 0.00 0.00 0.00

GFSSE_prec_precacc24_072.txt.gz
Total_Precipitation_Accumulation
0.00 0.01 0.03 0.01 0.01 0.01 0.02 0.03 0.04 0.03 0.01 0.02 0.04 0.03 0.02 0.02 0.02 0.03 0.03 0.05 0.05 0.05 0.04 0.02 0.01 0.00 0.00 0.00 0.00 0.00 0.00 0.00 0.00 0.01 0.01 0.01 0.02 0.01 0.01 0.02 0.02 0.01 0.03
0.00 0.01 0.02 0.02 0.01 0.03 0.04 0.04 0.05 0.03 0.02 0.04 0.04 0.04 0.06 0.03 0.01 0.01 0.04 0.04 0.02 0.02 0.01 0.01 0.01 0.00 0.00 0.00 0.00 0.00 0.00 0.00 0.00 0.00 0.00 0.00 0.01 0.03 0.01 0.01 0.03 0.05 0.08
0.00 0.00 0.01 0.02 0.02 0.04 0.04 0.03 0.02 0.02 0.05 0.04 0.02 0.03 0.02 0.00 0.00 0.01 0.03 0.02 0.01 0.01 0.02 0.02 0.01 0.00 0.00 0.00 0.00 0.00 0.00 0.00 0.00 0.00 0.00 0.00 0.01 0.05 0.05 0.05 0.05 0.03 0.06
0.00 0.00 0.01 0.02 0.02 0.04 0.02 0.00 0.01 0.04 0.02 0.00 0.01 0.01 0.01 0.01 0.01 0.01 0.02 0.01 0.00 0.01 0.01 0.01 0.00 0.00 0.00 0.00 0.00 0.00 0.00 0.00 0.00 0.00 0.00 0.00 0.01 0.03 0.05 0.05 0.08 0.10 0.06
0.00 0.01 0.01 0.03 0.04 0.03 0.01 0.01 0.02 0.02 0.00 0.00 0.01 0.01 0.02 0.03 0.02 0.02 0.02 0.00 0.00 0.00 0.00 0.00 0.00 0.00 0.00 0.00 0.00 0.00 0.00 0.00 0.00 0.00 0.00 0.01 0.03 0.07 0.05 0.03 0.03 0.07 0.12
0.00 0.00 0.02 0.04 0.05 0.02 0.01 0.02 0.02 0.00 0.00 0.00 0.01 0.01 0.03 0.04 0.04 0.03 0.01 0.00 0.00 0.00 0.00 0.00 0.00 0.00 0.00 0.00 0.00 0.00 0.00 0.00 0.00 0.00 0.00 0.00 0.02 0.05 0.03 0.03 0.03 0.02 0.02
0.00 0.01 0.02 0.04 0.06 0.02 0.03 0.03 0.00 0.00 0.01 0.01 0.01 0.02 0.05 0.05 0.04 0.02 0.00 0.00 0.00 0.00 0.00 0.00 0.00 0.00 0.00 0.00 0.00 0.00 0.00 0.00 0.00 0.00 0.00 0.00 0.01 0.02 0.01 0.00 0.00 0.00 0.00
0.00 0.01 0.02 0.04 0.05 0.02 0.03 0.01 0.00 0.00 0.01 0.01 0.01 0.04 0.07 0.07 0.05 0.02 0.00 0.00 0.00 0.00 0.00 0.00 0.00 0.00 0.00 0.00 0.00 0.00 0.00 0.00 0.00 0.00 0.00 0.00 0.00 0.00 0.00 0.00 0.00 0.00 0.00
0.02 0.01 0.02 0.04 0.02 0.01 0.02 0.01 0.00 0.00 0.00 0.01 0.02 0.03 0.04 0.02 0.03 0.03 0.01 0.00 0.00 0.00 0.00 0.00 0.00 0.00 0.00 0.00 0.00 0.00 0.00 0.00 0.00 0.00 0.00 0.00 0.00 0.00 0.00 0.00 0.00 0.00 0.00
0.10 0.02 0.01 0.02 0.01 0.01 0.02 0.02 0.01 0.00 0.00 0.00 0.01 0.01 0.00 0.00 0.00 0.00 0.00 0.00 0.00 0.00 0.00 0.00 0.00 0.00 0.00 0.00 0.00 0.00 0.00 0.00 0.00 0.00 0.00 0.00 0.00 0.02 0.00 0.00 0.00 0.00 0.00
0.14 0.05 0.02 0.02 0.01 0.01 0.02 0.02 0.01 0.00 0.00 0.00 0.00 0.00 0.00 0.00 0.00 0.00 0.00 0.00 0.00 0.00 0.00 0.00 0.00 0.00 0.00 0.00 0.00 0.00 0.00 0.00 0.00 0.00 0.00 0.00 0.01 0.03 0.01 0.00 0.00 0.00 0.00
0.25 0.05 0.03 0.03 0.01 0.02 0.02 0.01 0.00 0.00 0.00 0.00 0.00 0.00 0.00 0.00 0.00 0.00 0.00 0.00 0.00 0.00 0.00 0.00 0.00 0.00 0.00 0.00 0.00 0.00 0.00 0.00 0.00 0.00 0.00 0.00 0.01 0.05 0.03 0.00 0.00 0.00 0.00
0.42 0.23 0.04 0.03 0.02 0.02 0.02 0.02 0.01 0.00 0.00 0.00 0.00 0.00 0.00 0.00 0.00 0.00 0.00 0.00 0.00 0.00 0.00 0.00 0.00 0.00 0.00 0.00 0.00 0.00 0.00 0.00 0.00 0.00 0.00 0.00 0.02 0.04 0.01 0.00 0.00 0.00 0.00
0.17 0.22 0.18 0.04 0.01 0.02 0.01 0.02 0.00 0.00 0.00 0.00 0.00 0.00 0.00 0.00 0.00 0.00 0.00 0.00 0.00 0.00 0.00 0.00 0.00 0.00 0.00 0.00 0.00 0.00 0.00 0.00 0.00 0.00 0.00 0.00 0.00 0.01 0.00 0.00 0.00 0.00 0.00
0.20 0.25 0.17 0.15 0.03 0.02 0.01 0.01 0.00 0.00 0.00 0.00 0.00 0.00 0.00 0.00 0.00 0.00 0.00 0.00 0.00 0.00 0.00 0.00 0.00 0.00 0.00 0.00 0.00 0.00 0.00 0.00 0.00 0.00 0.00 0.00 0.00 0.00 0.00 0.01 0.01 0.01 0.00
0.24 0.20 0.25 0.19 0.09 0.02 0.02 0.01 0.01 0.00 0.00 0.00 0.00 0.00 0.00 0.00 0.00 0.00 0.00 0.00 0.00 0.00 0.00 0.00 0.00 0.00 0.00 0.00 0.00 0.00 0.00 0.00 0.00 0.00 0.00 0.00 0.00 0.00 0.00 0.00 0.00 0.02 0.06
0.18 0.24 0.14 0.16 0.14 0.04 0.01 0.01 0.01 0.00 0.00 0.00 0.00 0.00 0.00 0.00 0.00 0.00 0.00 0.00 0.00 0.00 0.00 0.00 0.00 0.00 0.00 0.00 0.00 0.00 0.00 0.00 0.00 0.00 0.00 0.00 0.00 0.00 0.00 0.00 0.00 0.00 0.00
0.14 0.11 0.17 0.09 0.13 0.05 0.01 0.01 0.00 0.01 0.00 0.00 0.00 0.00 0.00 0.00 0.00 0.00 0.00 0.00 0.00 0.00 0.00 0.00 0.00 0.00 0.00 0.00 0.00 0.00 0.00 0.00 0.00 0.00 0.00 0.00 0.00 0.00 0.00 0.00 0.00 0.00 0.00
0.11 0.09 0.17 0.17 0.16 0.06 0.02 0.02 0.02 0.01 0.01 0.00 0.00 0.00 0.00 0.00 0.00 0.00 0.00 0.00 0.00 0.00 0.00 0.00 0.00 0.00 0.00 0.00 0.00 0.00 0.00 0.00 0.00 0.00 0.00 0.00 0.00 0.00 0.00 0.00 0.00 0.00 0.01
0.10 0.13 0.16 0.15 0.13 0.08 0.06 0.03 0.03 0.01 0.02 0.02 0.00 0.00 0.00 0.00 0.00 0.00 0.00 0.00 0.00 0.00 0.00 0.00 0.00 0.00 0.00 0.01 0.01 0.01 0.00 0.00 0.00 0.00 0.00 0.01 0.02 0.01 0.00 0.00 0.00 0.00 0.00
0.09 0.05 0.27 0.21 0.13 0.03 0.02 0.03 0.01 0.00 0.00 0.01 0.00 0.00 0.02 0.02 0.03 0.01 0.00 0.00 0.00 0.00 0.00 0.01 0.01 0.01 0.01 0.04 0.05 0.00 0.00 0.00 0.00 0.00 0.00 0.02 0.01 0.01 0.00 0.00 0.00 0.00 0.00
0.02 0.14 0.10 0.06 0.16 0.04 0.06 0.00 0.00 0.03 0.02 0.01 0.00 0.01 0.00 0.01 0.02 0.02 0.01 0.01 0.01 0.01 0.00 0.01 0.02 0.03 0.03 0.08 0.14 0.07 0.02 0.00 0.00 0.00 0.00 0.00 0.00 0.00 0.00 0.00 0.00 0.00 0.00
0.01 0.02 0.05 0.10 0.12 0.04 0.04 0.14 0.06 0.07 0.01 0.01 0.03 0.02 0.00 0.01 0.01 0.03 0.03 0.03 0.02 0.02 0.01 0.01 0.03 0.05 0.08 0.07 0.10 0.15 0.06 0.02 0.00 0.00 0.00 0.00 0.00 0.00 0.00 0.00 0.00 0.01 0.01
0.00 0.03 0.07 0.17 0.15 0.14 0.19 0.20 0.14 0.12 0.18 0.19 0.33 0.17 0.03 0.06 0.05 0.00 0.00 0.00 0.00 0.00 0.00 0.01 0.01 0.03 0.06 0.04 0.03 0.06 0.07 0.06 0.07 0.04 0.00 0.00 0.00 0.00 0.00 0.00 0.00 0.00 0.00
0.00 0.00 0.01 0.07 0.09 0.11 0.20 0.31 0.32 0.26 0.25 0.18 0.10 0.09 0.21 0.20 0.11 0.07 0.04 0.01 0.01 0.01 0.00 0.00 0.01 0.01 0.01 0.03 0.02 0.03 0.03 0.06 0.07 0.07 0.03 0.01 0.02 0.02 0.01 0.00 0.00 0.00 0.00
0.00 0.00 0.00 0.02 0.09 0.21 0.27 0.22 0.26 0.24 0.19 0.14 0.11 0.12 0.14 0.11 0.09 0.10 0.05 0.03 0.01 0.00 0.01 0.01 0.01 0.01 0.01 0.01 0.03 0.05 0.05 0.06 0.04 0.05 0.05 0.02 0.02 0.02 0.01 0.00 0.00 0.00 0.00

GFSSE_prec_precacc24_075.txt.gz
Total_Precipitation_Accumulation
0.00 0.01 0.04 0.02 0.01 0.02 0.02 0.03 0.04 0.03 0.02 0.04 0.04 0.03 0.02 0.03 0.05 0.06 0.04 0.04 0.05 0.04 0.04 0.02 0.01 0.00 0.00 0.00 0.00 0.00 0.00 0.00 0.01 0.01 0.01 0.02 0.02 0.01 0.02 0.03 0.02 0.01 0.02
0.00 0.01 0.02 0.02 0.02 0.03 0.04 0.04 0.05 0.02 0.04 0.04 0.04 0.04 0.06 0.04 0.05 0.05 0.05 0.03 0.02 0.02 0.01 0.01 0.01 0.00 0.00 0.00 0.00 0.00 0.00 0.00 0.00 0.00 0.00 0.00 0.03 0.05 0.03 0.02 0.05 0.06 0.08
0.00 0.01 0.01 0.02 0.03 0.04 0.04 0.03 0.02 0.02 0.05 0.03 0.02 0.03 0.02 0.01 0.03 0.07 0.04 0.01 0.01 0.01 0.02 0.02 0.01 0.00 0.00 0.00 0.00 0.00 0.00 0.00 0.00 0.00 0.00 0.00 0.01 0.05 0.05 0.05 0.05 0.04 0.06
0.00 0.01 0.01 0.03 0.03 0.04 0.02 0.00 0.01 0.04 0.01 0.00 0.01 0.01 0.01 0.01 0.03 0.03 0.01 0.00 0.00 0.01 0.01 0.01 0.00 0.00 0.00 0.00 0.00 0.00 0.00 0.00 0.00 0.00 0.00 0.00 0.01 0.03 0.04 0.05 0.08 0.10 0.05
0.00 0.01 0.02 0.04 0.04 0.04 0.01 0.01 0.03 0.01 0.00 0.00 0.01 0.01 0.02 0.02 0.02 0.02 0.00 0.00 0.00 0.00 0.00 0.00 0.00 0.00 0.00 0.00 0.00 0.00 0.00 0.00 0.00 0.00 0.00 0.01 0.03 0.06 0.03 0.03 0.03 0.05 0.08
0.01 0.01 0.02 0.05 0.06 0.03 0.02 0.02 0.02 0.01 0.01 0.00 0.01 0.01 0.03 0.04 0.03 0.02 0.00 0.00 0.00 0.00 0.00 0.00 0.00 0.00 0.00 0.00 0.00 0.00 0.00 0.00 0.00 0.00 0.00 0.00 0.02 0.04 0.02 0.02 0.01 0.01 0.01
0.01 0.02 0.02 0.05 0.07 0.02 0.03 0.02 0.01 0.01 0.02 0.01 0.01 0.02 0.05 0.05 0.04 0.02 0.00 0.00 0.00 0.00 0.00 0.00 0.00 0.00 0.00 0.00 0.00 0.00 0.00 0.00 0.00 0.00 0.00 0.00 0.01 0.01 0.00 0.00 0.00 0.00 0.00
0.01 0.02 0.03 0.06 0.06 0.02 0.03 0.01 0.00 0.02 0.02 0.01 0.01 0.04 0.07 0.07 0.05 0.02 0.00 0.00 0.00 0.00 0.00 0.00 0.00 0.00 0.00 0.00 0.00 0.00 0.00 0.00 0.00 0.00 0.00 0.00 0.00 0.00 0.00 0.00 0.00 0.00 0.00
0.07 0.02 0.03 0.06 0.03 0.01 0.02 0.00 0.00 0.01 0.03 0.02 0.02 0.03 0.04 0.02 0.03 0.02 0.01 0.00 0.00 0.00 0.00 0.00 0.00 0.00 0.00 0.00 0.00 0.00 0.00 0.00 0.00 0.00 0.00 0.00 0.00 0.00 0.00 0.00 0.00 0.00 0.00
0.24 0.14 0.03 0.03 0.01 0.01 0.02 0.02 0.01 0.01 0.01 0.02 0.01 0.01 0.00 0.00 0.00 0.00 0.00 0.00 0.00 0.00 0.00 0.00 0.00 0.00 0.00 0.00 0.00 0.00 0.00 0.00 0.00 0.00 0.00 0.00 0.00 0.01 0.00 0.00 0.00 0.00 0.00
0.32 0.17 0.09 0.02 0.01 0.01 0.02 0.02 0.01 0.00 0.00 0.01 0.00 0.00 0.00 0.00 0.00 0.00 0.00 0.00 0.00 0.00 0.00 0.00 0.00 0.00 0.00 0.00 0.00 0.00 0.00 0.00 0.00 0.00 0.00 0.00 0.00 0.03 0.01 0.00 0.00 0.00 0.00
0.51 0.09 0.04 0.03 0.01 0.02 0.02 0.01 0.00 0.00 0.00 0.00 0.00 0.00 0.00 0.00 0.00 0.00 0.00 0.00 0.00 0.00 0.00 0.00 0.00 0.00 0.00 0.00 0.00 0.00 0.00 0.00 0.00 0.00 0.00 0.00 0.00 0.04 0.03 0.00 0.00 0.00 0.00
0.86 0.57 0.18 0.05 0.02 0.02 0.02 0.02 0.01 0.00 0.00 0.00 0.00 0.00 0.00 0.00 0.00 0.00 0.00 0.00 0.00 0.00 0.00 0.00 0.00 0.00 0.00 0.00 0.00 0.00 0.00 0.00 0.00 0.00 0.00 0.00 0.01 0.04 0.01 0.00 0.00 0.00 0.00
0.30 0.55 0.57 0.30 0.05 0.02 0.01 0.02 0.00 0.00 0.00 0.00 0.00 0.00 0.00 0.00 0.00 0.00 0.00 0.00 0.00 0.00 0.00 0.00 0.00 0.00 0.00 0.00 0.00 0.00 0.00 0.00 0.00 0.00 0.00 0.00 0.00 0.01 0.00 0.00 0.00 0.00 0.00
0.21 0.27 0.23 0.35 0.21 0.05 0.03 0.01 0.00 0.00 0.00 0.00 0.00 0.00 0.00 0.00 0.00 0.00 0.00 0.00 0.00 0.00 0.00 0.00 0.00 0.00 0.00 0.00 0.00 0.00 0.00 0.00 0.00 0.00 0.00 0.00 0.00 0.00 0.00 0.01 0.01 0.01 0.01
0.23 0.21 0.26 0.21 0.28 0.17 0.07 0.03 0.01 0.00 0.00 0.00 0.00 0.00 0.00 0.00 0.00 0.00 0.00 0.00 0.00 0.00 0.00 0.00 0.00 0.00 0.00 0.00 0.00 0.00 0.00 0.00 0.00 0.00 0.00 0.00 0.00 0.00 0.00 0.00 0.00 0.02 0.08
0.18 0.25 0.19 0.22 0.18 0.16 0.24 0.13 0.02 0.00 0.00 0.00 0.00 0.00 0.00 0.00 0.00 0.00 0.00 0.00 0.00 0.00 0.00 0.00 0.00 0.00 0.00 0.00 0.00 0.00 0.00 0.00 0.00 0.00 0.00 0.00 0.00 0.00 0.00 0.00 0.00 0.00 0.01
0.15 0.12 0.19 0.15 0.15 0.10 0.06 0.11 0.07 0.02 0.02 0.00 0.00 0.00 0.00 0.00 0.00 0.00 0.00 0.00 0.00 0.00 0.00 0.00 0.00 0.00 0.00 0.00 0.00 0.00 0.00 0.00 0.00 0.00 0.00 0.00 0.00 0.00 0.00 0.00 0.00 0.00 0.00
0.18 0.21 0.25 0.28 0.26 0.16 0.07 0.06 0.08 0.03 0.04 0.01 0.00 0.00 0.00 0.00 0.00 0.00 0.00 0.00 0.00 0.00 0.00 0.00 0.00 0.00 0.00 0.00 0.00 0.00 0.00 0.00 0.00 0.00 0.00 0.00 0.00 0.00 0.00 0.00 0.00 0.00 0.01
0.16 0.18 0.24 0.25 0.26 0.33 0.23 0.18 0.26 0.06 0.02 0.03 0.02 0.01 0.01 0.00 0.00 0.00 0.00 0.00 0.00 0.00 0.00 0.00 0.00 0.00 0.00 0.01 0.01 0.01 0.00 0.00 0.00 0.00 0.00 0.01 0.02 0.01 0.00 0.00 0.00 0.00 0.00
0.26 0.18 0.39 0.29 0.22 0.14 0.17 0.16 0.14 0.07 0.03 0.01 0.02 0.02 0.01 0.01 0.00 0.00 0.00 0.00 0.00 0.00 0.00 0.01 0.01 0.01 0.01 0.02 0.03 0.00 0.00 0.00 0.00 0.00 0.00 0.02 0.01 0.01 0.00 0.00 0.00 0.00 0.00
0.11 0.27 0.27 0.19 0.22 0.07 0.07 0.00 0.00 0.06 0.09 0.01 0.01 0.01 0.00 0.01 0.00 0.00 0.00 0.00 0.01 0.01 0.00 0.01 0.01 0.01 0.01 0.01 0.05 0.05 0.01 0.00 0.00 0.00 0.00 0.00 0.00 0.00 0.00 0.00 0.00 0.00 0.00
0.02 0.03 0.10 0.19 0.18 0.11 0.22 0.31 0.17 0.19 0.06 0.01 0.03 0.02 0.00 0.01 0.01 0.02 0.02 0.02 0.02 0.03 0.01 0.01 0.03 0.04 0.05 0.02 0.03 0.09 0.05 0.02 0.00 0.00 0.00 0.00 0.00 0.00 0.00 0.00 0.00 0.00 0.00
0.00 0.05 0.11 0.21 0.19 0.20 0.28 0.32 0.24 0.28 0.45 0.42 0.52 0.31 0.12 0.10 0.09 0.03 0.04 0.05 0.03 0.02 0.01 0.01 0.01 0.02 0.03 0.03 0.01 0.02 0.04 0.05 0.06 0.03 0.00 0.00 0.00 0.00 0.00 0.00 0.00 0.00 0.00
0.00 0.00 0.04 0.10 0.12 0.17 0.28 0.41 0.44 0.40 0.47 0.47 0.45 0.38 0.42 0.41 0.33 0.28 0.27 0.22 0.18 0.12 0.09 0.05 0.02 0.01 0.01 0.02 0.01 0.01 0.01 0.02 0.03 0.05 0.03 0.01 0.01 0.00 0.00 0.00 0.00 0.00 0.00
0.00 0.00 0.01 0.04 0.10 0.23 0.33 0.36 0.36 0.28 0.29 0.27 0.26 0.29 0.30 0.29 0.27 0.23 0.15 0.09 0.08 0.07 0.07 0.04 0.02 0.00 0.00 0.00 0.02 0.03 0.03 0.03 0.02 0.02 0.03 0.01 0.01 0.01 0.00 0.00 0.00 0.00 0.00

GFSSE_prec_precacc24_078.txt.gz
Total_Precipitation_Accumulation
0.00 0.01 0.04 0.03 0.01 0.02 0.02 0.03 0.04 0.03 0.02 0.04 0.05 0.04 0.03 0.03 0.05 0.06 0.04 0.04 0.05 0.04 0.04 0.02 0.01 0.00 0.00 0.00 0.00 0.00 0.00 0.00 0.01 0.01 0.01 0.02 0.03 0.04 0.04 0.04 0.03 0.01 0.01
0.00 0.01 0.03 0.03 0.02 0.03 0.04 0.03 0.04 0.03 0.05 0.04 0.04 0.06 0.08 0.07 0.07 0.05 0.04 0.03 0.02 0.02 0.01 0.01 0.01 0.01 0.00 0.00 0.00 0.00 0.00 0.00 0.00 0.00 0.00 0.01 0.04 0.06 0.04 0.03 0.05 0.06 0.06
0.00 0.01 0.01 0.04 0.03 0.04 0.04 0.02 0.02 0.03 0.04 0.03 0.02 0.04 0.04 0.05 0.06 0.08 0.04 0.01 0.01 0.01 0.02 0.02 0.01 0.00 0.00 0.00 0.00 0.00 0.00 0.00 0.00 0.00 0.00 0.00 0.01 0.06 0.06 0.05 0.05 0.04 0.07
0.00 0.01 0.01 0.04 0.03 0.03 0.02 0.00 0.01 0.03 0.01 0.00 0.01 0.02 0.04 0.05 0.07 0.04 0.01 0.00 0.00 0.01 0.01 0.01 0.00 0.00 0.00 0.00 0.00 0.00 0.00 0.00 0.00 0.00 0.00 0.00 0.01 0.03 0.04 0.05 0.08 0.07 0.04
0.01 0.02 0.02 0.06 0.05 0.04 0.01 0.01 0.03 0.01 0.00 0.00 0.01 0.01 0.03 0.08 0.05 0.01 0.00 0.00 0.00 0.00 0.00 0.00 0.00 0.00 0.00 0.00 0.00 0.00 0.00 0.00 0.00 0.00 0.00 0.01 0.03 0.04 0.03 0.02 0.02 0.02 0.05
0.02 0.03 0.02 0.07 0.07 0.03 0.02 0.03 0.03 0.01 0.01 0.00 0.01 0.01 0.03 0.04 0.03 0.01 0.00 0.00 0.00 0.00 0.00 0.00 0.00 0.00 0.00 0.00 0.00 0.00 0.00 0.00 0.00 0.00 0.00 0.00 0.02 0.02 0.01 0.01 0.00 0.00 0.01
0.02 0.04 0.03 0.09 0.08 0.02 0.02 0.04 0.02 0.02 0.02 0.01 0.01 0.02 0.04 0.04 0.03 0.01 0.00 0.00 0.00 0.00 0.00 0.00 0.00 0.00 0.00 0.00 0.00 0.00 0.00 0.00 0.00 0.00 0.00 0.00 0.00 0.01 0.00 0.00 0.00 0.00 0.00
0.02 0.05 0.04 0.10 0.07 0.02 0.02 0.01 0.02 0.03 0.02 0.01 0.01 0.04 0.06 0.06 0.04 0.01 0.00 0.00 0.00 0.00 0.00 0.00 0.00 0.00 0.00 0.00 0.00 0.00 0.00 0.00 0.00 0.00 0.00 0.00 0.00 0.00 0.00 0.00 0.00 0.00 0.00
0.17 0.08 0.05 0.09 0.03 0.01 0.02 0.00 0.01 0.03 0.03 0.02 0.02 0.03 0.04 0.02 0.02 0.01 0.01 0.00 0.00 0.00 0.00 0.00 0.00 0.00 0.00 0.00 0.00 0.00 0.00 0.00 0.00 0.00 0.00 0.00 0.00 0.00 0.00 0.00 0.00 0.00 0.00
0.34 0.24 0.08 0.05 0.01 0.01 0.02 0.01 0.01 0.02 0.02 0.02 0.01 0.01 0.00 0.00 0.00 0.00 0.00 0.00 0.00 0.00 0.00 0.00 0.00 0.00 0.00 0.00 0.00 0.00 0.00 0.00 0.00 0.00 0.00 0.00 0.00 0.01 0.00 0.00 0.00 0.00 0.00
0.43 0.30 0.23 0.03 0.01 0.01 0.02 0.01 0.00 0.01 0.02 0.01 0.00 0.00 0.00 0.00 0.00 0.00 0.00 0.00 0.00 0.00 0.00 0.00 0.00 0.00 0.00 0.00 0.00 0.00 0.00 0.00 0.00 0.00 0.00 0.00 0.00 0.01 0.01 0.00 0.00 0.00 0.00
0.62 0.18 0.15 0.06 0.01 0.02 0.02 0.01 0.00 0.00 0.01 0.00 0.00 0.00 0.00 0.00 0.00 0.00 0.00 0.00 0.00 0.00 0.00 0.00 0.00 0.00 0.00 0.00 0.00 0.00 0.00 0.00 0.00 0.00 0.00 0.00 0.00 0.02 0.02 0.00 0.00 0.00 0.00
1.15 0.87 0.26 0.09 0.05 0.02 0.02 0.02 0.01 0.00 0.00 0.00 0.00 0.00 0.00 0.00 0.00 0.00 0.00 0.00 0.00 0.00 0.00 0.00 0.00 0.00 0.00 0.00 0.00 0.00 0.00 0.00 0.00 0.00 0.00 0.00 0.00 0.03 0.01 0.00 0.00 0.00 0.00
0.51 1.16 1.08 0.63 0.17 0.02 0.01 0.02 0.00 0.00 0.00 0.00 0.00 0.00 0.00 0.00 0.00 0.00 0.00 0.00 0.00 0.00 0.00 0.00 0.00 0.00 0.00 0.00 0.00 0.00 0.00 0.00 0.00 0.00 0.00 0.00 0.00 0.01 0.00 0.00 0.00 0.00 0.00
0.28 0.47 0.55 0.65 0.48 0.14 0.06 0.02 0.00 0.00 0.00 0.00 0.00 0.00 0.00 0.00 0.00 0.00 0.00 0.00 0.00 0.00 0.00 0.00 0.00 0.00 0.00 0.00 0.00 0.00 0.00 0.00 0.00 0.00 0.00 0.00 0.00 0.00 0.00 0.01 0.01 0.01 0.02
0.28 0.27 0.30 0.26 0.34 0.34 0.22 0.08 0.01 0.00 0.00 0.00 0.00 0.00 0.00 0.00 0.00 0.00 0.00 0.00 0.00 0.00 0.00 0.00 0.00 0.00 0.00 0.00 0.00 0.00 0.00 0.00 0.00 0.00 0.00 0.00 0.00 0.00 0.00 0.00 0.00 0.02 0.11
0.18 0.25 0.20 0.22 0.18 0.21 0.48 0.30 0.12 0.02 0.00 0.00 0.00 0.00 0.00 0.00 0.00 0.00 0.00 0.00 0.00 0.00 0.00 0.00 0.00 0.00 0.00 0.00 0.00 0.00 0.00 0.00 0.00 0.00 0.00 0.00 0.00 0.00 0.00 0.00 0.00 0.00 0.01
0.15 0.12 0.18 0.15 0.16 0.10 0.13 0.24 0.15 0.14 0.07 0.00 0.00 0.00 0.00 0.00 0.00 0.00 0.00 0.00 0.00 0.00 0.00 0.00 0.00 0.00 0.00 0.00 0.00 0.00 0.00 0.00 0.00 0.00 0.00 0.00 0.00 0.00 0.00 0.00 0.00 0.00 0.00
0.20 0.27 0.26 0.28 0.27 0.16 0.09 0.12 0.12 0.13 0.09 0.08 0.02 0.00 0.00 0.00 0.00 0.00 0.00 0.00 0.00 0.00 0.00 0.00 0.00 0.00 0.00 0.00 0.00 0.00 0.00 0.00 0.00 0.00 0.00 0.00 0.00 0.00 0.00 0.00 0.00 0.00 0.01
0.17 0.29 0.38 0.37 0.32 0.39 0.33 0.32 0.42 0.25 0.10 0.22 0.15 0.03 0.01 0.00 0.00 0.00 0.00 0.00 0.00 0.00 0.00 0.00 0.00 0.00 0.00 0.01 0.01 0.01 0.00 0.00 0.00 0.00 0.00 0.01 0.02 0.01 0.00 0.00 0.00 0.00 0.00
0.39 0.34 0.51 0.47 0.34 0.36 0.33 0.27 0.20 0.18 0.11 0.03 0.09 0.09 0.03 0.02 0.01 0.00 0.00 0.00 0.00 0.00 0.00 0.01 0.01 0.01 0.01 0.02 0.03 0.00 0.00 0.00 0.00 0.00 0.00 0.02 0.01 0.00 0.00 0.00 0.00 0.00 0.00
0.20 0.40 0.42 0.41 0.50 0.33 0.21 0.08 0.04 0.12 0.26 0.11 0.19 0.14 0.07 0.04 0.02 0.02 0.01 0.01 0.01 0.01 0.00 0.01 0.01 0.01 0.01 0.01 0.04 0.04 0.01 0.00 0.00 0.00 0.00 0.00 0.00 0.00 0.00 0.00 0.00 0.00 0.00
0.03 0.04 0.12 0.27 0.29 0.30 0.54 0.71 0.54 0.50 0.32 0.25 0.17 0.17 0.14 0.05 0.05 0.13 0.15 0.15 0.10 0.07 0.06 0.06 0.04 0.04 0.04 0.02 0.03 0.07 0.05 0.02 0.00 0.00 0.00 0.00 0.00 0.00 0.00 0.00 0.00 0.00 0.00
0.00 0.05 0.11 0.25 0.26 0.33 0.43 0.59 0.62 0.59 0.68 0.62 0.77 0.60 0.50 0.46 0.40 0.33 0.28 0.24 0.20 0.14 0.13 0.12 0.07 0.04 0.04 0.03 0.01 0.02 0.04 0.05 0.05 0.02 0.00 0.00 0.00 0.00 0.00 0.00 0.00 0.00 0.00
0.00 0.00 0.04 0.10 0.15 0.21 0.33 0.49 0.59 0.60 0.67 0.63 0.59 0.46 0.57 0.62 0.56 0.55 0.59 0.59 0.51 0.36 0.21 0.11 0.06 0.04 0.02 0.04 0.03 0.01 0.01 0.01 0.02 0.04 0.02 0.01 0.01 0.00 0.00 0.00 0.00 0.00 0.00
0.00 0.00 0.01 0.04 0.10 0.24 0.42 0.49 0.50 0.37 0.36 0.35 0.35 0.32 0.36 0.41 0.41 0.41 0.47 0.55 0.37 0.15 0.09 0.06 0.03 0.01 0.01 0.01 0.01 0.02 0.02 0.02 0.01 0.01 0.02 0.01 0.01 0.01 0.00 0.00 0.00 0.00 0.00

GFSSE_prec_precacc24_081.txt.gz
Total_Precipitation_Accumulation
0.00 0.01 0.06 0.04 0.01 0.01 0.02 0.02 0.04 0.03 0.03 0.05 0.05 0.04 0.04 0.05 0.05 0.06 0.05 0.04 0.05 0.04 0.04 0.02 0.01 0.01 0.02 0.01 0.00 0.01 0.00 0.01 0.01 0.01 0.01 0.03 0.05 0.05 0.05 0.04 0.03 0.01 0.01
0.00 0.01 0.05 0.05 0.02 0.03 0.03 0.03 0.04 0.03 0.05 0.05 0.05 0.07 0.10 0.08 0.07 0.05 0.04 0.03 0.02 0.02 0.01 0.01 0.01 0.01 0.01 0.01 0.00 0.00 0.00 0.00 0.00 0.00 0.00 0.01 0.04 0.07 0.04 0.03 0.06 0.05 0.06
0.00 0.01 0.02 0.06 0.04 0.04 0.04 0.02 0.02 0.03 0.03 0.03 0.04 0.07 0.07 0.09 0.07 0.07 0.04 0.01 0.01 0.01 0.02 0.03 0.02 0.00 0.00 0.00 0.00 0.00 0.00 0.00 0.00 0.00 0.00 0.00 0.01 0.06 0.06 0.05 0.04 0.05 0.07
0.00 0.01 0.01 0.06 0.04 0.03 0.02 0.00 0.03 0.03 0.01 0.01 0.02 0.04 0.08 0.11 0.08 0.04 0.01 0.00 0.00 0.01 0.01 0.01 0.00 0.00 0.00 0.00 0.00 0.00 0.00 0.00 0.00 0.00 0.00 0.00 0.01 0.02 0.04 0.04 0.04 0.04 0.03
0.01 0.02 0.02 0.08 0.06 0.04 0.01 0.02 0.04 0.01 0.00 0.00 0.01 0.07 0.12 0.16 0.05 0.01 0.00 0.00 0.00 0.00 0.01 0.00 0.00 0.00 0.00 0.00 0.00 0.00 0.00 0.00 0.00 0.00 0.00 0.01 0.02 0.02 0.02 0.01 0.01 0.02 0.03
0.03 0.03 0.03 0.10 0.08 0.03 0.01 0.04 0.03 0.01 0.01 0.00 0.01 0.04 0.11 0.12 0.03 0.00 0.00 0.00 0.00 0.00 0.00 0.00 0.00 0.00 0.00 0.00 0.00 0.00 0.00 0.00 0.00 0.00 0.00 0.00 0.01 0.01 0.00 0.00 0.00 0.00 0.00
0.04 0.06 0.04 0.12 0.09 0.02 0.02 0.04 0.02 0.02 0.02 0.01 0.01 0.02 0.06 0.04 0.02 0.00 0.00 0.00 0.00 0.00 0.00 0.00 0.00 0.00 0.00 0.00 0.00 0.00 0.00 0.00 0.00 0.00 0.00 0.00 0.00 0.00 0.00 0.00 0.00 0.00 0.00
0.04 0.07 0.05 0.17 0.11 0.02 0.02 0.02 0.02 0.03 0.02 0.01 0.01 0.04 0.04 0.05 0.02 0.01 0.00 0.00 0.00 0.00 0.00 0.00 0.00 0.00 0.00 0.00 0.00 0.00 0.00 0.00 0.00 0.00 0.00 0.00 0.00 0.00 0.00 0.00 0.00 0.00 0.00
0.27 0.12 0.05 0.15 0.08 0.01 0.02 0.01 0.01 0.03 0.03 0.02 0.02 0.03 0.04 0.02 0.01 0.00 0.00 0.00 0.00 0.00 0.00 0.00 0.00 0.00 0.00 0.00 0.00 0.00 0.00 0.00 0.00 0.00 0.00 0.00 0.00 0.00 0.00 0.00 0.00 0.00 0.00
0.48 0.34 0.12 0.12 0.03 0.01 0.02 0.02 0.01 0.02 0.02 0.02 0.01 0.01 0.00 0.00 0.00 0.00 0.00 0.00 0.00 0.00 0.00 0.00 0.00 0.00 0.00 0.00 0.00 0.00 0.00 0.00 0.00 0.00 0.00 0.00 0.00 0.00 0.00 0.00 0.00 0.00 0.00
0.53 0.44 0.35 0.13 0.02 0.01 0.02 0.01 0.01 0.02 0.02 0.01 0.00 0.00 0.00 0.00 0.00 0.00 0.00 0.00 0.00 0.00 0.00 0.00 0.00 0.00 0.00 0.00 0.00 0.00 0.00 0.00 0.00 0.00 0.00 0.00 0.00 0.00 0.00 0.00 0.00 0.00 0.00
0.64 0.25 0.32 0.24 0.07 0.02 0.02 0.01 0.00 0.01 0.01 0.00 0.00 0.00 0.00 0.00 0.00 0.00 0.00 0.00 0.00 0.00 0.00 0.00 0.00 0.00 0.00 0.00 0.00 0.00 0.00 0.00 0.00 0.00 0.00 0.00 0.00 0.00 0.02 0.00 0.00 0.00 0.00
1.18 0.93 0.43 0.29 0.16 0.02 0.02 0.02 0.01 0.00 0.01 0.01 0.00 0.00 0.00 0.00 0.00 0.00 0.00 0.00 0.00 0.00 0.00 0.00 0.00 0.00 0.00 0.00 0.00 0.00 0.00 0.00 0.00 0.00 0.00 0.00 0.00 0.01 0.01 0.00 0.00 0.00 0.00
0.55 1.30 1.32 0.83 0.36 0.06 0.01 0.02 0.00 0.00 0.00 0.01 0.00 0.00 0.00 0.00 0.00 0.00 0.00 0.00 0.00 0.00 0.00 0.00 0.00 0.00 0.00 0.00 0.00 0.00 0.00 0.00 0.00 0.00 0.00 0.00 0.00 0.00 0.00 0.00 0.00 0.00 0.00
0.34 0.64 0.70 0.80 0.71 0.26 0.07 0.02 0.00 0.00 0.00 0.00 0.00 0.00 0.00 0.00 0.00 0.00 0.00 0.00 0.00 0.00 0.00 0.00 0.00 0.00 0.00 0.00 0.00 0.00 0.00 0.00 0.00 0.00 0.00 0.00 0.00 0.00 0.00 0.01 0.01 0.02 0.03
0.27 0.32 0.36 0.31 0.41 0.42 0.35 0.10 0.01 0.00 0.00 0.00 0.00 0.00 0.00 0.00 0.00 0.00 0.00 0.00 0.00 0.00 0.00 0.00 0.00 0.00 0.00 0.00 0.00 0.00 0.00 0.00 0.00 0.00 0.00 0.00 0.00 0.00 0.00 0.00 0.00 0.03 0.13
0.15 0.26 0.22 0.23 0.19 0.22 0.56 0.37 0.13 0.02 0.00 0.00 0.00 0.00 0.00 0.00 0.00 0.00 0.00 0.00 0.00 0.00 0.00 0.00 0.00 0.00 0.00 0.00 0.00 0.00 0.00 0.00 0.00 0.00 0.00 0.00 0.00 0.00 0.00 0.00 0.00 0.00 0.01
0.11 0.12 0.18 0.15 0.16 0.10 0.16 0.28 0.17 0.14 0.08 0.02 0.00 0.00 0.00 0.00 0.00 0.00 0.00 0.00 0.00 0.00 0.00 0.00 0.00 0.00 0.00 0.00 0.00 0.00 0.00 0.00 0.00 0.00 0.00 0.00 0.00 0.00 0.00 0.00 0.00 0.00 0.00
0.15 0.25 0.27 0.28 0.29 0.20 0.10 0.12 0.13 0.13 0.10 0.11 0.05 0.01 0.00 0.00 0.00 0.00 0.00 0.00 0.00 0.00 0.00 0.00 0.00 0.00 0.00 0.00 0.00 0.00 0.00 0.00 0.00 0.00 0.00 0.00 0.00 0.00 0.00 0.00 0.00 0.00 0.01
0.17 0.28 0.38 0.37 0.36 0.50 0.41 0.38 0.44 0.26 0.10 0.24 0.21 0.10 0.04 0.01 0.00 0.00 0.00 0.00 0.00 0.00 0.00 0.00 0.00 0.00 0.00 0.01 0.01 0.01 0.00 0.00 0.00 0.00 0.00 0.00 0.01 0.01 0.00 0.00 0.00 0.00 0.00
0.52 0.48 0.57 0.54 0.42 0.51 0.53 0.44 0.26 0.22 0.12 0.04 0.12 0.19 0.18 0.06 0.02 0.01 0.00 0.00 0.00 0.00 0.00 0.00 0.01 0.01 0.01 0.02 0.03 0.00 0.00 0.00 0.00 0.00 0.00 0.00 0.00 0.00 0.00 0.00 0.00 0.00 0.00
0.51 0.70 0.58 0.52 0.56 0.42 0.44 0.38 0.20 0.16 0.28 0.13 0.26 0.29 0.27 0.24 0.24 0.23 0.16 0.06 0.03 0.01 0.00 0.01 0.01 0.01 0.01 0.01 0.04 0.04 0.01 0.00 0.00 0.00 0.00 0.00 0.00 0.00 0.00 0.00 0.00 0.00 0.00
0.31 0.33 0.30 0.51 0.49 0.35 0.59 0.88 0.79 0.65 0.46 0.35 0.26 0.26 0.33 0.35 0.33 0.32 0.35 0.41 0.33 0.27 0.16 0.11 0.06 0.06 0.07 0.02 0.03 0.07 0.05 0.02 0.00 0.00 0.00 0.00 0.00 0.00 0.00 0.00 0.00 0.00 0.00
0.07 0.13 0.21 0.44 0.47 0.66 0.59 0.78 1.03 1.23 1.28 0.97 1.07 0.92 0.70 0.69 0.68 0.63 0.53 0.46 0.44 0.36 0.34 0.34 0.29 0.21 0.13 0.04 0.01 0.02 0.04 0.05 0.04 0.02 0.00 0.00 0.00 0.00 0.00 0.00 0.00 0.00 0.00
0.00 0.01 0.05 0.19 0.33 0.38 0.48 0.74 0.94 0.86 0.90 0.91 0.76 0.72 0.88 0.88 0.75 0.68 0.74 0.78 0.83 0.80 0.51 0.25 0.12 0.08 0.05 0.04 0.03 0.01 0.01 0.01 0.02 0.03 0.02 0.00 0.01 0.00 0.00 0.00 0.00 0.00 0.00
0.00 0.00 0.01 0.04 0.12 0.32 0.56 0.64 0.67 0.58 0.56 0.52 0.49 0.45 0.50 0.54 0.56 0.51 0.53 0.64 0.60 0.48 0.44 0.24 0.07 0.04 0.03 0.02 0.01 0.02 0.02 0.01 0.01 0.01 0.02 0.01 0.01 0.01 0.00 0.00 0.00 0.00 0.00

GFSSE_prec_precacc24_084.txt.gz
Total_Precipitation_Accumulation
0.00 0.01 0.07 0.05 0.01 0.01 0.01 0.02 0.03 0.02 0.03 0.05 0.05 0.04 0.04 0.05 0.06 0.05 0.05 0.04 0.05 0.04 0.04 0.02 0.01 0.02 0.03 0.01 0.01 0.01 0.00 0.01 0.01 0.01 0.01 0.03 0.05 0.05 0.05 0.04 0.02 0.01 0.01
0.00 0.01 0.05 0.06 0.02 0.02 0.02 0.02 0.03 0.02 0.06 0.05 0.06 0.07 0.11 0.07 0.07 0.05 0.04 0.03 0.02 0.02 0.01 0.01 0.02 0.02 0.01 0.01 0.00 0.00 0.00 0.00 0.00 0.00 0.00 0.01 0.04 0.07 0.04 0.03 0.06 0.06 0.07
0.00 0.01 0.03 0.07 0.03 0.03 0.03 0.01 0.01 0.03 0.04 0.05 0.06 0.09 0.12 0.10 0.07 0.07 0.04 0.01 0.01 0.01 0.02 0.03 0.02 0.01 0.00 0.00 0.00 0.00 0.00 0.00 0.00 0.00 0.00 0.00 0.01 0.06 0.05 0.03 0.04 0.05 0.07
0.01 0.01 0.02 0.08 0.03 0.02 0.01 0.00 0.02 0.02 0.02 0.02 0.04 0.08 0.14 0.12 0.07 0.04 0.01 0.00 0.00 0.01 0.01 0.01 0.00 0.00 0.00 0.00 0.00 0.00 0.00 0.00 0.00 0.00 0.00 0.00 0.00 0.02 0.03 0.02 0.02 0.03 0.03
0.03 0.03 0.03 0.09 0.07 0.04 0.01 0.01 0.04 0.01 0.00 0.02 0.06 0.15 0.17 0.17 0.04 0.01 0.00 0.00 0.00 0.01 0.01 0.00 0.00 0.00 0.00 0.00 0.00 0.00 0.00 0.00 0.00 0.00 0.00 0.00 0.00 0.01 0.00 0.00 0.01 0.01 0.02
0.04 0.05 0.04 0.13 0.09 0.04 0.01 0.04 0.03 0.01 0.01 0.01 0.07 0.17 0.24 0.15 0.01 0.00 0.00 0.00 0.00 0.01 0.00 0.00 0.00 0.00 0.00 0.00 0.00 0.00 0.00 0.00 0.00 0.00 0.00 0.00 0.00 0.00 0.00 0.00 0.00 0.00 0.00
0.04 0.08 0.06 0.19 0.09 0.02 0.02 0.04 0.02 0.02 0.02 0.01 0.04 0.15 0.20 0.07 0.01 0.00 0.00 0.00 0.00 0.00 0.00 0.00 0.00 0.00 0.00 0.00 0.00 0.00 0.00 0.00 0.00 0.00 0.00 0.00 0.00 0.00 0.00 0.00 0.00 0.00 0.00
0.06 0.10 0.08 0.25 0.17 0.02 0.02 0.03 0.02 0.03 0.02 0.01 0.02 0.11 0.16 0.04 0.01 0.01 0.00 0.00 0.00 0.00 0.00 0.00 0.00 0.00 0.00 0.00 0.00 0.00 0.00 0.00 0.00 0.00 0.00 0.00 0.00 0.00 0.00 0.00 0.00 0.00 0.00
0.37 0.16 0.08 0.18 0.17 0.01 0.01 0.02 0.01 0.03 0.03 0.02 0.02 0.05 0.05 0.02 0.01 0.00 0.00 0.00 0.00 0.00 0.00 0.00 0.00 0.00 0.00 0.00 0.00 0.00 0.00 0.00 0.00 0.00 0.00 0.00 0.00 0.00 0.00 0.00 0.00 0.00 0.00
0.70 0.48 0.18 0.17 0.08 0.01 0.02 0.03 0.00 0.02 0.02 0.02 0.01 0.01 0.00 0.00 0.00 0.00 0.00 0.00 0.00 0.00 0.00 0.00 0.00 0.00 0.00 0.00 0.00 0.00 0.00 0.00 0.00 0.00 0.00 0.00 0.00 0.00 0.00 0.00 0.00 0.00 0.00
1.25 0.67 0.50 0.20 0.05 0.01 0.03 0.02 0.01 0.02 0.02 0.01 0.00 0.00 0.00 0.00 0.00 0.00 0.00 0.00 0.00 0.00 0.00 0.00 0.00 0.00 0.00 0.00 0.00 0.00 0.00 0.00 0.00 0.00 0.00 0.00 0.00 0.00 0.00 0.00 0.00 0.00 0.00
1.40 0.80 0.62 0.43 0.21 0.02 0.02 0.03 0.02 0.02 0.01 0.00 0.00 0.00 0.00 0.00 0.00 0.00 0.00 0.00 0.00 0.00 0.00 0.00 0.00 0.00 0.00 0.00 0.00 0.00 0.00 0.00 0.00 0.00 0.00 0.00 0.00 0.00 0.01 0.00 0.00 0.00 0.00
1.52 1.25 0.64 0.50 0.34 0.06 0.01 0.02 0.04 0.02 0.01 0.01 0.00 0.00 0.00 0.00 0.00 0.00 0.00 0.00 0.00 0.00 0.00 0.00 0.00 0.00 0.00 0.00 0.00 0.00 0.00 0.00 0.00 0.00 0.00 0.00 0.00 0.00 0.00 0.00 0.00 0.00 0.00
0.60 1.44 1.49 1.01 0.45 0.11 0.01 0.01 0.01 0.02 0.01 0.01 0.00 0.00 0.00 0.00 0.00 0.00 0.00 0.00 0.00 0.00 0.00 0.00 0.00 0.00 0.00 0.00 0.00 0.00 0.00 0.00 0.00 0.00 0.00 0.00 0.00 0.00 0.00 0.00 0.00 0.00 0.00
0.35 0.66 0.81 1.00 0.95 0.32 0.07 0.02 0.01 0.01 0.01 0.00 0.00 0.00 0.00 0.00 0.00 0.00 0.00 0.00 0.00 0.00 0.00 0.00 0.00 0.00 0.00 0.00 0.00 0.00 0.00 0.00 0.00 0.00 0.00 0.00 0.00 0.00 0.00 0.00 0.01 0.03 0.06
0.22 0.32 0.39 0.43 0.55 0.52 0.40 0.10 0.01 0.01 0.01 0.00 0.00 0.00 0.00 0.00 0.00 0.00 0.00 0.00 0.00 0.00 0.00 0.00 0.00 0.00 0.00 0.00 0.00 0.00 0.00 0.00 0.00 0.00 0.00 0.00 0.00 0.00 0.00 0.00 0.00 0.02 0.14
0.08 0.20 0.22 0.28 0.25 0.26 0.61 0.40 0.13 0.02 0.00 0.00 0.00 0.00 0.00 0.00 0.00 0.00 0.00 0.00 0.00 0.00 0.00 0.00 0.00 0.00 0.00 0.00 0.00 0.00 0.00 0.00 0.00 0.00 0.00 0.00 0.00 0.00 0.00 0.00 0.00 0.00 0.01
0.10 0.09 0.15 0.16 0.19 0.11 0.16 0.29 0.18 0.14 0.08 0.02 0.00 0.00 0.00 0.00 0.00 0.00 0.00 0.00 0.00 0.00 0.00 0.00 0.00 0.00 0.00 0.00 0.00 0.00 0.00 0.00 0.00 0.00 0.00 0.00 0.00 0.00 0.00 0.00 0.00 0.00 0.00
0.15 0.23 0.22 0.24 0.28 0.20 0.10 0.12 0.13 0.13 0.10 0.11 0.05 0.01 0.00 0.00 0.00 0.00 0.00 0.00 0.00 0.00 0.00 0.00 0.00 0.00 0.00 0.00 0.00 0.00 0.00 0.00 0.00 0.00 0.00 0.00 0.00 0.00 0.00 0.00 0.00 0.00 0.00
0.17 0.27 0.35 0.33 0.31 0.46 0.38 0.37 0.44 0.26 0.10 0.24 0.21 0.10 0.05 0.01 0.00 0.00 0.00 0.00 0.00 0.00 0.00 0.00 0.00 0.00 0.00 0.01 0.01 0.01 0.00 0.00 0.00 0.00 0.00 0.00 0.00 0.01 0.00 0.00 0.00 0.00 0.00
0.53 0.48 0.57 0.53 0.41 0.56 0.59 0.47 0.30 0.25 0.13 0.04 0.12 0.20 0.21 0.11 0.05 0.01 0.00 0.00 0.00 0.00 0.00 0.00 0.01 0.01 0.01 0.02 0.03 0.01 0.00 0.00 0.00 0.00 0.00 0.00 0.00 0.00 0.00 0.00 0.00 0.00 0.00
0.70 0.87 0.67 0.59 0.67 0.52 0.54 0.44 0.29 0.24 0.35 0.19 0.28 0.29 0.31 0.30 0.30 0.32 0.26 0.13 0.04 0.03 0.02 0.01 0.01 0.01 0.01 0.01 0.05 0.04 0.01 0.00 0.00 0.00 0.00 0.00 0.00 0.00 0.00 0.00 0.00 0.00 0.00
0.72 0.76 0.84 0.73 0.71 0.55 0.72 0.93 0.85 0.78 0.51 0.38 0.30 0.31 0.35 0.37 0.44 0.49 0.57 0.65 0.52 0.39 0.30 0.20 0.08 0.08 0.13 0.04 0.04 0.07 0.05 0.02 0.00 0.00 0.00 0.00 0.00 0.00 0.00 0.00 0.00 0.00 0.00
0.40 0.39 0.48 0.75 0.78 0.95 0.88 1.07 1.12 1.31 1.44 1.07 1.14 0.99 0.76 0.73 0.73 0.83 0.87 0.91 0.85 0.63 0.55 0.53 0.47 0.42 0.33 0.17 0.09 0.04 0.04 0.05 0.04 0.01 0.00 0.00 0.00 0.00 0.00 0.00 0.00 0.00 0.00
0.11 0.11 0.14 0.35 0.59 0.67 0.69 1.10 1.38 1.14 1.15 1.15 1.03 0.94 1.00 0.96 0.82 0.82 0.99 1.07 1.13 1.06 0.80 0.52 0.35 0.25 0.20 0.15 0.11 0.08 0.03 0.01 0.02 0.03 0.01 0.00 0.01 0.00 0.00 0.00 0.00 0.00 0.00
0.01 0.01 0.03 0.08 0.22 0.49 0.77 0.95 1.10 1.15 0.96 0.80 0.82 0.71 0.74 0.75 0.73 0.72 0.77 0.88 0.81 0.62 0.58 0.51 0.40 0.24 0.14 0.10 0.08 0.06 0.03 0.01 0.01 0.01 0.02 0.01 0.01 0.01 0.00 0.00 0.00 0.00 0.00

GFSSE_prec_precacc24_087.txt.gz
Total_Precipitation_Accumulation
0.00 0.01 0.07 0.05 0.01 0.01 0.00 0.00 0.01 0.01 0.02 0.05 0.06 0.04 0.04 0.05 0.05 0.05 0.05 0.04 0.05 0.04 0.03 0.01 0.03 0.05 0.05 0.03 0.01 0.01 0.01 0.01 0.01 0.01 0.02 0.03 0.05 0.05 0.05 0.04 0.02 0.01 0.01
0.00 0.01 0.06 0.07 0.02 0.02 0.01 0.01 0.01 0.01 0.05 0.05 0.06 0.07 0.08 0.06 0.08 0.05 0.04 0.03 0.02 0.02 0.01 0.02 0.02 0.03 0.01 0.01 0.00 0.00 0.00 0.00 0.00 0.00 0.00 0.01 0.04 0.06 0.03 0.03 0.06 0.06 0.06
0.00 0.01 0.03 0.09 0.03 0.02 0.02 0.00 0.01 0.02 0.04 0.05 0.07 0.09 0.11 0.10 0.07 0.08 0.04 0.01 0.01 0.01 0.02 0.03 0.02 0.01 0.00 0.00 0.00 0.00 0.00 0.00 0.00 0.00 0.00 0.00 0.01 0.05 0.03 0.02 0.04 0.04 0.06
0.01 0.01 0.03 0.10 0.04 0.01 0.01 0.00 0.02 0.02 0.02 0.03 0.06 0.11 0.18 0.14 0.07 0.04 0.01 0.00 0.00 0.01 0.02 0.02 0.01 0.00 0.00 0.00 0.00 0.00 0.00 0.00 0.00 0.00 0.00 0.00 0.00 0.01 0.01 0.01 0.01 0.03 0.03
0.03 0.03 0.03 0.10 0.07 0.03 0.01 0.01 0.04 0.01 0.01 0.02 0.08 0.21 0.24 0.18 0.04 0.01 0.00 0.00 0.01 0.02 0.01 0.00 0.00 0.00 0.00 0.00 0.00 0.00 0.00 0.00 0.00 0.00 0.00 0.00 0.00 0.00 0.00 0.00 0.00 0.00 0.00
0.04 0.05 0.05 0.15 0.10 0.04 0.01 0.04 0.03 0.01 0.01 0.01 0.11 0.24 0.31 0.15 0.01 0.00 0.00 0.01 0.01 0.01 0.00 0.00 0.00 0.00 0.00 0.00 0.00 0.00 0.00 0.00 0.00 0.00 0.00 0.00 0.00 0.00 0.00 0.00 0.00 0.00 0.00
0.05 0.10 0.08 0.24 0.12 0.02 0.02 0.05 0.02 0.02 0.02 0.02 0.08 0.28 0.32 0.07 0.00 0.00 0.00 0.00 0.01 0.00 0.00 0.00 0.00 0.00 0.00 0.00 0.00 0.00 0.00 0.00 0.00 0.00 0.00 0.00 0.00 0.00 0.00 0.00 0.00 0.00 0.00
0.09 0.14 0.15 0.29 0.26 0.05 0.02 0.04 0.02 0.03 0.03 0.02 0.07 0.27 0.33 0.03 0.00 0.01 0.00 0.01 0.01 0.00 0.00 0.00 0.00 0.00 0.00 0.00 0.00 0.00 0.00 0.00 0.00 0.00 0.00 0.00 0.00 0.00 0.00 0.00 0.00 0.00 0.00
0.57 0.24 0.14 0.22 0.23 0.05 0.03 0.03 0.01 0.03 0.03 0.03 0.07 0.20 0.17 0.01 0.01 0.00 0.00 0.01 0.01 0.00 0.00 0.00 0.00 0.00 0.00 0.00 0.00 0.00 0.00 0.00 0.00 0.00 0.00 0.00 0.00 0.00 0.00 0.00 0.00 0.00 0.00
0.92 0.70 0.32 0.26 0.13 0.01 0.07 0.04 0.00 0.02 0.02 0.02 0.04 0.13 0.02 0.00 0.00 0.00 0.00 0.01 0.01 0.00 0.00 0.00 0.00 0.00 0.00 0.00 0.00 0.00 0.00 0.00 0.00 0.00 0.00 0.00 0.00 0.00 0.00 0.00 0.00 0.00 0.00
1.54 1.01 0.76 0.44 0.14 0.01 0.08 0.09 0.01 0.02 0.02 0.01 0.00 0.02 0.00 0.00 0.00 0.00 0.00 0.01 0.00 0.00 0.00 0.00 0.00 0.00 0.00 0.00 0.00 0.00 0.00 0.00 0.00 0.00 0.00 0.00 0.00 0.00 0.00 0.00 0.00 0.00 0.00
1.50 1.24 1.30 0.79 0.44 0.06 0.03 0.07 0.05 0.02 0.01 0.00 0.00 0.00 0.00 0.00 0.00 0.00 0.00 0.00 0.00 0.00 0.00 0.00 0.00 0.00 0.00 0.00 0.00 0.00 0.00 0.00 0.00 0.00 0.00 0.00 0.00 0.00 0.00 0.00 0.00 0.00 0.00
1.51 1.32 1.20 0.97 0.95 0.41 0.04 0.08 0.11 0.03 0.01 0.01 0.00 0.00 0.00 0.00 0.00 0.00 0.00 0.00 0.00 0.00 0.00 0.00 0.00 0.00 0.00 0.00 0.00 0.00 0.00 0.00 0.00 0.00 0.00 0.00 0.00 0.00 0.00 0.00 0.00 0.00 0.00
0.60 1.45 1.63 1.29 1.27 0.88 0.06 0.07 0.08 0.07 0.01 0.01 0.00 0.00 0.00 0.00 0.00 0.00 0.00 0.00 0.00 0.00 0.00 0.00 0.00 0.00 0.00 0.00 0.00 0.00 0.00 0.00 0.00 0.00 0.00 0.00 0.00 0.00 0.00 0.00 0.00 0.00 0.01
0.34 0.66 0.82 1.08 1.47 1.19 0.19 0.03 0.11 0.10 0.03 0.00 0.00 0.00 0.00 0.00 0.00 0.00 0.00 0.00 0.00 0.00 0.00 0.00 0.00 0.00 0.00 0.00 0.00 0.00 0.00 0.00 0.00 0.00 0.00 0.00 0.00 0.00 0.00 0.00 0.00 0.03 0.08
0.22 0.31 0.38 0.46 0.75 1.12 0.69 0.12 0.04 0.12 0.11 0.02 0.00 0.00 0.00 0.00 0.00 0.00 0.00 0.00 0.00 0.00 0.00 0.00 0.00 0.00 0.00 0.00 0.00 0.00 0.00 0.00 0.00 0.00 0.00 0.00 0.00 0.00 0.00 0.00 0.00 0.02 0.14
0.09 0.19 0.20 0.27 0.34 0.52 0.86 0.46 0.13 0.05 0.14 0.09 0.02 0.00 0.00 0.00 0.00 0.00 0.00 0.00 0.00 0.00 0.00 0.00 0.00 0.00 0.00 0.00 0.00 0.00 0.00 0.00 0.00 0.00 0.00 0.00 0.00 0.00 0.00 0.00 0.00 0.00 0.01
0.14 0.10 0.15 0.16 0.21 0.18 0.22 0.33 0.20 0.14 0.11 0.09 0.06 0.01 0.00 0.00 0.00 0.00 0.00 0.00 0.00 0.00 0.00 0.00 0.00 0.00 0.00 0.00 0.00 0.00 0.00 0.00 0.00 0.00 0.00 0.00 0.00 0.00 0.00 0.00 0.00 0.00 0.00
0.21 0.23 0.22 0.24 0.28 0.25 0.15 0.17 0.15 0.13 0.10 0.12 0.08 0.03 0.00 0.00 0.00 0.00 0.00 0.00 0.00 0.00 0.00 0.00 0.00 0.00 0.00 0.00 0.00 0.00 0.00 0.00 0.00 0.00 0.00 0.00 0.00 0.00 0.00 0.00 0.00 0.00 0.00
0.20 0.29 0.35 0.33 0.31 0.47 0.46 0.50 0.50 0.26 0.10 0.24 0.21 0.10 0.05 0.01 0.00 0.00 0.00 0.00 0.00 0.00 0.00 0.00 0.00 0.00 0.00 0.00 0.00 0.00 0.00 0.00 0.00 0.00 0.00 0.00 0.00 0.01 0.00 0.00 0.00 0.00 0.00
0.56 0.52 0.58 0.53 0.43 0.63 0.67 0.60 0.36 0.25 0.14 0.04 0.12 0.20 0.21 0.12 0.07 0.02 0.00 0.00 0.00 0.00 0.00 0.00 0.00 0.00 0.00 0.00 0.02 0.01 0.00 0.00 0.00 0.00 0.00 0.00 0.00 0.00 0.00 0.00 0.00 0.00 0.00
0.76 0.91 0.70 0.62 0.74 0.60 0.69 0.69 0.54 0.39 0.41 0.24 0.33 0.33 0.35 0.31 0.31 0.32 0.26 0.13 0.04 0.03 0.02 0.01 0.00 0.01 0.01 0.01 0.05 0.04 0.02 0.00 0.00 0.00 0.00 0.00 0.00 0.00 0.00 0.00 0.00 0.00 0.00
0.90 0.88 0.94 0.84 0.85 0.68 0.87 1.11 1.06 0.96 0.67 0.44 0.31 0.35 0.39 0.41 0.53 0.58 0.59 0.69 0.63 0.47 0.33 0.28 0.12 0.09 0.16 0.10 0.08 0.08 0.04 0.02 0.00 0.00 0.00 0.00 0.00 0.00 0.00 0.00 0.00 0.00 0.00
0.76 0.73 0.77 0.96 1.02 1.25 1.06 1.27 1.30 1.43 1.50 1.18 1.22 1.00 0.79 0.78 0.79 0.91 0.94 0.96 0.92 0.81 0.90 0.94 0.77 0.59 0.43 0.25 0.19 0.14 0.09 0.08 0.05 0.01 0.00 0.00 0.00 0.00 0.00 0.00 0.00 0.00 0.00
0.44 0.49 0.44 0.57 0.86 1.21 1.10 1.39 1.67 1.27 1.23 1.25 1.10 0.98 1.03 0.98 0.87 0.86 1.03 1.16 1.26 1.24 1.04 0.92 1.01 0.99 0.69 0.34 0.20 0.16 0.12 0.07 0.05 0.03 0.01 0.00 0.00 0.00 0.00 0.00 0.00 0.00 0.00
0.19 0.24 0.26 0.31 0.53 0.81 1.13 1.22 1.45 1.56 1.31 1.08 1.05 0.89 0.83 0.82 0.79 0.78 0.84 1.00 1.02 0.87 0.79 0.74 0.60 0.51 0.50 0.38 0.22 0.16 0.14 0.13 0.07 0.04 0.02 0.00 0.00 0.00 0.00 0.00 0.00 0.00 0.00

GFSSE_prec_precacc24_090.txt.gz
Total_Precipitation_Accumulation
0.00 0.01 0.07 0.05 0.01 0.00 0.00 0.00 0.00 0.00 0.02 0.05 0.06 0.04 0.03 0.04 0.05 0.06 0.05 0.04 0.05 0.02 0.00 0.02 0.05 0.07 0.08 0.04 0.02 0.01 0.01 0.02 0.01 0.01 0.02 0.03 0.05 0.05 0.05 0.04 0.03 0.02 0.01
0.00 0.01 0.06 0.07 0.01 0.01 0.01 0.00 0.00 0.01 0.04 0.06 0.06 0.04 0.06 0.06 0.09 0.06 0.05 0.03 0.01 0.01 0.02 0.04 0.03 0.03 0.02 0.01 0.00 0.00 0.00 0.00 0.00 0.00 0.00 0.01 0.04 0.05 0.03 0.03 0.05 0.05 0.06
0.00 0.01 0.03 0.09 0.03 0.02 0.01 0.00 0.00 0.02 0.04 0.06 0.07 0.07 0.11 0.11 0.10 0.08 0.04 0.01 0.00 0.01 0.02 0.02 0.02 0.01 0.00 0.00 0.00 0.00 0.00 0.00 0.00 0.00 0.00 0.00 0.01 0.03 0.02 0.02 0.03 0.04 0.05
0.01 0.01 0.03 0.10 0.04 0.01 0.00 0.00 0.02 0.02 0.02 0.03 0.06 0.11 0.19 0.15 0.09 0.04 0.01 0.00 0.00 0.02 0.03 0.02 0.01 0.00 0.00 0.00 0.00 0.00 0.00 0.00 0.00 0.00 0.00 0.00 0.00 0.00 0.00 0.01 0.00 0.01 0.01
0.03 0.03 0.04 0.10 0.07 0.03 0.01 0.01 0.04 0.01 0.01 0.03 0.10 0.23 0.25 0.23 0.05 0.01 0.00 0.00 0.01 0.02 0.02 0.01 0.00 0.00 0.00 0.00 0.00 0.00 0.00 0.00 0.00 0.00 0.00 0.00 0.00 0.00 0.00 0.00 0.00 0.00 0.00
0.04 0.06 0.06 0.15 0.10 0.03 0.01 0.04 0.03 0.01 0.02 0.02 0.14 0.32 0.37 0.21 0.02 0.00 0.00 0.01 0.01 0.01 0.01 0.00 0.00 0.01 0.00 0.00 0.00 0.00 0.00 0.00 0.00 0.00 0.00 0.00 0.00 0.00 0.00 0.00 0.00 0.00 0.00
0.05 0.14 0.16 0.30 0.14 0.02 0.02 0.05 0.02 0.02 0.05 0.02 0.12 0.38 0.41 0.11 0.01 0.01 0.00 0.01 0.01 0.01 0.00 0.01 0.01 0.00 0.00 0.00 0.00 0.00 0.00 0.00 0.00 0.00 0.00 0.00 0.00 0.00 0.00 0.00 0.00 0.00 0.00
0.12 0.19 0.22 0.35 0.33 0.11 0.03 0.04 0.02 0.03 0.05 0.03 0.14 0.42 0.47 0.07 0.01 0.01 0.01 0.01 0.01 0.01 0.01 0.01 0.00 0.00 0.00 0.00 0.00 0.00 0.00 0.00 0.00 0.00 0.00 0.00 0.00 0.00 0.00 0.00 0.00 0.00 0.00
0.60 0.46 0.30 0.27 0.26 0.09 0.05 0.03 0.02 0.03 0.04 0.05 0.12 0.32 0.27 0.02 0.01 0.01 0.01 0.01 0.01 0.00 0.00 0.00 0.00 0.00 0.00 0.00 0.00 0.00 0.00 0.00 0.00 0.00 0.00 0.00 0.00 0.00 0.00 0.00 0.00 0.00 0.00
0.97 0.90 0.52 0.47 0.20 0.01 0.07 0.05 0.01 0.02 0.02 0.02 0.12 0.28 0.07 0.00 0.00 0.01 0.01 0.02 0.02 0.01 0.00 0.00 0.00 0.00 0.00 0.00 0.00 0.00 0.00 0.00 0.00 0.00 0.00 0.00 0.00 0.00 0.00 0.00 0.00 0.00 0.00
1.55 1.09 0.93 0.77 0.33 0.04 0.15 0.11 0.01 0.02 0.02 0.01 0.06 0.20 0.06 0.00 0.00 0.00 0.00 0.02 0.01 0.00 0.00 0.00 0.00 0.00 0.00 0.00 0.00 0.00 0.00 0.00 0.00 0.00 0.00 0.00 0.00 0.00 0.00 0.00 0.00 0.00 0.00
1.50 1.23 1.31 1.00 0.87 0.17 0.13 0.18 0.06 0.02 0.01 0.00 0.01 0.09 0.04 0.00 0.00 0.00 0.00 0.01 0.01 0.00 0.00 0.00 0.00 0.00 0.00 0.00 0.00 0.00 0.00 0.00 0.00 0.00 0.00 0.00 0.00 0.00 0.00 0.00 0.00 0.00 0.00
1.53 1.30 1.19 1.03 1.32 0.72 0.37 0.29 0.21 0.03 0.01 0.01 0.00 0.02 0.04 0.00 0.00 0.00 0.00 0.00 0.00 0.00 0.00 0.00 0.00 0.00 0.00 0.00 0.00 0.00 0.00 0.00 0.00 0.00 0.00 0.00 0.00 0.00 0.00 0.00 0.00 0.00 0.00
0.61 1.45 1.63 1.29 1.32 1.28 0.97 0.48 0.24 0.09 0.01 0.01 0.00 0.00 0.01 0.00 0.00 0.00 0.00 0.00 0.00 0.00 0.00 0.00 0.00 0.00 0.00 0.00 0.00 0.00 0.00 0.00 0.00 0.00 0.00 0.00 0.00 0.00 0.00 0.00 0.00 0.00 0.01
0.33 0.64 0.82 1.07 1.48 1.56 1.04 0.92 0.59 0.22 0.04 0.00 0.00 0.00 0.00 0.00 0.00 0.00 0.00 0.00 0.00 0.00 0.00 0.00 0.00 0.00 0.00 0.00 0.00 0.00 0.00 0.00 0.00 0.00 0.00 0.00 0.00 0.00 0.00 0.00 0.00 0.02 0.08
0.25 0.28 0.35 0.45 0.75 1.25 1.06 0.40 0.64 0.54 0.23 0.03 0.00 0.00 0.00 0.00 0.00 0.00 0.00 0.00 0.00 0.00 0.00 0.00 0.00 0.00 0.00 0.00 0.00 0.00 0.00 0.00 0.00 0.00 0.00 0.00 0.00 0.00 0.00 0.00 0.00 0.02 0.14
0.13 0.17 0.16 0.26 0.33 0.56 1.12 0.58 0.24 0.32 0.46 0.19 0.02 0.00 0.00 0.00 0.00 0.00 0.00 0.00 0.00 0.00 0.00 0.00 0.00 0.00 0.00 0.00 0.00 0.00 0.00 0.00 0.00 0.00 0.00 0.00 0.00 0.00 0.00 0.00 0.00 0.00 0.01
0.20 0.12 0.13 0.14 0.17 0.17 0.27 0.37 0.22 0.18 0.24 0.33 0.14 0.01 0.00 0.00 0.00 0.00 0.00 0.00 0.00 0.00 0.00 0.00 0.00 0.00 0.00 0.00 0.00 0.00 0.00 0.00 0.00 0.00 0.00 0.00 0.00 0.00 0.00 0.00 0.00 0.00 0.00
0.24 0.32 0.25 0.26 0.29 0.25 0.19 0.17 0.18 0.16 0.11 0.20 0.28 0.11 0.01 0.00 0.00 0.00 0.00 0.00 0.00 0.00 0.00 0.00 0.00 0.00 0.00 0.00 0.00 0.00 0.00 0.00 0.00 0.00 0.00 0.00 0.00 0.00 0.00 0.00 0.00 0.00 0.00
0.27 0.38 0.38 0.36 0.37 0.49 0.49 0.51 0.55 0.37 0.12 0.24 0.28 0.24 0.14 0.02 0.01 0.00 0.00 0.00 0.00 0.00 0.00 0.00 0.00 0.00 0.00 0.00 0.00 0.00 0.00 0.00 0.00 0.00 0.00 0.00 0.00 0.01 0.00 0.00 0.00 0.00 0.00
0.59 0.55 0.63 0.60 0.47 0.69 0.68 0.63 0.45 0.39 0.18 0.05 0.13 0.24 0.32 0.22 0.13 0.07 0.01 0.00 0.00 0.00 0.00 0.00 0.00 0.00 0.00 0.00 0.02 0.01 0.00 0.00 0.00 0.00 0.00 0.00 0.00 0.00 0.00 0.00 0.00 0.00 0.00
0.79 0.93 0.76 0.71 0.83 0.67 0.71 0.71 0.67 0.64 0.54 0.37 0.37 0.36 0.37 0.38 0.33 0.34 0.27 0.13 0.05 0.03 0.02 0.02 0.00 0.00 0.01 0.01 0.04 0.04 0.02 0.00 0.00 0.00 0.00 0.00 0.00 0.00 0.00 0.00 0.00 0.00 0.00
0.94 0.91 1.00 0.95 0.91 0.71 0.91 1.22 1.30 1.32 1.08 0.79 0.42 0.42 0.51 0.46 0.57 0.59 0.60 0.71 0.65 0.47 0.35 0.31 0.17 0.11 0.15 0.10 0.09 0.10 0.04 0.01 0.00 0.00 0.00 0.00 0.00 0.00 0.00 0.00 0.00 0.00 0.00
0.80 0.77 0.89 1.15 1.18 1.29 1.12 1.41 1.53 1.78 1.77 1.41 1.54 1.20 0.88 0.85 0.86 0.95 0.99 1.07 1.05 0.87 0.98 1.11 0.98 0.77 0.68 0.53 0.43 0.27 0.16 0.09 0.04 0.01 0.00 0.00 0.00 0.00 0.00 0.00 0.00 0.00 0.00
0.49 0.55 0.56 0.73 1.10 1.62 1.40 1.65 2.00 1.64 1.58 1.46 1.30 1.15 1.11 1.04 0.90 0.87 1.04 1.17 1.29 1.29 1.07 0.95 1.10 1.16 1.10 0.99 0.78 0.50 0.25 0.12 0.07 0.03 0.00 0.00 0.00 0.00 0.00 0.00 0.00 0.00 0.00
0.22 0.31 0.41 0.46 0.70 1.07 1.57 1.69 1.86 1.92 1.63 1.37 1.29 1.06 0.93 0.86 0.80 0.78 0.84 1.01 1.03 0.91 0.82 0.75 0.62 0.55 0.61 0.64 0.66 0.61 0.46 0.34 0.24 0.16 0.09 0.03 0.01 0.00 0.00 0.00 0.00 0.00 0.00

GFSSE_prec_precacc24_093.txt.gz
Total_Precipitation_Accumulation
0.00 0.01 0.07 0.05 0.01 0.00 0.00 0.00 0.00 0.00 0.03 0.05 0.05 0.02 0.02 0.04 0.05 0.06 0.05 0.01 0.00 0.00 0.01 0.03 0.06 0.10 0.11 0.05 0.02 0.02 0.02 0.02 0.01 0.01 0.01 0.03 0.04 0.05 0.05 0.04 0.03 0.02 0.02
0.00 0.01 0.06 0.07 0.01 0.01 0.00 0.00 0.00 0.01 0.05 0.06 0.04 0.03 0.06 0.06 0.09 0.06 0.05 0.02 0.00 0.01 0.03 0.05 0.05 0.05 0.03 0.01 0.01 0.00 0.00 0.00 0.00 0.00 0.00 0.01 0.03 0.05 0.03 0.03 0.05 0.05 0.07
0.00 0.01 0.03 0.09 0.03 0.01 0.01 0.00 0.00 0.02 0.04 0.04 0.06 0.07 0.11 0.11 0.12 0.08 0.04 0.01 0.01 0.02 0.03 0.03 0.02 0.01 0.01 0.01 0.01 0.00 0.00 0.00 0.00 0.00 0.00 0.00 0.01 0.02 0.02 0.01 0.01 0.02 0.03
0.01 0.01 0.03 0.10 0.04 0.01 0.00 0.00 0.02 0.02 0.03 0.03 0.07 0.11 0.19 0.16 0.12 0.04 0.01 0.00 0.02 0.03 0.02 0.02 0.01 0.00 0.01 0.00 0.00 0.00 0.00 0.00 0.00 0.00 0.00 0.00 0.00 0.00 0.00 0.00 0.00 0.00 0.00
0.03 0.03 0.04 0.10 0.07 0.02 0.01 0.01 0.04 0.01 0.01 0.04 0.10 0.24 0.26 0.25 0.09 0.01 0.00 0.01 0.03 0.03 0.01 0.01 0.00 0.00 0.00 0.00 0.00 0.00 0.00 0.00 0.00 0.00 0.00 0.00 0.00 0.00 0.00 0.00 0.00 0.00 0.00
0.04 0.06 0.06 0.14 0.10 0.02 0.01 0.04 0.03 0.01 0.02 0.03 0.13 0.33 0.38 0.28 0.07 0.01 0.00 0.01 0.01 0.01 0.01 0.00 0.01 0.01 0.00 0.00 0.00 0.00 0.00 0.00 0.00 0.00 0.00 0.00 0.00 0.00 0.00 0.00 0.00 0.00 0.00
0.05 0.14 0.16 0.29 0.14 0.01 0.01 0.05 0.02 0.02 0.05 0.02 0.12 0.41 0.47 0.18 0.07 0.02 0.00 0.01 0.01 0.01 0.01 0.01 0.01 0.00 0.00 0.00 0.00 0.00 0.00 0.00 0.00 0.00 0.00 0.00 0.00 0.00 0.00 0.00 0.00 0.00 0.00
0.12 0.19 0.22 0.35 0.35 0.11 0.03 0.04 0.02 0.03 0.06 0.04 0.16 0.48 0.60 0.17 0.03 0.01 0.01 0.01 0.01 0.01 0.01 0.01 0.00 0.00 0.00 0.00 0.00 0.00 0.00 0.00 0.00 0.00 0.00 0.00 0.00 0.00 0.00 0.00 0.00 0.00 0.00
0.65 0.48 0.30 0.27 0.26 0.09 0.05 0.03 0.02 0.03 0.06 0.05 0.14 0.38 0.41 0.09 0.01 0.01 0.01 0.01 0.01 0.01 0.01 0.01 0.00 0.00 0.00 0.00 0.00 0.00 0.00 0.00 0.00 0.00 0.00 0.00 0.00 0.00 0.00 0.00 0.00 0.00 0.00
1.04 0.99 0.59 0.51 0.23 0.04 0.11 0.06 0.01 0.02 0.03 0.03 0.13 0.33 0.13 0.03 0.00 0.01 0.01 0.02 0.02 0.02 0.01 0.00 0.00 0.00 0.00 0.00 0.00 0.00 0.00 0.00 0.00 0.00 0.00 0.00 0.00 0.00 0.00 0.00 0.00 0.00 0.00
1.62 1.16 1.01 0.82 0.43 0.08 0.18 0.16 0.02 0.02 0.02 0.01 0.08 0.26 0.09 0.00 0.00 0.00 0.00 0.02 0.02 0.01 0.00 0.00 0.00 0.00 0.00 0.00 0.00 0.00 0.00 0.00 0.00 0.00 0.00 0.00 0.00 0.00 0.00 0.00 0.00 0.00 0.00
1.67 1.45 1.48 1.04 0.95 0.29 0.16 0.23 0.11 0.06 0.02 0.00 0.06 0.16 0.07 0.00 0.00 0.00 0.00 0.01 0.02 0.01 0.00 0.00 0.00 0.00 0.00 0.00 0.00 0.00 0.00 0.00 0.00 0.00 0.00 0.00 0.00 0.00 0.00 0.00 0.00 0.00 0.00
1.62 1.36 1.29 1.11 1.43 0.80 0.53 0.37 0.27 0.06 0.04 0.01 0.01 0.12 0.11 0.01 0.00 0.00 0.00 0.01 0.00 0.00 0.00 0.00 0.00 0.00 0.00 0.00 0.00 0.00 0.00 0.00 0.00 0.00 0.00 0.00 0.00 0.00 0.00 0.00 0.00 0.00 0.00
0.60 1.46 1.66 1.30 1.37 1.30 1.10 0.81 0.35 0.15 0.03 0.03 0.00 0.02 0.11 0.01 0.00 0.00 0.00 0.00 0.00 0.00 0.00 0.00 0.00 0.00 0.00 0.00 0.00 0.00 0.00 0.00 0.00 0.00 0.00 0.00 0.00 0.00 0.00 0.00 0.00 0.00 0.01
0.26 0.52 0.86 1.08 1.48 1.55 1.05 1.12 0.97 0.36 0.08 0.01 0.01 0.00 0.04 0.03 0.00 0.00 0.00 0.00 0.00 0.00 0.00 0.00 0.00 0.00 0.00 0.00 0.00 0.00 0.00 0.00 0.00 0.00 0.00 0.00 0.00 0.00 0.00 0.00 0.00 0.02 0.08
0.30 0.39 0.33 0.46 0.75 1.24 1.05 0.44 1.15 1.45 0.63 0.06 0.00 0.00 0.00 0.01 0.00 0.00 0.00 0.00 0.00 0.00 0.00 0.00 0.00 0.00 0.00 0.00 0.00 0.00 0.00 0.00 0.00 0.00 0.00 0.00 0.00 0.00 0.00 0.00 0.00 0.01 0.13
0.21 0.21 0.15 0.24 0.32 0.55 1.11 0.58 0.31 0.91 1.31 0.46 0.03 0.00 0.00 0.00 0.00 0.00 0.00 0.00 0.00 0.00 0.00 0.00 0.00 0.00 0.00 0.00 0.00 0.00 0.00 0.00 0.00 0.00 0.00 0.00 0.00 0.00 0.00 0.00 0.00 0.00 0.00
0.18 0.12 0.13 0.13 0.15 0.16 0.27 0.37 0.23 0.24 0.47 0.63 0.22 0.03 0.00 0.00 0.00 0.00 0.00 0.00 0.00 0.00 0.00 0.00 0.00 0.00 0.00 0.00 0.00 0.00 0.00 0.00 0.00 0.00 0.00 0.00 0.00 0.00 0.00 0.00 0.00 0.00 0.00
0.23 0.31 0.25 0.26 0.26 0.23 0.19 0.17 0.19 0.18 0.12 0.31 0.46 0.15 0.01 0.00 0.00 0.00 0.00 0.00 0.00 0.00 0.00 0.00 0.00 0.00 0.00 0.00 0.00 0.00 0.00 0.00 0.00 0.00 0.00 0.00 0.00 0.00 0.00 0.00 0.00 0.00 0.00
0.26 0.36 0.33 0.34 0.37 0.49 0.51 0.55 0.57 0.45 0.17 0.32 0.35 0.33 0.18 0.02 0.01 0.00 0.00 0.00 0.00 0.00 0.00 0.00 0.00 0.00 0.00 0.00 0.00 0.00 0.00 0.00 0.00 0.00 0.00 0.00 0.00 0.00 0.00 0.00 0.00 0.00 0.00
0.69 0.58 0.53 0.52 0.40 0.69 0.71 0.65 0.47 0.42 0.28 0.13 0.22 0.31 0.38 0.30 0.16 0.07 0.01 0.00 0.00 0.00 0.00 0.00 0.00 0.00 0.00 0.00 0.01 0.00 0.00 0.00 0.00 0.00 0.00 0.00 0.00 0.00 0.00 0.00 0.00 0.00 0.00
0.81 0.89 0.69 0.66 0.75 0.67 0.75 0.74 0.69 0.64 0.60 0.51 0.49 0.43 0.45 0.42 0.44 0.41 0.28 0.14 0.05 0.03 0.02 0.02 0.00 0.00 0.00 0.00 0.03 0.02 0.01 0.00 0.00 0.00 0.00 0.00 0.00 0.00 0.00 0.00 0.00 0.00 0.00
1.01 0.99 1.02 0.89 0.86 0.73 0.96 1.25 1.37 1.37 1.19 1.03 0.66 0.60 0.73 0.64 0.72 0.76 0.71 0.72 0.66 0.47 0.35 0.31 0.17 0.12 0.15 0.10 0.08 0.08 0.04 0.01 0.00 0.00 0.00 0.00 0.00 0.00 0.00 0.00 0.00 0.00 0.00
0.89 0.82 0.90 1.12 1.16 1.23 1.01 1.33 1.54 1.81 1.80 1.56 1.80 1.49 1.05 0.94 0.96 1.07 1.20 1.25 1.13 0.89 0.98 1.14 1.07 0.89 0.78 0.61 0.47 0.33 0.22 0.11 0.04 0.01 0.00 0.00 0.00 0.00 0.00 0.00 0.00 0.00 0.00
0.50 0.57 0.56 0.73 1.09 1.71 1.45 1.56 1.94 1.67 1.65 1.59 1.55 1.63 1.30 1.27 1.03 0.95 1.11 1.27 1.40 1.38 1.11 1.03 1.22 1.27 1.21 1.15 0.95 0.69 0.50 0.36 0.25 0.14 0.02 0.00 0.00 0.00 0.00 0.00 0.00 0.00 0.00
0.22 0.31 0.41 0.46 0.71 1.17 1.89 2.04 2.14 2.26 1.88 1.64 1.54 1.53 1.41 0.98 0.86 0.82 0.91 1.06 1.07 0.95 0.89 0.80 0.63 0.58 0.63 0.66 0.68 0.63 0.55 0.52 0.45 0.42 0.27 0.08 0.04 0.02 0.00 0.00 0.00 0.00 0.00

GFSSE_prec_precacc24_096.txt.gz
Total_Precipitation_Accumulation
0.00 0.00 0.07 0.05 0.01 0.00 0.00 0.00 0.00 0.01 0.03 0.03 0.01 0.01 0.03 0.04 0.05 0.04 0.02 0.00 0.00 0.00 0.01 0.03 0.07 0.11 0.11 0.07 0.05 0.03 0.02 0.02 0.01 0.01 0.01 0.03 0.05 0.06 0.05 0.04 0.03 0.02 0.04
0.00 0.00 0.06 0.07 0.01 0.01 0.00 0.00 0.00 0.01 0.05 0.04 0.03 0.03 0.06 0.07 0.09 0.05 0.01 0.00 0.00 0.02 0.04 0.08 0.07 0.06 0.04 0.02 0.01 0.00 0.00 0.00 0.00 0.00 0.00 0.00 0.03 0.04 0.03 0.02 0.04 0.05 0.08
0.00 0.01 0.03 0.09 0.02 0.01 0.01 0.00 0.00 0.02 0.03 0.04 0.07 0.07 0.11 0.12 0.13 0.07 0.02 0.00 0.01 0.04 0.05 0.05 0.03 0.02 0.01 0.01 0.01 0.00 0.00 0.00 0.00 0.00 0.00 0.00 0.00 0.01 0.01 0.00 0.01 0.02 0.03
0.01 0.01 0.03 0.10 0.03 0.01 0.00 0.00 0.02 0.02 0.02 0.03 0.08 0.12 0.19 0.16 0.14 0.04 0.00 0.00 0.04 0.04 0.03 0.01 0.01 0.01 0.01 0.00 0.00 0.00 0.00 0.00 0.00 0.00 0.00 0.00 0.00 0.00 0.00 0.00 0.00 0.00 0.00
0.03 0.02 0.03 0.10 0.07 0.01 0.00 0.01 0.04 0.00 0.01 0.04 0.10 0.27 0.28 0.26 0.11 0.01 0.00 0.02 0.04 0.03 0.01 0.01 0.00 0.00 0.00 0.00 0.00 0.00 0.00 0.00 0.00 0.00 0.00 0.00 0.00 0.00 0.00 0.00 0.00 0.00 0.00
0.04 0.05 0.06 0.14 0.09 0.02 0.00 0.04 0.03 0.01 0.02 0.03 0.13 0.35 0.40 0.30 0.11 0.01 0.00 0.02 0.02 0.01 0.01 0.00 0.01 0.01 0.00 0.00 0.00 0.00 0.00 0.00 0.00 0.00 0.00 0.00 0.00 0.00 0.00 0.00 0.00 0.00 0.00
0.06 0.13 0.15 0.28 0.13 0.01 0.01 0.05 0.02 0.02 0.04 0.01 0.12 0.42 0.49 0.21 0.18 0.04 0.02 0.01 0.01 0.01 0.01 0.01 0.01 0.00 0.00 0.00 0.00 0.00 0.00 0.00 0.00 0.00 0.00 0.00 0.00 0.00 0.00 0.00 0.00 0.00 0.00
0.13 0.19 0.21 0.33 0.35 0.11 0.03 0.04 0.02 0.03 0.06 0.03 0.16 0.50 0.64 0.24 0.15 0.05 0.02 0.01 0.01 0.01 0.01 0.01 0.00 0.00 0.00 0.00 0.00 0.00 0.00 0.00 0.00 0.00 0.00 0.00 0.00 0.00 0.00 0.00 0.00 0.00 0.00
0.75 0.59 0.31 0.25 0.26 0.09 0.05 0.03 0.02 0.03 0.07 0.05 0.14 0.41 0.47 0.18 0.09 0.02 0.01 0.02 0.01 0.01 0.02 0.01 0.00 0.00 0.00 0.00 0.00 0.00 0.00 0.00 0.00 0.00 0.00 0.00 0.00 0.00 0.00 0.00 0.00 0.00 0.00
1.13 1.20 0.76 0.54 0.23 0.04 0.11 0.06 0.01 0.02 0.04 0.03 0.13 0.34 0.17 0.12 0.03 0.01 0.01 0.02 0.02 0.03 0.02 0.00 0.00 0.00 0.00 0.00 0.00 0.00 0.00 0.00 0.00 0.00 0.00 0.00 0.00 0.00 0.00 0.00 0.00 0.00 0.00
1.63 1.25 1.15 0.91 0.49 0.09 0.19 0.17 0.02 0.02 0.02 0.01 0.10 0.27 0.16 0.05 0.00 0.00 0.00 0.02 0.03 0.03 0.01 0.00 0.00 0.00 0.00 0.00 0.00 0.00 0.00 0.00 0.00 0.00 0.00 0.00 0.00 0.00 0.00 0.00 0.00 0.00 0.00
1.51 1.56 1.65 1.19 1.09 0.38 0.20 0.27 0.12 0.06 0.02 0.00 0.08 0.18 0.11 0.04 0.00 0.00 0.00 0.01 0.02 0.02 0.00 0.00 0.00 0.00 0.00 0.00 0.00 0.00 0.00 0.00 0.00 0.00 0.00 0.00 0.00 0.00 0.00 0.00 0.00 0.00 0.00
1.27 1.18 1.36 1.29 1.56 0.83 0.54 0.38 0.28 0.09 0.06 0.01 0.02 0.20 0.17 0.04 0.01 0.00 0.00 0.01 0.01 0.00 0.00 0.00 0.00 0.00 0.00 0.00 0.00 0.00 0.00 0.00 0.00 0.00 0.00 0.00 0.00 0.00 0.00 0.00 0.00 0.00 0.00
0.50 1.29 1.55 1.34 1.45 1.32 1.10 0.81 0.35 0.16 0.06 0.05 0.03 0.05 0.23 0.10 0.04 0.00 0.00 0.00 0.00 0.00 0.00 0.00 0.00 0.00 0.00 0.00 0.00 0.00 0.00 0.00 0.00 0.00 0.00 0.00 0.00 0.00 0.00 0.00 0.00 0.00 0.01
0.19 0.48 0.76 1.03 1.54 1.61 1.08 1.13 0.97 0.37 0.10 0.01 0.04 0.05 0.08 0.20 0.12 0.05 0.01 0.00 0.00 0.00 0.00 0.00 0.00 0.00 0.00 0.00 0.00 0.00 0.00 0.00 0.00 0.00 0.00 0.00 0.00 0.00 0.00 0.00 0.00 0.02 0.08
0.22 0.32 0.25 0.36 0.77 1.35 1.09 0.45 1.15 1.45 0.64 0.09 0.01 0.02 0.03 0.08 0.17 0.05 0.03 0.00 0.00 0.00 0.00 0.00 0.00 0.00 0.00 0.00 0.00 0.00 0.00 0.00 0.00 0.00 0.00 0.00 0.00 0.00 0.00 0.00 0.00 0.01 0.08
0.18 0.12 0.10 0.13 0.21 0.54 1.14 0.58 0.31 0.91 1.37 0.65 0.09 0.03 0.02 0.03 0.05 0.04 0.01 0.00 0.00 0.00 0.00 0.00 0.00 0.00 0.00 0.00 0.00 0.00 0.00 0.00 0.00 0.00 0.00 0.00 0.00 0.00 0.00 0.00 0.00 0.00 0.00
0.13 0.07 0.04 0.08 0.08 0.14 0.27 0.37 0.22 0.24 0.51 0.79 0.35 0.05 0.02 0.01 0.02 0.03 0.02 0.00 0.00 0.00 0.00 0.00 0.00 0.00 0.00 0.00 0.00 0.00 0.00 0.00 0.00 0.00 0.00 0.00 0.00 0.00 0.00 0.00 0.00 0.00 0.00
0.20 0.29 0.15 0.15 0.17 0.23 0.19 0.16 0.17 0.18 0.14 0.36 0.48 0.16 0.02 0.01 0.01 0.01 0.01 0.01 0.00 0.00 0.00 0.00 0.00 0.00 0.00 0.00 0.00 0.00 0.00 0.00 0.00 0.00 0.00 0.00 0.00 0.00 0.00 0.00 0.00 0.00 0.00
0.22 0.31 0.26 0.27 0.30 0.48 0.53 0.54 0.55 0.45 0.19 0.38 0.41 0.33 0.18 0.02 0.01 0.01 0.00 0.00 0.00 0.00 0.00 0.00 0.00 0.00 0.00 0.00 0.00 0.00 0.00 0.00 0.00 0.00 0.00 0.00 0.00 0.00 0.00 0.00 0.00 0.00 0.00
0.62 0.57 0.39 0.41 0.35 0.68 0.74 0.65 0.46 0.42 0.30 0.16 0.30 0.37 0.39 0.30 0.16 0.08 0.01 0.00 0.00 0.00 0.00 0.00 0.00 0.00 0.00 0.00 0.01 0.00 0.00 0.00 0.00 0.00 0.00 0.00 0.00 0.00 0.00 0.00 0.00 0.00 0.00
0.79 0.83 0.67 0.65 0.67 0.65 0.74 0.78 0.71 0.64 0.62 0.55 0.58 0.53 0.52 0.44 0.45 0.41 0.28 0.14 0.05 0.03 0.02 0.02 0.00 0.00 0.00 0.00 0.02 0.02 0.01 0.00 0.00 0.00 0.00 0.00 0.00 0.00 0.00 0.00 0.00 0.00 0.00
1.03 1.04 1.13 0.95 0.91 0.78 0.95 1.17 1.36 1.36 1.20 1.07 0.74 0.74 0.83 0.70 0.78 0.80 0.72 0.73 0.66 0.47 0.35 0.32 0.18 0.12 0.15 0.11 0.08 0.08 0.03 0.00 0.00 0.00 0.00 0.00 0.00 0.00 0.00 0.00 0.00 0.00 0.00
0.91 0.79 0.84 1.10 1.17 1.22 0.96 1.27 1.56 1.83 1.73 1.46 1.63 1.47 1.20 1.10 1.09 1.29 1.38 1.41 1.27 0.93 0.99 1.15 1.11 0.95 0.84 0.73 0.55 0.38 0.23 0.10 0.03 0.01 0.01 0.01 0.00 0.00 0.00 0.00 0.00 0.00 0.00
0.51 0.58 0.56 0.67 1.06 1.70 1.40 1.41 1.86 1.59 1.53 1.55 1.57 1.70 1.33 1.26 1.08 1.04 1.26 1.49 1.66 1.64 1.27 1.16 1.37 1.40 1.31 1.29 1.07 0.82 0.61 0.43 0.28 0.19 0.09 0.05 0.02 0.01 0.00 0.00 0.00 0.00 0.00
0.24 0.32 0.41 0.44 0.63 1.03 1.77 1.92 2.04 2.18 1.82 1.61 1.54 1.56 1.61 1.19 0.98 0.88 1.02 1.25 1.25 1.16 1.08 0.96 0.82 0.72 0.72 0.73 0.74 0.68 0.59 0.56 0.48 0.45 0.31 0.16 0.13 0.09 0.04 0.00 0.00 0.00 0.00

GFSSE_prec_precacc24_099.txt.gz
Total_Precipitation_Accumulation
0.00 0.00 0.07 0.04 0.01 0.00 0.00 0.00 0.00 0.01 0.02 0.01 0.01 0.01 0.02 0.03 0.03 0.01 0.02 0.00 0.00 0.00 0.01 0.03 0.08 0.12 0.13 0.08 0.05 0.03 0.02 0.02 0.01 0.01 0.01 0.04 0.06 0.06 0.05 0.04 0.04 0.03 0.07
0.00 0.00 0.05 0.06 0.01 0.00 0.00 0.00 0.00 0.01 0.02 0.03 0.03 0.03 0.06 0.07 0.05 0.01 0.00 0.00 0.00 0.02 0.05 0.09 0.08 0.07 0.05 0.03 0.01 0.00 0.00 0.00 0.00 0.00 0.00 0.00 0.02 0.02 0.01 0.02 0.04 0.06 0.11
0.00 0.00 0.02 0.08 0.02 0.01 0.01 0.00 0.00 0.02 0.02 0.04 0.07 0.07 0.12 0.14 0.11 0.01 0.00 0.00 0.01 0.05 0.07 0.07 0.04 0.02 0.01 0.01 0.01 0.00 0.00 0.00 0.00 0.00 0.00 0.00 0.00 0.00 0.00 0.00 0.00 0.02 0.03
0.01 0.01 0.02 0.09 0.03 0.00 0.00 0.00 0.02 0.01 0.02 0.04 0.08 0.12 0.20 0.18 0.13 0.02 0.00 0.01 0.05 0.06 0.05 0.02 0.01 0.01 0.01 0.00 0.00 0.00 0.00 0.00 0.00 0.00 0.00 0.00 0.00 0.00 0.00 0.00 0.00 0.00 0.00
0.03 0.02 0.03 0.08 0.06 0.01 0.00 0.01 0.03 0.00 0.01 0.04 0.11 0.28 0.30 0.27 0.12 0.01 0.00 0.04 0.08 0.04 0.02 0.01 0.00 0.00 0.00 0.00 0.00 0.00 0.00 0.00 0.00 0.00 0.00 0.00 0.00 0.00 0.00 0.00 0.00 0.00 0.00
0.03 0.04 0.06 0.13 0.08 0.01 0.00 0.04 0.02 0.01 0.01 0.03 0.14 0.36 0.42 0.31 0.12 0.03 0.02 0.07 0.02 0.01 0.01 0.00 0.01 0.01 0.00 0.00 0.00 0.00 0.00 0.00 0.00 0.00 0.00 0.00 0.00 0.00 0.00 0.00 0.00 0.00 0.00
0.05 0.12 0.15 0.27 0.12 0.00 0.01 0.05 0.01 0.01 0.03 0.01 0.12 0.42 0.50 0.23 0.22 0.08 0.07 0.06 0.01 0.01 0.01 0.01 0.01 0.00 0.00 0.00 0.00 0.00 0.00 0.00 0.00 0.00 0.00 0.00 0.00 0.00 0.00 0.00 0.00 0.00 0.00
0.14 0.18 0.20 0.31 0.34 0.11 0.03 0.04 0.02 0.01 0.04 0.03 0.16 0.50 0.66 0.27 0.19 0.11 0.09 0.03 0.01 0.01 0.01 0.01 0.00 0.00 0.00 0.00 0.00 0.00 0.00 0.00 0.00 0.00 0.00 0.00 0.00 0.00 0.00 0.00 0.00 0.00 0.00
0.84 0.72 0.38 0.27 0.28 0.10 0.06 0.03 0.02 0.02 0.04 0.04 0.14 0.42 0.49 0.23 0.13 0.08 0.08 0.02 0.02 0.01 0.02 0.01 0.00 0.00 0.00 0.00 0.00 0.00 0.00 0.00 0.00 0.00 0.00 0.00 0.00 0.00 0.00 0.00 0.00 0.00 0.00
1.14 1.26 0.97 0.75 0.34 0.08 0.12 0.06 0.01 0.02 0.02 0.01 0.13 0.34 0.17 0.14 0.05 0.05 0.03 0.02 0.02 0.03 0.03 0.00 0.00 0.00 0.00 0.00 0.00 0.00 0.00 0.00 0.00 0.00 0.00 0.00 0.00 0.00 0.00 0.00 0.00 0.00 0.00
1.54 1.23 1.14 0.98 0.61 0.18 0.19 0.17 0.02 0.02 0.02 0.01 0.10 0.27 0.16 0.07 0.02 0.00 0.00 0.02 0.03 0.03 0.02 0.00 0.00 0.00 0.00 0.00 0.00 0.00 0.00 0.00 0.00 0.00 0.00 0.00 0.00 0.00 0.00 0.00 0.00 0.00 0.00
1.28 1.57 1.71 1.27 1.16 0.41 0.28 0.33 0.13 0.06 0.02 0.00 0.08 0.18 0.11 0.07 0.01 0.00 0.00 0.01 0.02 0.02 0.01 0.00 0.00 0.00 0.00 0.00 0.00 0.00 0.00 0.00 0.00 0.00 0.00 0.00 0.00 0.00 0.00 0.00 0.00 0.00 0.00
0.86 0.87 1.27 1.39 1.72 0.87 0.55 0.40 0.28 0.09 0.06 0.01 0.02 0.20 0.17 0.07 0.03 0.00 0.00 0.01 0.01 0.01 0.01 0.00 0.00 0.00 0.00 0.00 0.00 0.00 0.00 0.00 0.00 0.00 0.00 0.00 0.00 0.00 0.00 0.00 0.00 0.00 0.00
0.40 0.99 1.19 1.12 1.54 1.47 1.18 0.83 0.36 0.16 0.07 0.05 0.03 0.05 0.23 0.12 0.06 0.03 0.01 0.00 0.00 0.00 0.00 0.00 0.00 0.00 0.00 0.00 0.00 0.00 0.00 0.00 0.00 0.00 0.00 0.00 0.00 0.00 0.00 0.00 0.00 0.00 0.01
0.19 0.47 0.72 0.84 1.40 1.69 1.16 1.23 1.01 0.37 0.10 0.01 0.04 0.05 0.08 0.22 0.16 0.08 0.03 0.01 0.00 0.00 0.00 0.00 0.00 0.00 0.00 0.00 0.00 0.00 0.00 0.00 0.00 0.00 0.00 0.00 0.00 0.00 0.00 0.00 0.00 0.02 0.08
0.22 0.31 0.24 0.34 0.61 1.23 1.07 0.49 1.18 1.45 0.64 0.09 0.01 0.02 0.03 0.08 0.20 0.29 0.17 0.07 0.01 0.00 0.00 0.00 0.00 0.00 0.00 0.00 0.00 0.00 0.00 0.00 0.00 0.00 0.00 0.00 0.00 0.00 0.00 0.00 0.00 0.01 0.06
0.17 0.11 0.04 0.07 0.17 0.42 0.92 0.49 0.31 0.92 1.37 0.65 0.09 0.03 0.02 0.03 0.06 0.13 0.35 0.27 0.12 0.02 0.00 0.00 0.00 0.00 0.00 0.00 0.00 0.00 0.00 0.00 0.00 0.00 0.00 0.00 0.00 0.00 0.00 0.00 0.00 0.00 0.00
0.12 0.06 0.02 0.02 0.07 0.09 0.21 0.27 0.16 0.22 0.50 0.79 0.35 0.05 0.02 0.01 0.02 0.04 0.04 0.10 0.10 0.06 0.00 0.00 0.00 0.00 0.00 0.00 0.00 0.00 0.00 0.00 0.00 0.00 0.00 0.00 0.00 0.00 0.00 0.00 0.00 0.00 0.00
0.13 0.17 0.07 0.04 0.07 0.13 0.13 0.12 0.12 0.16 0.11 0.35 0.48 0.16 0.02 0.01 0.01 0.02 0.02 0.02 0.00 0.01 0.01 0.00 0.00 0.00 0.00 0.00 0.00 0.00 0.00 0.00 0.00 0.00 0.00 0.00 0.00 0.00 0.00 0.00 0.00 0.00 0.00
0.16 0.27 0.19 0.17 0.17 0.23 0.35 0.39 0.31 0.40 0.18 0.37 0.40 0.32 0.17 0.02 0.02 0.02 0.00 0.01 0.02 0.00 0.00 0.00 0.00 0.00 0.00 0.00 0.00 0.00 0.00 0.00 0.00 0.00 0.00 0.00 0.00 0.00 0.00 0.00 0.00 0.00 0.00
0.45 0.44 0.27 0.33 0.26 0.58 0.60 0.52 0.33 0.35 0.27 0.16 0.28 0.35 0.39 0.29 0.16 0.08 0.03 0.02 0.01 0.01 0.00 0.00 0.00 0.00 0.00 0.00 0.01 0.00 0.00 0.00 0.00 0.00 0.00 0.00 0.00 0.00 0.00 0.00 0.00 0.00 0.00
0.70 0.70 0.49 0.52 0.61 0.63 0.73 0.81 0.72 0.62 0.54 0.55 0.59 0.53 0.55 0.48 0.46 0.44 0.30 0.15 0.07 0.05 0.03 0.02 0.00 0.00 0.00 0.00 0.02 0.02 0.01 0.00 0.00 0.00 0.00 0.00 0.00 0.00 0.00 0.00 0.00 0.00 0.00
1.02 1.03 1.08 0.87 0.88 0.76 0.84 1.09 1.30 1.25 1.16 1.07 0.76 0.78 0.86 0.74 0.83 0.82 0.75 0.75 0.67 0.47 0.35 0.32 0.18 0.12 0.15 0.11 0.08 0.07 0.03 0.00 0.00 0.00 0.00 0.00 0.00 0.00 0.00 0.00 0.00 0.00 0.00
0.93 0.79 0.81 1.05 1.13 1.17 0.89 1.17 1.48 1.68 1.49 1.24 1.45 1.35 1.20 1.19 1.24 1.40 1.40 1.40 1.27 0.93 0.98 1.15 1.12 0.95 0.84 0.73 0.55 0.38 0.23 0.10 0.03 0.01 0.01 0.01 0.00 0.00 0.00 0.00 0.00 0.00 0.00
0.52 0.59 0.54 0.64 1.02 1.64 1.33 1.31 1.75 1.45 1.32 1.26 1.22 1.43 1.18 1.17 1.04 1.09 1.29 1.41 1.57 1.58 1.22 1.15 1.41 1.44 1.36 1.34 1.11 0.85 0.63 0.45 0.31 0.22 0.13 0.09 0.05 0.02 0.02 0.01 0.00 0.00 0.00
0.26 0.32 0.40 0.42 0.62 1.01 1.70 1.79 1.96 2.16 1.73 1.49 1.40 1.41 1.49 1.08 0.99 0.93 1.12 1.40 1.44 1.23 1.09 0.99 0.90 0.86 0.88 0.87 0.86 0.78 0.65 0.62 0.52 0.51 0.37 0.21 0.16 0.11 0.05 0.02 0.00 0.00 0.00

GFSSE_prec_precacc24_102.txt.gz
Total_Precipitation_Accumulation
0.00 0.00 0.06 0.03 0.00 0.00 0.01 0.00 0.00 0.01 0.01 0.01 0.01 0.01 0.01 0.03 0.02 0.01 0.01 0.00 0.00 0.00 0.01 0.04 0.09 0.12 0.13 0.08 0.05 0.03 0.02 0.02 0.01 0.01 0.02 0.04 0.05 0.05 0.05 0.07 0.06 0.07 0.13
0.00 0.00 0.04 0.05 0.01 0.01 0.02 0.01 0.00 0.00 0.01 0.03 0.03 0.02 0.04 0.04 0.03 0.01 0.00 0.00 0.00 0.02 0.05 0.09 0.08 0.09 0.06 0.02 0.01 0.01 0.00 0.00 0.00 0.00 0.00 0.00 0.01 0.01 0.01 0.03 0.07 0.09 0.13
0.00 0.00 0.02 0.07 0.01 0.01 0.02 0.01 0.00 0.00 0.02 0.04 0.07 0.06 0.10 0.10 0.07 0.00 0.00 0.00 0.01 0.05 0.07 0.09 0.05 0.03 0.01 0.01 0.01 0.00 0.00 0.00 0.00 0.00 0.00 0.00 0.00 0.00 0.00 0.00 0.00 0.01 0.02
0.00 0.00 0.02 0.07 0.02 0.01 0.01 0.01 0.02 0.00 0.02 0.04 0.08 0.12 0.18 0.14 0.09 0.01 0.00 0.01 0.07 0.07 0.09 0.06 0.01 0.01 0.01 0.00 0.00 0.00 0.00 0.00 0.00 0.00 0.00 0.00 0.00 0.00 0.00 0.00 0.00 0.00 0.00
0.02 0.01 0.02 0.07 0.05 0.00 0.00 0.01 0.02 0.00 0.01 0.04 0.11 0.29 0.31 0.23 0.10 0.01 0.00 0.05 0.14 0.13 0.04 0.01 0.00 0.00 0.00 0.00 0.00 0.00 0.00 0.00 0.00 0.00 0.00 0.00 0.00 0.00 0.00 0.00 0.00 0.00 0.00
0.02 0.03 0.05 0.11 0.07 0.01 0.00 0.03 0.01 0.00 0.01 0.03 0.14 0.38 0.45 0.34 0.12 0.02 0.02 0.08 0.06 0.03 0.01 0.00 0.01 0.01 0.00 0.00 0.00 0.00 0.00 0.00 0.00 0.00 0.00 0.00 0.00 0.00 0.00 0.00 0.00 0.00 0.00
0.04 0.10 0.13 0.24 0.11 0.00 0.01 0.02 0.00 0.01 0.03 0.01 0.12 0.42 0.50 0.27 0.25 0.11 0.12 0.08 0.01 0.01 0.01 0.01 0.01 0.00 0.00 0.00 0.00 0.00 0.00 0.00 0.00 0.00 0.00 0.00 0.00 0.00 0.00 0.00 0.00 0.00 0.00
0.18 0.18 0.19 0.27 0.33 0.10 0.03 0.03 0.00 0.00 0.04 0.04 0.16 0.51 0.66 0.30 0.22 0.15 0.16 0.04 0.02 0.01 0.01 0.01 0.00 0.00 0.00 0.00 0.00 0.00 0.00 0.00 0.00 0.00 0.00 0.00 0.00 0.00 0.00 0.00 0.00 0.00 0.00
0.78 0.75 0.46 0.27 0.29 0.12 0.09 0.04 0.01 0.00 0.04 0.05 0.15 0.43 0.50 0.28 0.16 0.11 0.17 0.05 0.02 0.01 0.02 0.01 0.00 0.00 0.00 0.00 0.00 0.00 0.00 0.00 0.00 0.00 0.00 0.00 0.00 0.00 0.00 0.00 0.00 0.00 0.00
1.10 1.19 0.98 0.86 0.41 0.11 0.16 0.09 0.01 0.00 0.01 0.01 0.13 0.34 0.18 0.14 0.06 0.06 0.06 0.06 0.03 0.03 0.03 0.00 0.00 0.00 0.00 0.00 0.00 0.00 0.00 0.00 0.00 0.00 0.00 0.00 0.00 0.00 0.00 0.00 0.00 0.00 0.00
1.53 1.18 1.03 0.99 0.66 0.21 0.20 0.17 0.02 0.01 0.00 0.00 0.10 0.27 0.16 0.07 0.02 0.01 0.01 0.02 0.03 0.03 0.02 0.00 0.00 0.00 0.00 0.00 0.00 0.00 0.00 0.00 0.00 0.00 0.00 0.00 0.00 0.00 0.00 0.00 0.00 0.00 0.00
1.19 1.56 1.80 1.37 1.24 0.43 0.28 0.33 0.13 0.06 0.01 0.00 0.08 0.18 0.11 0.07 0.01 0.00 0.00 0.01 0.02 0.02 0.02 0.00 0.00 0.00 0.00 0.00 0.00 0.00 0.00 0.00 0.00 0.00 0.00 0.00 0.00 0.00 0.00 0.00 0.00 0.00 0.00
0.57 0.58 1.23 1.44 1.87 0.96 0.63 0.42 0.29 0.09 0.06 0.01 0.02 0.20 0.17 0.07 0.04 0.00 0.00 0.01 0.01 0.01 0.01 0.01 0.00 0.00 0.00 0.00 0.00 0.00 0.00 0.00 0.00 0.00 0.00 0.00 0.00 0.00 0.00 0.00 0.00 0.00 0.00
0.19 0.38 0.68 0.81 1.48 1.62 1.38 0.93 0.41 0.17 0.07 0.04 0.03 0.05 0.24 0.16 0.12 0.08 0.02 0.01 0.00 0.00 0.01 0.00 0.00 0.00 0.00 0.00 0.00 0.00 0.00 0.00 0.00 0.00 0.00 0.00 0.00 0.00 0.00 0.00 0.00 0.00 0.01
0.12 0.26 0.39 0.55 1.14 1.66 1.27 1.33 1.06 0.41 0.12 0.02 0.04 0.06 0.10 0.27 0.23 0.14 0.09 0.04 0.01 0.00 0.00 0.00 0.00 0.00 0.00 0.00 0.00 0.00 0.00 0.00 0.00 0.00 0.00 0.00 0.00 0.00 0.00 0.00 0.00 0.01 0.06
0.18 0.25 0.20 0.30 0.57 1.11 0.97 0.52 1.24 1.47 0.65 0.09 0.01 0.03 0.04 0.11 0.24 0.33 0.24 0.16 0.05 0.01 0.00 0.00 0.00 0.00 0.00 0.00 0.00 0.00 0.00 0.00 0.00 0.00 0.00 0.00 0.00 0.00 0.00 0.00 0.00 0.00 0.03
0.17 0.11 0.04 0.06 0.17 0.38 0.68 0.33 0.23 0.91 1.37 0.65 0.09 0.03 0.02 0.03 0.06 0.15 0.36 0.32 0.23 0.12 0.03 0.00 0.00 0.00 0.00 0.00 0.00 0.00 0.00 0.00 0.00 0.00 0.00 0.00 0.00 0.00 0.00 0.00 0.00 0.00 0.00
0.12 0.06 0.02 0.02 0.05 0.09 0.15 0.14 0.09 0.12 0.45 0.78 0.35 0.05 0.02 0.01 0.02 0.05 0.05 0.11 0.16 0.20 0.17 0.07 0.01 0.00 0.00 0.00 0.00 0.00 0.00 0.00 0.00 0.00 0.00 0.00 0.00 0.00 0.00 0.00 0.00 0.00 0.00
0.12 0.11 0.06 0.04 0.06 0.13 0.11 0.06 0.08 0.08 0.07 0.28 0.46 0.16 0.02 0.01 0.01 0.03 0.05 0.06 0.07 0.10 0.12 0.15 0.07 0.01 0.00 0.00 0.00 0.00 0.00 0.00 0.00 0.00 0.00 0.00 0.00 0.00 0.00 0.00 0.00 0.00 0.00
0.14 0.16 0.05 0.05 0.11 0.18 0.25 0.25 0.16 0.20 0.11 0.18 0.27 0.31 0.17 0.02 0.02 0.06 0.06 0.05 0.05 0.04 0.03 0.03 0.04 0.02 0.01 0.00 0.00 0.00 0.00 0.00 0.00 0.00 0.00 0.00 0.00 0.00 0.00 0.00 0.00 0.00 0.00
0.32 0.28 0.14 0.15 0.14 0.35 0.44 0.41 0.27 0.24 0.19 0.14 0.21 0.29 0.37 0.29 0.17 0.11 0.11 0.08 0.05 0.02 0.01 0.01 0.02 0.02 0.01 0.01 0.01 0.00 0.00 0.00 0.00 0.00 0.00 0.00 0.00 0.00 0.00 0.00 0.00 0.00 0.00
0.62 0.57 0.35 0.31 0.33 0.36 0.60 0.74 0.68 0.56 0.38 0.45 0.40 0.40 0.48 0.46 0.45 0.42 0.34 0.24 0.15 0.11 0.06 0.05 0.01 0.00 0.00 0.01 0.02 0.02 0.01 0.00 0.00 0.00 0.00 0.00 0.00 0.00 0.00 0.00 0.00 0.00 0.00
1.01 1.02 1.06 0.80 0.77 0.58 0.52 0.70 0.93 0.93 0.90 0.83 0.62 0.62 0.73 0.70 0.79 0.73 0.62 0.65 0.64 0.50 0.35 0.30 0.18 0.12 0.15 0.11 0.08 0.07 0.03 0.00 0.00 0.00 0.00 0.00 0.00 0.00 0.00 0.00 0.00 0.00 0.00
0.94 0.80 0.83 1.04 1.10 1.09 0.76 0.90 1.09 1.38 1.25 1.03 1.21 1.07 0.83 0.84 0.92 1.12 1.20 1.22 1.13 0.86 0.93 1.09 1.10 0.95 0.84 0.73 0.55 0.38 0.23 0.10 0.03 0.01 0.01 0.01 0.00 0.00 0.00 0.00 0.00 0.00 0.00
0.59 0.68 0.61 0.70 1.02 1.61 1.28 1.24 1.60 1.25 1.13 1.10 1.08 1.35 1.03 0.96 0.81 0.82 1.02 1.17 1.32 1.41 1.14 1.14 1.42 1.47 1.38 1.34 1.10 0.85 0.63 0.45 0.31 0.23 0.13 0.09 0.05 0.03 0.03 0.02 0.02 0.02 0.01
0.31 0.39 0.47 0.45 0.63 1.01 1.61 1.67 1.83 2.08 1.66 1.41 1.30 1.37 1.43 0.96 0.84 0.75 0.81 1.07 1.41 1.35 1.17 1.03 0.95 0.90 0.92 0.92 0.91 0.83 0.68 0.63 0.55 0.54 0.39 0.22 0.18 0.12 0.05 0.02 0.01 0.00 0.00

GFSSE_prec_precacc24_105.txt.gz
Total_Precipitation_Accumulation
0.00 0.00 0.04 0.02 0.00 0.01 0.01 0.00 0.00 0.01 0.02 0.01 0.01 0.01 0.01 0.01 0.02 0.01 0.00 0.00 0.00 0.00 0.02 0.05 0.08 0.12 0.13 0.08 0.05 0.02 0.02 0.02 0.02 0.01 0.02 0.04 0.05 0.05 0.07 0.11 0.09 0.12 0.20
0.00 0.00 0.03 0.03 0.01 0.02 0.03 0.01 0.01 0.01 0.02 0.02 0.02 0.02 0.03 0.03 0.03 0.01 0.00 0.00 0.00 0.02 0.05 0.10 0.08 0.08 0.05 0.02 0.01 0.01 0.00 0.00 0.00 0.00 0.00 0.00 0.01 0.01 0.01 0.04 0.09 0.09 0.13
0.00 0.00 0.01 0.04 0.01 0.01 0.02 0.01 0.01 0.00 0.02 0.04 0.06 0.04 0.08 0.06 0.07 0.00 0.00 0.00 0.01 0.05 0.08 0.09 0.05 0.03 0.01 0.01 0.01 0.00 0.00 0.00 0.00 0.00 0.00 0.00 0.00 0.00 0.00 0.00 0.00 0.01 0.01
0.00 0.00 0.02 0.05 0.01 0.01 0.01 0.01 0.01 0.00 0.03 0.04 0.07 0.09 0.14 0.09 0.08 0.00 0.00 0.01 0.07 0.09 0.16 0.11 0.01 0.01 0.01 0.00 0.00 0.00 0.00 0.00 0.00 0.00 0.00 0.00 0.00 0.00 0.00 0.00 0.00 0.00 0.00
0.02 0.01 0.02 0.04 0.03 0.00 0.01 0.00 0.00 0.00 0.02 0.05 0.11 0.23 0.27 0.16 0.09 0.00 0.00 0.06 0.17 0.21 0.14 0.04 0.00 0.00 0.00 0.00 0.00 0.00 0.00 0.00 0.00 0.00 0.00 0.00 0.00 0.00 0.00 0.00 0.00 0.00 0.00
0.02 0.03 0.04 0.07 0.05 0.01 0.01 0.02 0.00 0.00 0.01 0.03 0.16 0.37 0.41 0.32 0.12 0.02 0.03 0.12 0.10 0.08 0.04 0.00 0.01 0.01 0.00 0.00 0.00 0.00 0.00 0.00 0.00 0.00 0.00 0.00 0.00 0.00 0.00 0.00 0.00 0.00 0.00
0.05 0.08 0.12 0.19 0.10 0.00 0.01 0.04 0.02 0.03 0.05 0.02 0.13 0.43 0.48 0.30 0.32 0.12 0.14 0.10 0.04 0.05 0.01 0.01 0.01 0.00 0.00 0.00 0.00 0.00 0.00 0.00 0.00 0.00 0.00 0.00 0.00 0.00 0.00 0.00 0.00 0.00 0.00
0.29 0.22 0.20 0.20 0.30 0.11 0.02 0.02 0.01 0.03 0.07 0.05 0.17 0.51 0.67 0.32 0.27 0.18 0.21 0.08 0.04 0.03 0.01 0.01 0.00 0.00 0.00 0.00 0.00 0.00 0.00 0.00 0.00 0.00 0.00 0.00 0.00 0.00 0.00 0.00 0.00 0.00 0.00
0.76 0.80 0.53 0.25 0.25 0.12 0.08 0.03 0.01 0.00 0.06 0.07 0.16 0.43 0.51 0.31 0.23 0.16 0.22 0.15 0.06 0.03 0.02 0.01 0.00 0.00 0.00 0.00 0.00 0.00 0.00 0.00 0.00 0.00 0.00 0.00 0.00 0.00 0.00 0.00 0.00 0.00 0.00
1.00 1.15 1.02 0.87 0.45 0.15 0.17 0.10 0.02 0.00 0.01 0.01 0.14 0.34 0.18 0.14 0.07 0.09 0.09 0.16 0.16 0.09 0.03 0.00 0.00 0.00 0.00 0.00 0.00 0.00 0.00 0.00 0.00 0.00 0.00 0.00 0.00 0.00 0.00 0.00 0.00 0.00 0.00
1.43 1.09 0.99 0.99 0.72 0.27 0.22 0.20 0.05 0.00 0.00 0.00 0.10 0.27 0.16 0.07 0.02 0.01 0.01 0.04 0.06 0.07 0.03 0.00 0.00 0.00 0.00 0.00 0.00 0.00 0.00 0.00 0.00 0.00 0.00 0.00 0.00 0.00 0.00 0.00 0.00 0.00 0.00
1.17 1.49 1.67 1.30 1.29 0.49 0.32 0.36 0.17 0.06 0.01 0.00 0.08 0.18 0.11 0.07 0.01 0.00 0.00 0.02 0.03 0.04 0.02 0.00 0.00 0.00 0.00 0.00 0.00 0.00 0.00 0.00 0.00 0.00 0.00 0.00 0.00 0.00 0.00 0.00 0.00 0.00 0.00
0.54 0.53 1.05 1.26 1.83 1.08 0.71 0.48 0.33 0.11 0.06 0.01 0.02 0.20 0.17 0.07 0.04 0.00 0.00 0.01 0.01 0.01 0.01 0.01 0.00 0.00 0.00 0.00 0.00 0.00 0.00 0.00 0.00 0.00 0.00 0.00 0.00 0.00 0.00 0.00 0.00 0.00 0.00
0.15 0.24 0.44 0.60 1.30 1.62 1.50 1.01 0.45 0.19 0.07 0.04 0.03 0.05 0.24 0.18 0.16 0.13 0.05 0.02 0.00 0.01 0.01 0.00 0.00 0.00 0.00 0.00 0.00 0.00 0.00 0.00 0.00 0.00 0.00 0.00 0.00 0.00 0.00 0.00 0.00 0.00 0.01
0.06 0.10 0.25 0.40 0.91 1.54 1.27 1.39 1.13 0.44 0.12 0.02 0.04 0.06 0.11 0.30 0.30 0.21 0.18 0.13 0.05 0.02 0.01 0.00 0.00 0.00 0.00 0.00 0.00 0.00 0.00 0.00 0.00 0.00 0.00 0.00 0.00 0.00 0.00 0.00 0.00 0.00 0.05
0.17 0.20 0.15 0.25 0.49 1.02 0.85 0.52 1.30 1.56 0.72 0.12 0.01 0.03 0.05 0.13 0.26 0.36 0.28 0.26 0.17 0.10 0.04 0.01 0.00 0.00 0.00 0.00 0.00 0.00 0.00 0.00 0.00 0.00 0.00 0.00 0.00 0.00 0.00 0.00 0.00 0.00 0.01
0.17 0.10 0.02 0.06 0.16 0.37 0.61 0.26 0.27 0.95 1.41 0.68 0.09 0.03 0.03 0.04 0.07 0.15 0.37 0.33 0.25 0.16 0.08 0.05 0.05 0.01 0.00 0.00 0.00 0.00 0.00 0.00 0.00 0.00 0.00 0.00 0.00 0.00 0.00 0.00 0.00 0.00 0.00
0.12 0.06 0.02 0.02 0.05 0.09 0.12 0.10 0.08 0.16 0.47 0.79 0.36 0.05 0.02 0.01 0.02 0.05 0.05 0.11 0.16 0.20 0.18 0.13 0.14 0.12 0.02 0.00 0.00 0.00 0.00 0.00 0.00 0.00 0.00 0.00 0.00 0.00 0.00 0.00 0.00 0.00 0.00
0.12 0.10 0.05 0.04 0.04 0.09 0.11 0.08 0.10 0.09 0.08 0.29 0.44 0.15 0.02 0.01 0.01 0.03 0.05 0.06 0.09 0.12 0.14 0.18 0.19 0.17 0.12 0.04 0.01 0.00 0.00 0.00 0.00 0.00 0.00 0.00 0.00 0.00 0.00 0.00 0.00 0.00 0.00
0.14 0.16 0.04 0.04 0.06 0.07 0.17 0.22 0.16 0.21 0.12 0.19 0.24 0.25 0.14 0.02 0.02 0.06 0.06 0.05 0.08 0.08 0.09 0.09 0.13 0.13 0.09 0.05 0.02 0.00 0.00 0.00 0.00 0.00 0.00 0.00 0.00 0.00 0.00 0.00 0.00 0.00 0.00
0.18 0.14 0.08 0.08 0.06 0.20 0.24 0.25 0.22 0.20 0.18 0.15 0.20 0.19 0.22 0.25 0.15 0.11 0.11 0.08 0.07 0.03 0.02 0.02 0.06 0.06 0.04 0.03 0.04 0.01 0.00 0.00 0.00 0.00 0.00 0.00 0.00 0.00 0.00 0.00 0.00 0.00 0.00
0.31 0.28 0.19 0.20 0.27 0.31 0.41 0.48 0.54 0.51 0.36 0.43 0.34 0.25 0.29 0.25 0.22 0.22 0.19 0.19 0.15 0.13 0.08 0.05 0.01 0.01 0.01 0.03 0.04 0.03 0.01 0.00 0.00 0.00 0.00 0.00 0.00 0.00 0.00 0.00 0.00 0.00 0.00
0.74 0.73 0.88 0.56 0.58 0.58 0.58 0.58 0.69 0.79 0.76 0.73 0.53 0.53 0.54 0.41 0.51 0.53 0.42 0.38 0.43 0.32 0.26 0.26 0.16 0.10 0.13 0.11 0.09 0.08 0.03 0.00 0.00 0.00 0.00 0.00 0.00 0.00 0.00 0.00 0.00 0.00 0.00
0.87 0.73 0.73 0.85 0.90 0.85 0.74 0.79 0.71 0.74 0.65 0.68 0.90 0.75 0.62 0.60 0.64 0.82 0.94 1.01 0.89 0.66 0.77 0.90 0.90 0.80 0.78 0.73 0.55 0.38 0.23 0.10 0.03 0.01 0.01 0.01 0.00 0.00 0.00 0.00 0.00 0.00 0.00
0.62 0.72 0.66 0.69 0.89 1.50 1.18 1.01 1.26 1.00 0.90 0.82 0.91 1.09 0.72 0.70 0.62 0.69 0.87 0.97 1.01 0.97 0.86 1.03 1.42 1.48 1.40 1.37 1.12 0.86 0.63 0.45 0.32 0.23 0.13 0.09 0.05 0.03 0.03 0.03 0.05 0.04 0.06
0.38 0.49 0.59 0.61 0.80 1.03 1.55 1.54 1.69 1.88 1.47 1.24 1.16 1.25 1.29 0.82 0.70 0.65 0.76 0.98 1.17 1.03 0.82 0.86 0.94 0.92 0.95 0.94 0.93 0.85 0.70 0.64 0.55 0.54 0.39 0.23 0.19 0.14 0.07 0.04 0.04 0.04 0.04

GFSSE_prec_precacc24_108.txt.gz
Total_Precipitation_Accumulation
0.00 0.01 0.03 0.01 0.00 0.01 0.01 0.00 0.00 0.02 0.06 0.05 0.02 0.03 0.01 0.01 0.01 0.01 0.00 0.00 0.00 0.00 0.03 0.05 0.08 0.11 0.15 0.09 0.04 0.02 0.02 0.03 0.02 0.01 0.02 0.04 0.05 0.06 0.09 0.13 0.13 0.19 0.24
0.00 0.01 0.03 0.02 0.01 0.02 0.03 0.01 0.01 0.00 0.02 0.03 0.05 0.05 0.02 0.03 0.03 0.01 0.00 0.00 0.00 0.03 0.06 0.09 0.08 0.09 0.06 0.02 0.01 0.01 0.00 0.00 0.00 0.00 0.00 0.00 0.02 0.02 0.02 0.04 0.10 0.09 0.12
0.00 0.01 0.01 0.03 0.02 0.02 0.02 0.02 0.01 0.00 0.01 0.03 0.05 0.05 0.05 0.05 0.07 0.00 0.00 0.00 0.01 0.06 0.08 0.09 0.05 0.03 0.01 0.01 0.01 0.00 0.00 0.00 0.00 0.00 0.00 0.00 0.00 0.00 0.00 0.00 0.00 0.01 0.01
0.01 0.02 0.02 0.03 0.02 0.01 0.01 0.01 0.01 0.00 0.02 0.02 0.05 0.06 0.11 0.07 0.08 0.00 0.00 0.01 0.07 0.12 0.24 0.12 0.01 0.01 0.01 0.00 0.00 0.00 0.00 0.00 0.00 0.00 0.00 0.00 0.00 0.00 0.00 0.00 0.00 0.00 0.00
0.01 0.02 0.02 0.04 0.05 0.02 0.01 0.01 0.00 0.00 0.01 0.04 0.06 0.16 0.22 0.14 0.09 0.00 0.00 0.06 0.17 0.28 0.24 0.05 0.00 0.00 0.00 0.00 0.00 0.00 0.00 0.00 0.00 0.00 0.00 0.00 0.00 0.00 0.00 0.00 0.00 0.00 0.00
0.02 0.03 0.03 0.04 0.08 0.05 0.05 0.04 0.02 0.01 0.02 0.04 0.10 0.24 0.30 0.32 0.13 0.04 0.05 0.13 0.13 0.15 0.13 0.01 0.01 0.00 0.00 0.00 0.00 0.00 0.00 0.00 0.00 0.00 0.00 0.00 0.00 0.00 0.00 0.00 0.00 0.00 0.00
0.06 0.07 0.11 0.14 0.12 0.07 0.07 0.08 0.08 0.07 0.08 0.04 0.12 0.31 0.33 0.31 0.36 0.18 0.18 0.13 0.08 0.11 0.12 0.01 0.01 0.00 0.00 0.00 0.00 0.00 0.00 0.00 0.00 0.00 0.00 0.00 0.00 0.00 0.00 0.00 0.00 0.00 0.00
0.29 0.25 0.22 0.14 0.24 0.13 0.06 0.08 0.07 0.07 0.11 0.09 0.19 0.44 0.55 0.34 0.30 0.25 0.24 0.10 0.08 0.06 0.09 0.02 0.00 0.00 0.00 0.00 0.00 0.00 0.00 0.00 0.00 0.00 0.00 0.00 0.00 0.00 0.00 0.00 0.00 0.00 0.00
0.66 0.77 0.54 0.25 0.19 0.14 0.08 0.04 0.03 0.02 0.07 0.09 0.19 0.43 0.51 0.32 0.27 0.18 0.24 0.18 0.14 0.08 0.10 0.02 0.00 0.00 0.00 0.00 0.00 0.00 0.00 0.00 0.00 0.00 0.00 0.00 0.00 0.00 0.00 0.00 0.00 0.00 0.00
0.78 1.02 0.97 0.84 0.44 0.16 0.15 0.09 0.02 0.00 0.01 0.02 0.15 0.35 0.18 0.14 0.07 0.10 0.10 0.18 0.27 0.18 0.11 0.04 0.00 0.00 0.00 0.00 0.00 0.00 0.00 0.00 0.00 0.00 0.00 0.00 0.00 0.00 0.00 0.00 0.00 0.00 0.00
0.71 0.84 0.82 0.91 0.71 0.29 0.20 0.19 0.05 0.00 0.00 0.00 0.10 0.27 0.16 0.07 0.02 0.01 0.01 0.04 0.10 0.13 0.10 0.04 0.00 0.00 0.00 0.00 0.00 0.00 0.00 0.00 0.00 0.00 0.00 0.00 0.00 0.00 0.00 0.00 0.00 0.00 0.00
0.41 0.93 1.35 1.10 1.15 0.54 0.36 0.40 0.19 0.05 0.01 0.00 0.08 0.18 0.11 0.07 0.01 0.00 0.02 0.02 0.05 0.09 0.07 0.04 0.00 0.00 0.00 0.00 0.00 0.00 0.00 0.00 0.00 0.00 0.00 0.00 0.00 0.00 0.00 0.00 0.00 0.00 0.00
0.20 0.20 0.84 1.04 1.64 1.05 0.76 0.55 0.34 0.11 0.07 0.01 0.02 0.20 0.17 0.07 0.04 0.00 0.01 0.02 0.07 0.04 0.03 0.02 0.00 0.00 0.00 0.00 0.00 0.00 0.00 0.00 0.00 0.00 0.00 0.00 0.00 0.00 0.00 0.00 0.00 0.00 0.00
0.10 0.10 0.27 0.42 1.22 1.57 1.50 1.04 0.50 0.22 0.08 0.04 0.03 0.05 0.24 0.18 0.17 0.14 0.06 0.06 0.06 0.04 0.05 0.02 0.00 0.00 0.00 0.00 0.00 0.00 0.00 0.00 0.00 0.00 0.00 0.00 0.00 0.00 0.00 0.00 0.00 0.00 0.01
0.05 0.08 0.14 0.20 0.67 1.48 1.27 1.41 1.15 0.44 0.13 0.02 0.04 0.06 0.12 0.30 0.31 0.22 0.24 0.20 0.14 0.09 0.06 0.04 0.02 0.01 0.00 0.00 0.00 0.00 0.00 0.00 0.00 0.00 0.00 0.00 0.00 0.00 0.00 0.00 0.00 0.00 0.02
0.16 0.19 0.11 0.13 0.35 0.93 0.79 0.53 1.31 1.56 0.72 0.12 0.02 0.03 0.08 0.15 0.27 0.36 0.29 0.29 0.21 0.15 0.08 0.03 0.05 0.02 0.00 0.00 0.00 0.00 0.00 0.00 0.00 0.00 0.00 0.00 0.00 0.00 0.00 0.00 0.00 0.01 0.01
0.17 0.10 0.01 0.01 0.10 0.34 0.56 0.27 0.29 0.95 1.44 0.75 0.13 0.05 0.06 0.06 0.10 0.16 0.37 0.33 0.26 0.20 0.17 0.09 0.12 0.10 0.03 0.00 0.00 0.00 0.00 0.00 0.00 0.00 0.00 0.00 0.00 0.00 0.00 0.00 0.00 0.00 0.00
0.12 0.06 0.02 0.00 0.02 0.08 0.12 0.12 0.10 0.21 0.50 0.79 0.38 0.09 0.06 0.05 0.05 0.08 0.06 0.11 0.16 0.20 0.19 0.14 0.16 0.23 0.19 0.09 0.01 0.00 0.00 0.00 0.00 0.00 0.00 0.00 0.00 0.00 0.00 0.00 0.00 0.00 0.00
0.12 0.10 0.05 0.04 0.03 0.08 0.11 0.10 0.15 0.18 0.12 0.30 0.44 0.16 0.04 0.02 0.02 0.03 0.05 0.06 0.09 0.13 0.17 0.21 0.23 0.22 0.24 0.18 0.08 0.02 0.00 0.00 0.00 0.00 0.00 0.00 0.00 0.00 0.00 0.00 0.00 0.00 0.00
0.14 0.16 0.04 0.04 0.06 0.06 0.17 0.23 0.22 0.33 0.17 0.26 0.28 0.29 0.16 0.03 0.02 0.06 0.06 0.05 0.08 0.08 0.11 0.14 0.18 0.16 0.13 0.10 0.08 0.02 0.00 0.00 0.00 0.00 0.00 0.00 0.00 0.00 0.00 0.00 0.00 0.00 0.00
0.17 0.14 0.08 0.08 0.05 0.15 0.17 0.22 0.20 0.20 0.20 0.25 0.28 0.24 0.24 0.26 0.15 0.11 0.11 0.09 0.08 0.04 0.03 0.05 0.10 0.11 0.07 0.07 0.09 0.04 0.00 0.00 0.00 0.00 0.00 0.00 0.00 0.00 0.00 0.00 0.00 0.00 0.00
0.11 0.10 0.10 0.13 0.16 0.20 0.31 0.45 0.51 0.49 0.34 0.40 0.32 0.25 0.25 0.20 0.17 0.12 0.09 0.13 0.14 0.13 0.07 0.06 0.04 0.03 0.02 0.04 0.04 0.03 0.02 0.00 0.00 0.00 0.00 0.00 0.00 0.00 0.00 0.00 0.00 0.00 0.00
0.33 0.30 0.33 0.34 0.36 0.38 0.46 0.59 0.68 0.66 0.71 0.70 0.48 0.48 0.51 0.38 0.41 0.36 0.20 0.15 0.25 0.22 0.15 0.18 0.16 0.09 0.07 0.09 0.08 0.08 0.04 0.01 0.00 0.00 0.00 0.00 0.00 0.00 0.00 0.00 0.00 0.00 0.00
0.55 0.47 0.46 0.53 0.60 0.56 0.52 0.58 0.73 0.69 0.52 0.60 0.83 0.68 0.57 0.56 0.60 0.62 0.61 0.56 0.49 0.42 0.59 0.77 0.76 0.61 0.57 0.59 0.47 0.36 0.23 0.10 0.03 0.01 0.01 0.01 0.00 0.00 0.00 0.00 0.00 0.00 0.00
0.54 0.63 0.57 0.55 0.63 1.26 1.15 0.94 1.07 0.79 0.69 0.61 0.66 0.88 0.61 0.63 0.55 0.55 0.62 0.70 0.71 0.73 0.58 0.79 1.21 1.34 1.26 1.27 1.04 0.79 0.60 0.45 0.32 0.24 0.13 0.09 0.05 0.03 0.03 0.03 0.05 0.05 0.07
0.41 0.53 0.59 0.61 0.81 1.00 1.72 1.70 1.54 1.49 1.16 1.00 0.84 0.99 1.05 0.63 0.54 0.46 0.52 0.75 0.97 0.90 0.70 0.59 0.61 0.74 0.86 0.87 0.87 0.80 0.68 0.64 0.55 0.54 0.39 0.23 0.19 0.14 0.07 0.04 0.04 0.04 0.06

GFSSE_prec_precacc24_111.txt.gz
Total_Precipitation_Accumulation
0.00 0.01 0.03 0.02 0.00 0.01 0.01 0.00 0.00 0.04 0.10 0.09 0.02 0.03 0.01 0.00 0.00 0.00 0.00 0.00 0.00 0.00 0.03 0.04 0.06 0.09 0.15 0.08 0.04 0.03 0.02 0.03 0.02 0.01 0.02 0.04 0.06 0.06 0.11 0.15 0.18 0.22 0.23
0.00 0.01 0.02 0.03 0.01 0.02 0.03 0.01 0.01 0.00 0.02 0.05 0.06 0.08 0.04 0.02 0.02 0.00 0.00 0.00 0.00 0.03 0.05 0.08 0.08 0.10 0.07 0.02 0.01 0.01 0.00 0.00 0.00 0.00 0.00 0.00 0.04 0.04 0.04 0.06 0.12 0.08 0.11
0.00 0.02 0.01 0.03 0.04 0.03 0.02 0.02 0.01 0.00 0.02 0.03 0.04 0.04 0.07 0.05 0.06 0.00 0.00 0.00 0.02 0.11 0.07 0.08 0.05 0.03 0.01 0.01 0.01 0.00 0.00 0.00 0.00 0.00 0.00 0.00 0.00 0.00 0.00 0.00 0.00 0.01 0.01
0.01 0.05 0.03 0.04 0.09 0.06 0.04 0.03 0.01 0.00 0.02 0.03 0.05 0.04 0.07 0.07 0.08 0.00 0.00 0.01 0.08 0.16 0.30 0.13 0.01 0.01 0.01 0.00 0.00 0.00 0.00 0.00 0.00 0.00 0.00 0.00 0.00 0.00 0.00 0.00 0.00 0.00 0.00
0.02 0.06 0.05 0.04 0.10 0.11 0.07 0.05 0.04 0.02 0.01 0.04 0.04 0.10 0.16 0.13 0.09 0.00 0.00 0.06 0.16 0.31 0.37 0.06 0.00 0.00 0.00 0.00 0.00 0.00 0.00 0.00 0.00 0.00 0.00 0.00 0.00 0.00 0.00 0.00 0.00 0.00 0.00
0.03 0.05 0.03 0.02 0.08 0.10 0.10 0.07 0.05 0.05 0.04 0.04 0.07 0.17 0.23 0.30 0.13 0.04 0.06 0.12 0.12 0.19 0.22 0.01 0.00 0.00 0.00 0.00 0.00 0.00 0.00 0.00 0.00 0.00 0.00 0.00 0.00 0.00 0.00 0.00 0.00 0.00 0.00
0.06 0.07 0.09 0.08 0.10 0.11 0.12 0.12 0.12 0.11 0.12 0.07 0.11 0.19 0.21 0.31 0.40 0.22 0.20 0.14 0.10 0.18 0.25 0.05 0.00 0.00 0.00 0.00 0.00 0.00 0.00 0.00 0.00 0.00 0.00 0.00 0.00 0.00 0.00 0.00 0.00 0.00 0.00
0.26 0.22 0.16 0.10 0.14 0.12 0.10 0.11 0.11 0.11 0.14 0.11 0.16 0.29 0.41 0.36 0.34 0.30 0.26 0.11 0.09 0.14 0.26 0.15 0.00 0.00 0.00 0.00 0.00 0.00 0.00 0.00 0.00 0.00 0.00 0.00 0.00 0.00 0.00 0.00 0.00 0.00 0.00
0.47 0.70 0.48 0.23 0.14 0.10 0.06 0.06 0.07 0.04 0.08 0.09 0.14 0.29 0.40 0.35 0.30 0.23 0.28 0.20 0.15 0.11 0.18 0.16 0.04 0.00 0.00 0.00 0.00 0.00 0.00 0.00 0.00 0.00 0.00 0.00 0.00 0.00 0.00 0.00 0.00 0.00 0.00
0.56 0.79 0.83 0.77 0.40 0.16 0.11 0.07 0.02 0.02 0.06 0.04 0.14 0.23 0.16 0.15 0.08 0.12 0.13 0.20 0.30 0.24 0.18 0.16 0.06 0.00 0.00 0.00 0.00 0.00 0.00 0.00 0.00 0.00 0.00 0.00 0.00 0.00 0.00 0.00 0.00 0.00 0.00
0.42 0.49 0.56 0.67 0.63 0.29 0.16 0.13 0.05 0.00 0.00 0.02 0.11 0.26 0.16 0.07 0.02 0.01 0.01 0.03 0.12 0.18 0.20 0.17 0.09 0.00 0.00 0.00 0.00 0.00 0.00 0.00 0.00 0.00 0.00 0.00 0.00 0.00 0.00 0.00 0.00 0.00 0.00
0.29 0.49 0.66 0.73 0.92 0.50 0.35 0.36 0.17 0.05 0.01 0.00 0.08 0.18 0.11 0.07 0.01 0.00 0.02 0.02 0.07 0.12 0.12 0.14 0.12 0.02 0.00 0.00 0.00 0.00 0.00 0.00 0.00 0.00 0.00 0.00 0.00 0.00 0.00 0.00 0.00 0.00 0.00
0.20 0.13 0.27 0.56 1.03 0.70 0.74 0.51 0.30 0.12 0.08 0.01 0.02 0.20 0.17 0.07 0.04 0.00 0.02 0.03 0.11 0.08 0.09 0.05 0.03 0.00 0.00 0.00 0.00 0.00 0.00 0.00 0.00 0.00 0.00 0.00 0.00 0.00 0.00 0.00 0.00 0.00 0.00
0.10 0.09 0.13 0.15 0.39 0.80 1.46 0.99 0.45 0.20 0.11 0.06 0.03 0.05 0.24 0.18 0.17 0.14 0.06 0.08 0.11 0.07 0.11 0.09 0.06 0.01 0.00 0.00 0.00 0.00 0.00 0.00 0.00 0.00 0.00 0.00 0.00 0.00 0.00 0.00 0.00 0.00 0.00
0.05 0.08 0.12 0.12 0.16 0.61 1.15 1.39 1.06 0.39 0.14 0.05 0.05 0.06 0.13 0.31 0.32 0.24 0.25 0.24 0.17 0.13 0.10 0.10 0.08 0.05 0.01 0.00 0.00 0.00 0.00 0.00 0.00 0.00 0.00 0.00 0.00 0.00 0.00 0.00 0.00 0.00 0.00
0.16 0.19 0.11 0.10 0.15 0.32 0.50 0.51 1.28 1.46 0.64 0.11 0.02 0.03 0.08 0.18 0.33 0.43 0.37 0.36 0.28 0.20 0.15 0.08 0.10 0.08 0.03 0.01 0.00 0.00 0.00 0.00 0.00 0.00 0.00 0.00 0.00 0.00 0.00 0.00 0.00 0.02 0.02
0.17 0.10 0.01 0.00 0.01 0.07 0.30 0.20 0.28 0.92 1.31 0.67 0.12 0.05 0.06 0.06 0.14 0.20 0.40 0.39 0.30 0.27 0.28 0.23 0.29 0.23 0.20 0.10 0.03 0.00 0.00 0.00 0.00 0.00 0.00 0.00 0.00 0.00 0.00 0.00 0.00 0.00 0.01
0.08 0.05 0.02 0.00 0.00 0.00 0.06 0.08 0.08 0.21 0.49 0.75 0.34 0.08 0.07 0.07 0.10 0.15 0.12 0.16 0.20 0.25 0.24 0.17 0.18 0.27 0.30 0.26 0.09 0.01 0.00 0.00 0.00 0.00 0.00 0.00 0.00 0.00 0.00 0.00 0.00 0.00 0.00
0.05 0.10 0.05 0.04 0.03 0.02 0.05 0.05 0.13 0.19 0.14 0.31 0.44 0.16 0.04 0.05 0.07 0.13 0.15 0.17 0.16 0.17 0.20 0.24 0.29 0.27 0.26 0.21 0.10 0.03 0.00 0.00 0.00 0.00 0.00 0.00 0.00 0.00 0.00 0.00 0.00 0.00 0.00
0.11 0.14 0.04 0.04 0.06 0.04 0.08 0.11 0.17 0.35 0.22 0.29 0.28 0.29 0.16 0.02 0.03 0.10 0.16 0.19 0.19 0.13 0.12 0.15 0.21 0.21 0.17 0.14 0.11 0.06 0.02 0.00 0.00 0.00 0.00 0.00 0.00 0.00 0.00 0.00 0.00 0.00 0.00
0.15 0.10 0.08 0.08 0.04 0.08 0.09 0.08 0.14 0.22 0.24 0.29 0.33 0.25 0.23 0.24 0.15 0.11 0.12 0.10 0.10 0.04 0.03 0.06 0.13 0.16 0.11 0.11 0.15 0.07 0.02 0.01 0.00 0.00 0.00 0.00 0.00 0.00 0.00 0.00 0.00 0.00 0.00
0.06 0.06 0.07 0.11 0.10 0.12 0.16 0.20 0.26 0.36 0.33 0.45 0.38 0.25 0.20 0.18 0.16 0.15 0.10 0.15 0.14 0.13 0.07 0.05 0.05 0.04 0.04 0.06 0.07 0.05 0.02 0.01 0.00 0.00 0.00 0.00 0.00 0.00 0.00 0.00 0.00 0.00 0.00
0.15 0.19 0.24 0.22 0.22 0.26 0.31 0.41 0.48 0.54 0.63 0.71 0.54 0.47 0.48 0.34 0.31 0.29 0.17 0.12 0.17 0.16 0.11 0.11 0.11 0.10 0.08 0.06 0.06 0.07 0.04 0.01 0.00 0.00 0.00 0.00 0.00 0.00 0.00 0.00 0.00 0.00 0.00
0.19 0.13 0.17 0.32 0.36 0.27 0.34 0.40 0.61 0.69 0.60 0.63 0.86 0.73 0.56 0.53 0.56 0.57 0.55 0.52 0.44 0.27 0.25 0.37 0.47 0.48 0.53 0.55 0.40 0.28 0.17 0.07 0.02 0.01 0.01 0.01 0.00 0.00 0.00 0.00 0.00 0.00 0.00
0.21 0.25 0.28 0.42 0.44 0.78 0.78 0.78 0.99 0.93 0.90 0.77 0.74 0.94 0.63 0.63 0.53 0.56 0.63 0.66 0.64 0.61 0.39 0.45 0.59 0.65 0.84 1.12 0.96 0.71 0.52 0.40 0.29 0.23 0.13 0.09 0.05 0.03 0.03 0.03 0.05 0.05 0.07
0.23 0.31 0.36 0.39 0.52 0.74 1.45 1.57 1.42 1.61 1.38 1.32 0.94 0.95 1.02 0.62 0.52 0.43 0.46 0.64 0.80 0.69 0.54 0.43 0.48 0.54 0.57 0.65 0.77 0.72 0.58 0.53 0.50 0.52 0.40 0.23 0.19 0.14 0.07 0.04 0.04 0.04 0.06

GFSSE_prec_precacc24_114.txt.gz
Total_Precipitation_Accumulation
0.00 0.01 0.03 0.03 0.00 0.01 0.01 0.00 0.03 0.06 0.12 0.10 0.02 0.03 0.01 0.00 0.00 0.00 0.00 0.00 0.00 0.00 0.03 0.03 0.04 0.07 0.12 0.07 0.04 0.03 0.02 0.04 0.02 0.01 0.02 0.04 0.07 0.08 0.13 0.19 0.20 0.21 0.23
0.00 0.01 0.02 0.03 0.01 0.02 0.03 0.01 0.02 0.01 0.03 0.07 0.09 0.10 0.04 0.02 0.01 0.00 0.00 0.00 0.00 0.03 0.04 0.06 0.07 0.11 0.07 0.02 0.01 0.01 0.00 0.00 0.00 0.00 0.00 0.00 0.07 0.10 0.08 0.08 0.12 0.08 0.10
0.00 0.02 0.01 0.04 0.06 0.03 0.03 0.02 0.02 0.02 0.03 0.06 0.09 0.06 0.09 0.06 0.04 0.00 0.00 0.00 0.02 0.11 0.06 0.08 0.09 0.05 0.01 0.00 0.00 0.01 0.00 0.00 0.00 0.00 0.01 0.00 0.00 0.00 0.00 0.00 0.00 0.01 0.01
0.01 0.06 0.03 0.03 0.12 0.10 0.08 0.06 0.03 0.02 0.03 0.06 0.08 0.06 0.08 0.08 0.07 0.00 0.00 0.01 0.08 0.18 0.31 0.13 0.03 0.01 0.00 0.00 0.00 0.00 0.00 0.00 0.00 0.00 0.00 0.00 0.00 0.00 0.00 0.00 0.00 0.00 0.00
0.03 0.08 0.08 0.05 0.10 0.12 0.09 0.06 0.06 0.05 0.04 0.04 0.04 0.09 0.17 0.09 0.08 0.00 0.00 0.06 0.16 0.33 0.41 0.07 0.00 0.00 0.00 0.00 0.00 0.00 0.00 0.00 0.00 0.00 0.00 0.00 0.00 0.00 0.00 0.00 0.00 0.00 0.00
0.03 0.06 0.08 0.06 0.08 0.10 0.11 0.08 0.07 0.07 0.05 0.05 0.05 0.10 0.16 0.26 0.15 0.04 0.05 0.12 0.12 0.19 0.27 0.07 0.00 0.00 0.00 0.00 0.00 0.00 0.00 0.00 0.00 0.00 0.00 0.00 0.00 0.00 0.00 0.00 0.00 0.00 0.00
0.05 0.03 0.05 0.07 0.07 0.12 0.13 0.13 0.12 0.12 0.11 0.09 0.08 0.11 0.12 0.27 0.47 0.25 0.21 0.14 0.10 0.19 0.37 0.19 0.00 0.00 0.00 0.00 0.00 0.00 0.00 0.00 0.00 0.00 0.00 0.00 0.00 0.00 0.00 0.00 0.00 0.00 0.00
0.23 0.17 0.10 0.05 0.06 0.06 0.09 0.12 0.11 0.11 0.12 0.10 0.10 0.15 0.27 0.33 0.38 0.35 0.31 0.13 0.09 0.16 0.37 0.29 0.04 0.00 0.00 0.00 0.00 0.00 0.00 0.00 0.00 0.00 0.00 0.00 0.00 0.00 0.00 0.00 0.00 0.00 0.00
0.43 0.47 0.33 0.18 0.10 0.06 0.05 0.05 0.06 0.04 0.08 0.08 0.10 0.15 0.29 0.34 0.31 0.25 0.31 0.22 0.17 0.14 0.24 0.21 0.15 0.01 0.00 0.00 0.00 0.00 0.00 0.00 0.00 0.00 0.00 0.00 0.00 0.00 0.00 0.00 0.00 0.00 0.00
0.50 0.59 0.63 0.55 0.33 0.16 0.10 0.06 0.01 0.02 0.07 0.04 0.06 0.08 0.12 0.15 0.08 0.11 0.13 0.21 0.31 0.26 0.20 0.21 0.16 0.07 0.00 0.00 0.00 0.00 0.00 0.00 0.00 0.00 0.00 0.00 0.00 0.00 0.00 0.00 0.00 0.00 0.00
0.41 0.42 0.39 0.33 0.44 0.25 0.08 0.11 0.05 0.00 0.00 0.02 0.05 0.07 0.10 0.07 0.02 0.01 0.01 0.02 0.11 0.19 0.24 0.24 0.18 0.04 0.00 0.00 0.00 0.00 0.00 0.00 0.00 0.00 0.00 0.00 0.00 0.00 0.00 0.00 0.00 0.00 0.00
0.29 0.49 0.65 0.52 0.49 0.39 0.25 0.26 0.16 0.06 0.01 0.00 0.07 0.09 0.06 0.07 0.01 0.00 0.02 0.01 0.06 0.13 0.17 0.21 0.20 0.06 0.00 0.00 0.00 0.00 0.00 0.00 0.00 0.00 0.00 0.00 0.00 0.00 0.00 0.00 0.00 0.00 0.00
0.17 0.13 0.27 0.50 0.66 0.38 0.40 0.30 0.20 0.14 0.09 0.01 0.02 0.17 0.13 0.07 0.04 0.00 0.02 0.03 0.11 0.08 0.11 0.08 0.06 0.01 0.00 0.00 0.00 0.00 0.00 0.00 0.00 0.00 0.00 0.00 0.00 0.00 0.00 0.00 0.00 0.00 0.00
0.08 0.08 0.12 0.14 0.34 0.39 0.54 0.57 0.30 0.19 0.13 0.08 0.03 0.07 0.23 0.18 0.17 0.14 0.06 0.08 0.12 0.08 0.11 0.11 0.08 0.01 0.00 0.00 0.00 0.00 0.00 0.00 0.00 0.00 0.00 0.00 0.00 0.00 0.00 0.00 0.00 0.00 0.00
0.03 0.08 0.11 0.12 0.14 0.23 0.30 0.49 0.58 0.28 0.15 0.06 0.07 0.09 0.13 0.31 0.32 0.24 0.25 0.25 0.21 0.16 0.12 0.12 0.11 0.12 0.06 0.00 0.00 0.00 0.00 0.00 0.00 0.00 0.00 0.00 0.00 0.00 0.00 0.00 0.01 0.00 0.00
0.09 0.19 0.11 0.10 0.15 0.19 0.13 0.23 0.67 1.05 0.53 0.11 0.03 0.04 0.09 0.19 0.33 0.44 0.38 0.38 0.30 0.23 0.19 0.13 0.14 0.16 0.13 0.04 0.01 0.00 0.00 0.00 0.00 0.00 0.00 0.00 0.00 0.00 0.00 0.00 0.00 0.02 0.02
0.12 0.08 0.01 0.00 0.01 0.03 0.05 0.08 0.17 0.65 0.99 0.58 0.14 0.11 0.09 0.08 0.14 0.21 0.42 0.43 0.36 0.35 0.40 0.37 0.41 0.33 0.30 0.14 0.05 0.01 0.00 0.00 0.00 0.00 0.00 0.00 0.00 0.00 0.00 0.00 0.00 0.00 0.02
0.02 0.01 0.00 0.00 0.00 0.00 0.01 0.04 0.06 0.17 0.36 0.52 0.31 0.13 0.09 0.08 0.10 0.15 0.13 0.19 0.30 0.39 0.40 0.32 0.33 0.42 0.44 0.35 0.15 0.03 0.00 0.00 0.00 0.00 0.00 0.00 0.00 0.00 0.00 0.00 0.00 0.00 0.00
0.02 0.00 0.00 0.01 0.01 0.02 0.01 0.04 0.10 0.16 0.14 0.27 0.32 0.17 0.11 0.09 0.09 0.14 0.18 0.23 0.25 0.27 0.27 0.32 0.41 0.38 0.39 0.31 0.17 0.06 0.01 0.00 0.00 0.00 0.00 0.00 0.00 0.00 0.00 0.00 0.00 0.00 0.00
0.05 0.05 0.00 0.00 0.00 0.02 0.05 0.09 0.12 0.24 0.20 0.33 0.27 0.23 0.13 0.03 0.03 0.11 0.17 0.20 0.22 0.20 0.20 0.25 0.32 0.34 0.28 0.20 0.19 0.12 0.06 0.01 0.00 0.00 0.00 0.00 0.00 0.00 0.00 0.00 0.00 0.00 0.00
0.12 0.07 0.02 0.01 0.00 0.02 0.07 0.05 0.06 0.08 0.20 0.31 0.39 0.31 0.19 0.15 0.09 0.07 0.10 0.10 0.11 0.07 0.05 0.08 0.16 0.18 0.13 0.14 0.22 0.10 0.05 0.03 0.02 0.00 0.00 0.00 0.00 0.00 0.00 0.00 0.00 0.00 0.00
0.02 0.02 0.00 0.00 0.00 0.05 0.14 0.18 0.13 0.10 0.20 0.32 0.41 0.42 0.37 0.18 0.16 0.15 0.09 0.15 0.14 0.13 0.08 0.05 0.05 0.05 0.05 0.09 0.10 0.09 0.05 0.02 0.01 0.00 0.00 0.00 0.00 0.00 0.00 0.00 0.00 0.00 0.00
0.11 0.15 0.16 0.11 0.15 0.21 0.27 0.30 0.24 0.19 0.24 0.39 0.46 0.48 0.52 0.46 0.41 0.32 0.20 0.11 0.15 0.17 0.11 0.10 0.07 0.10 0.08 0.07 0.06 0.06 0.04 0.01 0.00 0.00 0.00 0.00 0.00 0.00 0.00 0.00 0.00 0.00 0.00
0.15 0.09 0.05 0.13 0.18 0.20 0.29 0.26 0.38 0.34 0.35 0.46 0.59 0.67 0.67 0.57 0.59 0.68 0.64 0.44 0.34 0.26 0.23 0.26 0.31 0.33 0.32 0.28 0.22 0.18 0.12 0.07 0.03 0.01 0.01 0.01 0.00 0.00 0.00 0.00 0.00 0.00 0.00
0.16 0.19 0.16 0.28 0.22 0.40 0.49 0.57 0.74 0.71 0.74 0.72 0.77 1.13 0.89 0.88 0.85 0.67 0.70 0.72 0.66 0.62 0.47 0.49 0.59 0.58 0.58 0.60 0.51 0.48 0.46 0.39 0.30 0.23 0.13 0.09 0.05 0.03 0.03 0.03 0.05 0.05 0.07
0.20 0.24 0.22 0.24 0.35 0.51 1.05 1.20 1.13 1.42 1.23 1.21 1.36 1.49 1.81 1.32 0.98 0.67 0.59 0.73 0.85 0.68 0.53 0.44 0.48 0.53 0.51 0.47 0.43 0.38 0.33 0.33 0.32 0.40 0.32 0.20 0.18 0.14 0.07 0.04 0.04 0.04 0.06

GFSSE_prec_precacc24_117.txt.gz
Total_Precipitation_Accumulation
0.00 0.01 0.04 0.03 0.00 0.01 0.01 0.00 0.05 0.11 0.14 0.11 0.02 0.03 0.01 0.00 0.00 0.00 0.00 0.00 0.00 0.00 0.02 0.02 0.02 0.07 0.09 0.06 0.03 0.01 0.03 0.04 0.02 0.01 0.03 0.05 0.08 0.08 0.14 0.19 0.20 0.21 0.22
0.00 0.02 0.03 0.03 0.01 0.02 0.03 0.02 0.04 0.03 0.04 0.10 0.12 0.13 0.04 0.02 0.00 0.00 0.00 0.00 0.00 0.03 0.03 0.04 0.05 0.13 0.06 0.02 0.02 0.01 0.00 0.00 0.00 0.00 0.00 0.00 0.11 0.16 0.11 0.08 0.12 0.07 0.09
0.01 0.03 0.02 0.04 0.06 0.03 0.03 0.02 0.03 0.03 0.05 0.08 0.11 0.13 0.10 0.06 0.02 0.00 0.00 0.00 0.01 0.09 0.05 0.07 0.14 0.07 0.01 0.00 0.00 0.01 0.00 0.00 0.01 0.01 0.01 0.00 0.00 0.01 0.00 0.00 0.00 0.01 0.01
0.02 0.08 0.04 0.04 0.13 0.11 0.08 0.06 0.03 0.02 0.03 0.07 0.08 0.10 0.10 0.09 0.05 0.00 0.00 0.01 0.06 0.19 0.32 0.14 0.08 0.01 0.00 0.00 0.00 0.00 0.00 0.00 0.00 0.00 0.00 0.00 0.00 0.00 0.00 0.00 0.00 0.00 0.00
0.03 0.09 0.10 0.10 0.14 0.16 0.10 0.06 0.06 0.06 0.05 0.04 0.05 0.08 0.17 0.08 0.07 0.00 0.00 0.06 0.14 0.33 0.43 0.09 0.02 0.00 0.00 0.00 0.00 0.00 0.00 0.00 0.00 0.00 0.00 0.00 0.00 0.00 0.00 0.00 0.00 0.00 0.00
0.03 0.06 0.09 0.12 0.12 0.14 0.13 0.09 0.07 0.08 0.07 0.05 0.05 0.09 0.16 0.20 0.12 0.05 0.05 0.12 0.12 0.19 0.27 0.08 0.00 0.00 0.00 0.00 0.00 0.00 0.00 0.00 0.00 0.00 0.00 0.00 0.00 0.00 0.00 0.00 0.00 0.00 0.00
0.05 0.03 0.05 0.08 0.07 0.12 0.14 0.15 0.14 0.13 0.12 0.09 0.07 0.07 0.06 0.20 0.43 0.27 0.23 0.15 0.10 0.19 0.43 0.32 0.02 0.00 0.00 0.00 0.00 0.00 0.00 0.00 0.00 0.00 0.00 0.00 0.00 0.00 0.00 0.00 0.00 0.00 0.00
0.22 0.17 0.10 0.05 0.04 0.05 0.09 0.12 0.12 0.12 0.12 0.10 0.08 0.07 0.13 0.23 0.36 0.35 0.33 0.14 0.09 0.16 0.41 0.37 0.11 0.00 0.00 0.00 0.00 0.00 0.00 0.00 0.00 0.00 0.00 0.00 0.00 0.00 0.00 0.00 0.00 0.00 0.00
0.38 0.45 0.32 0.18 0.10 0.06 0.05 0.05 0.06 0.05 0.06 0.07 0.07 0.08 0.15 0.27 0.31 0.25 0.31 0.22 0.17 0.14 0.25 0.24 0.22 0.04 0.00 0.00 0.00 0.00 0.00 0.00 0.00 0.00 0.00 0.00 0.00 0.00 0.00 0.00 0.00 0.00 0.00
0.40 0.50 0.57 0.51 0.30 0.14 0.06 0.05 0.01 0.02 0.06 0.04 0.05 0.02 0.06 0.12 0.08 0.11 0.13 0.20 0.30 0.25 0.20 0.21 0.20 0.13 0.01 0.00 0.00 0.00 0.00 0.00 0.00 0.00 0.00 0.00 0.00 0.00 0.00 0.00 0.00 0.00 0.00
0.29 0.34 0.31 0.29 0.34 0.22 0.05 0.05 0.04 0.00 0.00 0.01 0.03 0.01 0.07 0.07 0.02 0.01 0.01 0.02 0.10 0.18 0.24 0.24 0.21 0.06 0.01 0.00 0.00 0.00 0.00 0.00 0.00 0.00 0.00 0.00 0.00 0.00 0.00 0.00 0.00 0.00 0.00
0.09 0.26 0.48 0.47 0.41 0.26 0.22 0.21 0.11 0.02 0.00 0.00 0.02 0.03 0.03 0.06 0.01 0.00 0.01 0.00 0.05 0.12 0.17 0.21 0.23 0.06 0.00 0.00 0.00 0.00 0.00 0.00 0.00 0.00 0.00 0.00 0.00 0.00 0.00 0.00 0.00 0.00 0.00
0.06 0.07 0.16 0.40 0.54 0.28 0.24 0.21 0.14 0.10 0.07 0.01 0.01 0.08 0.06 0.06 0.04 0.00 0.01 0.02 0.11 0.08 0.11 0.08 0.07 0.01 0.00 0.00 0.00 0.00 0.00 0.00 0.00 0.00 0.00 0.00 0.00 0.00 0.00 0.00 0.00 0.00 0.00
0.06 0.06 0.09 0.12 0.29 0.36 0.41 0.24 0.19 0.14 0.11 0.06 0.03 0.05 0.14 0.16 0.17 0.14 0.06 0.08 0.12 0.08 0.11 0.11 0.08 0.01 0.00 0.00 0.00 0.00 0.00 0.00 0.00 0.00 0.00 0.00 0.00 0.00 0.00 0.00 0.00 0.00 0.00
0.01 0.03 0.04 0.10 0.13 0.23 0.28 0.29 0.20 0.13 0.11 0.06 0.06 0.10 0.17 0.31 0.32 0.24 0.25 0.25 0.21 0.16 0.12 0.12 0.11 0.12 0.06 0.01 0.00 0.00 0.00 0.00 0.00 0.00 0.00 0.00 0.00 0.00 0.00 0.00 0.01 0.00 0.00
0.00 0.01 0.03 0.06 0.14 0.19 0.13 0.18 0.16 0.14 0.13 0.09 0.03 0.05 0.11 0.23 0.36 0.46 0.39 0.38 0.30 0.24 0.20 0.16 0.18 0.17 0.17 0.08 0.01 0.00 0.00 0.00 0.00 0.00 0.00 0.00 0.00 0.00 0.00 0.00 0.00 0.02 0.02
0.00 0.00 0.00 0.00 0.00 0.03 0.05 0.08 0.10 0.06 0.14 0.31 0.13 0.15 0.12 0.15 0.22 0.26 0.46 0.47 0.38 0.39 0.50 0.49 0.55 0.40 0.35 0.19 0.07 0.01 0.01 0.00 0.00 0.00 0.00 0.00 0.00 0.00 0.00 0.00 0.00 0.00 0.02
0.00 0.00 0.00 0.00 0.00 0.00 0.01 0.04 0.06 0.11 0.13 0.22 0.23 0.13 0.12 0.11 0.14 0.19 0.15 0.19 0.31 0.41 0.46 0.40 0.45 0.58 0.60 0.48 0.23 0.06 0.01 0.00 0.00 0.00 0.00 0.00 0.00 0.00 0.00 0.00 0.00 0.00 0.00
0.00 0.00 0.00 0.00 0.01 0.02 0.00 0.04 0.09 0.12 0.11 0.16 0.14 0.14 0.12 0.14 0.15 0.17 0.19 0.24 0.27 0.29 0.32 0.35 0.44 0.47 0.51 0.43 0.36 0.36 0.37 0.24 0.05 0.01 0.00 0.00 0.00 0.00 0.00 0.00 0.00 0.00 0.00
0.01 0.01 0.00 0.00 0.00 0.02 0.03 0.05 0.10 0.16 0.14 0.25 0.20 0.15 0.12 0.09 0.13 0.21 0.21 0.24 0.28 0.26 0.23 0.28 0.33 0.38 0.35 0.30 0.31 0.26 0.19 0.15 0.05 0.01 0.00 0.00 0.00 0.00 0.00 0.00 0.00 0.00 0.00
0.01 0.02 0.02 0.01 0.00 0.00 0.05 0.04 0.04 0.05 0.11 0.23 0.31 0.26 0.17 0.13 0.10 0.11 0.17 0.16 0.14 0.11 0.10 0.10 0.16 0.19 0.16 0.21 0.30 0.15 0.10 0.08 0.05 0.01 0.00 0.00 0.00 0.00 0.00 0.00 0.00 0.00 0.00
0.00 0.00 0.00 0.00 0.00 0.03 0.09 0.15 0.11 0.08 0.14 0.18 0.29 0.35 0.33 0.20 0.15 0.13 0.10 0.16 0.17 0.17 0.12 0.07 0.05 0.06 0.07 0.16 0.21 0.22 0.13 0.04 0.01 0.00 0.00 0.00 0.00 0.00 0.00 0.00 0.00 0.00 0.00
0.03 0.07 0.11 0.09 0.11 0.17 0.20 0.23 0.16 0.11 0.13 0.15 0.22 0.29 0.30 0.34 0.38 0.42 0.28 0.19 0.19 0.20 0.14 0.13 0.10 0.11 0.09 0.09 0.11 0.14 0.07 0.03 0.00 0.00 0.00 0.00 0.00 0.00 0.00 0.00 0.00 0.00 0.00
0.06 0.04 0.04 0.10 0.16 0.19 0.27 0.23 0.28 0.26 0.28 0.28 0.27 0.37 0.54 0.55 0.67 0.94 0.94 0.60 0.48 0.43 0.32 0.32 0.30 0.28 0.32 0.23 0.26 0.22 0.15 0.07 0.03 0.01 0.01 0.01 0.00 0.00 0.00 0.00 0.00 0.00 0.00
0.15 0.17 0.16 0.28 0.18 0.23 0.33 0.56 0.65 0.59 0.62 0.55 0.49 0.65 0.71 0.74 0.85 0.81 0.96 1.15 0.91 0.80 0.70 0.59 0.56 0.51 0.50 0.47 0.41 0.43 0.37 0.35 0.27 0.20 0.14 0.10 0.05 0.03 0.03 0.03 0.05 0.05 0.07
0.20 0.24 0.22 0.24 0.34 0.35 0.63 0.78 0.77 0.99 0.96 0.99 1.19 1.06 1.41 1.32 1.15 0.98 1.32 1.43 1.43 0.93 0.62 0.53 0.57 0.55 0.50 0.47 0.44 0.41 0.33 0.25 0.21 0.25 0.20 0.16 0.15 0.12 0.06 0.04 0.04 0.04 0.06

GFSSE_prec_precacc24_120.txt.gz
Total_Precipitation_Accumulation
0.00 0.01 0.05 0.04 0.01 0.01 0.01 0.00 0.06 0.12 0.19 0.16 0.02 0.03 0.01 0.00 0.00 0.00 0.00 0.00 0.00 0.00 0.02 0.01 0.03 0.06 0.09 0.04 0.01 0.01 0.05 0.04 0.02 0.01 0.03 0.04 0.06 0.08 0.14 0.19 0.19 0.20 0.20
0.00 0.02 0.04 0.05 0.02 0.02 0.03 0.02 0.04 0.04 0.06 0.12 0.12 0.16 0.05 0.01 0.00 0.00 0.00 0.00 0.00 0.01 0.01 0.02 0.05 0.13 0.06 0.01 0.01 0.01 0.02 0.00 0.00 0.01 0.01 0.01 0.15 0.21 0.12 0.08 0.12 0.06 0.05
0.01 0.04 0.03 0.06 0.07 0.04 0.03 0.03 0.03 0.03 0.06 0.08 0.11 0.16 0.12 0.06 0.01 0.00 0.00 0.00 0.01 0.07 0.03 0.05 0.15 0.08 0.00 0.00 0.01 0.01 0.00 0.00 0.02 0.02 0.01 0.01 0.02 0.02 0.00 0.00 0.00 0.00 0.00
0.02 0.09 0.04 0.08 0.18 0.13 0.09 0.06 0.03 0.02 0.03 0.07 0.07 0.10 0.11 0.10 0.04 0.00 0.00 0.00 0.04 0.17 0.31 0.14 0.13 0.02 0.00 0.00 0.00 0.00 0.00 0.00 0.00 0.00 0.00 0.00 0.00 0.00 0.00 0.00 0.00 0.00 0.00
0.03 0.10 0.13 0.16 0.16 0.19 0.12 0.06 0.06 0.06 0.05 0.05 0.05 0.06 0.16 0.07 0.04 0.00 0.00 0.04 0.13 0.33 0.44 0.10 0.04 0.00 0.00 0.00 0.00 0.00 0.00 0.00 0.00 0.00 0.00 0.00 0.00 0.00 0.00 0.00 0.00 0.00 0.00
0.03 0.07 0.10 0.19 0.15 0.15 0.14 0.10 0.08 0.09 0.08 0.06 0.06 0.08 0.14 0.18 0.08 0.04 0.05 0.11 0.12 0.19 0.27 0.10 0.01 0.00 0.00 0.00 0.00 0.00 0.00 0.00 0.00 0.00 0.00 0.00 0.00 0.00 0.00 0.00 0.00 0.00 0.00
0.04 0.04 0.05 0.10 0.10 0.13 0.15 0.16 0.15 0.14 0.13 0.09 0.07 0.06 0.04 0.17 0.31 0.25 0.22 0.14 0.10 0.19 0.43 0.36 0.04 0.00 0.00 0.00 0.00 0.00 0.00 0.00 0.00 0.00 0.00 0.00 0.00 0.00 0.00 0.00 0.00 0.00 0.00
0.22 0.17 0.10 0.05 0.04 0.05 0.09 0.12 0.12 0.12 0.12 0.10 0.07 0.05 0.09 0.17 0.25 0.32 0.32 0.13 0.09 0.16 0.41 0.39 0.14 0.00 0.00 0.00 0.00 0.00 0.00 0.00 0.00 0.00 0.00 0.00 0.00 0.00 0.00 0.00 0.00 0.00 0.00
0.28 0.35 0.31 0.18 0.10 0.06 0.05 0.06 0.06 0.05 0.06 0.07 0.07 0.05 0.09 0.18 0.23 0.24 0.30 0.22 0.17 0.14 0.25 0.24 0.24 0.07 0.00 0.00 0.00 0.00 0.00 0.00 0.00 0.00 0.00 0.00 0.00 0.00 0.00 0.00 0.00 0.00 0.00
0.26 0.28 0.39 0.47 0.30 0.14 0.06 0.06 0.02 0.03 0.07 0.04 0.04 0.01 0.01 0.03 0.05 0.11 0.13 0.20 0.30 0.26 0.22 0.22 0.23 0.19 0.03 0.00 0.00 0.00 0.00 0.00 0.00 0.00 0.00 0.00 0.00 0.00 0.00 0.00 0.00 0.00 0.00
0.20 0.23 0.16 0.19 0.28 0.20 0.04 0.05 0.04 0.01 0.02 0.03 0.04 0.01 0.01 0.02 0.02 0.01 0.01 0.02 0.10 0.16 0.24 0.27 0.23 0.08 0.01 0.00 0.00 0.00 0.00 0.00 0.00 0.00 0.00 0.00 0.00 0.00 0.00 0.00 0.00 0.00 0.00
0.05 0.14 0.31 0.31 0.26 0.18 0.18 0.17 0.10 0.02 0.00 0.01 0.01 0.00 0.00 0.03 0.01 0.00 0.01 0.00 0.05 0.11 0.16 0.22 0.24 0.07 0.00 0.00 0.00 0.00 0.00 0.00 0.00 0.00 0.00 0.00 0.00 0.00 0.00 0.00 0.00 0.00 0.00
0.03 0.05 0.08 0.22 0.41 0.26 0.23 0.20 0.13 0.08 0.05 0.01 0.01 0.00 0.00 0.04 0.02 0.00 0.01 0.02 0.10 0.07 0.11 0.08 0.08 0.01 0.00 0.00 0.00 0.00 0.00 0.00 0.00 0.00 0.00 0.00 0.00 0.00 0.00 0.00 0.00 0.00 0.00
0.02 0.02 0.02 0.06 0.20 0.34 0.40 0.24 0.19 0.12 0.08 0.04 0.01 0.03 0.02 0.08 0.13 0.14 0.06 0.08 0.12 0.08 0.12 0.11 0.08 0.01 0.00 0.00 0.00 0.00 0.00 0.00 0.00 0.00 0.00 0.00 0.00 0.00 0.00 0.00 0.00 0.00 0.00
0.00 0.01 0.01 0.02 0.06 0.17 0.26 0.28 0.20 0.12 0.09 0.06 0.03 0.06 0.14 0.15 0.21 0.19 0.24 0.25 0.21 0.16 0.12 0.12 0.11 0.12 0.06 0.01 0.00 0.00 0.00 0.00 0.00 0.00 0.00 0.00 0.00 0.00 0.00 0.00 0.01 0.00 0.00
0.00 0.00 0.00 0.01 0.04 0.08 0.09 0.17 0.16 0.14 0.12 0.06 0.02 0.02 0.08 0.18 0.23 0.44 0.37 0.38 0.30 0.24 0.21 0.20 0.25 0.21 0.17 0.09 0.03 0.01 0.00 0.01 0.00 0.00 0.00 0.00 0.00 0.00 0.00 0.00 0.00 0.02 0.02
0.00 0.00 0.00 0.00 0.00 0.01 0.01 0.07 0.09 0.06 0.08 0.12 0.08 0.12 0.10 0.14 0.22 0.29 0.51 0.53 0.41 0.41 0.56 0.59 0.69 0.56 0.40 0.21 0.09 0.02 0.01 0.01 0.01 0.00 0.00 0.00 0.00 0.00 0.00 0.00 0.00 0.00 0.02
0.00 0.00 0.00 0.00 0.00 0.00 0.00 0.04 0.06 0.11 0.08 0.07 0.10 0.10 0.09 0.10 0.15 0.22 0.18 0.24 0.37 0.47 0.52 0.48 0.53 0.64 0.65 0.57 0.30 0.12 0.06 0.03 0.01 0.00 0.00 0.00 0.00 0.00 0.00 0.00 0.00 0.00 0.00
0.00 0.00 0.00 0.00 0.00 0.00 0.00 0.04 0.09 0.12 0.10 0.11 0.11 0.12 0.11 0.13 0.14 0.19 0.22 0.28 0.34 0.37 0.39 0.43 0.52 0.55 0.59 0.53 0.45 0.50 0.70 0.68 0.42 0.19 0.06 0.01 0.00 0.00 0.00 0.00 0.00 0.00 0.00
0.00 0.00 0.00 0.00 0.00 0.00 0.00 0.04 0.10 0.16 0.12 0.18 0.14 0.15 0.12 0.09 0.13 0.22 0.24 0.27 0.35 0.34 0.33 0.35 0.40 0.44 0.39 0.35 0.33 0.28 0.25 0.39 0.61 0.61 0.37 0.17 0.05 0.00 0.00 0.00 0.00 0.00 0.00
0.00 0.00 0.00 0.00 0.00 0.00 0.01 0.01 0.04 0.05 0.08 0.19 0.23 0.20 0.16 0.12 0.09 0.10 0.19 0.18 0.18 0.16 0.17 0.21 0.27 0.26 0.19 0.23 0.30 0.16 0.12 0.11 0.09 0.07 0.11 0.11 0.05 0.02 0.00 0.00 0.00 0.00 0.00
0.00 0.00 0.00 0.00 0.00 0.03 0.06 0.10 0.08 0.07 0.11 0.14 0.19 0.25 0.27 0.18 0.14 0.14 0.12 0.18 0.21 0.25 0.24 0.17 0.14 0.13 0.11 0.17 0.21 0.22 0.14 0.06 0.04 0.05 0.06 0.05 0.04 0.05 0.03 0.01 0.00 0.00 0.00
0.01 0.00 0.00 0.02 0.04 0.11 0.19 0.20 0.12 0.08 0.11 0.11 0.13 0.15 0.20 0.27 0.32 0.38 0.31 0.25 0.23 0.26 0.22 0.20 0.16 0.15 0.12 0.12 0.13 0.14 0.07 0.04 0.01 0.02 0.02 0.02 0.02 0.02 0.01 0.02 0.01 0.01 0.00
0.04 0.04 0.02 0.03 0.06 0.16 0.26 0.21 0.22 0.20 0.22 0.24 0.20 0.25 0.37 0.38 0.50 0.72 0.76 0.48 0.43 0.48 0.37 0.37 0.33 0.27 0.29 0.13 0.22 0.23 0.19 0.11 0.04 0.01 0.01 0.01 0.03 0.02 0.03 0.03 0.02 0.01 0.00
0.15 0.16 0.16 0.27 0.17 0.22 0.31 0.53 0.60 0.55 0.57 0.48 0.41 0.50 0.53 0.57 0.70 0.67 0.77 0.93 0.79 0.95 1.01 0.75 0.57 0.52 0.52 0.44 0.37 0.32 0.29 0.32 0.29 0.22 0.14 0.08 0.07 0.04 0.04 0.05 0.06 0.05 0.07
0.19 0.23 0.22 0.24 0.34 0.34 0.59 0.75 0.70 0.93 0.88 0.90 1.09 0.91 1.09 1.03 0.98 0.87 1.17 1.23 1.44 1.16 1.00 1.25 1.16 0.88 0.68 0.52 0.44 0.41 0.31 0.23 0.21 0.27 0.24 0.15 0.12 0.08 0.08 0.06 0.05 0.04 0.06

GFSSE_prec_precacc24_123.txt.gz
Total_Precipitation_Accumulation
0.00 0.02 0.06 0.06 0.01 0.01 0.03 0.07 0.11 0.17 0.22 0.19 0.03 0.03 0.01 0.00 0.00 0.00 0.00 0.00 0.00 0.00 0.02 0.02 0.02 0.06 0.08 0.03 0.01 0.01 0.05 0.04 0.02 0.01 0.02 0.03 0.06 0.08 0.13 0.17 0.18 0.19 0.17
0.01 0.03 0.06 0.06 0.03 0.02 0.02 0.02 0.06 0.06 0.09 0.13 0.13 0.17 0.04 0.00 0.00 0.00 0.00 0.00 0.00 0.01 0.01 0.01 0.06 0.12 0.04 0.01 0.01 0.01 0.02 0.00 0.00 0.01 0.01 0.02 0.18 0.24 0.11 0.08 0.10 0.03 0.02
0.01 0.05 0.04 0.08 0.10 0.05 0.02 0.03 0.03 0.04 0.07 0.09 0.15 0.17 0.12 0.04 0.01 0.00 0.00 0.00 0.00 0.06 0.02 0.03 0.19 0.10 0.00 0.00 0.01 0.01 0.00 0.00 0.02 0.02 0.01 0.02 0.06 0.05 0.00 0.00 0.00 0.00 0.00
0.03 0.10 0.07 0.11 0.22 0.16 0.09 0.07 0.03 0.02 0.04 0.06 0.07 0.10 0.12 0.10 0.04 0.00 0.00 0.00 0.03 0.16 0.30 0.13 0.17 0.05 0.00 0.00 0.00 0.00 0.00 0.00 0.00 0.00 0.00 0.00 0.00 0.00 0.00 0.00 0.00 0.00 0.00
0.03 0.12 0.16 0.21 0.22 0.23 0.15 0.08 0.08 0.08 0.06 0.05 0.05 0.05 0.14 0.07 0.04 0.01 0.00 0.03 0.09 0.32 0.44 0.10 0.06 0.02 0.00 0.00 0.00 0.00 0.00 0.00 0.00 0.00 0.00 0.00 0.00 0.00 0.00 0.00 0.00 0.00 0.00
0.03 0.08 0.12 0.23 0.27 0.24 0.17 0.11 0.10 0.11 0.11 0.08 0.06 0.08 0.13 0.17 0.07 0.04 0.05 0.06 0.11 0.19 0.27 0.11 0.02 0.00 0.00 0.00 0.00 0.00 0.00 0.00 0.00 0.00 0.00 0.00 0.00 0.00 0.00 0.00 0.00 0.00 0.00
0.04 0.04 0.06 0.12 0.16 0.20 0.20 0.19 0.17 0.17 0.14 0.09 0.07 0.06 0.04 0.16 0.27 0.21 0.20 0.10 0.10 0.19 0.43 0.37 0.06 0.00 0.00 0.00 0.00 0.00 0.00 0.00 0.00 0.00 0.00 0.00 0.00 0.00 0.00 0.00 0.00 0.00 0.00
0.20 0.16 0.10 0.06 0.05 0.10 0.13 0.14 0.15 0.16 0.14 0.11 0.07 0.06 0.07 0.14 0.21 0.28 0.26 0.13 0.10 0.16 0.41 0.39 0.18 0.03 0.00 0.00 0.00 0.00 0.00 0.00 0.00 0.00 0.00 0.00 0.00 0.00 0.00 0.00 0.00 0.00 0.00
0.13 0.20 0.22 0.13 0.07 0.05 0.04 0.06 0.07 0.07 0.08 0.10 0.08 0.07 0.08 0.14 0.20 0.18 0.25 0.22 0.18 0.16 0.27 0.25 0.26 0.12 0.04 0.01 0.00 0.00 0.00 0.00 0.00 0.00 0.00 0.00 0.00 0.00 0.00 0.00 0.00 0.00 0.00
0.10 0.12 0.16 0.26 0.19 0.10 0.05 0.06 0.02 0.03 0.09 0.07 0.07 0.03 0.03 0.03 0.04 0.07 0.11 0.20 0.30 0.25 0.23 0.23 0.24 0.22 0.16 0.07 0.00 0.00 0.00 0.00 0.00 0.00 0.00 0.00 0.00 0.00 0.00 0.00 0.00 0.00 0.00
0.11 0.14 0.12 0.13 0.16 0.12 0.04 0.05 0.04 0.01 0.02 0.05 0.07 0.05 0.02 0.01 0.00 0.01 0.01 0.02 0.10 0.16 0.23 0.27 0.25 0.12 0.08 0.02 0.00 0.00 0.00 0.00 0.00 0.00 0.00 0.00 0.00 0.00 0.00 0.00 0.00 0.00 0.00
0.03 0.09 0.24 0.23 0.20 0.14 0.11 0.11 0.09 0.02 0.00 0.01 0.01 0.01 0.01 0.02 0.02 0.01 0.01 0.00 0.05 0.11 0.16 0.22 0.24 0.07 0.00 0.00 0.00 0.01 0.00 0.00 0.00 0.00 0.00 0.00 0.00 0.00 0.00 0.00 0.00 0.00 0.00
0.00 0.01 0.03 0.11 0.25 0.22 0.22 0.19 0.13 0.08 0.05 0.01 0.01 0.01 0.01 0.01 0.02 0.01 0.01 0.02 0.10 0.07 0.10 0.08 0.08 0.01 0.00 0.00 0.00 0.02 0.01 0.00 0.00 0.00 0.00 0.00 0.00 0.00 0.00 0.00 0.00 0.00 0.00
0.00 0.00 0.00 0.01 0.08 0.19 0.33 0.22 0.18 0.12 0.07 0.04 0.01 0.03 0.02 0.06 0.12 0.13 0.06 0.08 0.12 0.07 0.11 0.11 0.08 0.01 0.00 0.00 0.00 0.01 0.01 0.01 0.00 0.00 0.00 0.00 0.00 0.00 0.00 0.00 0.00 0.00 0.00
0.00 0.00 0.00 0.00 0.02 0.05 0.15 0.18 0.16 0.12 0.09 0.06 0.03 0.06 0.14 0.13 0.18 0.17 0.24 0.26 0.21 0.16 0.12 0.13 0.15 0.14 0.07 0.01 0.00 0.00 0.00 0.01 0.01 0.00 0.00 0.00 0.00 0.00 0.00 0.01 0.01 0.00 0.00
0.00 0.00 0.00 0.00 0.01 0.05 0.06 0.12 0.14 0.14 0.12 0.06 0.02 0.02 0.08 0.18 0.19 0.20 0.25 0.34 0.31 0.25 0.23 0.22 0.31 0.31 0.24 0.13 0.04 0.01 0.01 0.03 0.08 0.03 0.00 0.00 0.00 0.00 0.00 0.01 0.01 0.02 0.02
0.00 0.00 0.00 0.00 0.00 0.01 0.01 0.05 0.08 0.06 0.08 0.12 0.08 0.12 0.10 0.14 0.21 0.20 0.18 0.27 0.31 0.42 0.61 0.67 0.78 0.65 0.52 0.32 0.15 0.05 0.02 0.03 0.05 0.11 0.07 0.01 0.00 0.00 0.00 0.01 0.04 0.02 0.02
0.00 0.00 0.00 0.00 0.00 0.00 0.00 0.03 0.05 0.10 0.08 0.07 0.10 0.10 0.09 0.10 0.14 0.21 0.17 0.15 0.29 0.44 0.57 0.55 0.61 0.72 0.75 0.65 0.40 0.22 0.17 0.12 0.11 0.09 0.06 0.02 0.00 0.00 0.00 0.00 0.03 0.05 0.03
0.00 0.00 0.00 0.00 0.00 0.00 0.00 0.04 0.09 0.12 0.10 0.11 0.11 0.12 0.11 0.13 0.14 0.18 0.21 0.27 0.34 0.37 0.42 0.48 0.59 0.62 0.70 0.61 0.51 0.56 0.74 0.76 0.49 0.31 0.16 0.07 0.02 0.01 0.00 0.00 0.01 0.04 0.04
0.00 0.00 0.00 0.00 0.00 0.00 0.00 0.04 0.10 0.16 0.12 0.18 0.14 0.15 0.12 0.09 0.12 0.21 0.24 0.26 0.33 0.34 0.34 0.38 0.46 0.52 0.47 0.45 0.45 0.36 0.30 0.44 0.68 0.76 0.67 0.53 0.35 0.21 0.10 0.04 0.03 0.02 0.02
0.00 0.00 0.00 0.00 0.00 0.00 0.01 0.01 0.04 0.05 0.08 0.19 0.23 0.19 0.15 0.12 0.09 0.10 0.18 0.17 0.17 0.16 0.16 0.22 0.31 0.33 0.26 0.33 0.40 0.20 0.15 0.11 0.10 0.09 0.17 0.28 0.30 0.25 0.22 0.15 0.09 0.05 0.02
0.00 0.00 0.00 0.00 0.00 0.03 0.05 0.08 0.08 0.07 0.11 0.13 0.19 0.25 0.23 0.14 0.13 0.11 0.09 0.17 0.19 0.24 0.23 0.19 0.18 0.18 0.18 0.28 0.30 0.27 0.15 0.06 0.04 0.05 0.08 0.08 0.09 0.14 0.16 0.13 0.14 0.09 0.05
0.00 0.00 0.00 0.00 0.00 0.06 0.12 0.11 0.07 0.07 0.10 0.11 0.11 0.11 0.17 0.23 0.27 0.35 0.27 0.22 0.22 0.25 0.22 0.20 0.18 0.19 0.17 0.19 0.22 0.20 0.10 0.04 0.01 0.03 0.04 0.03 0.03 0.04 0.04 0.07 0.09 0.10 0.10
0.02 0.02 0.02 0.03 0.06 0.16 0.25 0.19 0.20 0.18 0.20 0.23 0.20 0.23 0.27 0.24 0.32 0.58 0.70 0.46 0.40 0.47 0.38 0.37 0.33 0.30 0.35 0.20 0.30 0.30 0.24 0.13 0.05 0.01 0.01 0.02 0.05 0.04 0.05 0.09 0.07 0.04 0.02
0.14 0.15 0.15 0.27 0.17 0.21 0.30 0.52 0.59 0.54 0.56 0.48 0.40 0.48 0.46 0.45 0.52 0.42 0.52 0.83 0.74 0.91 0.98 0.71 0.55 0.52 0.54 0.47 0.42 0.39 0.37 0.37 0.30 0.20 0.11 0.04 0.04 0.03 0.04 0.07 0.09 0.07 0.09
0.16 0.23 0.21 0.24 0.34 0.34 0.58 0.74 0.68 0.91 0.88 0.90 1.09 0.90 1.05 0.97 0.79 0.69 0.99 1.03 1.20 1.06 0.93 1.19 1.16 1.05 0.89 0.61 0.51 0.54 0.44 0.29 0.23 0.23 0.20 0.12 0.10 0.07 0.08 0.07 0.07 0.07 0.09

GFSSE_prec_precacc24_126.txt.gz
Total_Precipitation_Accumulation
0.00 0.01 0.07 0.09 0.03 0.02 0.02 0.07 0.13 0.21 0.27 0.21 0.03 0.03 0.01 0.00 0.00 0.00 0.00 0.00 0.00 0.00 0.02 0.02 0.02 0.05 0.07 0.03 0.01 0.01 0.05 0.04 0.02 0.01 0.01 0.02 0.05 0.06 0.11 0.14 0.16 0.16 0.12
0.01 0.04 0.07 0.11 0.08 0.06 0.02 0.02 0.06 0.07 0.11 0.15 0.14 0.19 0.04 0.00 0.00 0.00 0.00 0.00 0.00 0.01 0.01 0.02 0.07 0.11 0.03 0.01 0.01 0.01 0.02 0.00 0.00 0.01 0.01 0.02 0.19 0.24 0.11 0.05 0.06 0.01 0.01
0.02 0.07 0.06 0.12 0.12 0.08 0.02 0.02 0.03 0.04 0.07 0.10 0.16 0.21 0.13 0.04 0.01 0.00 0.00 0.00 0.00 0.06 0.01 0.01 0.22 0.12 0.00 0.00 0.01 0.01 0.00 0.00 0.02 0.02 0.01 0.02 0.08 0.06 0.00 0.00 0.00 0.00 0.00
0.03 0.11 0.08 0.14 0.24 0.17 0.09 0.06 0.03 0.02 0.03 0.06 0.07 0.10 0.11 0.10 0.04 0.00 0.00 0.00 0.00 0.14 0.25 0.09 0.17 0.13 0.01 0.00 0.00 0.00 0.00 0.00 0.00 0.00 0.00 0.00 0.00 0.00 0.00 0.00 0.00 0.00 0.00
0.03 0.13 0.16 0.23 0.24 0.26 0.18 0.09 0.08 0.08 0.06 0.05 0.05 0.05 0.11 0.06 0.03 0.01 0.00 0.01 0.03 0.24 0.42 0.10 0.08 0.06 0.01 0.00 0.00 0.00 0.00 0.00 0.00 0.00 0.00 0.00 0.00 0.00 0.00 0.00 0.00 0.00 0.00
0.03 0.08 0.12 0.25 0.29 0.29 0.25 0.17 0.14 0.14 0.15 0.12 0.10 0.10 0.11 0.13 0.07 0.04 0.06 0.06 0.07 0.17 0.27 0.13 0.05 0.03 0.01 0.00 0.00 0.00 0.00 0.00 0.00 0.00 0.00 0.00 0.00 0.00 0.00 0.00 0.00 0.00 0.00
0.04 0.04 0.06 0.13 0.17 0.22 0.22 0.24 0.23 0.22 0.19 0.15 0.12 0.12 0.08 0.15 0.26 0.19 0.17 0.10 0.11 0.19 0.43 0.38 0.09 0.03 0.00 0.00 0.00 0.00 0.00 0.00 0.00 0.00 0.00 0.00 0.00 0.00 0.00 0.00 0.00 0.00 0.00
0.14 0.14 0.10 0.05 0.05 0.10 0.14 0.16 0.18 0.19 0.19 0.16 0.11 0.10 0.11 0.17 0.23 0.27 0.23 0.14 0.10 0.16 0.41 0.39 0.19 0.06 0.02 0.00 0.00 0.00 0.00 0.00 0.00 0.00 0.00 0.00 0.00 0.00 0.00 0.00 0.00 0.00 0.00
0.09 0.12 0.14 0.10 0.06 0.03 0.02 0.05 0.07 0.07 0.08 0.10 0.10 0.09 0.10 0.12 0.20 0.19 0.19 0.21 0.19 0.16 0.29 0.26 0.27 0.13 0.09 0.09 0.02 0.00 0.00 0.00 0.00 0.00 0.00 0.00 0.00 0.00 0.00 0.00 0.00 0.00 0.00
0.04 0.07 0.10 0.13 0.12 0.06 0.02 0.03 0.01 0.03 0.09 0.07 0.07 0.03 0.03 0.03 0.03 0.07 0.09 0.19 0.33 0.28 0.25 0.26 0.26 0.23 0.18 0.18 0.13 0.02 0.00 0.00 0.00 0.00 0.00 0.00 0.00 0.00 0.00 0.00 0.00 0.00 0.00
0.01 0.04 0.08 0.10 0.11 0.09 0.03 0.05 0.04 0.01 0.02 0.05 0.07 0.05 0.02 0.01 0.01 0.01 0.00 0.02 0.11 0.18 0.25 0.30 0.27 0.13 0.10 0.09 0.03 0.02 0.01 0.00 0.00 0.00 0.00 0.00 0.00 0.00 0.00 0.00 0.00 0.00 0.00
0.00 0.00 0.04 0.11 0.12 0.12 0.10 0.11 0.09 0.02 0.00 0.01 0.01 0.01 0.01 0.02 0.03 0.03 0.02 0.00 0.05 0.11 0.16 0.23 0.26 0.09 0.01 0.00 0.00 0.01 0.01 0.01 0.00 0.00 0.00 0.00 0.00 0.00 0.00 0.00 0.00 0.00 0.00
0.00 0.00 0.00 0.01 0.07 0.13 0.14 0.16 0.12 0.08 0.05 0.01 0.01 0.01 0.01 0.01 0.01 0.01 0.01 0.02 0.10 0.07 0.10 0.07 0.08 0.01 0.00 0.00 0.00 0.02 0.06 0.05 0.01 0.00 0.00 0.00 0.00 0.00 0.00 0.00 0.00 0.00 0.00
0.00 0.00 0.00 0.00 0.01 0.04 0.12 0.12 0.13 0.11 0.07 0.04 0.01 0.03 0.02 0.02 0.06 0.07 0.04 0.07 0.12 0.07 0.11 0.11 0.08 0.02 0.01 0.01 0.01 0.01 0.01 0.02 0.02 0.01 0.00 0.00 0.00 0.00 0.00 0.00 0.00 0.00 0.00
0.00 0.00 0.00 0.00 0.00 0.00 0.01 0.07 0.11 0.09 0.07 0.05 0.03 0.05 0.12 0.08 0.11 0.12 0.18 0.22 0.21 0.16 0.12 0.13 0.16 0.18 0.14 0.09 0.06 0.03 0.01 0.01 0.02 0.01 0.00 0.00 0.00 0.00 0.00 0.01 0.01 0.01 0.00
0.00 0.00 0.00 0.00 0.00 0.00 0.01 0.03 0.07 0.11 0.10 0.05 0.02 0.02 0.07 0.15 0.16 0.16 0.18 0.24 0.27 0.24 0.23 0.23 0.33 0.35 0.29 0.21 0.12 0.07 0.04 0.04 0.08 0.05 0.04 0.04 0.00 0.00 0.00 0.01 0.03 0.06 0.04
0.00 0.00 0.00 0.00 0.00 0.00 0.00 0.04 0.07 0.05 0.08 0.12 0.08 0.12 0.10 0.14 0.21 0.19 0.16 0.21 0.20 0.31 0.57 0.67 0.80 0.70 0.58 0.38 0.21 0.12 0.10 0.08 0.08 0.13 0.14 0.11 0.04 0.01 0.00 0.02 0.05 0.04 0.05
0.00 0.00 0.00 0.00 0.00 0.00 0.00 0.03 0.04 0.10 0.08 0.07 0.10 0.10 0.09 0.10 0.14 0.21 0.16 0.13 0.23 0.30 0.40 0.48 0.61 0.77 0.79 0.72 0.47 0.29 0.24 0.21 0.18 0.17 0.16 0.11 0.07 0.03 0.01 0.01 0.05 0.08 0.05
0.00 0.00 0.00 0.00 0.00 0.00 0.00 0.04 0.09 0.11 0.09 0.11 0.11 0.12 0.11 0.13 0.14 0.17 0.18 0.23 0.28 0.29 0.31 0.33 0.53 0.64 0.74 0.66 0.55 0.62 0.80 0.79 0.55 0.40 0.25 0.15 0.10 0.07 0.04 0.01 0.02 0.09 0.11
0.00 0.00 0.00 0.00 0.00 0.00 0.00 0.04 0.10 0.16 0.12 0.18 0.14 0.15 0.12 0.09 0.12 0.17 0.18 0.22 0.30 0.31 0.31 0.35 0.42 0.51 0.50 0.49 0.54 0.48 0.43 0.53 0.74 0.80 0.70 0.59 0.40 0.26 0.17 0.12 0.12 0.12 0.12
0.00 0.00 0.00 0.00 0.00 0.00 0.01 0.01 0.04 0.05 0.08 0.19 0.23 0.19 0.15 0.11 0.08 0.07 0.10 0.11 0.14 0.15 0.16 0.21 0.29 0.31 0.25 0.34 0.46 0.25 0.19 0.13 0.11 0.11 0.19 0.29 0.31 0.27 0.24 0.22 0.23 0.23 0.24
0.00 0.00 0.00 0.00 0.00 0.03 0.05 0.07 0.08 0.07 0.11 0.13 0.19 0.25 0.23 0.13 0.12 0.11 0.05 0.07 0.10 0.18 0.20 0.16 0.18 0.18 0.19 0.30 0.36 0.33 0.18 0.08 0.05 0.06 0.09 0.10 0.12 0.15 0.16 0.16 0.19 0.19 0.19
0.00 0.00 0.00 0.00 0.00 0.06 0.12 0.10 0.07 0.07 0.10 0.11 0.11 0.11 0.17 0.23 0.26 0.33 0.26 0.19 0.16 0.18 0.18 0.18 0.18 0.20 0.18 0.21 0.27 0.32 0.20 0.09 0.03 0.04 0.04 0.04 0.04 0.05 0.04 0.07 0.09 0.12 0.15
0.00 0.01 0.00 0.01 0.02 0.11 0.22 0.18 0.20 0.18 0.20 0.23 0.20 0.23 0.27 0.24 0.32 0.56 0.67 0.44 0.38 0.43 0.34 0.35 0.32 0.31 0.38 0.23 0.34 0.34 0.34 0.20 0.08 0.03 0.01 0.02 0.05 0.04 0.05 0.09 0.07 0.06 0.07
0.06 0.06 0.08 0.21 0.16 0.21 0.29 0.52 0.59 0.54 0.56 0.48 0.40 0.48 0.46 0.45 0.52 0.41 0.47 0.72 0.66 0.86 0.94 0.69 0.53 0.50 0.55 0.50 0.47 0.46 0.46 0.51 0.45 0.31 0.19 0.08 0.07 0.05 0.07 0.10 0.12 0.09 0.09
0.12 0.16 0.15 0.21 0.32 0.33 0.58 0.74 0.67 0.90 0.87 0.90 1.09 0.90 1.05 0.97 0.79 0.69 0.98 0.90 0.95 0.86 0.86 1.16 1.12 1.01 0.86 0.58 0.53 0.53 0.49 0.37 0.31 0.36 0.32 0.19 0.14 0.12 0.14 0.15 0.12 0.13 0.16

GFSSE_prec_precacc24_129.txt.gz
Total_Precipitation_Accumulation
0.00 0.01 0.08 0.16 0.07 0.03 0.04 0.11 0.16 0.21 0.28 0.24 0.04 0.02 0.01 0.00 0.00 0.00 0.00 0.00 0.00 0.00 0.00 0.01 0.02 0.05 0.06 0.02 0.01 0.01 0.05 0.03 0.01 0.00 0.01 0.03 0.04 0.05 0.09 0.10 0.13 0.11 0.04
0.01 0.04 0.09 0.16 0.09 0.07 0.02 0.03 0.06 0.07 0.11 0.15 0.14 0.19 0.04 0.00 0.00 0.00 0.00 0.00 0.00 0.01 0.00 0.02 0.07 0.10 0.03 0.01 0.01 0.01 0.02 0.00 0.00 0.01 0.01 0.02 0.18 0.24 0.10 0.04 0.04 0.00 0.01
0.02 0.08 0.09 0.15 0.13 0.10 0.03 0.01 0.03 0.03 0.07 0.11 0.17 0.21 0.14 0.05 0.01 0.00 0.00 0.00 0.00 0.06 0.01 0.00 0.24 0.14 0.01 0.00 0.01 0.01 0.00 0.00 0.02 0.02 0.01 0.03 0.10 0.07 0.00 0.00 0.00 0.00 0.00
0.03 0.12 0.09 0.16 0.25 0.18 0.10 0.06 0.04 0.03 0.04 0.07 0.07 0.11 0.13 0.12 0.04 0.00 0.00 0.00 0.00 0.12 0.18 0.04 0.17 0.17 0.09 0.02 0.00 0.00 0.00 0.00 0.00 0.00 0.00 0.00 0.02 0.00 0.00 0.00 0.00 0.00 0.00
0.03 0.13 0.17 0.25 0.26 0.27 0.18 0.10 0.10 0.11 0.09 0.08 0.08 0.08 0.12 0.11 0.08 0.02 0.00 0.00 0.00 0.15 0.32 0.08 0.11 0.08 0.08 0.03 0.00 0.00 0.00 0.00 0.00 0.00 0.00 0.00 0.00 0.00 0.00 0.00 0.00 0.00 0.00
0.03 0.08 0.12 0.25 0.30 0.29 0.25 0.19 0.16 0.16 0.18 0.15 0.13 0.13 0.12 0.16 0.15 0.11 0.11 0.03 0.03 0.12 0.24 0.13 0.07 0.04 0.03 0.00 0.00 0.00 0.00 0.00 0.00 0.00 0.00 0.00 0.00 0.00 0.00 0.00 0.00 0.00 0.00
0.02 0.04 0.06 0.12 0.17 0.22 0.22 0.22 0.21 0.21 0.20 0.17 0.14 0.12 0.10 0.15 0.26 0.25 0.21 0.11 0.10 0.16 0.42 0.38 0.09 0.05 0.04 0.02 0.00 0.00 0.00 0.00 0.00 0.00 0.00 0.00 0.00 0.00 0.00 0.00 0.00 0.00 0.00
0.02 0.07 0.08 0.05 0.04 0.10 0.14 0.16 0.17 0.16 0.17 0.16 0.13 0.12 0.10 0.15 0.18 0.26 0.22 0.15 0.12 0.16 0.42 0.40 0.20 0.06 0.06 0.08 0.04 0.00 0.00 0.00 0.00 0.00 0.00 0.00 0.00 0.00 0.00 0.00 0.00 0.00 0.00
0.01 0.03 0.06 0.06 0.04 0.03 0.02 0.05 0.07 0.07 0.07 0.08 0.08 0.08 0.10 0.10 0.14 0.15 0.16 0.15 0.18 0.19 0.33 0.30 0.31 0.16 0.10 0.15 0.15 0.04 0.01 0.00 0.00 0.00 0.00 0.00 0.00 0.00 0.00 0.00 0.00 0.00 0.00
0.00 0.01 0.02 0.05 0.05 0.02 0.00 0.00 0.00 0.03 0.09 0.07 0.06 0.03 0.03 0.03 0.02 0.05 0.07 0.09 0.22 0.24 0.26 0.28 0.28 0.26 0.21 0.20 0.21 0.18 0.03 0.00 0.00 0.00 0.00 0.00 0.00 0.00 0.00 0.00 0.00 0.00 0.00
0.00 0.00 0.00 0.01 0.04 0.03 0.01 0.01 0.01 0.00 0.02 0.05 0.07 0.05 0.02 0.01 0.01 0.01 0.00 0.00 0.08 0.15 0.26 0.31 0.29 0.15 0.12 0.10 0.05 0.04 0.03 0.00 0.00 0.00 0.00 0.00 0.00 0.00 0.00 0.00 0.00 0.00 0.00
0.00 0.00 0.00 0.00 0.01 0.06 0.06 0.08 0.05 0.01 0.00 0.01 0.01 0.01 0.01 0.02 0.03 0.03 0.02 0.00 0.04 0.09 0.16 0.24 0.27 0.10 0.01 0.00 0.00 0.01 0.02 0.04 0.02 0.00 0.00 0.00 0.00 0.00 0.00 0.00 0.00 0.00 0.00
0.00 0.00 0.00 0.00 0.00 0.01 0.06 0.10 0.08 0.06 0.03 0.01 0.01 0.01 0.01 0.01 0.01 0.01 0.01 0.02 0.10 0.07 0.10 0.07 0.08 0.02 0.00 0.00 0.00 0.02 0.06 0.06 0.03 0.01 0.00 0.00 0.00 0.00 0.00 0.00 0.00 0.00 0.00
0.00 0.00 0.00 0.00 0.00 0.00 0.00 0.04 0.08 0.09 0.07 0.04 0.01 0.03 0.02 0.01 0.02 0.02 0.01 0.06 0.12 0.07 0.11 0.11 0.08 0.02 0.01 0.02 0.02 0.02 0.03 0.03 0.02 0.01 0.00 0.00 0.00 0.00 0.00 0.00 0.01 0.01 0.00
0.00 0.00 0.00 0.00 0.00 0.00 0.01 0.01 0.04 0.05 0.07 0.05 0.03 0.05 0.11 0.05 0.05 0.05 0.09 0.13 0.17 0.14 0.11 0.13 0.16 0.18 0.14 0.09 0.08 0.07 0.04 0.03 0.02 0.01 0.00 0.01 0.01 0.00 0.00 0.01 0.02 0.03 0.01
0.00 0.00 0.00 0.00 0.00 0.00 0.00 0.01 0.00 0.02 0.03 0.03 0.02 0.02 0.06 0.13 0.13 0.14 0.14 0.15 0.14 0.16 0.19 0.22 0.33 0.35 0.30 0.21 0.13 0.08 0.06 0.06 0.11 0.07 0.05 0.07 0.05 0.02 0.01 0.02 0.03 0.09 0.09
0.00 0.00 0.00 0.00 0.00 0.00 0.00 0.03 0.02 0.01 0.04 0.09 0.08 0.12 0.09 0.14 0.20 0.18 0.15 0.20 0.17 0.27 0.52 0.62 0.76 0.69 0.58 0.39 0.21 0.13 0.13 0.11 0.10 0.16 0.17 0.13 0.09 0.07 0.04 0.03 0.06 0.05 0.08
0.00 0.00 0.00 0.00 0.00 0.00 0.00 0.03 0.03 0.06 0.04 0.05 0.08 0.10 0.09 0.10 0.14 0.21 0.16 0.13 0.22 0.30 0.39 0.42 0.48 0.65 0.77 0.72 0.47 0.31 0.28 0.26 0.23 0.20 0.20 0.13 0.10 0.07 0.08 0.04 0.07 0.09 0.06
0.00 0.00 0.00 0.00 0.00 0.00 0.00 0.02 0.05 0.10 0.06 0.07 0.10 0.12 0.11 0.13 0.14 0.17 0.18 0.23 0.26 0.27 0.30 0.31 0.41 0.48 0.62 0.62 0.55 0.63 0.81 0.81 0.57 0.42 0.30 0.19 0.14 0.12 0.10 0.09 0.06 0.11 0.11
0.00 0.00 0.00 0.00 0.00 0.00 0.00 0.02 0.08 0.15 0.11 0.14 0.10 0.14 0.12 0.09 0.12 0.17 0.18 0.22 0.28 0.27 0.25 0.29 0.34 0.40 0.42 0.45 0.52 0.49 0.47 0.60 0.80 0.83 0.72 0.64 0.45 0.31 0.24 0.22 0.22 0.19 0.16
0.00 0.00 0.00 0.00 0.00 0.00 0.00 0.00 0.03 0.05 0.08 0.16 0.20 0.18 0.15 0.11 0.08 0.06 0.09 0.10 0.11 0.14 0.15 0.20 0.26 0.28 0.23 0.32 0.45 0.25 0.21 0.19 0.16 0.12 0.21 0.32 0.35 0.30 0.27 0.30 0.31 0.31 0.30
0.00 0.00 0.00 0.00 0.00 0.00 0.01 0.03 0.07 0.07 0.11 0.13 0.19 0.25 0.23 0.13 0.12 0.11 0.04 0.07 0.09 0.15 0.19 0.16 0.18 0.19 0.19 0.30 0.37 0.36 0.20 0.12 0.08 0.08 0.11 0.12 0.17 0.29 0.27 0.22 0.23 0.22 0.21
0.00 0.00 0.00 0.00 0.00 0.00 0.01 0.05 0.06 0.07 0.10 0.11 0.11 0.11 0.17 0.23 0.26 0.33 0.26 0.18 0.14 0.15 0.16 0.18 0.18 0.21 0.19 0.22 0.33 0.42 0.29 0.15 0.09 0.07 0.04 0.05 0.08 0.13 0.16 0.13 0.11 0.13 0.15
0.00 0.00 0.00 0.01 0.01 0.01 0.08 0.10 0.17 0.18 0.20 0.23 0.20 0.23 0.27 0.24 0.32 0.56 0.67 0.44 0.38 0.41 0.29 0.31 0.30 0.29 0.38 0.24 0.38 0.47 0.52 0.36 0.18 0.06 0.02 0.03 0.06 0.06 0.08 0.11 0.08 0.07 0.07
0.03 0.02 0.02 0.12 0.11 0.15 0.25 0.50 0.58 0.53 0.56 0.48 0.40 0.48 0.46 0.45 0.52 0.41 0.47 0.72 0.66 0.86 0.93 0.66 0.48 0.45 0.51 0.50 0.54 0.58 0.66 0.71 0.61 0.44 0.24 0.13 0.10 0.08 0.11 0.15 0.15 0.11 0.08
0.04 0.06 0.03 0.05 0.13 0.23 0.51 0.71 0.65 0.89 0.87 0.90 1.09 0.90 1.05 0.97 0.79 0.69 0.98 0.90 0.94 0.86 0.86 1.15 1.11 0.98 0.83 0.59 0.56 0.60 0.58 0.46 0.38 0.39 0.34 0.21 0.14 0.11 0.15 0.21 0.23 0.20 0.21

GFSSE_prec_precacc24_132.txt.gz
Total_Precipitation_Accumulation
0.00 0.01 0.07 0.19 0.09 0.08 0.06 0.12 0.18 0.23 0.26 0.22 0.04 0.01 0.00 0.00 0.00 0.00 0.00 0.00 0.00 0.00 0.00 0.01 0.02 0.04 0.03 0.01 0.01 0.01 0.04 0.02 0.00 0.00 0.02 0.04 0.03 0.04 0.07 0.08 0.09 0.04 0.01
0.01 0.04 0.09 0.17 0.09 0.09 0.05 0.05 0.07 0.07 0.11 0.15 0.13 0.18 0.04 0.00 0.00 0.00 0.00 0.00 0.00 0.00 0.00 0.02 0.07 0.09 0.02 0.01 0.01 0.01 0.01 0.00 0.00 0.01 0.01 0.02 0.17 0.23 0.09 0.04 0.03 0.01 0.02
0.01 0.08 0.12 0.16 0.14 0.10 0.04 0.02 0.04 0.04 0.07 0.10 0.18 0.19 0.14 0.07 0.01 0.00 0.00 0.00 0.00 0.05 0.00 0.00 0.24 0.15 0.01 0.00 0.01 0.00 0.00 0.00 0.02 0.02 0.01 0.05 0.14 0.07 0.00 0.00 0.00 0.00 0.00
0.02 0.10 0.09 0.17 0.25 0.18 0.10 0.06 0.03 0.03 0.05 0.09 0.11 0.17 0.16 0.16 0.08 0.02 0.00 0.00 0.00 0.10 0.10 0.03 0.17 0.18 0.12 0.05 0.00 0.00 0.00 0.00 0.00 0.00 0.01 0.01 0.04 0.01 0.00 0.00 0.00 0.00 0.00
0.02 0.11 0.16 0.25 0.24 0.27 0.19 0.10 0.11 0.11 0.09 0.08 0.09 0.09 0.12 0.13 0.12 0.10 0.05 0.00 0.00 0.07 0.21 0.07 0.12 0.11 0.08 0.06 0.00 0.00 0.00 0.00 0.00 0.00 0.01 0.02 0.01 0.00 0.00 0.00 0.00 0.00 0.00
0.01 0.06 0.12 0.24 0.25 0.24 0.21 0.16 0.14 0.16 0.18 0.15 0.13 0.13 0.10 0.13 0.15 0.12 0.13 0.05 0.02 0.05 0.15 0.13 0.07 0.05 0.04 0.02 0.00 0.00 0.00 0.00 0.00 0.00 0.00 0.00 0.00 0.00 0.00 0.00 0.00 0.00 0.00
0.00 0.02 0.04 0.11 0.14 0.15 0.16 0.17 0.16 0.17 0.17 0.15 0.14 0.11 0.10 0.12 0.22 0.19 0.17 0.09 0.07 0.11 0.32 0.38 0.09 0.05 0.04 0.02 0.00 0.00 0.00 0.00 0.00 0.00 0.00 0.00 0.00 0.00 0.00 0.00 0.00 0.00 0.00
0.00 0.01 0.02 0.02 0.03 0.07 0.10 0.09 0.11 0.13 0.13 0.12 0.11 0.11 0.10 0.12 0.16 0.19 0.19 0.13 0.07 0.13 0.35 0.41 0.21 0.06 0.08 0.10 0.08 0.02 0.00 0.00 0.00 0.00 0.00 0.00 0.00 0.00 0.00 0.00 0.00 0.00 0.00
0.00 0.01 0.02 0.02 0.01 0.01 0.01 0.04 0.05 0.05 0.06 0.06 0.06 0.06 0.08 0.08 0.10 0.12 0.15 0.12 0.11 0.14 0.25 0.29 0.31 0.16 0.11 0.18 0.21 0.08 0.02 0.00 0.00 0.00 0.00 0.00 0.00 0.00 0.00 0.00 0.00 0.00 0.00
0.00 0.00 0.00 0.02 0.02 0.01 0.00 0.00 0.00 0.03 0.09 0.06 0.05 0.03 0.02 0.02 0.02 0.03 0.06 0.06 0.11 0.15 0.18 0.25 0.29 0.28 0.22 0.21 0.23 0.23 0.04 0.00 0.00 0.00 0.00 0.00 0.00 0.00 0.00 0.00 0.00 0.00 0.00
0.00 0.00 0.00 0.00 0.01 0.01 0.00 0.01 0.00 0.00 0.02 0.05 0.07 0.05 0.02 0.00 0.00 0.00 0.00 0.00 0.04 0.09 0.19 0.27 0.29 0.16 0.13 0.10 0.05 0.05 0.08 0.02 0.02 0.01 0.00 0.00 0.00 0.00 0.00 0.00 0.00 0.00 0.00
0.00 0.00 0.00 0.00 0.00 0.01 0.01 0.02 0.01 0.00 0.00 0.01 0.01 0.01 0.01 0.02 0.02 0.02 0.00 0.00 0.02 0.05 0.10 0.20 0.27 0.10 0.01 0.00 0.00 0.02 0.03 0.05 0.05 0.02 0.01 0.00 0.00 0.00 0.00 0.00 0.00 0.00 0.00
0.00 0.00 0.00 0.00 0.00 0.00 0.01 0.03 0.03 0.03 0.03 0.01 0.01 0.01 0.01 0.01 0.00 0.01 0.00 0.01 0.04 0.04 0.08 0.06 0.08 0.02 0.00 0.01 0.01 0.02 0.06 0.07 0.05 0.03 0.01 0.00 0.00 0.00 0.00 0.00 0.01 0.01 0.00
0.00 0.00 0.00 0.00 0.00 0.00 0.00 0.01 0.03 0.05 0.05 0.04 0.01 0.03 0.02 0.01 0.01 0.01 0.00 0.02 0.06 0.03 0.06 0.09 0.08 0.02 0.01 0.02 0.03 0.04 0.05 0.04 0.04 0.03 0.01 0.00 0.00 0.00 0.00 0.00 0.01 0.03 0.02
0.00 0.00 0.00 0.00 0.00 0.00 0.00 0.00 0.01 0.04 0.06 0.04 0.03 0.05 0.10 0.05 0.04 0.04 0.03 0.06 0.08 0.08 0.06 0.09 0.14 0.17 0.14 0.09 0.08 0.07 0.05 0.05 0.04 0.02 0.01 0.01 0.01 0.00 0.00 0.01 0.02 0.03 0.04
0.00 0.00 0.00 0.00 0.00 0.00 0.00 0.00 0.00 0.01 0.02 0.02 0.01 0.01 0.04 0.11 0.12 0.14 0.13 0.12 0.10 0.10 0.15 0.20 0.28 0.33 0.29 0.21 0.13 0.08 0.06 0.08 0.13 0.09 0.07 0.09 0.06 0.03 0.01 0.02 0.03 0.08 0.09
0.00 0.00 0.00 0.00 0.00 0.00 0.00 0.00 0.00 0.00 0.01 0.02 0.03 0.10 0.06 0.12 0.17 0.17 0.15 0.20 0.17 0.24 0.44 0.58 0.69 0.60 0.55 0.39 0.21 0.13 0.13 0.11 0.10 0.17 0.18 0.14 0.11 0.09 0.06 0.03 0.06 0.05 0.08
0.00 0.00 0.00 0.00 0.00 0.00 0.00 0.00 0.00 0.00 0.02 0.04 0.06 0.07 0.06 0.07 0.12 0.18 0.15 0.13 0.22 0.30 0.38 0.41 0.46 0.54 0.60 0.64 0.46 0.31 0.28 0.26 0.23 0.21 0.20 0.14 0.10 0.08 0.09 0.06 0.08 0.09 0.06
0.00 0.00 0.00 0.00 0.00 0.00 0.00 0.00 0.00 0.01 0.02 0.06 0.10 0.11 0.10 0.11 0.13 0.17 0.18 0.23 0.26 0.26 0.27 0.27 0.37 0.44 0.50 0.48 0.48 0.62 0.81 0.81 0.58 0.43 0.31 0.20 0.15 0.14 0.10 0.11 0.12 0.14 0.12
0.00 0.00 0.00 0.00 0.00 0.00 0.00 0.00 0.01 0.03 0.05 0.08 0.06 0.10 0.09 0.08 0.12 0.17 0.18 0.22 0.27 0.26 0.24 0.25 0.29 0.37 0.38 0.40 0.46 0.47 0.47 0.60 0.81 0.85 0.75 0.66 0.46 0.32 0.26 0.24 0.25 0.24 0.22
0.00 0.00 0.00 0.00 0.00 0.00 0.00 0.00 0.01 0.02 0.05 0.07 0.12 0.12 0.10 0.06 0.05 0.06 0.09 0.10 0.11 0.13 0.14 0.17 0.21 0.23 0.20 0.29 0.41 0.22 0.20 0.19 0.16 0.13 0.24 0.35 0.38 0.33 0.31 0.34 0.39 0.41 0.42
0.00 0.00 0.00 0.00 0.00 0.00 0.00 0.00 0.01 0.02 0.05 0.11 0.18 0.24 0.23 0.13 0.12 0.11 0.04 0.06 0.08 0.14 0.18 0.15 0.16 0.17 0.18 0.30 0.38 0.37 0.20 0.12 0.09 0.09 0.14 0.16 0.20 0.36 0.34 0.30 0.32 0.34 0.34
0.00 0.00 0.00 0.00 0.00 0.00 0.00 0.00 0.01 0.07 0.10 0.11 0.11 0.11 0.17 0.23 0.26 0.33 0.26 0.18 0.12 0.13 0.14 0.15 0.16 0.19 0.19 0.22 0.34 0.46 0.31 0.18 0.16 0.18 0.15 0.18 0.19 0.24 0.27 0.40 0.37 0.30 0.29
0.00 0.00 0.00 0.01 0.01 0.00 0.01 0.03 0.06 0.14 0.18 0.22 0.20 0.23 0.27 0.24 0.32 0.56 0.66 0.44 0.37 0.38 0.26 0.26 0.26 0.27 0.37 0.24 0.38 0.49 0.57 0.47 0.40 0.34 0.27 0.29 0.20 0.20 0.33 0.36 0.33 0.37 0.39
0.00 0.01 0.01 0.11 0.10 0.10 0.07 0.20 0.33 0.46 0.52 0.44 0.38 0.48 0.46 0.45 0.52 0.41 0.47 0.71 0.65 0.83 0.92 0.63 0.45 0.43 0.50 0.49 0.53 0.59 0.67 0.76 0.96 0.94 0.65 0.32 0.26 0.28 0.30 0.43 0.47 0.45 0.51
0.00 0.01 0.01 0.02 0.02 0.09 0.14 0.25 0.36 0.71 0.77 0.85 1.09 0.89 1.05 0.96 0.78 0.68 0.98 0.90 0.94 0.84 0.85 1.14 1.10 0.96 0.81 0.58 0.55 0.59 0.58 0.46 0.46 0.51 0.41 0.24 0.15 0.15 0.18 0.27 0.33 0.33 0.36

GFSSE_prec_precacc24_135.txt.gz
Total_Precipitation_Accumulation
0.00 0.01 0.07 0.23 0.10 0.09 0.07 0.16 0.23 0.23 0.24 0.21 0.08 0.00 0.00 0.00 0.00 0.00 0.00 0.00 0.00 0.00 0.00 0.01 0.02 0.04 0.01 0.00 0.01 0.00 0.04 0.01 0.00 0.00 0.02 0.03 0.03 0.04 0.05 0.06 0.03 0.01 0.01
0.00 0.04 0.10 0.17 0.10 0.11 0.06 0.06 0.10 0.08 0.11 0.14 0.15 0.18 0.04 0.00 0.00 0.00 0.00 0.00 0.00 0.00 0.00 0.03 0.08 0.07 0.01 0.01 0.01 0.00 0.01 0.00 0.00 0.01 0.01 0.02 0.15 0.21 0.07 0.02 0.00 0.01 0.03
0.01 0.08 0.14 0.15 0.12 0.11 0.05 0.02 0.05 0.05 0.07 0.10 0.21 0.24 0.17 0.13 0.02 0.00 0.00 0.00 0.00 0.00 0.00 0.00 0.24 0.15 0.01 0.00 0.01 0.00 0.00 0.00 0.02 0.02 0.01 0.05 0.16 0.07 0.00 0.00 0.00 0.00 0.00
0.02 0.07 0.08 0.16 0.20 0.15 0.08 0.05 0.03 0.03 0.04 0.07 0.09 0.18 0.16 0.17 0.09 0.03 0.00 0.00 0.00 0.05 0.03 0.02 0.16 0.18 0.13 0.06 0.00 0.00 0.00 0.00 0.00 0.00 0.01 0.03 0.08 0.01 0.00 0.00 0.00 0.00 0.00
0.01 0.07 0.13 0.23 0.19 0.17 0.13 0.06 0.07 0.09 0.08 0.07 0.08 0.08 0.10 0.12 0.12 0.11 0.05 0.02 0.01 0.04 0.09 0.05 0.12 0.13 0.10 0.06 0.00 0.00 0.00 0.00 0.00 0.00 0.01 0.04 0.07 0.01 0.00 0.00 0.00 0.00 0.00
0.00 0.04 0.11 0.24 0.23 0.19 0.16 0.13 0.11 0.13 0.15 0.13 0.12 0.13 0.10 0.13 0.15 0.11 0.13 0.05 0.01 0.01 0.06 0.13 0.07 0.05 0.05 0.02 0.00 0.00 0.00 0.00 0.00 0.00 0.00 0.00 0.00 0.00 0.00 0.00 0.00 0.00 0.00
0.00 0.00 0.04 0.10 0.12 0.11 0.10 0.12 0.12 0.13 0.13 0.12 0.11 0.09 0.10 0.12 0.22 0.19 0.18 0.09 0.04 0.03 0.19 0.35 0.12 0.08 0.05 0.05 0.01 0.00 0.00 0.00 0.00 0.00 0.00 0.00 0.00 0.00 0.00 0.00 0.00 0.00 0.00
0.00 0.00 0.01 0.02 0.02 0.05 0.05 0.05 0.07 0.09 0.10 0.09 0.08 0.08 0.06 0.09 0.12 0.14 0.18 0.14 0.08 0.06 0.18 0.27 0.23 0.09 0.09 0.14 0.12 0.07 0.03 0.01 0.00 0.00 0.00 0.00 0.00 0.00 0.00 0.00 0.00 0.00 0.00
0.00 0.00 0.00 0.00 0.00 0.00 0.01 0.01 0.01 0.03 0.04 0.05 0.05 0.05 0.05 0.05 0.07 0.07 0.11 0.09 0.09 0.12 0.17 0.15 0.27 0.16 0.11 0.19 0.24 0.10 0.02 0.00 0.00 0.00 0.00 0.00 0.00 0.00 0.00 0.00 0.00 0.00 0.00
0.00 0.00 0.00 0.00 0.00 0.00 0.00 0.00 0.00 0.02 0.04 0.03 0.03 0.02 0.02 0.02 0.00 0.01 0.02 0.04 0.07 0.08 0.12 0.13 0.23 0.28 0.23 0.22 0.23 0.24 0.04 0.00 0.01 0.00 0.00 0.00 0.00 0.00 0.00 0.00 0.00 0.00 0.00
0.00 0.00 0.00 0.00 0.00 0.00 0.00 0.00 0.00 0.00 0.02 0.03 0.06 0.04 0.02 0.00 0.00 0.00 0.00 0.00 0.01 0.04 0.08 0.14 0.20 0.16 0.14 0.10 0.05 0.05 0.08 0.02 0.03 0.02 0.00 0.00 0.00 0.00 0.00 0.00 0.00 0.00 0.00
0.00 0.00 0.00 0.00 0.00 0.00 0.00 0.01 0.00 0.00 0.00 0.01 0.01 0.01 0.01 0.02 0.02 0.02 0.00 0.00 0.00 0.01 0.05 0.10 0.16 0.08 0.01 0.00 0.00 0.03 0.03 0.05 0.05 0.03 0.01 0.00 0.00 0.00 0.00 0.00 0.00 0.00 0.00
0.00 0.00 0.00 0.00 0.00 0.00 0.00 0.00 0.00 0.01 0.01 0.01 0.01 0.01 0.01 0.01 0.00 0.01 0.00 0.00 0.00 0.00 0.02 0.03 0.05 0.02 0.00 0.01 0.01 0.03 0.08 0.10 0.05 0.04 0.02 0.00 0.00 0.00 0.00 0.00 0.01 0.02 0.01
0.00 0.00 0.00 0.00 0.00 0.00 0.00 0.00 0.00 0.01 0.02 0.02 0.01 0.03 0.02 0.01 0.01 0.01 0.00 0.00 0.01 0.01 0.01 0.02 0.02 0.01 0.01 0.02 0.03 0.04 0.06 0.06 0.05 0.04 0.03 0.02 0.00 0.00 0.00 0.00 0.01 0.03 0.02
0.00 0.00 0.00 0.00 0.00 0.00 0.00 0.00 0.00 0.00 0.01 0.02 0.02 0.05 0.10 0.05 0.03 0.02 0.02 0.02 0.04 0.03 0.02 0.03 0.07 0.13 0.13 0.09 0.08 0.07 0.05 0.05 0.05 0.04 0.02 0.03 0.02 0.01 0.00 0.01 0.01 0.03 0.04
0.00 0.00 0.00 0.00 0.00 0.00 0.00 0.00 0.00 0.00 0.00 0.01 0.01 0.01 0.03 0.08 0.07 0.06 0.05 0.05 0.03 0.05 0.09 0.15 0.24 0.27 0.26 0.20 0.12 0.08 0.06 0.08 0.13 0.09 0.08 0.11 0.07 0.04 0.02 0.03 0.03 0.07 0.08
0.00 0.00 0.00 0.00 0.00 0.00 0.00 0.00 0.00 0.00 0.00 0.02 0.03 0.10 0.06 0.11 0.14 0.13 0.12 0.15 0.13 0.16 0.33 0.44 0.52 0.47 0.38 0.29 0.18 0.13 0.13 0.11 0.10 0.17 0.19 0.16 0.13 0.10 0.07 0.06 0.10 0.07 0.07
0.00 0.00 0.00 0.00 0.00 0.00 0.00 0.00 0.00 0.00 0.00 0.02 0.05 0.06 0.04 0.04 0.07 0.10 0.09 0.08 0.18 0.25 0.33 0.38 0.44 0.49 0.50 0.47 0.38 0.30 0.28 0.26 0.23 0.21 0.20 0.15 0.12 0.10 0.11 0.09 0.13 0.12 0.07
0.00 0.00 0.00 0.00 0.00 0.00 0.00 0.00 0.00 0.00 0.00 0.03 0.07 0.09 0.09 0.09 0.08 0.07 0.08 0.12 0.19 0.22 0.24 0.24 0.32 0.39 0.47 0.46 0.46 0.61 0.81 0.81 0.58 0.43 0.31 0.20 0.16 0.16 0.12 0.16 0.18 0.22 0.22
0.00 0.00 0.00 0.00 0.00 0.00 0.00 0.00 0.00 0.00 0.01 0.05 0.06 0.10 0.09 0.08 0.11 0.13 0.08 0.08 0.16 0.22 0.22 0.23 0.25 0.32 0.34 0.37 0.43 0.43 0.45 0.60 0.81 0.85 0.75 0.66 0.47 0.33 0.28 0.27 0.29 0.31 0.31
0.00 0.00 0.00 0.00 0.00 0.00 0.00 0.00 0.00 0.00 0.00 0.02 0.07 0.12 0.10 0.05 0.04 0.05 0.09 0.09 0.09 0.13 0.14 0.16 0.19 0.19 0.16 0.25 0.35 0.19 0.18 0.18 0.16 0.13 0.24 0.35 0.38 0.34 0.33 0.36 0.41 0.45 0.49
0.00 0.00 0.00 0.00 0.00 0.00 0.00 0.00 0.00 0.00 0.00 0.00 0.08 0.20 0.23 0.13 0.12 0.07 0.03 0.04 0.07 0.14 0.18 0.15 0.15 0.16 0.16 0.27 0.36 0.35 0.19 0.11 0.09 0.09 0.14 0.17 0.21 0.40 0.40 0.39 0.41 0.41 0.41
0.00 0.00 0.00 0.00 0.00 0.00 0.00 0.00 0.00 0.01 0.02 0.04 0.04 0.09 0.17 0.23 0.25 0.32 0.26 0.17 0.09 0.10 0.14 0.15 0.15 0.16 0.15 0.19 0.31 0.46 0.32 0.19 0.17 0.18 0.16 0.20 0.27 0.36 0.44 0.62 0.67 0.51 0.43
0.00 0.00 0.00 0.01 0.01 0.00 0.01 0.00 0.01 0.03 0.04 0.07 0.09 0.16 0.25 0.22 0.30 0.54 0.65 0.43 0.35 0.34 0.24 0.25 0.24 0.23 0.31 0.20 0.35 0.47 0.57 0.48 0.43 0.35 0.28 0.32 0.47 1.08 1.35 1.02 0.71 0.81 0.99
0.00 0.00 0.00 0.02 0.02 0.04 0.03 0.08 0.11 0.20 0.23 0.18 0.23 0.37 0.40 0.42 0.49 0.36 0.42 0.65 0.59 0.78 0.87 0.58 0.41 0.38 0.44 0.44 0.51 0.58 0.67 0.75 0.96 0.94 0.67 0.49 0.46 0.90 0.77 0.68 0.61 0.53 0.85
0.00 0.00 0.00 0.00 0.00 0.03 0.04 0.10 0.13 0.17 0.21 0.26 0.75 0.75 0.99 0.90 0.74 0.65 0.96 0.88 0.91 0.80 0.79 1.08 1.04 0.89 0.74 0.52 0.50 0.57 0.57 0.45 0.45 0.51 0.41 0.24 0.15 0.16 0.21 0.30 0.45 0.53 0.48

GFSSE_prec_precacc24_138.txt.gz
Total_Precipitation_Accumulation
0.00 0.01 0.07 0.24 0.11 0.09 0.07 0.16 0.22 0.27 0.25 0.23 0.10 0.01 0.00 0.00 0.00 0.00 0.00 0.00 0.00 0.00 0.00 0.01 0.02 0.03 0.00 0.00 0.00 0.00 0.03 0.01 0.00 0.00 0.02 0.03 0.01 0.02 0.03 0.01 0.00 0.01 0.01
0.01 0.04 0.10 0.18 0.10 0.11 0.06 0.06 0.09 0.10 0.11 0.14 0.15 0.20 0.06 0.00 0.00 0.00 0.00 0.00 0.00 0.00 0.00 0.03 0.08 0.05 0.00 0.01 0.01 0.00 0.01 0.00 0.00 0.01 0.00 0.01 0.12 0.16 0.03 0.00 0.00 0.01 0.03
0.01 0.07 0.14 0.15 0.10 0.10 0.05 0.02 0.04 0.04 0.05 0.07 0.16 0.24 0.16 0.12 0.02 0.00 0.00 0.00 0.00 0.00 0.00 0.00 0.21 0.14 0.02 0.00 0.00 0.00 0.00 0.00 0.02 0.02 0.00 0.04 0.16 0.07 0.00 0.00 0.00 0.00 0.00
0.02 0.06 0.08 0.15 0.17 0.12 0.04 0.03 0.01 0.02 0.03 0.04 0.05 0.14 0.15 0.14 0.09 0.03 0.00 0.01 0.00 0.01 0.01 0.01 0.15 0.18 0.14 0.07 0.00 0.00 0.00 0.00 0.00 0.00 0.01 0.03 0.10 0.02 0.00 0.00 0.00 0.00 0.00
0.00 0.05 0.09 0.21 0.18 0.17 0.11 0.05 0.05 0.06 0.05 0.06 0.06 0.06 0.07 0.12 0.13 0.11 0.05 0.02 0.03 0.01 0.03 0.04 0.12 0.15 0.13 0.09 0.00 0.00 0.00 0.00 0.00 0.00 0.01 0.05 0.10 0.02 0.00 0.00 0.00 0.00 0.00
0.00 0.02 0.04 0.19 0.22 0.19 0.16 0.12 0.09 0.10 0.14 0.12 0.11 0.11 0.08 0.15 0.16 0.13 0.15 0.06 0.02 0.00 0.01 0.07 0.07 0.05 0.05 0.03 0.00 0.00 0.00 0.00 0.00 0.00 0.00 0.00 0.00 0.00 0.00 0.00 0.00 0.00 0.00
0.00 0.00 0.00 0.05 0.11 0.10 0.10 0.11 0.11 0.11 0.11 0.10 0.10 0.08 0.08 0.11 0.15 0.16 0.18 0.10 0.04 0.02 0.06 0.20 0.13 0.08 0.05 0.05 0.01 0.01 0.01 0.01 0.00 0.00 0.00 0.00 0.00 0.00 0.00 0.00 0.00 0.00 0.00
0.00 0.00 0.00 0.00 0.02 0.05 0.05 0.04 0.07 0.08 0.09 0.09 0.08 0.08 0.05 0.07 0.07 0.09 0.12 0.12 0.08 0.03 0.06 0.13 0.19 0.09 0.09 0.15 0.12 0.09 0.05 0.01 0.00 0.00 0.00 0.00 0.00 0.00 0.00 0.00 0.00 0.00 0.00
0.00 0.00 0.00 0.00 0.00 0.00 0.00 0.01 0.01 0.03 0.04 0.04 0.05 0.05 0.05 0.04 0.05 0.04 0.08 0.06 0.06 0.09 0.11 0.10 0.16 0.15 0.11 0.19 0.26 0.12 0.03 0.00 0.00 0.00 0.00 0.00 0.00 0.00 0.00 0.00 0.00 0.00 0.00
0.00 0.00 0.00 0.00 0.00 0.00 0.00 0.00 0.00 0.01 0.03 0.03 0.02 0.02 0.02 0.02 0.00 0.01 0.01 0.02 0.05 0.06 0.09 0.08 0.13 0.21 0.24 0.23 0.24 0.24 0.04 0.00 0.01 0.00 0.00 0.00 0.00 0.00 0.00 0.00 0.00 0.00 0.00
0.00 0.00 0.00 0.00 0.00 0.00 0.00 0.00 0.00 0.00 0.02 0.03 0.05 0.04 0.02 0.00 0.00 0.00 0.00 0.00 0.01 0.02 0.04 0.07 0.11 0.12 0.14 0.10 0.05 0.06 0.08 0.02 0.03 0.02 0.00 0.00 0.00 0.00 0.00 0.00 0.00 0.00 0.00
0.00 0.00 0.00 0.00 0.00 0.00 0.00 0.00 0.00 0.00 0.00 0.01 0.01 0.01 0.01 0.02 0.02 0.02 0.00 0.00 0.00 0.00 0.01 0.03 0.07 0.05 0.01 0.00 0.00 0.03 0.04 0.07 0.07 0.03 0.01 0.01 0.01 0.01 0.00 0.00 0.01 0.00 0.00
0.00 0.00 0.00 0.00 0.00 0.00 0.00 0.00 0.00 0.00 0.00 0.00 0.00 0.01 0.01 0.01 0.00 0.01 0.00 0.00 0.00 0.00 0.00 0.00 0.02 0.01 0.00 0.01 0.02 0.03 0.09 0.11 0.07 0.04 0.04 0.04 0.04 0.04 0.02 0.01 0.01 0.02 0.01
0.00 0.00 0.00 0.00 0.00 0.00 0.00 0.00 0.00 0.00 0.00 0.00 0.00 0.01 0.01 0.01 0.01 0.01 0.00 0.00 0.00 0.00 0.00 0.00 0.00 0.00 0.00 0.02 0.03 0.04 0.06 0.07 0.05 0.04 0.04 0.03 0.03 0.03 0.03 0.03 0.03 0.04 0.03
0.00 0.00 0.00 0.00 0.00 0.00 0.00 0.00 0.00 0.00 0.00 0.01 0.00 0.02 0.09 0.04 0.02 0.02 0.02 0.01 0.01 0.01 0.00 0.01 0.05 0.06 0.08 0.09 0.08 0.07 0.05 0.05 0.05 0.04 0.03 0.03 0.03 0.05 0.04 0.04 0.04 0.06 0.05
0.00 0.00 0.00 0.00 0.00 0.00 0.00 0.00 0.00 0.00 0.00 0.01 0.00 0.00 0.02 0.07 0.06 0.06 0.04 0.03 0.02 0.02 0.04 0.11 0.19 0.19 0.16 0.17 0.12 0.08 0.06 0.08 0.13 0.09 0.08 0.11 0.08 0.06 0.06 0.07 0.08 0.11 0.11
0.00 0.00 0.00 0.00 0.00 0.00 0.00 0.00 0.00 0.00 0.00 0.00 0.01 0.04 0.03 0.09 0.13 0.13 0.11 0.11 0.07 0.09 0.21 0.31 0.39 0.37 0.28 0.25 0.16 0.12 0.13 0.11 0.10 0.17 0.19 0.16 0.13 0.11 0.08 0.09 0.14 0.11 0.11
0.00 0.00 0.00 0.00 0.00 0.00 0.00 0.00 0.00 0.00 0.00 0.00 0.00 0.02 0.02 0.04 0.06 0.10 0.08 0.05 0.09 0.11 0.17 0.23 0.29 0.35 0.36 0.37 0.32 0.27 0.27 0.26 0.23 0.21 0.20 0.15 0.12 0.11 0.12 0.10 0.17 0.18 0.12
0.00 0.00 0.00 0.00 0.00 0.00 0.00 0.00 0.00 0.00 0.00 0.00 0.00 0.00 0.02 0.05 0.06 0.06 0.06 0.06 0.10 0.12 0.16 0.16 0.20 0.28 0.34 0.36 0.39 0.57 0.80 0.81 0.58 0.43 0.31 0.20 0.16 0.16 0.13 0.16 0.19 0.27 0.31
0.00 0.00 0.00 0.00 0.00 0.00 0.00 0.00 0.00 0.00 0.00 0.00 0.01 0.01 0.03 0.06 0.10 0.11 0.07 0.07 0.14 0.15 0.15 0.14 0.15 0.19 0.23 0.30 0.35 0.37 0.42 0.59 0.81 0.85 0.75 0.66 0.47 0.33 0.28 0.27 0.30 0.31 0.33
0.00 0.00 0.00 0.00 0.00 0.00 0.00 0.00 0.00 0.00 0.00 0.00 0.00 0.02 0.04 0.05 0.04 0.04 0.09 0.08 0.08 0.10 0.12 0.15 0.16 0.16 0.14 0.22 0.27 0.16 0.16 0.16 0.15 0.13 0.24 0.35 0.38 0.34 0.33 0.37 0.43 0.47 0.52
0.00 0.00 0.00 0.00 0.00 0.00 0.00 0.00 0.00 0.00 0.00 0.00 0.00 0.00 0.04 0.06 0.10 0.06 0.03 0.04 0.07 0.13 0.16 0.15 0.14 0.15 0.16 0.24 0.32 0.31 0.16 0.10 0.08 0.09 0.14 0.17 0.21 0.40 0.40 0.40 0.46 0.47 0.47
0.00 0.00 0.00 0.00 0.00 0.00 0.00 0.00 0.00 0.00 0.00 0.00 0.00 0.00 0.01 0.07 0.13 0.27 0.23 0.16 0.09 0.09 0.12 0.13 0.14 0.14 0.14 0.16 0.29 0.43 0.31 0.19 0.17 0.18 0.16 0.20 0.27 0.36 0.44 0.62 0.74 0.58 0.51
0.00 0.00 0.00 0.00 0.00 0.00 0.00 0.00 0.00 0.00 0.00 0.01 0.01 0.02 0.05 0.11 0.19 0.38 0.51 0.40 0.32 0.30 0.18 0.17 0.20 0.19 0.26 0.18 0.28 0.43 0.54 0.45 0.43 0.35 0.28 0.32 0.47 1.08 1.36 1.19 1.06 1.25 1.28
0.00 0.00 0.00 0.00 0.00 0.00 0.00 0.02 0.03 0.04 0.04 0.02 0.00 0.01 0.06 0.11 0.14 0.24 0.34 0.58 0.54 0.72 0.76 0.49 0.31 0.27 0.28 0.32 0.38 0.46 0.60 0.69 0.93 0.93 0.67 0.49 0.46 0.90 0.78 0.73 0.70 0.67 0.97
0.00 0.00 0.00 0.00 0.00 0.00 0.00 0.00 0.01 0.01 0.03 0.08 0.09 0.05 0.11 0.15 0.26 0.41 0.83 0.78 0.84 0.78 0.77 1.07 1.01 0.86 0.70 0.44 0.41 0.46 0.50 0.44 0.45 0.51 0.41 0.24 0.15 0.16 0.21 0.30 0.45 0.53 0.48